Wetterdaten: Donnerstag, 23.02.2017
Datum Zeit Temp. A. Temp. A. max Feuchte A. Luftdruck Regen Wind Richtung Richtung Sonnenschein ET UV Solar Taupunkt Windchill Windböen
23.02.2017 00:00 8,9 °C 8,9 °C 63 % 1011,6 hPa 0,0 mm 14,2 km/h (3 Bft) W 267 ° 0 min 0,000 mm 0,0 UV-I 0 W/m² 2,2 °C 6,7 °C 19,3 km/h (3 Bft)
23.02.2017 00:01 9,0 °C 9,0 °C 63 % 1011,6 hPa 0,0 mm 16,0 km/h (3 Bft) W-NW 303 ° 0 min 0,000 mm 0,0 UV-I 0 W/m² 2,3 °C 6,6 °C 24,1 km/h (4 Bft)
23.02.2017 00:02 8,9 °C 9,0 °C 64 % 1011,6 hPa 0,0 mm 11,0 km/h (2 Bft) W 267 ° 0 min 0,000 mm 0,0 UV-I 0 W/m² 2,5 °C 7,1 °C 16,1 km/h (3 Bft)
23.02.2017 00:03 9,0 °C 9,0 °C 63 % 1011,6 hPa 0,0 mm 13,5 km/h (3 Bft) W 267 ° 0 min 0,000 mm 0,0 UV-I 0 W/m² 2,3 °C 6,9 °C 17,7 km/h (3 Bft)
23.02.2017 00:04 9,0 °C 9,0 °C 63 % 1011,6 hPa 0,0 mm 11,5 km/h (2 Bft) W-NW 296 ° 0 min 0,000 mm 0,0 UV-I 0 W/m² 2,3 °C 7,2 °C 16,1 km/h (3 Bft)
23.02.2017 00:05 9,0 °C 9,0 °C 63 % 1011,5 hPa 0,0 mm 12,9 km/h (3 Bft) W 259 ° 0 min 0,000 mm 0,0 UV-I 0 W/m² 2,3 °C 7,0 °C 16,1 km/h (3 Bft)
23.02.2017 00:06 9,0 °C 9,0 °C 63 % 1011,6 hPa 0,0 mm 15,6 km/h (3 Bft) W 277 ° 0 min 0,000 mm 0,0 UV-I 0 W/m² 2,3 °C 6,6 °C 24,1 km/h (4 Bft)
23.02.2017 00:07 9,0 °C 9,0 °C 62 % 1011,6 hPa 0,0 mm 12,0 km/h (2 Bft) W 279 ° 0 min 0,000 mm 0,0 UV-I 0 W/m² 2,1 °C 7,1 °C 20,9 km/h (4 Bft)
23.02.2017 00:08 9,1 °C 9,1 °C 62 % 1011,5 hPa 0,0 mm 12,7 km/h (3 Bft) W 270 ° 0 min 0,000 mm 0,0 UV-I 0 W/m² 2,2 °C 7,1 °C 16,1 km/h (3 Bft)
23.02.2017 00:09 9,1 °C 9,1 °C 62 % 1011,5 hPa 0,0 mm 18,5 km/h (3 Bft) W 277 ° 0 min 0,000 mm 0,0 UV-I 0 W/m² 2,2 °C 6,4 °C 29,0 km/h (5 Bft)
23.02.2017 00:10 9,1 °C 9,1 °C 62 % 1011,5 hPa 0,0 mm 17,0 km/h (3 Bft) W 261 ° 0 min 0,000 mm 0,0 UV-I 0 W/m² 2,2 °C 6,6 °C 20,9 km/h (4 Bft)
23.02.2017 00:11 9,1 °C 9,1 °C 61 % 1011,5 hPa 0,0 mm 16,0 km/h (3 Bft) W-SW 254 ° 0 min 0,000 mm 0,0 UV-I 0 W/m² 2,0 °C 6,7 °C 19,3 km/h (3 Bft)
23.02.2017 00:12 9,1 °C 9,1 °C 61 % 1011,5 hPa 0,0 mm 15,8 km/h (3 Bft) W-NW 292 ° 0 min 0,000 mm 0,0 UV-I 0 W/m² 2,0 °C 6,7 °C 20,9 km/h (4 Bft)
23.02.2017 00:13 9,1 °C 9,1 °C 61 % 1011,5 hPa 0,0 mm 9,3 km/h (2 Bft) W 259 ° 0 min 0,000 mm 0,0 UV-I 0 W/m² 2,0 °C 7,7 °C 12,9 km/h (3 Bft)
23.02.2017 00:14 9,1 °C 9,2 °C 61 % 1011,5 hPa 0,0 mm 12,7 km/h (3 Bft) W 267 ° 0 min 0,000 mm 0,0 UV-I 0 W/m² 2,0 °C 7,1 °C 17,7 km/h (3 Bft)
23.02.2017 00:15 9,1 °C 9,1 °C 62 % 1011,4 hPa 0,0 mm 13,9 km/h (3 Bft) W-NW 302 ° 0 min 0,000 mm 0,0 UV-I 0 W/m² 2,2 °C 6,9 °C 24,1 km/h (4 Bft)
23.02.2017 00:16 9,1 °C 9,1 °C 61 % 1011,5 hPa 0,0 mm 14,0 km/h (3 Bft) W-SW 240 ° 0 min 0,000 mm 0,0 UV-I 0 W/m² 2,0 °C 6,9 °C 24,1 km/h (4 Bft)
23.02.2017 00:17 9,1 °C 9,1 °C 62 % 1011,5 hPa 0,0 mm 15,0 km/h (3 Bft) W-NW 284 ° 0 min 0,000 mm 0,0 UV-I 0 W/m² 2,2 °C 6,8 °C 19,3 km/h (3 Bft)
23.02.2017 00:18 9,1 °C 9,1 °C 62 % 1011,5 hPa 0,0 mm 15,3 km/h (3 Bft) W-NW 283 ° 0 min 0,000 mm 0,0 UV-I 0 W/m² 2,2 °C 6,8 °C 19,3 km/h (3 Bft)
23.02.2017 00:19 9,1 °C 9,1 °C 61 % 1011,6 hPa 0,0 mm 12,8 km/h (3 Bft) W 275 ° 0 min 0,000 mm 0,0 UV-I 0 W/m² 2,0 °C 7,1 °C 17,7 km/h (3 Bft)
23.02.2017 00:20 9,1 °C 9,1 °C 62 % 1011,5 hPa 0,0 mm 18,0 km/h (3 Bft) W 267 ° 0 min 0,000 mm 0,0 UV-I 0 W/m² 2,2 °C 6,5 °C 27,4 km/h (4 Bft)
23.02.2017 00:21 9,1 °C 9,1 °C 61 % 1011,5 hPa 0,0 mm 20,7 km/h (4 Bft) W 279 ° 0 min 0,000 mm 0,0 UV-I 0 W/m² 2,0 °C 6,2 °C 27,4 km/h (4 Bft)
23.02.2017 00:22 9,2 °C 9,2 °C 61 % 1011,5 hPa 0,0 mm 13,8 km/h (3 Bft) W 265 ° 0 min 0,000 mm 0,0 UV-I 0 W/m² 2,1 °C 7,1 °C 19,3 km/h (3 Bft)
23.02.2017 00:23 9,2 °C 9,2 °C 62 % 1011,6 hPa 0,0 mm 16,2 km/h (3 Bft) W-NW 287 ° 0 min 0,000 mm 0,0 UV-I 0 W/m² 2,3 °C 6,8 °C 25,7 km/h (4 Bft)
23.02.2017 00:24 9,2 °C 9,2 °C 62 % 1011,6 hPa 0,0 mm 13,7 km/h (3 Bft) W 277 ° 0 min 0,000 mm 0,0 UV-I 0 W/m² 2,3 °C 7,1 °C 20,9 km/h (4 Bft)
23.02.2017 00:25 9,2 °C 9,2 °C 62 % 1011,7 hPa 0,0 mm 16,5 km/h (3 Bft) W 275 ° 0 min 0,000 mm 0,0 UV-I 0 W/m² 2,3 °C 6,7 °C 22,5 km/h (4 Bft)
23.02.2017 00:26 9,2 °C 9,2 °C 62 % 1011,7 hPa 0,0 mm 14,2 km/h (3 Bft) W-NW 296 ° 0 min 0,000 mm 0,0 UV-I 0 W/m² 2,3 °C 7,0 °C 20,9 km/h (4 Bft)
23.02.2017 00:27 9,2 °C 9,2 °C 62 % 1011,6 hPa 0,0 mm 13,9 km/h (3 Bft) W 273 ° 0 min 0,000 mm 0,0 UV-I 0 W/m² 2,3 °C 7,1 °C 17,7 km/h (3 Bft)
23.02.2017 00:28 9,2 °C 9,2 °C 63 % 1011,6 hPa 0,0 mm 13,4 km/h (3 Bft) NW 318 ° 0 min 0,000 mm 0,0 UV-I 0 W/m² 2,5 °C 7,1 °C 17,7 km/h (3 Bft)
23.02.2017 00:29 9,1 °C 9,2 °C 63 % 1011,6 hPa 0,0 mm 12,6 km/h (3 Bft) W-NW 283 ° 0 min 0,000 mm 0,0 UV-I 0 W/m² 2,4 °C 7,1 °C 19,3 km/h (3 Bft)
23.02.2017 00:30 9,1 °C 9,1 °C 63 % 1011,6 hPa 0,0 mm 13,1 km/h (3 Bft) W-NW 286 ° 0 min 0,000 mm 0,0 UV-I 0 W/m² 2,4 °C 7,1 °C 17,7 km/h (3 Bft)
23.02.2017 00:31 9,1 °C 9,1 °C 63 % 1011,6 hPa 0,0 mm 14,8 km/h (3 Bft) W 277 ° 0 min 0,000 mm 0,0 UV-I 0 W/m² 2,4 °C 6,8 °C 17,7 km/h (3 Bft)
23.02.2017 00:32 9,1 °C 9,1 °C 63 % 1011,6 hPa 0,0 mm 11,8 km/h (2 Bft) W-NW 284 ° 0 min 0,000 mm 0,0 UV-I 0 W/m² 2,4 °C 7,3 °C 16,1 km/h (3 Bft)
23.02.2017 00:33 9,1 °C 9,1 °C 63 % 1011,6 hPa 0,0 mm 11,1 km/h (2 Bft) W 275 ° 0 min 0,000 mm 0,0 UV-I 0 W/m² 2,4 °C 7,4 °C 16,1 km/h (3 Bft)
23.02.2017 00:34 9,1 °C 9,1 °C 63 % 1011,6 hPa 0,0 mm 12,4 km/h (3 Bft) W 279 ° 0 min 0,000 mm 0,0 UV-I 0 W/m² 2,4 °C 7,2 °C 17,7 km/h (3 Bft)
23.02.2017 00:35 9,0 °C 9,1 °C 64 % 1011,6 hPa 0,0 mm 11,3 km/h (2 Bft) W 279 ° 0 min 0,000 mm 0,0 UV-I 0 W/m² 2,6 °C 7,2 °C 16,1 km/h (3 Bft)
23.02.2017 00:36 9,0 °C 9,0 °C 64 % 1011,6 hPa 0,0 mm 10,1 km/h (2 Bft) W 262 ° 0 min 0,000 mm 0,0 UV-I 0 W/m² 2,6 °C 7,4 °C 14,5 km/h (3 Bft)
23.02.2017 00:37 8,9 °C 9,0 °C 64 % 1011,6 hPa 0,0 mm 10,9 km/h (2 Bft) W 281 ° 0 min 0,000 mm 0,0 UV-I 0 W/m² 2,5 °C 7,2 °C 16,1 km/h (3 Bft)
23.02.2017 00:38 8,9 °C 8,9 °C 64 % 1011,6 hPa 0,0 mm 13,7 km/h (3 Bft) W-SW 244 ° 0 min 0,000 mm 0,0 UV-I 0 W/m² 2,5 °C 6,7 °C 17,7 km/h (3 Bft)
23.02.2017 00:39 8,9 °C 8,9 °C 64 % 1011,6 hPa 0,0 mm 10,8 km/h (2 Bft) W-SW 256 ° 0 min 0,000 mm 0,0 UV-I 0 W/m² 2,5 °C 7,2 °C 17,7 km/h (3 Bft)
23.02.2017 00:40 8,9 °C 8,9 °C 64 % 1011,6 hPa 0,0 mm 14,1 km/h (3 Bft) W-NW 291 ° 0 min 0,000 mm 0,0 UV-I 0 W/m² 2,5 °C 6,7 °C 20,9 km/h (4 Bft)
23.02.2017 00:41 8,9 °C 8,9 °C 64 % 1011,6 hPa 0,0 mm 12,7 km/h (3 Bft) W 277 ° 0 min 0,000 mm 0,0 UV-I 0 W/m² 2,5 °C 6,9 °C 17,7 km/h (3 Bft)
23.02.2017 00:42 8,9 °C 8,9 °C 64 % 1011,6 hPa 0,0 mm 9,3 km/h (2 Bft) W 267 ° 0 min 0,000 mm 0,0 UV-I 0 W/m² 2,5 °C 7,4 °C 17,7 km/h (3 Bft)
23.02.2017 00:43 8,9 °C 8,9 °C 64 % 1011,6 hPa 0,0 mm 11,4 km/h (2 Bft) W 272 ° 0 min 0,000 mm 0,0 UV-I 0 W/m² 2,5 °C 7,1 °C 14,5 km/h (3 Bft)
23.02.2017 00:44 8,9 °C 8,9 °C 64 % 1011,6 hPa 0,0 mm 11,8 km/h (2 Bft) W 279 ° 0 min 0,000 mm 0,0 UV-I 0 W/m² 2,5 °C 7,0 °C 17,7 km/h (3 Bft)
23.02.2017 00:45 8,9 °C 8,9 °C 64 % 1011,6 hPa 0,0 mm 10,2 km/h (2 Bft) W 261 ° 0 min 0,000 mm 0,0 UV-I 0 W/m² 2,5 °C 7,3 °C 17,7 km/h (3 Bft)
23.02.2017 00:46 8,9 °C 8,9 °C 64 % 1011,7 hPa 0,0 mm 13,9 km/h (3 Bft) W-SW 250 ° 0 min 0,000 mm 0,0 UV-I 0 W/m² 2,5 °C 6,7 °C 19,3 km/h (3 Bft)
23.02.2017 00:47 8,9 °C 8,9 °C 64 % 1011,8 hPa 0,0 mm 13,4 km/h (3 Bft) W-NW 282 ° 0 min 0,000 mm 0,0 UV-I 0 W/m² 2,5 °C 6,8 °C 17,7 km/h (3 Bft)
23.02.2017 00:48 8,9 °C 8,9 °C 64 % 1011,8 hPa 0,0 mm 12,8 km/h (3 Bft) W-SW 238 ° 0 min 0,000 mm 0,0 UV-I 0 W/m² 2,5 °C 6,9 °C 24,1 km/h (4 Bft)
23.02.2017 00:49 8,9 °C 8,9 °C 64 % 1011,8 hPa 0,0 mm 14,5 km/h (3 Bft) W-SW 244 ° 0 min 0,000 mm 0,0 UV-I 0 W/m² 2,5 °C 6,6 °C 24,1 km/h (4 Bft)
23.02.2017 00:50 8,9 °C 8,9 °C 63 % 1011,8 hPa 0,0 mm 18,1 km/h (3 Bft) W 276 ° 0 min 0,000 mm 0,0 UV-I 0 W/m² 2,2 °C 6,2 °C 24,1 km/h (4 Bft)
23.02.2017 00:51 8,9 °C 8,9 °C 63 % 1011,8 hPa 0,0 mm 13,5 km/h (3 Bft) W 267 ° 0 min 0,000 mm 0,0 UV-I 0 W/m² 2,2 °C 6,8 °C 19,3 km/h (3 Bft)
23.02.2017 00:52 9,0 °C 9,0 °C 63 % 1011,8 hPa 0,0 mm 13,2 km/h (3 Bft) W-SW 246 ° 0 min 0,000 mm 0,0 UV-I 0 W/m² 2,3 °C 6,9 °C 19,3 km/h (3 Bft)
23.02.2017 00:53 8,9 °C 9,0 °C 63 % 1011,8 hPa 0,0 mm 13,1 km/h (3 Bft) W 267 ° 0 min 0,000 mm 0,0 UV-I 0 W/m² 2,2 °C 6,8 °C 24,1 km/h (4 Bft)
23.02.2017 00:54 9,0 °C 9,0 °C 64 % 1011,8 hPa 0,0 mm 11,2 km/h (2 Bft) W-NW 289 ° 0 min 0,000 mm 0,0 UV-I 0 W/m² 2,6 °C 7,2 °C 17,7 km/h (3 Bft)
23.02.2017 00:55 8,9 °C 9,0 °C 64 % 1011,7 hPa 0,0 mm 13,1 km/h (3 Bft) W-SW 256 ° 0 min 0,000 mm 0,0 UV-I 0 W/m² 2,5 °C 6,8 °C 20,9 km/h (4 Bft)
23.02.2017 00:56 8,9 °C 8,9 °C 64 % 1011,7 hPa 0,0 mm 13,5 km/h (3 Bft) SW 228 ° 0 min 0,000 mm 0,0 UV-I 0 W/m² 2,5 °C 6,8 °C 20,9 km/h (4 Bft)
23.02.2017 00:57 8,9 °C 9,0 °C 64 % 1011,6 hPa 0,0 mm 11,8 km/h (2 Bft) W-NW 296 ° 0 min 0,000 mm 0,0 UV-I 0 W/m² 2,5 °C 7,0 °C 17,7 km/h (3 Bft)
23.02.2017 00:58 8,9 °C 8,9 °C 64 % 1011,6 hPa 0,0 mm 9,8 km/h (2 Bft) W 265 ° 0 min 0,000 mm 0,0 UV-I 0 W/m² 2,5 °C 7,4 °C 17,7 km/h (3 Bft)
23.02.2017 00:59 8,9 °C 8,9 °C 64 % 1011,7 hPa 0,0 mm 7,8 km/h (2 Bft) W-NW 290 ° 0 min 0,000 mm 0,0 UV-I 0 W/m² 2,5 °C 7,8 °C 11,3 km/h (2 Bft)
23.02.2017 01:00 8,9 °C 8,9 °C 64 % 1011,6 hPa 0,0 mm 10,1 km/h (2 Bft) W 274 ° 0 min 0,051 mm 0,0 UV-I 0 W/m² 2,5 °C 7,3 °C 14,5 km/h (3 Bft)
23.02.2017 01:01 8,9 °C 8,9 °C 64 % 1011,7 hPa 0,0 mm 12,9 km/h (3 Bft) W 277 ° 0 min 0,000 mm 0,0 UV-I 0 W/m² 2,5 °C 6,8 °C 19,3 km/h (3 Bft)
23.02.2017 01:02 8,9 °C 8,9 °C 64 % 1011,8 hPa 0,0 mm 11,1 km/h (2 Bft) W 277 ° 0 min 0,000 mm 0,0 UV-I 0 W/m² 2,5 °C 7,1 °C 14,5 km/h (3 Bft)
23.02.2017 01:03 8,9 °C 8,9 °C 64 % 1011,8 hPa 0,0 mm 11,5 km/h (2 Bft) W-SW 245 ° 0 min 0,000 mm 0,0 UV-I 0 W/m² 2,5 °C 7,1 °C 19,3 km/h (3 Bft)
23.02.2017 01:04 8,9 °C 8,9 °C 63 % 1011,6 hPa 0,0 mm 17,8 km/h (3 Bft) W 269 ° 0 min 0,000 mm 0,0 UV-I 0 W/m² 2,2 °C 6,2 °C 24,1 km/h (4 Bft)
23.02.2017 01:05 8,9 °C 8,9 °C 63 % 1011,6 hPa 0,0 mm 18,4 km/h (3 Bft) W-SW 254 ° 0 min 0,000 mm 0,0 UV-I 0 W/m² 2,2 °C 6,2 °C 25,7 km/h (4 Bft)
23.02.2017 01:06 8,9 °C 8,9 °C 63 % 1011,6 hPa 0,0 mm 17,0 km/h (3 Bft) W-SW 250 ° 0 min 0,000 mm 0,0 UV-I 0 W/m² 2,2 °C 6,3 °C 22,5 km/h (4 Bft)
23.02.2017 01:07 8,9 °C 8,9 °C 63 % 1011,6 hPa 0,0 mm 12,9 km/h (3 Bft) W 267 ° 0 min 0,000 mm 0,0 UV-I 0 W/m² 2,2 °C 6,8 °C 16,1 km/h (3 Bft)
23.02.2017 01:08 9,0 °C 9,0 °C 63 % 1011,6 hPa 0,0 mm 14,5 km/h (3 Bft) W-SW 255 ° 0 min 0,000 mm 0,0 UV-I 0 W/m² 2,3 °C 6,7 °C 27,4 km/h (4 Bft)
23.02.2017 01:09 9,0 °C 9,0 °C 63 % 1011,6 hPa 0,0 mm 16,4 km/h (3 Bft) W-SW 255 ° 0 min 0,000 mm 0,0 UV-I 0 W/m² 2,3 °C 6,5 °C 27,4 km/h (4 Bft)
23.02.2017 01:10 9,0 °C 9,1 °C 63 % 1011,6 hPa 0,0 mm 14,5 km/h (3 Bft) W-SW 245 ° 0 min 0,000 mm 0,0 UV-I 0 W/m² 2,3 °C 6,7 °C 19,3 km/h (3 Bft)
23.02.2017 01:11 9,1 °C 9,1 °C 63 % 1011,6 hPa 0,0 mm 20,8 km/h (4 Bft) W 277 ° 0 min 0,000 mm 0,0 UV-I 0 W/m² 2,4 °C 6,2 °C 33,8 km/h (5 Bft)
23.02.2017 01:12 9,1 °C 9,1 °C 63 % 1011,6 hPa 0,0 mm 15,6 km/h (3 Bft) W-SW 252 ° 0 min 0,000 mm 0,0 UV-I 0 W/m² 2,4 °C 6,7 °C 20,9 km/h (4 Bft)
23.02.2017 01:13 9,1 °C 9,1 °C 63 % 1011,6 hPa 0,0 mm 13,3 km/h (3 Bft) W 273 ° 0 min 0,000 mm 0,0 UV-I 0 W/m² 2,4 °C 7,0 °C 17,7 km/h (3 Bft)
23.02.2017 01:14 9,1 °C 9,1 °C 63 % 1011,6 hPa 0,0 mm 13,4 km/h (3 Bft) SW 235 ° 0 min 0,000 mm 0,0 UV-I 0 W/m² 2,4 °C 7,0 °C 19,3 km/h (3 Bft)
23.02.2017 01:15 9,1 °C 9,1 °C 63 % 1011,6 hPa 0,0 mm 17,1 km/h (3 Bft) W 267 ° 0 min 0,000 mm 0,0 UV-I 0 W/m² 2,4 °C 6,6 °C 29,0 km/h (5 Bft)
23.02.2017 01:16 9,1 °C 9,1 °C 63 % 1011,7 hPa 0,0 mm 17,2 km/h (3 Bft) W 266 ° 0 min 0,000 mm 0,0 UV-I 0 W/m² 2,4 °C 6,5 °C 25,7 km/h (4 Bft)
23.02.2017 01:17 9,1 °C 9,1 °C 63 % 1011,7 hPa 0,0 mm 19,7 km/h (3 Bft) W 268 ° 0 min 0,000 mm 0,0 UV-I 0 W/m² 2,4 °C 6,3 °C 33,8 km/h (5 Bft)
23.02.2017 01:18 9,1 °C 9,1 °C 62 % 1011,6 hPa 0,0 mm 17,5 km/h (3 Bft) W-SW 254 ° 0 min 0,000 mm 0,0 UV-I 0 W/m² 2,2 °C 6,5 °C 27,4 km/h (4 Bft)
23.02.2017 01:19 9,1 °C 9,1 °C 62 % 1011,6 hPa 0,0 mm 13,9 km/h (3 Bft) W 261 ° 0 min 0,000 mm 0,0 UV-I 0 W/m² 2,2 °C 6,9 °C 25,7 km/h (4 Bft)
23.02.2017 01:20 9,1 °C 9,2 °C 62 % 1011,6 hPa 0,0 mm 18,9 km/h (3 Bft) W-NW 296 ° 0 min 0,000 mm 0,0 UV-I 0 W/m² 2,2 °C 6,4 °C 25,7 km/h (4 Bft)
23.02.2017 01:21 9,1 °C 9,2 °C 62 % 1011,6 hPa 0,0 mm 16,7 km/h (3 Bft) W 277 ° 0 min 0,000 mm 0,0 UV-I 0 W/m² 2,2 °C 6,6 °C 24,1 km/h (4 Bft)
23.02.2017 01:22 9,2 °C 9,2 °C 62 % 1011,6 hPa 0,0 mm 18,2 km/h (3 Bft) W-SW 244 ° 0 min 0,000 mm 0,0 UV-I 0 W/m² 2,3 °C 6,6 °C 25,7 km/h (4 Bft)
23.02.2017 01:23 9,2 °C 9,2 °C 62 % 1011,6 hPa 0,0 mm 17,8 km/h (3 Bft) W 260 ° 0 min 0,000 mm 0,0 UV-I 0 W/m² 2,3 °C 6,6 °C 24,1 km/h (4 Bft)
23.02.2017 01:24 9,2 °C 9,2 °C 62 % 1011,6 hPa 0,0 mm 14,4 km/h (3 Bft) NW 313 ° 0 min 0,000 mm 0,0 UV-I 0 W/m² 2,3 °C 7,0 °C 20,9 km/h (4 Bft)
23.02.2017 01:25 9,2 °C 9,2 °C 62 % 1011,6 hPa 0,0 mm 12,3 km/h (3 Bft) W-NW 300 ° 0 min 0,000 mm 0,0 UV-I 0 W/m² 2,3 °C 7,3 °C 19,3 km/h (3 Bft)
23.02.2017 01:26 9,2 °C 9,2 °C 62 % 1011,6 hPa 0,0 mm 16,7 km/h (3 Bft) W-SW 248 ° 0 min 0,000 mm 0,0 UV-I 0 W/m² 2,3 °C 6,7 °C 22,5 km/h (4 Bft)
23.02.2017 01:27 9,1 °C 9,2 °C 63 % 1011,6 hPa 0,0 mm 18,8 km/h (3 Bft) W-SW 248 ° 0 min 0,000 mm 0,0 UV-I 0 W/m² 2,4 °C 6,4 °C 25,7 km/h (4 Bft)
23.02.2017 01:28 9,1 °C 9,1 °C 63 % 1011,6 hPa 0,0 mm 15,9 km/h (3 Bft) W 277 ° 0 min 0,000 mm 0,0 UV-I 0 W/m² 2,4 °C 6,7 °C 20,9 km/h (4 Bft)
23.02.2017 01:29 9,1 °C 9,1 °C 63 % 1011,6 hPa 0,0 mm 10,1 km/h (2 Bft) W-SW 254 ° 0 min 0,000 mm 0,0 UV-I 0 W/m² 2,4 °C 7,5 °C 14,5 km/h (3 Bft)
23.02.2017 01:30 9,1 °C 9,1 °C 63 % 1011,6 hPa 0,0 mm 17,4 km/h (3 Bft) W 267 ° 0 min 0,000 mm 0,0 UV-I 0 W/m² 2,4 °C 6,5 °C 30,6 km/h (5 Bft)
23.02.2017 01:31 9,1 °C 9,1 °C 63 % 1011,6 hPa 0,0 mm 10,7 km/h (2 Bft) W-SW 250 ° 0 min 0,000 mm 0,0 UV-I 0 W/m² 2,4 °C 7,4 °C 17,7 km/h (3 Bft)
23.02.2017 01:32 9,1 °C 9,1 °C 63 % 1011,6 hPa 0,0 mm 15,3 km/h (3 Bft) W-SW 239 ° 0 min 0,000 mm 0,0 UV-I 0 W/m² 2,4 °C 6,8 °C 24,1 km/h (4 Bft)
23.02.2017 01:33 9,1 °C 9,1 °C 63 % 1011,6 hPa 0,0 mm 13,5 km/h (3 Bft) S 184 ° 0 min 0,000 mm 0,0 UV-I 0 W/m² 2,4 °C 7,0 °C 19,3 km/h (3 Bft)
23.02.2017 01:34 9,1 °C 9,1 °C 63 % 1011,5 hPa 0,0 mm 19,7 km/h (3 Bft) W-SW 250 ° 0 min 0,000 mm 0,0 UV-I 0 W/m² 2,4 °C 6,3 °C 27,4 km/h (4 Bft)
23.02.2017 01:35 9,1 °C 9,1 °C 63 % 1011,5 hPa 0,0 mm 11,0 km/h (2 Bft) W-SW 254 ° 0 min 0,000 mm 0,0 UV-I 0 W/m² 2,4 °C 7,4 °C 19,3 km/h (3 Bft)
23.02.2017 01:36 9,1 °C 9,1 °C 63 % 1011,5 hPa 0,0 mm 9,5 km/h (2 Bft) W-SW 239 ° 0 min 0,000 mm 0,0 UV-I 0 W/m² 2,4 °C 7,6 °C 12,9 km/h (3 Bft)
23.02.2017 01:37 9,1 °C 9,1 °C 63 % 1011,5 hPa 0,0 mm 8,4 km/h (2 Bft) S-SW 213 ° 0 min 0,000 mm 0,0 UV-I 0 W/m² 2,4 °C 7,9 °C 12,9 km/h (3 Bft)
23.02.2017 01:38 9,1 °C 9,1 °C 63 % 1011,5 hPa 0,0 mm 9,2 km/h (2 Bft) W-SW 238 ° 0 min 0,000 mm 0,0 UV-I 0 W/m² 2,4 °C 7,7 °C 12,9 km/h (3 Bft)
23.02.2017 01:39 9,1 °C 9,1 °C 63 % 1011,5 hPa 0,0 mm 7,0 km/h (2 Bft) S-SW 212 ° 0 min 0,000 mm 0,0 UV-I 0 W/m² 2,4 °C 8,2 °C 11,3 km/h (2 Bft)
23.02.2017 01:40 9,1 °C 9,1 °C 63 % 1011,5 hPa 0,0 mm 6,6 km/h (2 Bft) W-SW 254 ° 0 min 0,000 mm 0,0 UV-I 0 W/m² 2,4 °C 8,3 °C 11,3 km/h (2 Bft)
23.02.2017 01:41 9,0 °C 9,1 °C 63 % 1011,4 hPa 0,0 mm 4,3 km/h (1 Bft) SW 235 ° 0 min 0,000 mm 0,0 UV-I 0 W/m² 2,3 °C 9,0 °C 6,4 km/h (2 Bft)
23.02.2017 01:42 8,9 °C 9,0 °C 64 % 1011,4 hPa 0,0 mm 3,7 km/h (1 Bft) SW 227 ° 0 min 0,000 mm 0,0 UV-I 0 W/m² 2,5 °C 8,9 °C 6,4 km/h (2 Bft)
23.02.2017 01:43 9,0 °C 9,0 °C 63 % 1011,4 hPa 0,0 mm 5,9 km/h (2 Bft) S-SW 210 ° 0 min 0,000 mm 0,0 UV-I 0 W/m² 2,3 °C 8,3 °C 12,9 km/h (3 Bft)
23.02.2017 01:44 8,9 °C 9,0 °C 63 % 1011,4 hPa 0,0 mm 6,8 km/h (2 Bft) W-NW 286 ° 0 min 0,000 mm 0,0 UV-I 0 W/m² 2,2 °C 8,0 °C 11,3 km/h (2 Bft)
23.02.2017 01:45 8,9 °C 8,9 °C 64 % 1011,5 hPa 0,0 mm 6,4 km/h (2 Bft) S-SW 211 ° 0 min 0,000 mm 0,0 UV-I 0 W/m² 2,5 °C 8,1 °C 8,0 km/h (2 Bft)
23.02.2017 01:46 8,9 °C 8,9 °C 64 % 1011,5 hPa 0,0 mm 5,2 km/h (1 Bft) SW 221 ° 0 min 0,000 mm 0,0 UV-I 0 W/m² 2,5 °C 8,4 °C 9,7 km/h (2 Bft)
23.02.2017 01:47 8,9 °C 8,9 °C 63 % 1011,5 hPa 0,0 mm 10,5 km/h (2 Bft) W-SW 248 ° 0 min 0,000 mm 0,0 UV-I 0 W/m² 2,2 °C 7,2 °C 14,5 km/h (3 Bft)
23.02.2017 01:48 8,9 °C 8,9 °C 63 % 1011,5 hPa 0,0 mm 8,7 km/h (2 Bft) W-SW 257 ° 0 min 0,000 mm 0,0 UV-I 0 W/m² 2,2 °C 7,6 °C 12,9 km/h (3 Bft)
23.02.2017 01:49 8,8 °C 8,9 °C 64 % 1011,5 hPa 0,0 mm 9,2 km/h (2 Bft) SW 229 ° 0 min 0,000 mm 0,0 UV-I 0 W/m² 2,4 °C 7,3 °C 12,9 km/h (3 Bft)
23.02.2017 01:50 8,8 °C 8,8 °C 64 % 1011,5 hPa 0,0 mm 8,4 km/h (2 Bft) W-SW 240 ° 0 min 0,000 mm 0,0 UV-I 0 W/m² 2,4 °C 7,5 °C 14,5 km/h (3 Bft)
23.02.2017 01:51 8,8 °C 8,8 °C 65 % 1011,5 hPa 0,0 mm 7,2 km/h (2 Bft) W-NW 293 ° 0 min 0,000 mm 0,0 UV-I 0 W/m² 2,6 °C 7,8 °C 11,3 km/h (2 Bft)
23.02.2017 01:52 8,8 °C 8,8 °C 64 % 1011,5 hPa 0,0 mm 8,6 km/h (2 Bft) SW 229 ° 0 min 0,000 mm 0,0 UV-I 0 W/m² 2,4 °C 7,5 °C 12,9 km/h (3 Bft)
23.02.2017 01:53 8,7 °C 8,8 °C 65 % 1011,5 hPa 0,0 mm 13,7 km/h (3 Bft) W-SW 250 ° 0 min 0,000 mm 0,0 UV-I 0 W/m² 2,5 °C 6,5 °C 17,7 km/h (3 Bft)
23.02.2017 01:54 8,7 °C 8,7 °C 65 % 1011,4 hPa 0,0 mm 10,7 km/h (2 Bft) SW 232 ° 0 min 0,000 mm 0,0 UV-I 0 W/m² 2,5 °C 7,0 °C 17,7 km/h (3 Bft)
23.02.2017 01:55 8,7 °C 8,7 °C 65 % 1011,5 hPa 0,0 mm 11,9 km/h (2 Bft) W-SW 257 ° 0 min 0,000 mm 0,0 UV-I 0 W/m² 2,5 °C 6,8 °C 16,1 km/h (3 Bft)
23.02.2017 01:56 8,7 °C 8,7 °C 65 % 1011,5 hPa 0,0 mm 16,2 km/h (3 Bft) W-SW 250 ° 0 min 0,000 mm 0,0 UV-I 0 W/m² 2,5 °C 6,2 °C 20,9 km/h (4 Bft)
23.02.2017 01:57 8,7 °C 8,7 °C 66 % 1011,5 hPa 0,0 mm 12,6 km/h (3 Bft) S 190 ° 0 min 0,000 mm 0,0 UV-I 0 W/m² 2,7 °C 6,6 °C 20,9 km/h (4 Bft)
23.02.2017 01:58 8,7 °C 8,7 °C 65 % 1011,5 hPa 0,0 mm 14,1 km/h (3 Bft) W-SW 248 ° 0 min 0,000 mm 0,0 UV-I 0 W/m² 2,5 °C 6,4 °C 19,3 km/h (3 Bft)
23.02.2017 01:59 8,6 °C 8,7 °C 65 % 1011,5 hPa 0,0 mm 11,8 km/h (2 Bft) W-SW 248 ° 0 min 0,000 mm 0,0 UV-I 0 W/m² 2,4 °C 6,7 °C 19,3 km/h (3 Bft)
23.02.2017 02:00 8,6 °C 8,6 °C 65 % 1011,5 hPa 0,0 mm 8,9 km/h (2 Bft) W-SW 256 ° 0 min 0,051 mm 0,0 UV-I 0 W/m² 2,4 °C 7,2 °C 12,9 km/h (3 Bft)
23.02.2017 02:01 8,6 °C 8,6 °C 66 % 1011,4 hPa 0,0 mm 12,8 km/h (3 Bft) W-SW 245 ° 0 min 0,000 mm 0,0 UV-I 0 W/m² 2,6 °C 6,5 °C 22,5 km/h (4 Bft)
23.02.2017 02:02 8,6 °C 8,6 °C 65 % 1011,4 hPa 0,0 mm 8,6 km/h (2 Bft) SW 219 ° 0 min 0,000 mm 0,0 UV-I 0 W/m² 2,4 °C 7,2 °C 16,1 km/h (3 Bft)
23.02.2017 02:03 8,6 °C 8,6 °C 65 % 1011,4 hPa 0,0 mm 13,3 km/h (3 Bft) W-NW 286 ° 0 min 0,000 mm 0,0 UV-I 0 W/m² 2,4 °C 6,4 °C 17,7 km/h (3 Bft)
23.02.2017 02:04 8,6 °C 8,6 °C 66 % 1011,4 hPa 0,0 mm 8,9 km/h (2 Bft) SW 229 ° 0 min 0,000 mm 0,0 UV-I 0 W/m² 2,6 °C 7,2 °C 12,9 km/h (3 Bft)
23.02.2017 02:05 8,6 °C 8,6 °C 66 % 1011,4 hPa 0,0 mm 6,2 km/h (2 Bft) W 261 ° 0 min 0,000 mm 0,0 UV-I 0 W/m² 2,6 °C 7,8 °C 9,7 km/h (2 Bft)
23.02.2017 02:06 8,6 °C 8,6 °C 66 % 1011,4 hPa 0,0 mm 6,8 km/h (2 Bft) W 263 ° 0 min 0,000 mm 0,0 UV-I 0 W/m² 2,6 °C 7,6 °C 12,9 km/h (3 Bft)
23.02.2017 02:07 8,5 °C 8,6 °C 66 % 1011,4 hPa 0,0 mm 13,3 km/h (3 Bft) W-SW 248 ° 0 min 0,000 mm 0,0 UV-I 0 W/m² 2,5 °C 6,3 °C 20,9 km/h (4 Bft)
23.02.2017 02:08 8,5 °C 8,6 °C 66 % 1011,4 hPa 0,0 mm 10,8 km/h (2 Bft) W 271 ° 0 min 0,000 mm 0,0 UV-I 0 W/m² 2,5 °C 6,7 °C 16,1 km/h (3 Bft)
23.02.2017 02:09 8,5 °C 8,5 °C 66 % 1011,4 hPa 0,0 mm 10,4 km/h (2 Bft) SW 234 ° 0 min 0,000 mm 0,0 UV-I 0 W/m² 2,5 °C 6,8 °C 14,5 km/h (3 Bft)
23.02.2017 02:10 8,5 °C 8,5 °C 67 % 1011,4 hPa 0,0 mm 6,3 km/h (2 Bft) W-SW 251 ° 0 min 0,000 mm 0,0 UV-I 0 W/m² 2,7 °C 7,7 °C 9,7 km/h (2 Bft)
23.02.2017 02:11 8,5 °C 8,5 °C 66 % 1011,4 hPa 0,0 mm 9,9 km/h (2 Bft) SW 234 ° 0 min 0,000 mm 0,0 UV-I 0 W/m² 2,5 °C 6,9 °C 19,3 km/h (3 Bft)
23.02.2017 02:12 8,4 °C 8,5 °C 67 % 1011,4 hPa 0,0 mm 10,8 km/h (2 Bft) W-SW 249 ° 0 min 0,000 mm 0,0 UV-I 0 W/m² 2,6 °C 6,6 °C 14,5 km/h (3 Bft)
23.02.2017 02:13 8,4 °C 8,5 °C 67 % 1011,3 hPa 0,0 mm 10,1 km/h (2 Bft) SW 228 ° 0 min 0,000 mm 0,0 UV-I 0 W/m² 2,6 °C 6,7 °C 14,5 km/h (3 Bft)
23.02.2017 02:14 8,4 °C 8,5 °C 67 % 1011,2 hPa 0,0 mm 9,5 km/h (2 Bft) SW 236 ° 0 min 0,000 mm 0,0 UV-I 0 W/m² 2,6 °C 6,8 °C 14,5 km/h (3 Bft)
23.02.2017 02:15 8,4 °C 8,4 °C 66 % 1011,2 hPa 0,0 mm 9,5 km/h (2 Bft) SW 226 ° 0 min 0,000 mm 0,0 UV-I 0 W/m² 2,4 °C 6,8 °C 16,1 km/h (3 Bft)
23.02.2017 02:16 8,4 °C 8,4 °C 67 % 1011,2 hPa 0,0 mm 7,4 km/h (2 Bft) W-SW 245 ° 0 min 0,000 mm 0,0 UV-I 0 W/m² 2,6 °C 7,3 °C 11,3 km/h (2 Bft)
23.02.2017 02:17 8,4 °C 8,4 °C 67 % 1011,2 hPa 0,0 mm 7,0 km/h (2 Bft) W-SW 249 ° 0 min 0,000 mm 0,0 UV-I 0 W/m² 2,6 °C 7,4 °C 11,3 km/h (2 Bft)
23.02.2017 02:18 8,3 °C 8,4 °C 68 % 1011,1 hPa 0,0 mm 11,8 km/h (2 Bft) SW 228 ° 0 min 0,000 mm 0,0 UV-I 0 W/m² 2,7 °C 6,3 °C 19,3 km/h (3 Bft)
23.02.2017 02:19 8,3 °C 8,3 °C 67 % 1011,1 hPa 0,0 mm 15,2 km/h (3 Bft) S-SW 199 ° 0 min 0,000 mm 0,0 UV-I 0 W/m² 2,5 °C 5,8 °C 20,9 km/h (4 Bft)
23.02.2017 02:20 8,3 °C 8,3 °C 67 % 1011,1 hPa 0,0 mm 12,1 km/h (2 Bft) W-SW 257 ° 0 min 0,000 mm 0,0 UV-I 0 W/m² 2,5 °C 6,2 °C 19,3 km/h (3 Bft)
23.02.2017 02:21 8,2 °C 8,3 °C 67 % 1011,1 hPa 0,0 mm 11,8 km/h (2 Bft) W-SW 256 ° 0 min 0,000 mm 0,0 UV-I 0 W/m² 2,4 °C 6,2 °C 16,1 km/h (3 Bft)
23.02.2017 02:22 8,2 °C 8,3 °C 67 % 1011,1 hPa 0,0 mm 9,1 km/h (2 Bft) W-SW 239 ° 0 min 0,000 mm 0,0 UV-I 0 W/m² 2,4 °C 6,7 °C 12,9 km/h (3 Bft)
23.02.2017 02:23 8,3 °C 8,3 °C 67 % 1011,1 hPa 0,0 mm 11,0 km/h (2 Bft) S-SW 194 ° 0 min 0,000 mm 0,0 UV-I 0 W/m² 2,5 °C 6,4 °C 14,5 km/h (3 Bft)
23.02.2017 02:24 8,2 °C 8,3 °C 67 % 1011,0 hPa 0,0 mm 10,8 km/h (2 Bft) SW 223 ° 0 min 0,000 mm 0,0 UV-I 0 W/m² 2,4 °C 6,3 °C 16,1 km/h (3 Bft)
23.02.2017 02:25 8,2 °C 8,2 °C 67 % 1011,0 hPa 0,0 mm 15,4 km/h (3 Bft) W-SW 251 ° 0 min 0,000 mm 0,0 UV-I 0 W/m² 2,4 °C 5,6 °C 22,5 km/h (4 Bft)
23.02.2017 02:26 8,2 °C 8,2 °C 67 % 1011,1 hPa 0,0 mm 10,6 km/h (2 Bft) W-SW 248 ° 0 min 0,000 mm 0,0 UV-I 0 W/m² 2,4 °C 6,4 °C 20,9 km/h (4 Bft)
23.02.2017 02:27 8,1 °C 8,2 °C 68 % 1011,0 hPa 0,0 mm 7,6 km/h (2 Bft) W-SW 256 ° 0 min 0,000 mm 0,0 UV-I 0 W/m² 2,6 °C 6,9 °C 11,3 km/h (2 Bft)
23.02.2017 02:28 8,1 °C 8,1 °C 68 % 1011,0 hPa 0,0 mm 7,2 km/h (2 Bft) W 265 ° 0 min 0,000 mm 0,0 UV-I 0 W/m² 2,6 °C 7,0 °C 12,9 km/h (3 Bft)
23.02.2017 02:29 8,0 °C 8,1 °C 68 % 1011,0 hPa 0,0 mm 13,9 km/h (3 Bft) W-SW 254 ° 0 min 0,000 mm 0,0 UV-I 0 W/m² 2,5 °C 5,6 °C 20,9 km/h (4 Bft)
23.02.2017 02:30 8,0 °C 8,1 °C 68 % 1011,1 hPa 0,0 mm 9,6 km/h (2 Bft) S-SW 213 ° 0 min 0,000 mm 0,0 UV-I 0 W/m² 2,5 °C 6,3 °C 16,1 km/h (3 Bft)
23.02.2017 02:31 7,8 °C 8,0 °C 68 % 1011,1 hPa 0,0 mm 10,5 km/h (2 Bft) W 265 ° 0 min 0,000 mm 0,0 UV-I 0 W/m² 2,3 °C 5,9 °C 17,7 km/h (3 Bft)
23.02.2017 02:32 7,8 °C 7,9 °C 68 % 1011,0 hPa 0,0 mm 7,6 km/h (2 Bft) SW 219 ° 0 min 0,000 mm 0,0 UV-I 0 W/m² 2,3 °C 6,5 °C 11,3 km/h (2 Bft)
23.02.2017 02:33 7,8 °C 7,8 °C 69 % 1011,1 hPa 0,0 mm 7,3 km/h (2 Bft) W-SW 254 ° 0 min 0,000 mm 0,0 UV-I 0 W/m² 2,5 °C 6,6 °C 12,9 km/h (3 Bft)
23.02.2017 02:34 7,7 °C 7,8 °C 69 % 1011,1 hPa 0,0 mm 9,3 km/h (2 Bft) SW 220 ° 0 min 0,000 mm 0,0 UV-I 0 W/m² 2,4 °C 6,0 °C 12,9 km/h (3 Bft)
23.02.2017 02:35 7,7 °C 7,7 °C 69 % 1011,0 hPa 0,0 mm 6,8 km/h (2 Bft) SW 230 ° 0 min 0,000 mm 0,0 UV-I 0 W/m² 2,4 °C 6,6 °C 11,3 km/h (2 Bft)
23.02.2017 02:36 7,7 °C 7,7 °C 69 % 1011,0 hPa 0,0 mm 9,9 km/h (2 Bft) SW 233 ° 0 min 0,000 mm 0,0 UV-I 0 W/m² 2,4 °C 5,9 °C 14,5 km/h (3 Bft)
23.02.2017 02:37 7,7 °C 7,7 °C 69 % 1011,1 hPa 0,0 mm 7,4 km/h (2 Bft) SW 236 ° 0 min 0,000 mm 0,0 UV-I 0 W/m² 2,4 °C 6,4 °C 11,3 km/h (2 Bft)
23.02.2017 02:38 7,7 °C 7,7 °C 69 % 1011,0 hPa 0,0 mm 5,5 km/h (1 Bft) W 269 ° 0 min 0,000 mm 0,0 UV-I 0 W/m² 2,4 °C 7,0 °C 8,0 km/h (2 Bft)
23.02.2017 02:39 7,6 °C 7,7 °C 69 % 1010,9 hPa 0,0 mm 7,6 km/h (2 Bft) W-SW 250 ° 0 min 0,000 mm 0,0 UV-I 0 W/m² 2,3 °C 6,3 °C 11,3 km/h (2 Bft)
23.02.2017 02:40 7,6 °C 7,6 °C 69 % 1010,9 hPa 0,0 mm 7,5 km/h (2 Bft) SW 227 ° 0 min 0,000 mm 0,0 UV-I 0 W/m² 2,3 °C 6,3 °C 11,3 km/h (2 Bft)
23.02.2017 02:41 7,6 °C 7,6 °C 69 % 1010,9 hPa 0,0 mm 10,7 km/h (2 Bft) W-SW 238 ° 0 min 0,000 mm 0,0 UV-I 0 W/m² 2,3 °C 5,6 °C 17,7 km/h (3 Bft)
23.02.2017 02:42 7,6 °C 7,7 °C 69 % 1011,0 hPa 0,0 mm 7,0 km/h (2 Bft) W-SW 239 ° 0 min 0,000 mm 0,0 UV-I 0 W/m² 2,3 °C 6,4 °C 12,9 km/h (3 Bft)
23.02.2017 02:43 7,7 °C 7,7 °C 69 % 1010,9 hPa 0,0 mm 12,0 km/h (2 Bft) S-SW 213 ° 0 min 0,000 mm 0,0 UV-I 0 W/m² 2,4 °C 5,5 °C 17,7 km/h (3 Bft)
23.02.2017 02:44 7,6 °C 7,7 °C 69 % 1010,9 hPa 0,0 mm 8,4 km/h (2 Bft) SW 232 ° 0 min 0,000 mm 0,0 UV-I 0 W/m² 2,3 °C 6,1 °C 11,3 km/h (2 Bft)
23.02.2017 02:45 7,6 °C 7,7 °C 69 % 1010,9 hPa 0,0 mm 8,6 km/h (2 Bft) SW 215 ° 0 min 0,000 mm 0,0 UV-I 0 W/m² 2,3 °C 6,1 °C 14,5 km/h (3 Bft)
23.02.2017 02:46 7,6 °C 7,6 °C 69 % 1010,9 hPa 0,0 mm 7,8 km/h (2 Bft) W-SW 245 ° 0 min 0,000 mm 0,0 UV-I 0 W/m² 2,3 °C 6,2 °C 11,3 km/h (2 Bft)
23.02.2017 02:47 7,6 °C 7,6 °C 69 % 1011,0 hPa 0,0 mm 6,7 km/h (2 Bft) W-SW 238 ° 0 min 0,000 mm 0,0 UV-I 0 W/m² 2,3 °C 6,5 °C 8,0 km/h (2 Bft)
23.02.2017 02:48 7,6 °C 7,6 °C 68 % 1010,9 hPa 0,0 mm 11,4 km/h (2 Bft) S-SW 213 ° 0 min 0,000 mm 0,0 UV-I 0 W/m² 2,1 °C 5,5 °C 17,7 km/h (3 Bft)
23.02.2017 02:49 7,6 °C 7,7 °C 68 % 1010,9 hPa 0,0 mm 7,0 km/h (2 Bft) W-SW 240 ° 0 min 0,000 mm 0,0 UV-I 0 W/m² 2,1 °C 6,4 °C 8,0 km/h (2 Bft)
23.02.2017 02:50 7,7 °C 7,7 °C 68 % 1010,9 hPa 0,0 mm 6,5 km/h (2 Bft) SW 219 ° 0 min 0,000 mm 0,0 UV-I 0 W/m² 2,2 °C 6,7 °C 9,7 km/h (2 Bft)
23.02.2017 02:51 7,7 °C 7,7 °C 68 % 1010,9 hPa 0,0 mm 9,9 km/h (2 Bft) SW 232 ° 0 min 0,000 mm 0,0 UV-I 0 W/m² 2,2 °C 5,9 °C 17,7 km/h (3 Bft)
23.02.2017 02:52 7,7 °C 7,7 °C 68 % 1010,9 hPa 0,0 mm 8,6 km/h (2 Bft) S-SW 210 ° 0 min 0,000 mm 0,0 UV-I 0 W/m² 2,2 °C 6,2 °C 12,9 km/h (3 Bft)
23.02.2017 02:53 7,6 °C 7,7 °C 68 % 1010,9 hPa 0,0 mm 6,7 km/h (2 Bft) S-SW 206 ° 0 min 0,000 mm 0,0 UV-I 0 W/m² 2,1 °C 6,5 °C 9,7 km/h (2 Bft)
23.02.2017 02:54 7,6 °C 7,7 °C 69 % 1010,9 hPa 0,0 mm 5,9 km/h (2 Bft) SW 215 ° 0 min 0,000 mm 0,0 UV-I 0 W/m² 2,3 °C 6,7 °C 11,3 km/h (2 Bft)
23.02.2017 02:55 7,6 °C 7,6 °C 69 % 1010,9 hPa 0,0 mm 6,4 km/h (2 Bft) SW 234 ° 0 min 0,000 mm 0,0 UV-I 0 W/m² 2,3 °C 6,6 °C 9,7 km/h (2 Bft)
23.02.2017 02:56 7,6 °C 7,6 °C 69 % 1010,9 hPa 0,0 mm 6,2 km/h (2 Bft) S-SW 210 ° 0 min 0,000 mm 0,0 UV-I 0 W/m² 2,3 °C 6,7 °C 9,7 km/h (2 Bft)
23.02.2017 02:57 7,6 °C 7,6 °C 69 % 1010,9 hPa 0,0 mm 6,4 km/h (2 Bft) W-SW 246 ° 0 min 0,000 mm 0,0 UV-I 0 W/m² 2,3 °C 6,6 °C 9,7 km/h (2 Bft)
23.02.2017 02:58 7,6 °C 7,6 °C 68 % 1010,9 hPa 0,0 mm 6,4 km/h (2 Bft) W-SW 248 ° 0 min 0,000 mm 0,0 UV-I 0 W/m² 2,1 °C 6,6 °C 14,5 km/h (3 Bft)
23.02.2017 02:59 7,6 °C 7,6 °C 69 % 1010,9 hPa 0,0 mm 9,1 km/h (2 Bft) S-SW 209 ° 0 min 0,000 mm 0,0 UV-I 0 W/m² 2,3 °C 5,9 °C 14,5 km/h (3 Bft)
23.02.2017 03:00 7,6 °C 7,6 °C 69 % 1010,9 hPa 0,0 mm 6,5 km/h (2 Bft) W-SW 242 ° 0 min 0,050 mm 0,0 UV-I 0 W/m² 2,3 °C 6,6 °C 12,9 km/h (3 Bft)
23.02.2017 03:01 7,5 °C 7,6 °C 69 % 1010,9 hPa 0,0 mm 6,7 km/h (2 Bft) SW 236 ° 0 min 0,000 mm 0,0 UV-I 0 W/m² 2,2 °C 6,4 °C 11,3 km/h (2 Bft)
23.02.2017 03:02 7,4 °C 7,5 °C 69 % 1010,9 hPa 0,0 mm 4,6 km/h (1 Bft) W 263 ° 0 min 0,000 mm 0,0 UV-I 0 W/m² 2,1 °C 7,0 °C 8,0 km/h (2 Bft)
23.02.2017 03:03 7,4 °C 7,5 °C 69 % 1010,9 hPa 0,0 mm 6,4 km/h (2 Bft) W-SW 243 ° 0 min 0,000 mm 0,0 UV-I 0 W/m² 2,1 °C 6,4 °C 9,7 km/h (2 Bft)
23.02.2017 03:04 7,4 °C 7,4 °C 69 % 1010,8 hPa 0,0 mm 8,7 km/h (2 Bft) W-SW 251 ° 0 min 0,000 mm 0,0 UV-I 0 W/m² 2,1 °C 5,8 °C 16,1 km/h (3 Bft)
23.02.2017 03:05 7,4 °C 7,4 °C 69 % 1010,9 hPa 0,0 mm 6,4 km/h (2 Bft) W-SW 238 ° 0 min 0,000 mm 0,0 UV-I 0 W/m² 2,1 °C 6,4 °C 8,0 km/h (2 Bft)
23.02.2017 03:06 7,4 °C 7,4 °C 69 % 1010,8 hPa 0,0 mm 7,0 km/h (2 Bft) SW 236 ° 0 min 0,000 mm 0,0 UV-I 0 W/m² 2,1 °C 6,2 °C 11,3 km/h (2 Bft)
23.02.2017 03:07 7,3 °C 7,4 °C 69 % 1010,9 hPa 0,0 mm 12,0 km/h (2 Bft) W-SW 247 ° 0 min 0,000 mm 0,0 UV-I 0 W/m² 2,0 °C 5,0 °C 17,7 km/h (3 Bft)
23.02.2017 03:08 7,3 °C 7,3 °C 69 % 1010,8 hPa 0,0 mm 5,8 km/h (2 Bft) W-SW 239 ° 0 min 0,000 mm 0,0 UV-I 0 W/m² 2,0 °C 6,4 °C 11,3 km/h (2 Bft)
23.02.2017 03:09 7,2 °C 7,3 °C 69 % 1010,9 hPa 0,0 mm 7,6 km/h (2 Bft) SW 217 ° 0 min 0,000 mm 0,0 UV-I 0 W/m² 1,9 °C 5,8 °C 12,9 km/h (3 Bft)
23.02.2017 03:10 7,2 °C 7,3 °C 69 % 1010,9 hPa 0,0 mm 7,4 km/h (2 Bft) W-SW 249 ° 0 min 0,000 mm 0,0 UV-I 0 W/m² 1,9 °C 5,9 °C 11,3 km/h (2 Bft)
23.02.2017 03:11 7,2 °C 7,2 °C 70 % 1010,9 hPa 0,0 mm 5,4 km/h (1 Bft) SW 227 ° 0 min 0,000 mm 0,0 UV-I 0 W/m² 2,1 °C 6,4 °C 9,7 km/h (2 Bft)
23.02.2017 03:12 7,2 °C 7,2 °C 70 % 1010,9 hPa 0,0 mm 3,9 km/h (1 Bft) SW 233 ° 0 min 0,000 mm 0,0 UV-I 0 W/m² 2,1 °C 7,2 °C 6,4 km/h (2 Bft)
23.02.2017 03:13 7,1 °C 7,2 °C 70 % 1010,9 hPa 0,0 mm 6,8 km/h (2 Bft) S-SW 204 ° 0 min 0,000 mm 0,0 UV-I 0 W/m² 2,0 °C 5,9 °C 12,9 km/h (3 Bft)
23.02.2017 03:14 7,1 °C 7,2 °C 70 % 1010,8 hPa 0,0 mm 4,2 km/h (1 Bft) S 189 ° 0 min 0,000 mm 0,0 UV-I 0 W/m² 2,0 °C 7,1 °C 9,7 km/h (2 Bft)
23.02.2017 03:15 7,2 °C 7,2 °C 70 % 1010,8 hPa 0,0 mm 8,7 km/h (2 Bft) W-SW 258 ° 0 min 0,000 mm 0,0 UV-I 0 W/m² 2,1 °C 5,6 °C 14,5 km/h (3 Bft)
23.02.2017 03:16 7,1 °C 7,2 °C 70 % 1010,8 hPa 0,0 mm 8,2 km/h (2 Bft) W-SW 244 ° 0 min 0,000 mm 0,0 UV-I 0 W/m² 2,0 °C 5,6 °C 11,3 km/h (2 Bft)
23.02.2017 03:17 7,1 °C 7,1 °C 70 % 1010,7 hPa 0,0 mm 5,9 km/h (2 Bft) S-SW 200 ° 0 min 0,000 mm 0,0 UV-I 0 W/m² 2,0 °C 6,2 °C 11,3 km/h (2 Bft)
23.02.2017 03:18 7,1 °C 7,1 °C 70 % 1010,8 hPa 0,0 mm 4,4 km/h (1 Bft) W-SW 240 ° 0 min 0,000 mm 0,0 UV-I 0 W/m² 2,0 °C 7,1 °C 6,4 km/h (2 Bft)
23.02.2017 03:19 7,0 °C 7,1 °C 70 % 1010,8 hPa 0,0 mm 8,7 km/h (2 Bft) SW 226 ° 0 min 0,000 mm 0,0 UV-I 0 W/m² 1,9 °C 5,3 °C 16,1 km/h (3 Bft)
23.02.2017 03:20 7,0 °C 7,0 °C 70 % 1010,8 hPa 0,0 mm 5,4 km/h (1 Bft) SW 216 ° 0 min 0,000 mm 0,0 UV-I 0 W/m² 1,9 °C 6,2 °C 8,0 km/h (2 Bft)
23.02.2017 03:21 6,9 °C 7,0 °C 70 % 1010,8 hPa 0,0 mm 5,8 km/h (2 Bft) SW 222 ° 0 min 0,000 mm 0,0 UV-I 0 W/m² 1,8 °C 6,0 °C 8,0 km/h (2 Bft)
23.02.2017 03:22 6,9 °C 6,9 °C 70 % 1010,8 hPa 0,0 mm 7,6 km/h (2 Bft) S-SW 205 ° 0 min 0,000 mm 0,0 UV-I 0 W/m² 1,8 °C 5,5 °C 11,3 km/h (2 Bft)
23.02.2017 03:23 6,9 °C 6,9 °C 70 % 1010,8 hPa 0,0 mm 7,4 km/h (2 Bft) S-SW 213 ° 0 min 0,000 mm 0,0 UV-I 0 W/m² 1,8 °C 5,5 °C 11,3 km/h (2 Bft)
23.02.2017 03:24 6,9 °C 6,9 °C 70 % 1010,7 hPa 0,0 mm 5,7 km/h (1 Bft) SW 223 ° 0 min 0,000 mm 0,0 UV-I 0 W/m² 1,8 °C 6,0 °C 11,3 km/h (2 Bft)
23.02.2017 03:25 6,9 °C 6,9 °C 70 % 1010,7 hPa 0,0 mm 7,1 km/h (2 Bft) S-SW 203 ° 0 min 0,000 mm 0,0 UV-I 0 W/m² 1,8 °C 5,6 °C 11,3 km/h (2 Bft)
23.02.2017 03:26 6,9 °C 7,0 °C 70 % 1010,7 hPa 0,0 mm 9,7 km/h (2 Bft) SW 221 ° 0 min 0,000 mm 0,0 UV-I 0 W/m² 1,8 °C 5,0 °C 16,1 km/h (3 Bft)
23.02.2017 03:27 7,0 °C 7,0 °C 70 % 1010,6 hPa 0,0 mm 5,3 km/h (1 Bft) SW 230 ° 0 min 0,000 mm 0,0 UV-I 0 W/m² 1,9 °C 6,2 °C 8,0 km/h (2 Bft)
23.02.2017 03:28 7,0 °C 7,0 °C 70 % 1010,7 hPa 0,0 mm 9,7 km/h (2 Bft) SW 225 ° 0 min 0,000 mm 0,0 UV-I 0 W/m² 1,9 °C 5,1 °C 16,1 km/h (3 Bft)
23.02.2017 03:29 7,0 °C 7,0 °C 70 % 1010,7 hPa 0,0 mm 8,6 km/h (2 Bft) SW 221 ° 0 min 0,000 mm 0,0 UV-I 0 W/m² 1,9 °C 5,3 °C 11,3 km/h (2 Bft)
23.02.2017 03:30 7,1 °C 7,1 °C 70 % 1010,7 hPa 0,0 mm 9,5 km/h (2 Bft) SW 229 ° 0 min 0,000 mm 0,0 UV-I 0 W/m² 2,0 °C 5,3 °C 14,5 km/h (3 Bft)
23.02.2017 03:31 7,1 °C 7,1 °C 70 % 1010,6 hPa 0,0 mm 10,1 km/h (2 Bft) SW 217 ° 0 min 0,000 mm 0,0 UV-I 0 W/m² 2,0 °C 5,1 °C 17,7 km/h (3 Bft)
23.02.2017 03:32 7,1 °C 7,1 °C 70 % 1010,6 hPa 0,0 mm 6,4 km/h (2 Bft) SW 221 ° 0 min 0,000 mm 0,0 UV-I 0 W/m² 2,0 °C 6,0 °C 9,7 km/h (2 Bft)
23.02.2017 03:33 7,1 °C 7,1 °C 70 % 1010,6 hPa 0,0 mm 9,9 km/h (2 Bft) SW 229 ° 0 min 0,000 mm 0,0 UV-I 0 W/m² 2,0 °C 5,2 °C 16,1 km/h (3 Bft)
23.02.2017 03:34 7,1 °C 7,1 °C 70 % 1010,6 hPa 0,0 mm 6,5 km/h (2 Bft) SW 223 ° 0 min 0,000 mm 0,0 UV-I 0 W/m² 2,0 °C 6,0 °C 8,0 km/h (2 Bft)
23.02.2017 03:35 7,0 °C 7,1 °C 70 % 1010,6 hPa 0,0 mm 6,6 km/h (2 Bft) W-SW 255 ° 0 min 0,000 mm 0,0 UV-I 0 W/m² 1,9 °C 5,8 °C 9,7 km/h (2 Bft)
23.02.2017 03:36 6,9 °C 7,0 °C 70 % 1010,6 hPa 0,0 mm 6,6 km/h (2 Bft) S-SW 198 ° 0 min 0,000 mm 0,0 UV-I 0 W/m² 1,8 °C 5,7 °C 9,7 km/h (2 Bft)
23.02.2017 03:37 6,9 °C 6,9 °C 71 % 1010,6 hPa 0,0 mm 7,3 km/h (2 Bft) SW 226 ° 0 min 0,000 mm 0,0 UV-I 0 W/m² 2,0 °C 5,5 °C 12,9 km/h (3 Bft)
23.02.2017 03:38 6,8 °C 6,9 °C 71 % 1010,6 hPa 0,0 mm 10,5 km/h (2 Bft) SW 222 ° 0 min 0,000 mm 0,0 UV-I 0 W/m² 1,9 °C 4,7 °C 20,9 km/h (4 Bft)
23.02.2017 03:39 6,7 °C 6,8 °C 71 % 1010,6 hPa 0,0 mm 9,7 km/h (2 Bft) W-SW 241 ° 0 min 0,000 mm 0,0 UV-I 0 W/m² 1,8 °C 4,8 °C 14,5 km/h (3 Bft)
23.02.2017 03:40 6,8 °C 6,8 °C 71 % 1010,6 hPa 0,0 mm 6,1 km/h (2 Bft) S 187 ° 0 min 0,000 mm 0,0 UV-I 0 W/m² 1,9 °C 5,8 °C 9,7 km/h (2 Bft)
23.02.2017 03:41 6,7 °C 6,8 °C 71 % 1010,5 hPa 0,0 mm 5,6 km/h (1 Bft) SW 229 ° 0 min 0,000 mm 0,0 UV-I 0 W/m² 1,8 °C 5,8 °C 9,7 km/h (2 Bft)
23.02.2017 03:42 6,7 °C 6,7 °C 71 % 1010,6 hPa 0,0 mm 6,0 km/h (2 Bft) SW 232 ° 0 min 0,000 mm 0,0 UV-I 0 W/m² 1,8 °C 5,7 °C 8,0 km/h (2 Bft)
23.02.2017 03:43 6,7 °C 6,7 °C 71 % 1010,6 hPa 0,0 mm 5,4 km/h (1 Bft) S-SW 208 ° 0 min 0,000 mm 0,0 UV-I 0 W/m² 1,8 °C 5,9 °C 8,0 km/h (2 Bft)
23.02.2017 03:44 6,7 °C 6,7 °C 71 % 1010,6 hPa 0,0 mm 7,7 km/h (2 Bft) S-SW 205 ° 0 min 0,000 mm 0,0 UV-I 0 W/m² 1,8 °C 5,2 °C 17,7 km/h (3 Bft)
23.02.2017 03:45 6,7 °C 6,7 °C 71 % 1010,6 hPa 0,0 mm 8,3 km/h (2 Bft) W-SW 240 ° 0 min 0,000 mm 0,0 UV-I 0 W/m² 1,8 °C 5,1 °C 12,9 km/h (3 Bft)
23.02.2017 03:46 6,7 °C 6,7 °C 72 % 1010,6 hPa 0,0 mm 3,6 km/h (1 Bft) W-SW 248 ° 0 min 0,000 mm 0,0 UV-I 0 W/m² 2,0 °C 6,7 °C 4,8 km/h (1 Bft)
23.02.2017 03:47 6,7 °C 6,7 °C 71 % 1010,5 hPa 0,0 mm 6,4 km/h (2 Bft) W-SW 242 ° 0 min 0,000 mm 0,0 UV-I 0 W/m² 1,8 °C 5,6 °C 12,9 km/h (3 Bft)
23.02.2017 03:48 6,6 °C 6,7 °C 71 % 1010,5 hPa 0,0 mm 5,9 km/h (2 Bft) W-SW 255 ° 0 min 0,000 mm 0,0 UV-I 0 W/m² 1,7 °C 5,6 °C 8,0 km/h (2 Bft)
23.02.2017 03:49 6,6 °C 6,6 °C 72 % 1010,5 hPa 0,0 mm 10,1 km/h (2 Bft) W-SW 248 ° 0 min 0,000 mm 0,0 UV-I 0 W/m² 1,9 °C 4,5 °C 14,5 km/h (3 Bft)
23.02.2017 03:50 6,6 °C 6,6 °C 72 % 1010,5 hPa 0,0 mm 10,6 km/h (2 Bft) SW 215 ° 0 min 0,000 mm 0,0 UV-I 0 W/m² 1,9 °C 4,5 °C 14,5 km/h (3 Bft)
23.02.2017 03:51 6,5 °C 6,6 °C 72 % 1010,5 hPa 0,0 mm 9,3 km/h (2 Bft) W-SW 243 ° 0 min 0,000 mm 0,0 UV-I 0 W/m² 1,8 °C 4,6 °C 16,1 km/h (3 Bft)
23.02.2017 03:52 6,5 °C 6,5 °C 72 % 1010,5 hPa 0,0 mm 8,4 km/h (2 Bft) SW 218 ° 0 min 0,000 mm 0,0 UV-I 0 W/m² 1,8 °C 4,8 °C 9,7 km/h (2 Bft)
23.02.2017 03:53 6,5 °C 6,5 °C 72 % 1010,5 hPa 0,0 mm 8,3 km/h (2 Bft) S-SW 208 ° 0 min 0,000 mm 0,0 UV-I 0 W/m² 1,8 °C 4,8 °C 12,9 km/h (3 Bft)
23.02.2017 03:54 6,5 °C 6,5 °C 72 % 1010,5 hPa 0,0 mm 7,4 km/h (2 Bft) SW 216 ° 0 min 0,000 mm 0,0 UV-I 0 W/m² 1,8 °C 5,0 °C 9,7 km/h (2 Bft)
23.02.2017 03:55 6,5 °C 6,5 °C 72 % 1010,5 hPa 0,0 mm 7,6 km/h (2 Bft) SW 217 ° 0 min 0,000 mm 0,0 UV-I 0 W/m² 1,8 °C 5,0 °C 14,5 km/h (3 Bft)
23.02.2017 03:56 6,5 °C 6,5 °C 72 % 1010,5 hPa 0,0 mm 9,4 km/h (2 Bft) SW 230 ° 0 min 0,000 mm 0,0 UV-I 0 W/m² 1,8 °C 4,6 °C 14,5 km/h (3 Bft)
23.02.2017 03:57 6,5 °C 6,5 °C 72 % 1010,5 hPa 0,0 mm 6,0 km/h (2 Bft) W-SW 252 ° 0 min 0,000 mm 0,0 UV-I 0 W/m² 1,8 °C 5,4 °C 19,3 km/h (3 Bft)
23.02.2017 03:58 6,4 °C 6,5 °C 72 % 1010,5 hPa 0,0 mm 13,7 km/h (3 Bft) W-SW 253 ° 0 min 0,000 mm 0,0 UV-I 0 W/m² 1,7 °C 3,7 °C 17,7 km/h (3 Bft)
23.02.2017 03:59 6,4 °C 6,4 °C 72 % 1010,5 hPa 0,0 mm 13,6 km/h (3 Bft) W-SW 245 ° 0 min 0,000 mm 0,0 UV-I 0 W/m² 1,7 °C 3,7 °C 17,7 km/h (3 Bft)
23.02.2017 04:00 6,4 °C 6,4 °C 72 % 1010,5 hPa 0,0 mm 10,4 km/h (2 Bft) W-SW 250 ° 0 min 0,026 mm 0,0 UV-I 0 W/m² 1,7 °C 4,3 °C 16,1 km/h (3 Bft)
23.02.2017 04:01 6,4 °C 6,4 °C 72 % 1010,6 hPa 0,0 mm 8,6 km/h (2 Bft) W 270 ° 0 min 0,000 mm 0,0 UV-I 0 W/m² 1,7 °C 4,6 °C 11,3 km/h (2 Bft)
23.02.2017 04:02 6,4 °C 6,4 °C 72 % 1010,5 hPa 0,0 mm 9,9 km/h (2 Bft) W-SW 244 ° 0 min 0,000 mm 0,0 UV-I 0 W/m² 1,7 °C 4,4 °C 14,5 km/h (3 Bft)
23.02.2017 04:03 6,4 °C 6,4 °C 72 % 1010,5 hPa 0,0 mm 9,1 km/h (2 Bft) SW 225 ° 0 min 0,000 mm 0,0 UV-I 0 W/m² 1,7 °C 4,5 °C 12,9 km/h (3 Bft)
23.02.2017 04:04 6,3 °C 6,4 °C 72 % 1010,6 hPa 0,0 mm 12,9 km/h (3 Bft) SW 228 ° 0 min 0,000 mm 0,0 UV-I 0 W/m² 1,6 °C 3,7 °C 22,5 km/h (4 Bft)
23.02.2017 04:05 6,3 °C 6,4 °C 72 % 1010,5 hPa 0,0 mm 8,9 km/h (2 Bft) W-NW 290 ° 0 min 0,000 mm 0,0 UV-I 0 W/m² 1,6 °C 4,4 °C 14,5 km/h (3 Bft)
23.02.2017 04:06 6,3 °C 6,4 °C 72 % 1010,6 hPa 0,0 mm 9,6 km/h (2 Bft) W-SW 253 ° 0 min 0,000 mm 0,0 UV-I 0 W/m² 1,6 °C 4,3 °C 12,9 km/h (3 Bft)
23.02.2017 04:07 6,3 °C 6,3 °C 72 % 1010,5 hPa 0,0 mm 6,6 km/h (2 Bft) SW 222 ° 0 min 0,000 mm 0,0 UV-I 0 W/m² 1,6 °C 5,0 °C 12,9 km/h (3 Bft)
23.02.2017 04:08 6,3 °C 6,3 °C 72 % 1010,5 hPa 0,0 mm 9,6 km/h (2 Bft) W-SW 252 ° 0 min 0,000 mm 0,0 UV-I 0 W/m² 1,6 °C 4,3 °C 14,5 km/h (3 Bft)
23.02.2017 04:09 6,4 °C 6,4 °C 72 % 1010,5 hPa 0,0 mm 9,5 km/h (2 Bft) W-SW 242 ° 0 min 0,000 mm 0,0 UV-I 0 W/m² 1,7 °C 4,4 °C 14,5 km/h (3 Bft)
23.02.2017 04:10 6,4 °C 6,4 °C 72 % 1010,5 hPa 0,0 mm 10,5 km/h (2 Bft) W 271 ° 0 min 0,000 mm 0,0 UV-I 0 W/m² 1,7 °C 4,2 °C 19,3 km/h (3 Bft)
23.02.2017 04:11 6,5 °C 6,5 °C 72 % 1010,5 hPa 0,0 mm 8,7 km/h (2 Bft) W-SW 253 ° 0 min 0,000 mm 0,0 UV-I 0 W/m² 1,8 °C 4,7 °C 16,1 km/h (3 Bft)
23.02.2017 04:12 6,5 °C 6,6 °C 72 % 1010,6 hPa 0,0 mm 10,8 km/h (2 Bft) W-SW 242 ° 0 min 0,000 mm 0,0 UV-I 0 W/m² 1,8 °C 4,3 °C 14,5 km/h (3 Bft)
23.02.2017 04:13 6,5 °C 6,6 °C 71 % 1010,6 hPa 0,0 mm 11,2 km/h (2 Bft) W-SW 255 ° 0 min 0,000 mm 0,0 UV-I 0 W/m² 1,6 °C 4,2 °C 17,7 km/h (3 Bft)
23.02.2017 04:14 6,4 °C 6,6 °C 71 % 1010,5 hPa 0,0 mm 12,0 km/h (2 Bft) W-SW 244 ° 0 min 0,000 mm 0,0 UV-I 0 W/m² 1,5 °C 4,0 °C 16,1 km/h (3 Bft)
23.02.2017 04:15 6,4 °C 6,4 °C 71 % 1010,5 hPa 0,0 mm 9,0 km/h (2 Bft) W 260 ° 0 min 0,000 mm 0,0 UV-I 0 W/m² 1,5 °C 4,5 °C 14,5 km/h (3 Bft)
23.02.2017 04:16 6,4 °C 6,4 °C 72 % 1010,5 hPa 0,0 mm 11,5 km/h (2 Bft) W 260 ° 0 min 0,000 mm 0,0 UV-I 0 W/m² 1,7 °C 4,0 °C 19,3 km/h (3 Bft)
23.02.2017 04:17 6,4 °C 6,4 °C 72 % 1010,5 hPa 0,0 mm 6,2 km/h (2 Bft) W-SW 246 ° 0 min 0,000 mm 0,0 UV-I 0 W/m² 1,7 °C 5,3 °C 9,7 km/h (2 Bft)
23.02.2017 04:18 6,4 °C 6,4 °C 71 % 1010,5 hPa 0,0 mm 7,9 km/h (2 Bft) W 261 ° 0 min 0,000 mm 0,0 UV-I 0 W/m² 1,5 °C 4,8 °C 12,9 km/h (3 Bft)
23.02.2017 04:19 6,4 °C 6,4 °C 72 % 1010,5 hPa 0,0 mm 10,6 km/h (2 Bft) S-SW 211 ° 0 min 0,000 mm 0,0 UV-I 0 W/m² 1,7 °C 4,2 °C 16,1 km/h (3 Bft)
23.02.2017 04:20 6,4 °C 6,4 °C 72 % 1010,5 hPa 0,0 mm 8,0 km/h (2 Bft) W 266 ° 0 min 0,000 mm 0,0 UV-I 0 W/m² 1,7 °C 4,8 °C 14,5 km/h (3 Bft)
23.02.2017 04:21 6,4 °C 6,4 °C 72 % 1010,5 hPa 0,0 mm 9,4 km/h (2 Bft) W-SW 241 ° 0 min 0,000 mm 0,0 UV-I 0 W/m² 1,7 °C 4,5 °C 16,1 km/h (3 Bft)
23.02.2017 04:22 6,4 °C 6,4 °C 71 % 1010,5 hPa 0,0 mm 9,4 km/h (2 Bft) W-SW 250 ° 0 min 0,000 mm 0,0 UV-I 0 W/m² 1,5 °C 4,5 °C 12,9 km/h (3 Bft)
23.02.2017 04:23 6,4 °C 6,4 °C 71 % 1010,5 hPa 0,0 mm 12,3 km/h (3 Bft) W-SW 239 ° 0 min 0,000 mm 0,0 UV-I 0 W/m² 1,5 °C 3,9 °C 16,1 km/h (3 Bft)
23.02.2017 04:24 6,4 °C 6,4 °C 71 % 1010,5 hPa 0,0 mm 12,2 km/h (2 Bft) S-SW 198 ° 0 min 0,000 mm 0,0 UV-I 0 W/m² 1,5 °C 3,9 °C 16,1 km/h (3 Bft)
23.02.2017 04:25 6,4 °C 6,4 °C 72 % 1010,5 hPa 0,0 mm 8,9 km/h (2 Bft) SW 223 ° 0 min 0,000 mm 0,0 UV-I 0 W/m² 1,7 °C 4,6 °C 14,5 km/h (3 Bft)
23.02.2017 04:26 6,3 °C 6,4 °C 72 % 1010,5 hPa 0,0 mm 10,8 km/h (2 Bft) SW 214 ° 0 min 0,000 mm 0,0 UV-I 0 W/m² 1,6 °C 4,1 °C 16,1 km/h (3 Bft)
23.02.2017 04:27 6,3 °C 6,3 °C 72 % 1010,4 hPa 0,0 mm 8,4 km/h (2 Bft) W 266 ° 0 min 0,000 mm 0,0 UV-I 0 W/m² 1,6 °C 4,6 °C 14,5 km/h (3 Bft)
23.02.2017 04:28 6,3 °C 6,3 °C 72 % 1010,4 hPa 0,0 mm 8,0 km/h (2 Bft) W-SW 250 ° 0 min 0,000 mm 0,0 UV-I 0 W/m² 1,6 °C 4,7 °C 16,1 km/h (3 Bft)
23.02.2017 04:29 6,3 °C 6,3 °C 72 % 1010,4 hPa 0,0 mm 7,2 km/h (2 Bft) SW 227 ° 0 min 0,000 mm 0,0 UV-I 0 W/m² 1,6 °C 4,9 °C 9,7 km/h (2 Bft)
23.02.2017 04:30 6,3 °C 6,3 °C 72 % 1010,4 hPa 0,0 mm 8,2 km/h (2 Bft) W 263 ° 0 min 0,000 mm 0,0 UV-I 0 W/m² 1,6 °C 4,6 °C 14,5 km/h (3 Bft)
23.02.2017 04:31 6,3 °C 6,3 °C 72 % 1010,4 hPa 0,0 mm 9,8 km/h (2 Bft) SW 216 ° 0 min 0,000 mm 0,0 UV-I 0 W/m² 1,6 °C 4,3 °C 17,7 km/h (3 Bft)
23.02.2017 04:32 6,3 °C 6,3 °C 72 % 1010,4 hPa 0,0 mm 9,6 km/h (2 Bft) SW 232 ° 0 min 0,000 mm 0,0 UV-I 0 W/m² 1,6 °C 4,3 °C 16,1 km/h (3 Bft)
23.02.2017 04:33 6,4 °C 6,4 °C 72 % 1010,4 hPa 0,0 mm 10,0 km/h (2 Bft) SW 215 ° 0 min 0,000 mm 0,0 UV-I 0 W/m² 1,7 °C 4,3 °C 16,1 km/h (3 Bft)
23.02.2017 04:34 6,4 °C 6,4 °C 72 % 1010,3 hPa 0,0 mm 8,0 km/h (2 Bft) W-SW 240 ° 0 min 0,000 mm 0,0 UV-I 0 W/m² 1,7 °C 4,8 °C 14,5 km/h (3 Bft)
23.02.2017 04:35 6,4 °C 6,4 °C 71 % 1010,4 hPa 0,0 mm 9,7 km/h (2 Bft) SW 221 ° 0 min 0,000 mm 0,0 UV-I 0 W/m² 1,5 °C 4,4 °C 14,5 km/h (3 Bft)
23.02.2017 04:36 6,4 °C 6,4 °C 71 % 1010,4 hPa 0,0 mm 10,1 km/h (2 Bft) W-SW 252 ° 0 min 0,000 mm 0,0 UV-I 0 W/m² 1,5 °C 4,3 °C 14,5 km/h (3 Bft)
23.02.2017 04:37 6,4 °C 6,4 °C 71 % 1010,3 hPa 0,0 mm 8,3 km/h (2 Bft) SW 223 ° 0 min 0,000 mm 0,0 UV-I 0 W/m² 1,5 °C 4,7 °C 14,5 km/h (3 Bft)
23.02.2017 04:38 6,5 °C 6,5 °C 71 % 1010,3 hPa 0,0 mm 9,3 km/h (2 Bft) W-SW 248 ° 0 min 0,000 mm 0,0 UV-I 0 W/m² 1,6 °C 4,6 °C 17,7 km/h (3 Bft)
23.02.2017 04:39 6,5 °C 6,5 °C 71 % 1010,4 hPa 0,0 mm 10,5 km/h (2 Bft) W 259 ° 0 min 0,000 mm 0,0 UV-I 0 W/m² 1,6 °C 4,4 °C 17,7 km/h (3 Bft)
23.02.2017 04:40 6,5 °C 6,5 °C 71 % 1010,3 hPa 0,0 mm 11,7 km/h (2 Bft) W-SW 243 ° 0 min 0,000 mm 0,0 UV-I 0 W/m² 1,6 °C 4,1 °C 22,5 km/h (4 Bft)
23.02.2017 04:41 6,5 °C 6,6 °C 71 % 1010,3 hPa 0,0 mm 15,5 km/h (3 Bft) SW 234 ° 0 min 0,000 mm 0,0 UV-I 0 W/m² 1,6 °C 3,5 °C 22,5 km/h (4 Bft)
23.02.2017 04:42 6,5 °C 6,6 °C 71 % 1010,3 hPa 0,0 mm 13,9 km/h (3 Bft) W 259 ° 0 min 0,000 mm 0,0 UV-I 0 W/m² 1,6 °C 3,8 °C 20,9 km/h (4 Bft)
23.02.2017 04:43 6,5 °C 6,6 °C 71 % 1010,4 hPa 0,0 mm 10,4 km/h (2 Bft) SW 232 ° 0 min 0,000 mm 0,0 UV-I 0 W/m² 1,6 °C 4,4 °C 17,7 km/h (3 Bft)
23.02.2017 04:44 6,5 °C 6,6 °C 71 % 1010,3 hPa 0,0 mm 8,6 km/h (2 Bft) W 275 ° 0 min 0,000 mm 0,0 UV-I 0 W/m² 1,6 °C 4,8 °C 12,9 km/h (3 Bft)
23.02.2017 04:45 6,5 °C 6,5 °C 71 % 1010,3 hPa 0,0 mm 12,7 km/h (3 Bft) W 267 ° 0 min 0,000 mm 0,0 UV-I 0 W/m² 1,6 °C 4,0 °C 17,7 km/h (3 Bft)
23.02.2017 04:46 6,4 °C 6,5 °C 71 % 1010,3 hPa 0,0 mm 16,4 km/h (3 Bft) W-SW 244 ° 0 min 0,000 mm 0,0 UV-I 0 W/m² 1,5 °C 3,3 °C 19,3 km/h (3 Bft)
23.02.2017 04:47 6,4 °C 6,5 °C 71 % 1010,3 hPa 0,0 mm 13,5 km/h (3 Bft) W-SW 238 ° 0 min 0,000 mm 0,0 UV-I 0 W/m² 1,5 °C 3,7 °C 20,9 km/h (4 Bft)
23.02.2017 04:48 6,4 °C 6,5 °C 71 % 1010,3 hPa 0,0 mm 12,3 km/h (3 Bft) W-SW 254 ° 0 min 0,000 mm 0,0 UV-I 0 W/m² 1,5 °C 3,9 °C 22,5 km/h (4 Bft)
23.02.2017 04:49 6,5 °C 6,5 °C 71 % 1010,3 hPa 0,0 mm 14,9 km/h (3 Bft) W-SW 242 ° 0 min 0,000 mm 0,0 UV-I 0 W/m² 1,6 °C 3,6 °C 27,4 km/h (4 Bft)
23.02.2017 04:50 6,5 °C 6,5 °C 71 % 1010,2 hPa 0,0 mm 15,3 km/h (3 Bft) SW 232 ° 0 min 0,000 mm 0,0 UV-I 0 W/m² 1,6 °C 3,6 °C 24,1 km/h (4 Bft)
23.02.2017 04:51 6,5 °C 6,5 °C 71 % 1010,2 hPa 0,0 mm 13,6 km/h (3 Bft) W 265 ° 0 min 0,000 mm 0,0 UV-I 0 W/m² 1,6 °C 3,8 °C 17,7 km/h (3 Bft)
23.02.2017 04:52 6,5 °C 6,6 °C 71 % 1010,2 hPa 0,0 mm 14,1 km/h (3 Bft) W-SW 253 ° 0 min 0,000 mm 0,0 UV-I 0 W/m² 1,6 °C 3,7 °C 17,7 km/h (3 Bft)
23.02.2017 04:53 6,5 °C 6,5 °C 71 % 1010,2 hPa 0,0 mm 6,4 km/h (2 Bft) W 260 ° 0 min 0,000 mm 0,0 UV-I 0 W/m² 1,6 °C 5,3 °C 12,9 km/h (3 Bft)
23.02.2017 04:54 6,5 °C 6,5 °C 71 % 1010,2 hPa 0,0 mm 13,6 km/h (3 Bft) W-SW 254 ° 0 min 0,000 mm 0,0 UV-I 0 W/m² 1,6 °C 3,8 °C 19,3 km/h (3 Bft)
23.02.2017 04:55 6,5 °C 6,5 °C 71 % 1010,2 hPa 0,0 mm 12,7 km/h (3 Bft) W-SW 257 ° 0 min 0,000 mm 0,0 UV-I 0 W/m² 1,6 °C 4,0 °C 19,3 km/h (3 Bft)
23.02.2017 04:56 6,4 °C 6,5 °C 71 % 1010,2 hPa 0,0 mm 16,3 km/h (3 Bft) W-SW 248 ° 0 min 0,000 mm 0,0 UV-I 0 W/m² 1,5 °C 3,3 °C 22,5 km/h (4 Bft)
23.02.2017 04:57 6,4 °C 6,4 °C 71 % 1010,1 hPa 0,0 mm 12,1 km/h (2 Bft) W-SW 249 ° 0 min 0,000 mm 0,0 UV-I 0 W/m² 1,5 °C 3,9 °C 16,1 km/h (3 Bft)
23.02.2017 04:58 6,4 °C 6,4 °C 71 % 1010,1 hPa 0,0 mm 9,7 km/h (2 Bft) W-SW 246 ° 0 min 0,000 mm 0,0 UV-I 0 W/m² 1,5 °C 4,4 °C 16,1 km/h (3 Bft)
23.02.2017 04:59 6,4 °C 6,4 °C 71 % 1010,0 hPa 0,0 mm 15,5 km/h (3 Bft) W-SW 245 ° 0 min 0,000 mm 0,0 UV-I 0 W/m² 1,5 °C 3,4 °C 24,1 km/h (4 Bft)
23.02.2017 05:00 6,3 °C 6,4 °C 71 % 1010,1 hPa 0,0 mm 13,4 km/h (3 Bft) W-SW 247 ° 0 min 0,025 mm 0,0 UV-I 0 W/m² 1,4 °C 3,6 °C 17,7 km/h (3 Bft)
23.02.2017 05:01 6,3 °C 6,3 °C 71 % 1010,0 hPa 0,0 mm 10,3 km/h (2 Bft) W-SW 253 ° 0 min 0,000 mm 0,0 UV-I 0 W/m² 1,4 °C 4,2 °C 12,9 km/h (3 Bft)
23.02.2017 05:02 6,4 °C 6,4 °C 71 % 1010,0 hPa 0,0 mm 8,8 km/h (2 Bft) W-SW 246 ° 0 min 0,000 mm 0,0 UV-I 0 W/m² 1,5 °C 4,6 °C 16,1 km/h (3 Bft)
23.02.2017 05:03 6,3 °C 6,4 °C 71 % 1010,0 hPa 0,0 mm 9,7 km/h (2 Bft) W 267 ° 0 min 0,000 mm 0,0 UV-I 0 W/m² 1,4 °C 4,3 °C 14,5 km/h (3 Bft)
23.02.2017 05:04 6,4 °C 6,4 °C 71 % 1010,0 hPa 0,0 mm 11,1 km/h (2 Bft) W-SW 240 ° 0 min 0,000 mm 0,0 UV-I 0 W/m² 1,5 °C 4,1 °C 16,1 km/h (3 Bft)
23.02.2017 05:05 6,3 °C 6,4 °C 71 % 1010,0 hPa 0,0 mm 6,0 km/h (2 Bft) W-SW 246 ° 0 min 0,000 mm 0,0 UV-I 0 W/m² 1,4 °C 5,2 °C 12,9 km/h (3 Bft)
23.02.2017 05:06 6,3 °C 6,3 °C 71 % 1010,0 hPa 0,0 mm 9,3 km/h (2 Bft) W-SW 242 ° 0 min 0,000 mm 0,0 UV-I 0 W/m² 1,4 °C 4,4 °C 16,1 km/h (3 Bft)
23.02.2017 05:07 6,3 °C 6,3 °C 71 % 1010,0 hPa 0,0 mm 11,2 km/h (2 Bft) W-SW 239 ° 0 min 0,000 mm 0,0 UV-I 0 W/m² 1,4 °C 4,0 °C 16,1 km/h (3 Bft)
23.02.2017 05:08 6,3 °C 6,3 °C 71 % 1010,0 hPa 0,0 mm 14,1 km/h (3 Bft) W-SW 248 ° 0 min 0,000 mm 0,0 UV-I 0 W/m² 1,4 °C 3,5 °C 20,9 km/h (4 Bft)
23.02.2017 05:09 6,4 °C 6,4 °C 71 % 1010,0 hPa 0,0 mm 12,1 km/h (2 Bft) W-SW 254 ° 0 min 0,000 mm 0,0 UV-I 0 W/m² 1,5 °C 3,9 °C 16,1 km/h (3 Bft)
23.02.2017 05:10 6,4 °C 6,4 °C 71 % 1010,0 hPa 0,0 mm 9,7 km/h (2 Bft) W 271 ° 0 min 0,000 mm 0,0 UV-I 0 W/m² 1,5 °C 4,4 °C 19,3 km/h (3 Bft)
23.02.2017 05:11 6,3 °C 6,4 °C 71 % 1010,0 hPa 0,0 mm 14,8 km/h (3 Bft) W-SW 252 ° 0 min 0,000 mm 0,0 UV-I 0 W/m² 1,4 °C 3,4 °C 20,9 km/h (4 Bft)
23.02.2017 05:12 6,3 °C 6,3 °C 71 % 1010,0 hPa 0,0 mm 15,4 km/h (3 Bft) SW 214 ° 0 min 0,000 mm 0,0 UV-I 0 W/m² 1,4 °C 3,3 °C 22,5 km/h (4 Bft)
23.02.2017 05:13 6,3 °C 6,3 °C 71 % 1009,9 hPa 0,0 mm 7,0 km/h (2 Bft) W-SW 243 ° 0 min 0,000 mm 0,0 UV-I 0 W/m² 1,4 °C 4,9 °C 11,3 km/h (2 Bft)
23.02.2017 05:14 6,3 °C 6,3 °C 71 % 1009,8 hPa 0,0 mm 8,6 km/h (2 Bft) S-SW 207 ° 0 min 0,000 mm 0,0 UV-I 0 W/m² 1,4 °C 4,5 °C 12,9 km/h (3 Bft)
23.02.2017 05:15 6,4 °C 6,4 °C 71 % 1009,8 hPa 0,0 mm 8,7 km/h (2 Bft) W-SW 242 ° 0 min 0,000 mm 0,0 UV-I 0 W/m² 1,5 °C 4,6 °C 16,1 km/h (3 Bft)
23.02.2017 05:16 6,4 °C 6,4 °C 70 % 1009,8 hPa 0,0 mm 10,9 km/h (2 Bft) W-SW 256 ° 0 min 0,000 mm 0,0 UV-I 0 W/m² 1,3 °C 4,2 °C 16,1 km/h (3 Bft)
23.02.2017 05:17 6,4 °C 6,4 °C 70 % 1009,8 hPa 0,0 mm 9,0 km/h (2 Bft) W-SW 250 ° 0 min 0,000 mm 0,0 UV-I 0 W/m² 1,3 °C 4,5 °C 14,5 km/h (3 Bft)
23.02.2017 05:18 6,4 °C 6,4 °C 70 % 1009,8 hPa 0,0 mm 10,3 km/h (2 Bft) W-SW 238 ° 0 min 0,000 mm 0,0 UV-I 0 W/m² 1,3 °C 4,3 °C 16,1 km/h (3 Bft)
23.02.2017 05:19 6,4 °C 6,4 °C 70 % 1009,8 hPa 0,0 mm 8,4 km/h (2 Bft) S-SW 213 ° 0 min 0,000 mm 0,0 UV-I 0 W/m² 1,3 °C 4,7 °C 12,9 km/h (3 Bft)
23.02.2017 05:20 6,4 °C 6,4 °C 70 % 1009,8 hPa 0,0 mm 10,5 km/h (2 Bft) W-SW 239 ° 0 min 0,000 mm 0,0 UV-I 0 W/m² 1,3 °C 4,2 °C 16,1 km/h (3 Bft)
23.02.2017 05:21 6,4 °C 6,4 °C 70 % 1009,8 hPa 0,0 mm 11,7 km/h (2 Bft) W-SW 255 ° 0 min 0,000 mm 0,0 UV-I 0 W/m² 1,3 °C 4,0 °C 19,3 km/h (3 Bft)
23.02.2017 05:22 6,4 °C 6,4 °C 70 % 1009,9 hPa 0,0 mm 8,6 km/h (2 Bft) W-SW 252 ° 0 min 0,000 mm 0,0 UV-I 0 W/m² 1,3 °C 4,6 °C 14,5 km/h (3 Bft)
23.02.2017 05:23 6,3 °C 6,4 °C 70 % 1009,7 hPa 0,0 mm 8,6 km/h (2 Bft) S-SW 213 ° 0 min 0,000 mm 0,0 UV-I 0 W/m² 1,2 °C 4,5 °C 11,3 km/h (2 Bft)
23.02.2017 05:24 6,4 °C 6,4 °C 70 % 1009,7 hPa 0,0 mm 8,3 km/h (2 Bft) SW 216 ° 0 min 0,000 mm 0,0 UV-I 0 W/m² 1,3 °C 4,7 °C 11,3 km/h (2 Bft)
23.02.2017 05:25 6,4 °C 6,4 °C 70 % 1009,7 hPa 0,0 mm 8,3 km/h (2 Bft) SW 217 ° 0 min 0,000 mm 0,0 UV-I 0 W/m² 1,3 °C 4,7 °C 17,7 km/h (3 Bft)
23.02.2017 05:26 6,4 °C 6,4 °C 70 % 1009,8 hPa 0,0 mm 10,0 km/h (2 Bft) W 261 ° 0 min 0,000 mm 0,0 UV-I 0 W/m² 1,3 °C 4,3 °C 17,7 km/h (3 Bft)
23.02.2017 05:27 6,4 °C 6,4 °C 70 % 1009,7 hPa 0,0 mm 7,9 km/h (2 Bft) W-SW 244 ° 0 min 0,000 mm 0,0 UV-I 0 W/m² 1,3 °C 4,8 °C 11,3 km/h (2 Bft)
23.02.2017 05:28 6,4 °C 6,4 °C 70 % 1009,8 hPa 0,0 mm 9,5 km/h (2 Bft) S-SW 197 ° 0 min 0,000 mm 0,0 UV-I 0 W/m² 1,3 °C 4,4 °C 12,9 km/h (3 Bft)
23.02.2017 05:29 6,3 °C 6,4 °C 69 % 1009,8 hPa 0,0 mm 5,9 km/h (2 Bft) W-SW 254 ° 0 min 0,000 mm 0,0 UV-I 0 W/m² 1,0 °C 5,2 °C 8,0 km/h (2 Bft)
23.02.2017 05:30 6,4 °C 6,4 °C 69 % 1009,8 hPa 0,0 mm 9,5 km/h (2 Bft) W-SW 242 ° 0 min 0,000 mm 0,0 UV-I 0 W/m² 1,1 °C 4,4 °C 16,1 km/h (3 Bft)
23.02.2017 05:31 6,4 °C 6,4 °C 69 % 1009,8 hPa 0,0 mm 8,2 km/h (2 Bft) SW 234 ° 0 min 0,000 mm 0,0 UV-I 0 W/m² 1,1 °C 4,7 °C 14,5 km/h (3 Bft)
23.02.2017 05:32 6,4 °C 6,4 °C 69 % 1009,8 hPa 0,0 mm 5,7 km/h (1 Bft) SW 231 ° 0 min 0,000 mm 0,0 UV-I 0 W/m² 1,1 °C 5,4 °C 8,0 km/h (2 Bft)
23.02.2017 05:33 6,3 °C 6,4 °C 69 % 1009,6 hPa 0,0 mm 8,6 km/h (2 Bft) SW 219 ° 0 min 0,000 mm 0,0 UV-I 0 W/m² 1,0 °C 4,5 °C 12,9 km/h (3 Bft)
23.02.2017 05:34 6,3 °C 6,3 °C 69 % 1009,6 hPa 0,0 mm 8,5 km/h (2 Bft) S-SW 208 ° 0 min 0,000 mm 0,0 UV-I 0 W/m² 1,0 °C 4,5 °C 16,1 km/h (3 Bft)
23.02.2017 05:35 6,4 °C 6,4 °C 69 % 1009,6 hPa 0,0 mm 8,5 km/h (2 Bft) S-SW 207 ° 0 min 0,000 mm 0,0 UV-I 0 W/m² 1,1 °C 4,7 °C 12,9 km/h (3 Bft)
23.02.2017 05:36 6,4 °C 6,4 °C 69 % 1009,7 hPa 0,0 mm 11,0 km/h (2 Bft) W-SW 257 ° 0 min 0,000 mm 0,0 UV-I 0 W/m² 1,1 °C 4,1 °C 17,7 km/h (3 Bft)
23.02.2017 05:37 6,4 °C 6,4 °C 68 % 1009,6 hPa 0,0 mm 7,7 km/h (2 Bft) S-SW 198 ° 0 min 0,000 mm 0,0 UV-I 0 W/m² 0,9 °C 4,9 °C 16,1 km/h (3 Bft)
23.02.2017 05:38 6,5 °C 6,5 °C 68 % 1009,7 hPa 0,0 mm 8,0 km/h (2 Bft) SW 234 ° 0 min 0,000 mm 0,0 UV-I 0 W/m² 1,0 °C 4,9 °C 11,3 km/h (2 Bft)
23.02.2017 05:39 6,6 °C 6,6 °C 68 % 1009,7 hPa 0,0 mm 6,5 km/h (2 Bft) W-SW 244 ° 0 min 0,000 mm 0,0 UV-I 0 W/m² 1,1 °C 5,4 °C 12,9 km/h (3 Bft)
23.02.2017 05:40 6,6 °C 6,6 °C 68 % 1009,7 hPa 0,0 mm 7,8 km/h (2 Bft) S-SW 208 ° 0 min 0,000 mm 0,0 UV-I 0 W/m² 1,1 °C 5,1 °C 12,9 km/h (3 Bft)
23.02.2017 05:41 6,6 °C 6,6 °C 68 % 1009,7 hPa 0,0 mm 6,4 km/h (2 Bft) W-SW 258 ° 0 min 0,000 mm 0,0 UV-I 0 W/m² 1,1 °C 5,4 °C 11,3 km/h (2 Bft)
23.02.2017 05:42 6,6 °C 6,6 °C 68 % 1009,7 hPa 0,0 mm 6,3 km/h (2 Bft) W 271 ° 0 min 0,000 mm 0,0 UV-I 0 W/m² 1,1 °C 5,5 °C 9,7 km/h (2 Bft)
23.02.2017 05:43 6,6 °C 6,6 °C 68 % 1009,7 hPa 0,0 mm 7,8 km/h (2 Bft) W-SW 256 ° 0 min 0,000 mm 0,0 UV-I 0 W/m² 1,1 °C 5,1 °C 12,9 km/h (3 Bft)
23.02.2017 05:44 6,6 °C 6,6 °C 68 % 1009,6 hPa 0,0 mm 9,5 km/h (2 Bft) S-SW 213 ° 0 min 0,000 mm 0,0 UV-I 0 W/m² 1,1 °C 4,7 °C 17,7 km/h (3 Bft)
23.02.2017 05:45 6,5 °C 6,6 °C 67 % 1009,7 hPa 0,0 mm 9,8 km/h (2 Bft) SW 221 ° 0 min 0,000 mm 0,0 UV-I 0 W/m² 0,8 °C 4,5 °C 14,5 km/h (3 Bft)
23.02.2017 05:46 6,5 °C 6,6 °C 68 % 1009,7 hPa 0,0 mm 6,9 km/h (2 Bft) W-SW 239 ° 0 min 0,000 mm 0,0 UV-I 0 W/m² 1,0 °C 5,2 °C 11,3 km/h (2 Bft)
23.02.2017 05:47 6,5 °C 6,5 °C 68 % 1009,7 hPa 0,0 mm 6,7 km/h (2 Bft) S-SW 204 ° 0 min 0,000 mm 0,0 UV-I 0 W/m² 1,0 °C 5,2 °C 9,7 km/h (2 Bft)
23.02.2017 05:48 6,5 °C 6,5 °C 67 % 1009,6 hPa 0,0 mm 8,2 km/h (2 Bft) W-SW 252 ° 0 min 0,000 mm 0,0 UV-I 0 W/m² 0,8 °C 4,8 °C 12,9 km/h (3 Bft)
23.02.2017 05:49 6,5 °C 6,6 °C 67 % 1009,6 hPa 0,0 mm 8,9 km/h (2 Bft) SW 236 ° 0 min 0,000 mm 0,0 UV-I 0 W/m² 0,8 °C 4,7 °C 12,9 km/h (3 Bft)
23.02.2017 05:50 6,5 °C 6,5 °C 67 % 1009,7 hPa 0,0 mm 5,0 km/h (1 Bft) SW 223 ° 0 min 0,000 mm 0,0 UV-I 0 W/m² 0,8 °C 5,8 °C 8,0 km/h (2 Bft)
23.02.2017 05:51 6,5 °C 6,5 °C 67 % 1009,6 hPa 0,0 mm 6,6 km/h (2 Bft) SW 219 ° 0 min 0,000 mm 0,0 UV-I 0 W/m² 0,8 °C 5,3 °C 9,7 km/h (2 Bft)
23.02.2017 05:52 6,4 °C 6,5 °C 67 % 1009,7 hPa 0,0 mm 8,4 km/h (2 Bft) W-SW 248 ° 0 min 0,000 mm 0,0 UV-I 0 W/m² 0,7 °C 4,7 °C 11,3 km/h (2 Bft)
23.02.2017 05:53 6,4 °C 6,4 °C 67 % 1009,6 hPa 0,0 mm 7,9 km/h (2 Bft) W-SW 257 ° 0 min 0,000 mm 0,0 UV-I 0 W/m² 0,7 °C 4,8 °C 12,9 km/h (3 Bft)
23.02.2017 05:54 6,4 °C 6,4 °C 67 % 1009,7 hPa 0,0 mm 9,7 km/h (2 Bft) SW 225 ° 0 min 0,000 mm 0,0 UV-I 0 W/m² 0,7 °C 4,4 °C 12,9 km/h (3 Bft)
23.02.2017 05:55 6,4 °C 6,4 °C 67 % 1009,6 hPa 0,0 mm 6,6 km/h (2 Bft) W-SW 251 ° 0 min 0,000 mm 0,0 UV-I 0 W/m² 0,7 °C 5,2 °C 11,3 km/h (2 Bft)
23.02.2017 05:56 6,3 °C 6,4 °C 67 % 1009,6 hPa 0,0 mm 7,0 km/h (2 Bft) S-SW 194 ° 0 min 0,000 mm 0,0 UV-I 0 W/m² 0,6 °C 4,9 °C 11,3 km/h (2 Bft)
23.02.2017 05:57 6,3 °C 6,4 °C 67 % 1009,6 hPa 0,0 mm 6,8 km/h (2 Bft) W-SW 244 ° 0 min 0,000 mm 0,0 UV-I 0 W/m² 0,6 °C 5,0 °C 11,3 km/h (2 Bft)
23.02.2017 05:58 6,3 °C 6,4 °C 67 % 1009,6 hPa 0,0 mm 7,6 km/h (2 Bft) SW 232 ° 0 min 0,000 mm 0,0 UV-I 0 W/m² 0,6 °C 4,8 °C 11,3 km/h (2 Bft)
23.02.2017 05:59 6,4 °C 6,4 °C 67 % 1009,6 hPa 0,0 mm 5,0 km/h (1 Bft) SW 226 ° 0 min 0,000 mm 0,0 UV-I 0 W/m² 0,7 °C 5,7 °C 8,0 km/h (2 Bft)
23.02.2017 06:00 6,3 °C 6,4 °C 66 % 1009,6 hPa 0,0 mm 6,4 km/h (2 Bft) SW 225 ° 0 min 0,000 mm 0,0 UV-I 0 W/m² 0,4 °C 5,1 °C 8,0 km/h (2 Bft)
23.02.2017 06:01 6,3 °C 6,4 °C 67 % 1009,6 hPa 0,0 mm 6,8 km/h (2 Bft) S-SW 210 ° 0 min 0,026 mm 0,0 UV-I 0 W/m² 0,6 °C 5,0 °C 9,7 km/h (2 Bft)
23.02.2017 06:02 6,4 °C 6,4 °C 66 % 1009,6 hPa 0,0 mm 4,2 km/h (1 Bft) SW 217 ° 0 min 0,000 mm 0,0 UV-I 0 W/m² 0,5 °C 6,4 °C 6,4 km/h (2 Bft)
23.02.2017 06:03 6,4 °C 6,4 °C 66 % 1009,6 hPa 0,0 mm 5,8 km/h (2 Bft) W 265 ° 0 min 0,000 mm 0,0 UV-I 0 W/m² 0,5 °C 5,4 °C 8,0 km/h (2 Bft)
23.02.2017 06:04 6,4 °C 6,4 °C 66 % 1009,6 hPa 0,0 mm 5,5 km/h (1 Bft) W-SW 252 ° 0 min 0,000 mm 0,0 UV-I 0 W/m² 0,5 °C 5,5 °C 8,0 km/h (2 Bft)
23.02.2017 06:05 6,4 °C 6,4 °C 65 % 1009,6 hPa 0,0 mm 7,2 km/h (2 Bft) SW 228 ° 0 min 0,000 mm 0,0 UV-I 0 W/m² 0,3 °C 5,0 °C 11,3 km/h (2 Bft)
23.02.2017 06:06 6,4 °C 6,4 °C 65 % 1009,6 hPa 0,0 mm 4,7 km/h (1 Bft) W-SW 244 ° 0 min 0,000 mm 0,0 UV-I 0 W/m² 0,3 °C 5,8 °C 6,4 km/h (2 Bft)
23.02.2017 06:07 6,4 °C 6,4 °C 65 % 1009,6 hPa 0,0 mm 5,3 km/h (1 Bft) SW 218 ° 0 min 0,000 mm 0,0 UV-I 0 W/m² 0,3 °C 5,6 °C 8,0 km/h (2 Bft)
23.02.2017 06:08 6,4 °C 6,4 °C 65 % 1009,5 hPa 0,0 mm 5,9 km/h (2 Bft) SW 220 ° 0 min 0,000 mm 0,0 UV-I 0 W/m² 0,3 °C 5,4 °C 6,4 km/h (2 Bft)
23.02.2017 06:09 6,4 °C 6,4 °C 65 % 1009,6 hPa 0,0 mm 6,3 km/h (2 Bft) SW 232 ° 0 min 0,000 mm 0,0 UV-I 0 W/m² 0,3 °C 5,2 °C 8,0 km/h (2 Bft)
23.02.2017 06:10 6,4 °C 6,4 °C 65 % 1009,6 hPa 0,0 mm 7,4 km/h (2 Bft) S-SW 211 ° 0 min 0,000 mm 0,0 UV-I 0 W/m² 0,3 °C 4,9 °C 11,3 km/h (2 Bft)
23.02.2017 06:11 6,4 °C 6,4 °C 65 % 1009,5 hPa 0,0 mm 5,7 km/h (1 Bft) SW 220 ° 0 min 0,000 mm 0,0 UV-I 0 W/m² 0,3 °C 5,4 °C 11,3 km/h (2 Bft)
23.02.2017 06:12 6,4 °C 6,4 °C 64 % 1009,5 hPa 0,0 mm 4,4 km/h (1 Bft) SW 228 ° 0 min 0,000 mm 0,0 UV-I 0 W/m² 0,1 °C 6,4 °C 6,4 km/h (2 Bft)
23.02.2017 06:13 6,4 °C 6,4 °C 64 % 1009,5 hPa 0,0 mm 5,7 km/h (1 Bft) S-SW 212 ° 0 min 0,000 mm 0,0 UV-I 0 W/m² 0,1 °C 5,4 °C 6,4 km/h (2 Bft)
23.02.2017 06:14 6,4 °C 6,4 °C 64 % 1009,5 hPa 0,0 mm 6,0 km/h (2 Bft) SW 219 ° 0 min 0,000 mm 0,0 UV-I 0 W/m² 0,1 °C 5,3 °C 12,9 km/h (3 Bft)
23.02.2017 06:15 6,5 °C 6,5 °C 64 % 1009,5 hPa 0,0 mm 5,4 km/h (1 Bft) W-SW 240 ° 0 min 0,000 mm 0,0 UV-I 0 W/m² 0,2 °C 5,6 °C 8,0 km/h (2 Bft)
23.02.2017 06:16 6,5 °C 6,5 °C 64 % 1009,5 hPa 0,0 mm 5,9 km/h (2 Bft) W-SW 257 ° 0 min 0,000 mm 0,0 UV-I 0 W/m² 0,2 °C 5,5 °C 8,0 km/h (2 Bft)
23.02.2017 06:17 6,5 °C 6,5 °C 63 % 1009,5 hPa 0,0 mm 8,2 km/h (2 Bft) W-SW 244 ° 0 min 0,000 mm 0,0 UV-I 0 W/m² -0,0 °C 4,8 °C 11,3 km/h (2 Bft)
23.02.2017 06:18 6,6 °C 6,6 °C 62 % 1009,4 hPa 0,0 mm 8,3 km/h (2 Bft) SW 215 ° 0 min 0,000 mm 0,0 UV-I 0 W/m² -0,1 °C 4,9 °C 11,3 km/h (2 Bft)
23.02.2017 06:19 6,7 °C 6,7 °C 62 % 1009,5 hPa 0,0 mm 6,6 km/h (2 Bft) SW 234 ° 0 min 0,000 mm 0,0 UV-I 0 W/m² -0,1 °C 5,5 °C 9,7 km/h (2 Bft)
23.02.2017 06:20 6,7 °C 6,7 °C 62 % 1009,5 hPa 0,0 mm 6,0 km/h (2 Bft) SW 232 ° 0 min 0,000 mm 0,0 UV-I 0 W/m² -0,1 °C 5,7 °C 8,0 km/h (2 Bft)
23.02.2017 06:21 6,7 °C 6,7 °C 61 % 1009,5 hPa 0,0 mm 6,3 km/h (2 Bft) SW 227 ° 0 min 0,000 mm 0,0 UV-I 0 W/m² -0,3 °C 5,6 °C 9,7 km/h (2 Bft)
23.02.2017 06:22 6,8 °C 6,8 °C 61 % 1009,5 hPa 0,0 mm 7,6 km/h (2 Bft) SW 234 ° 0 min 0,000 mm 0,0 UV-I 0 W/m² -0,2 °C 5,3 °C 9,7 km/h (2 Bft)
23.02.2017 06:23 6,8 °C 6,8 °C 60 % 1009,4 hPa 0,0 mm 8,4 km/h (2 Bft) S-SW 211 ° 0 min 0,000 mm 0,0 UV-I 0 W/m² -0,4 °C 5,2 °C 11,3 km/h (2 Bft)
23.02.2017 06:24 6,9 °C 6,9 °C 59 % 1009,4 hPa 0,0 mm 6,8 km/h (2 Bft) W-SW 243 ° 0 min 0,000 mm 0,0 UV-I 0 W/m² -0,5 °C 5,7 °C 9,7 km/h (2 Bft)
23.02.2017 06:25 7,1 °C 7,1 °C 59 % 1009,4 hPa 0,0 mm 6,2 km/h (2 Bft) W-SW 245 ° 0 min 0,000 mm 0,0 UV-I 0 W/m² -0,4 °C 6,1 °C 12,9 km/h (3 Bft)
23.02.2017 06:26 7,1 °C 7,1 °C 58 % 1009,3 hPa 0,0 mm 5,5 km/h (1 Bft) SW 230 ° 0 min 0,000 mm 0,0 UV-I 0 W/m² -0,6 °C 6,3 °C 8,0 km/h (2 Bft)
23.02.2017 06:27 7,2 °C 7,2 °C 58 % 1009,3 hPa 0,0 mm 7,1 km/h (2 Bft) SW 228 ° 0 min 0,000 mm 0,0 UV-I 0 W/m² -0,5 °C 5,9 °C 9,7 km/h (2 Bft)
23.02.2017 06:28 7,2 °C 7,2 °C 58 % 1009,3 hPa 0,0 mm 9,7 km/h (2 Bft) S-SW 203 ° 0 min 0,000 mm 0,0 UV-I 0 W/m² -0,5 °C 5,3 °C 14,5 km/h (3 Bft)
23.02.2017 06:29 7,2 °C 7,2 °C 57 % 1009,4 hPa 0,0 mm 7,7 km/h (2 Bft) W-SW 254 ° 0 min 0,000 mm 0,0 UV-I 0 W/m² -0,7 °C 5,8 °C 16,1 km/h (3 Bft)
23.02.2017 06:30 7,2 °C 7,2 °C 57 % 1009,4 hPa 0,0 mm 9,1 km/h (2 Bft) SW 215 ° 0 min 0,000 mm 0,0 UV-I 0 W/m² -0,7 °C 5,5 °C 19,3 km/h (3 Bft)
23.02.2017 06:31 7,2 °C 7,2 °C 56 % 1009,4 hPa 0,0 mm 7,3 km/h (2 Bft) S-SW 212 ° 0 min 0,000 mm 0,0 UV-I 0 W/m² -1,0 °C 5,9 °C 9,7 km/h (2 Bft)
23.02.2017 06:32 7,3 °C 7,3 °C 56 % 1009,3 hPa 0,0 mm 9,9 km/h (2 Bft) W-SW 254 ° 0 min 0,000 mm 0,0 UV-I 0 W/m² -0,9 °C 5,4 °C 14,5 km/h (3 Bft)
23.02.2017 06:33 7,3 °C 7,3 °C 56 % 1009,4 hPa 0,0 mm 8,6 km/h (2 Bft) W-SW 244 ° 0 min 0,000 mm 0,0 UV-I 0 W/m² -0,9 °C 5,7 °C 16,1 km/h (3 Bft)
23.02.2017 06:34 7,3 °C 7,3 °C 56 % 1009,4 hPa 0,0 mm 9,0 km/h (2 Bft) W-SW 244 ° 0 min 0,000 mm 0,0 UV-I 0 W/m² -0,9 °C 5,6 °C 12,9 km/h (3 Bft)
23.02.2017 06:35 7,3 °C 7,3 °C 55 % 1009,3 hPa 0,0 mm 7,1 km/h (2 Bft) W-SW 251 ° 0 min 0,000 mm 0,0 UV-I 0 W/m² -1,1 °C 6,1 °C 11,3 km/h (2 Bft)
23.02.2017 06:36 7,3 °C 7,3 °C 54 % 1009,3 hPa 0,0 mm 6,2 km/h (2 Bft) W 274 ° 0 min 0,000 mm 0,0 UV-I 0 W/m² -1,4 °C 6,3 °C 9,7 km/h (2 Bft)
23.02.2017 06:37 7,4 °C 7,4 °C 54 % 1009,2 hPa 0,0 mm 9,5 km/h (2 Bft) W-SW 251 ° 0 min 0,000 mm 0,0 UV-I 0 W/m² -1,3 °C 5,6 °C 16,1 km/h (3 Bft)
23.02.2017 06:38 7,4 °C 7,4 °C 54 % 1009,2 hPa 0,0 mm 8,7 km/h (2 Bft) W 262 ° 0 min 0,000 mm 0,0 UV-I 0 W/m² -1,3 °C 5,8 °C 11,3 km/h (2 Bft)
23.02.2017 06:39 7,4 °C 7,4 °C 54 % 1009,2 hPa 0,0 mm 11,7 km/h (2 Bft) W-SW 248 ° 0 min 0,000 mm 0,0 UV-I 0 W/m² -1,3 °C 5,2 °C 16,1 km/h (3 Bft)
23.02.2017 06:40 7,4 °C 7,4 °C 53 % 1009,2 hPa 0,0 mm 12,2 km/h (2 Bft) W-SW 251 ° 0 min 0,000 mm 0,0 UV-I 0 W/m² -1,5 °C 5,1 °C 19,3 km/h (3 Bft)
23.02.2017 06:41 7,4 °C 7,4 °C 53 % 1009,2 hPa 0,0 mm 9,3 km/h (2 Bft) W-SW 242 ° 0 min 0,000 mm 0,0 UV-I 0 W/m² -1,5 °C 5,7 °C 17,7 km/h (3 Bft)
23.02.2017 06:42 7,5 °C 7,5 °C 51 % 1009,1 hPa 0,0 mm 7,4 km/h (2 Bft) SW 232 ° 0 min 0,000 mm 0,0 UV-I 0 W/m² -2,0 °C 6,2 °C 12,9 km/h (3 Bft)
23.02.2017 06:43 7,6 °C 7,6 °C 49 % 1009,2 hPa 0,0 mm 12,5 km/h (3 Bft) W-SW 253 ° 0 min 0,000 mm 0,0 UV-I 0 W/m² -2,4 °C 5,3 °C 19,3 km/h (3 Bft)
23.02.2017 06:44 7,7 °C 7,7 °C 51 % 1009,1 hPa 0,0 mm 13,4 km/h (3 Bft) W 265 ° 0 min 0,000 mm 0,0 UV-I 0 W/m² -1,8 °C 5,3 °C 19,3 km/h (3 Bft)
23.02.2017 06:45 7,7 °C 7,7 °C 49 % 1009,1 hPa 0,0 mm 12,8 km/h (3 Bft) W 263 ° 0 min 0,000 mm 0,0 UV-I 0 W/m² -2,3 °C 5,4 °C 20,9 km/h (4 Bft)
23.02.2017 06:46 7,8 °C 7,8 °C 49 % 1009,1 hPa 0,0 mm 12,1 km/h (2 Bft) W-SW 254 ° 0 min 0,000 mm 0,0 UV-I 0 W/m² -2,2 °C 5,6 °C 19,3 km/h (3 Bft)
23.02.2017 06:47 7,9 °C 7,9 °C 47 % 1009,1 hPa 0,0 mm 11,5 km/h (2 Bft) W-SW 245 ° 0 min 0,000 mm 0,0 UV-I 0 W/m² -2,7 °C 5,9 °C 19,3 km/h (3 Bft)
23.02.2017 06:48 8,1 °C 8,1 °C 47 % 1009,1 hPa 0,0 mm 15,8 km/h (3 Bft) W-NW 285 ° 0 min 0,000 mm 0,0 UV-I 0 W/m² -2,5 °C 5,5 °C 22,5 km/h (4 Bft)
23.02.2017 06:49 8,1 °C 8,1 °C 46 % 1009,0 hPa 0,0 mm 16,9 km/h (3 Bft) SW 236 ° 0 min 0,000 mm 0,0 UV-I 0 W/m² -2,8 °C 5,3 °C 32,2 km/h (5 Bft)
23.02.2017 06:50 8,2 °C 8,2 °C 46 % 1009,1 hPa 0,0 mm 16,2 km/h (3 Bft) SW 223 ° 0 min 0,000 mm 0,0 UV-I 0 W/m² -2,7 °C 5,5 °C 30,6 km/h (5 Bft)
23.02.2017 06:51 8,3 °C 8,3 °C 44 % 1009,1 hPa 0,0 mm 15,0 km/h (3 Bft) W 267 ° 0 min 0,000 mm 0,0 UV-I 0 W/m² -3,2 °C 5,8 °C 24,1 km/h (4 Bft)
23.02.2017 06:52 8,4 °C 8,4 °C 44 % 1009,1 hPa 0,0 mm 16,1 km/h (3 Bft) W-SW 244 ° 0 min 0,000 mm 0,0 UV-I 0 W/m² -3,1 °C 5,8 °C 19,3 km/h (3 Bft)
23.02.2017 06:53 8,6 °C 8,6 °C 44 % 1009,1 hPa 0,0 mm 11,6 km/h (2 Bft) W-SW 252 ° 0 min 0,000 mm 0,0 UV-I 0 W/m² -2,9 °C 6,7 °C 16,1 km/h (3 Bft)
23.02.2017 06:54 8,8 °C 8,8 °C 43 % 1009,2 hPa 0,0 mm 15,0 km/h (3 Bft) W 267 ° 0 min 0,000 mm 0,0 UV-I 0 W/m² -3,1 °C 6,4 °C 22,5 km/h (4 Bft)
23.02.2017 06:55 8,9 °C 8,9 °C 43 % 1009,1 hPa 0,0 mm 18,1 km/h (3 Bft) W-SW 253 ° 0 min 0,000 mm 0,0 UV-I 0 W/m² -3,0 °C 6,2 °C 24,1 km/h (4 Bft)
23.02.2017 06:56 8,9 °C 8,9 °C 43 % 1009,1 hPa 0,0 mm 15,7 km/h (3 Bft) W-SW 248 ° 0 min 0,000 mm 0,0 UV-I 0 W/m² -3,0 °C 6,5 °C 20,9 km/h (4 Bft)
23.02.2017 06:57 9,0 °C 9,0 °C 42 % 1009,1 hPa 0,0 mm 11,3 km/h (2 Bft) W-SW 248 ° 0 min 0,000 mm 0,0 UV-I 0 W/m² -3,2 °C 7,2 °C 20,9 km/h (4 Bft)
23.02.2017 06:58 9,1 °C 9,1 °C 41 % 1009,0 hPa 0,0 mm 14,8 km/h (3 Bft) W 260 ° 0 min 0,000 mm 0,0 UV-I 0 W/m² -3,4 °C 6,8 °C 25,7 km/h (4 Bft)
23.02.2017 06:59 9,2 °C 9,2 °C 41 % 1009,0 hPa 0,0 mm 13,9 km/h (3 Bft) W-SW 251 ° 0 min 0,000 mm 0,0 UV-I 0 W/m² -3,4 °C 7,1 °C 19,3 km/h (3 Bft)
23.02.2017 07:00 9,3 °C 9,3 °C 41 % 1009,0 hPa 0,0 mm 20,0 km/h (4 Bft) W 259 ° 0 min 0,000 mm 0,0 UV-I 0 W/m² -3,3 °C 6,5 °C 25,7 km/h (4 Bft)
23.02.2017 07:01 9,4 °C 9,4 °C 40 % 1009,0 hPa 0,0 mm 13,6 km/h (3 Bft) SW 232 ° 0 min 0,050 mm 0,0 UV-I 0 W/m² -3,5 °C 7,4 °C 24,1 km/h (4 Bft)
23.02.2017 07:02 9,4 °C 9,4 °C 40 % 1009,1 hPa 0,0 mm 19,9 km/h (4 Bft) W 281 ° 0 min 0,000 mm 0,0 UV-I 0 W/m² -3,5 °C 6,6 °C 29,0 km/h (5 Bft)
23.02.2017 07:03 9,6 °C 9,6 °C 40 % 1008,9 hPa 0,0 mm 15,4 km/h (3 Bft) W 259 ° 0 min 0,000 mm 0,0 UV-I 0 W/m² -3,3 °C 7,4 °C 24,1 km/h (4 Bft)
23.02.2017 07:04 9,7 °C 9,7 °C 39 % 1008,9 hPa 0,0 mm 17,7 km/h (3 Bft) W-SW 254 ° 0 min 0,000 mm 0,0 UV-I 0 W/m² -3,6 °C 7,2 °C 24,1 km/h (4 Bft)
23.02.2017 07:05 9,8 °C 9,8 °C 40 % 1009,0 hPa 0,0 mm 11,5 km/h (2 Bft) W 274 ° 0 min 0,000 mm 0,0 UV-I 0 W/m² -3,1 °C 8,1 °C 16,1 km/h (3 Bft)
23.02.2017 07:06 9,8 °C 9,8 °C 39 % 1009,0 hPa 0,0 mm 14,1 km/h (3 Bft) W-SW 244 ° 0 min 0,000 mm 0,0 UV-I 0 W/m² -3,5 °C 7,8 °C 20,9 km/h (4 Bft)
23.02.2017 07:07 9,8 °C 9,8 °C 39 % 1009,1 hPa 0,0 mm 15,3 km/h (3 Bft) W-NW 288 ° 0 min 0,000 mm 0,0 UV-I 0 W/m² -3,5 °C 7,6 °C 24,1 km/h (4 Bft)
23.02.2017 07:08 9,9 °C 9,9 °C 38 % 1009,0 hPa 0,0 mm 16,2 km/h (3 Bft) W 264 ° 0 min 0,000 mm 0,0 UV-I 0 W/m² -3,7 °C 7,6 °C 27,4 km/h (4 Bft)
23.02.2017 07:09 10,0 °C 10,0 °C 37 % 1009,1 hPa 0,0 mm 15,8 km/h (3 Bft) W-SW 248 ° 0 min 0,000 mm 0,0 UV-I 0 W/m² -4,0 °C 7,8 °C 24,1 km/h (4 Bft)
23.02.2017 07:10 10,1 °C 10,1 °C 38 % 1009,1 hPa 0,0 mm 18,8 km/h (3 Bft) W 276 ° 0 min 0,000 mm 0,0 UV-I 0 W/m² -3,6 °C 10,1 °C 29,0 km/h (5 Bft)
23.02.2017 07:11 10,2 °C 10,2 °C 38 % 1009,0 hPa 0,0 mm 10,4 km/h (2 Bft) W 270 ° 0 min 0,000 mm 0,0 UV-I 0 W/m² -3,5 °C 10,2 °C 16,1 km/h (3 Bft)
23.02.2017 07:12 10,2 °C 10,2 °C 38 % 1009,0 hPa 0,0 mm 14,7 km/h (3 Bft) W-SW 250 ° 0 min 0,000 mm 0,0 UV-I 0 W/m² -3,5 °C 10,2 °C 20,9 km/h (4 Bft)
23.02.2017 07:13 10,3 °C 10,3 °C 37 % 1009,0 hPa 0,0 mm 10,7 km/h (2 Bft) W 264 ° 0 min 0,000 mm 0,0 UV-I 0 W/m² -3,7 °C 10,3 °C 20,9 km/h (4 Bft)
23.02.2017 07:14 10,3 °C 10,3 °C 38 % 1009,1 hPa 0,0 mm 18,9 km/h (3 Bft) W-SW 241 ° 0 min 0,000 mm 0,0 UV-I 5 W/m² -3,4 °C 10,3 °C 27,4 km/h (4 Bft)
23.02.2017 07:15 10,3 °C 10,3 °C 38 % 1009,0 hPa 0,0 mm 19,2 km/h (3 Bft) W-SW 257 ° 0 min 0,000 mm 0,0 UV-I 5 W/m² -3,4 °C 10,3 °C 25,7 km/h (4 Bft)
23.02.2017 07:16 10,2 °C 10,3 °C 38 % 1009,1 hPa 0,0 mm 17,7 km/h (3 Bft) W-SW 254 ° 0 min 0,000 mm 0,0 UV-I 7 W/m² -3,5 °C 10,2 °C 22,5 km/h (4 Bft)
23.02.2017 07:17 10,3 °C 10,3 °C 37 % 1009,0 hPa 0,0 mm 14,8 km/h (3 Bft) S 169 ° 0 min 0,000 mm 0,0 UV-I 7 W/m² -3,7 °C 10,3 °C 32,2 km/h (5 Bft)
23.02.2017 07:18 10,3 °C 10,3 °C 37 % 1009,0 hPa 0,0 mm 16,1 km/h (3 Bft) W 262 ° 0 min 0,000 mm 0,0 UV-I 7 W/m² -3,7 °C 10,3 °C 32,2 km/h (5 Bft)
23.02.2017 07:19 10,4 °C 10,4 °C 37 % 1009,0 hPa 0,0 mm 19,3 km/h (3 Bft) SW 229 ° 0 min 0,000 mm 0,0 UV-I 7 W/m² -3,6 °C 10,4 °C 24,1 km/h (4 Bft)
23.02.2017 07:20 10,4 °C 10,4 °C 38 % 1009,0 hPa 0,0 mm 9,3 km/h (2 Bft) W-SW 255 ° 0 min 0,000 mm 0,0 UV-I 9 W/m² -3,3 °C 10,4 °C 19,3 km/h (3 Bft)
23.02.2017 07:21 10,4 °C 10,4 °C 37 % 1009,0 hPa 0,0 mm 14,4 km/h (3 Bft) W-SW 246 ° 0 min 0,000 mm 0,0 UV-I 11 W/m² -3,6 °C 10,4 °C 22,5 km/h (4 Bft)
23.02.2017 07:22 10,4 °C 10,4 °C 38 % 1009,0 hPa 0,0 mm 10,5 km/h (2 Bft) W-SW 240 ° 0 min 0,000 mm 0,0 UV-I 11 W/m² -3,3 °C 10,4 °C 14,5 km/h (3 Bft)
23.02.2017 07:23 10,4 °C 10,4 °C 36 % 1009,0 hPa 0,0 mm 16,1 km/h (3 Bft) W 267 ° 0 min 0,000 mm 0,0 UV-I 11 W/m² -4,0 °C 10,4 °C 29,0 km/h (5 Bft)
23.02.2017 07:24 10,5 °C 10,5 °C 36 % 1008,9 hPa 0,0 mm 18,4 km/h (3 Bft) W 259 ° 0 min 0,000 mm 0,0 UV-I 12 W/m² -3,9 °C 10,5 °C 29,0 km/h (5 Bft)
23.02.2017 07:25 10,6 °C 10,6 °C 37 % 1009,0 hPa 0,0 mm 19,4 km/h (3 Bft) W 280 ° 0 min 0,000 mm 0,0 UV-I 12 W/m² -3,5 °C 10,6 °C 27,4 km/h (4 Bft)
23.02.2017 07:26 10,7 °C 10,7 °C 36 % 1009,1 hPa 0,0 mm 24,1 km/h (4 Bft) W-SW 248 ° 0 min 0,000 mm 0,0 UV-I 14 W/m² -3,7 °C 10,7 °C 27,4 km/h (4 Bft)
23.02.2017 07:27 10,7 °C 10,7 °C 36 % 1009,0 hPa 0,0 mm 14,6 km/h (3 Bft) W-SW 246 ° 0 min 0,000 mm 0,0 UV-I 14 W/m² -3,7 °C 10,7 °C 24,1 km/h (4 Bft)
23.02.2017 07:28 10,7 °C 10,7 °C 38 % 1009,0 hPa 0,0 mm 18,9 km/h (3 Bft) W-SW 252 ° 0 min 0,000 mm 0,0 UV-I 14 W/m² -3,0 °C 10,7 °C 33,8 km/h (5 Bft)
23.02.2017 07:29 10,7 °C 10,7 °C 36 % 1008,9 hPa 0,0 mm 15,8 km/h (3 Bft) W-SW 247 ° 0 min 0,000 mm 0,0 UV-I 16 W/m² -3,7 °C 10,7 °C 25,7 km/h (4 Bft)
23.02.2017 07:30 10,7 °C 10,7 °C 37 % 1008,9 hPa 0,0 mm 17,2 km/h (3 Bft) W-SW 237 ° 0 min 0,000 mm 0,0 UV-I 16 W/m² -3,4 °C 10,7 °C 29,0 km/h (5 Bft)
23.02.2017 07:31 10,7 °C 10,7 °C 37 % 1009,1 hPa 0,0 mm 13,8 km/h (3 Bft) SW 232 ° 0 min 0,000 mm 0,0 UV-I 16 W/m² -3,4 °C 10,7 °C 19,3 km/h (3 Bft)
23.02.2017 07:32 10,7 °C 10,7 °C 37 % 1009,1 hPa 0,0 mm 13,4 km/h (3 Bft) W-SW 249 ° 0 min 0,000 mm 0,0 UV-I 18 W/m² -3,4 °C 10,7 °C 19,3 km/h (3 Bft)
23.02.2017 07:33 10,7 °C 10,7 °C 37 % 1009,1 hPa 0,0 mm 20,0 km/h (4 Bft) W-SW 250 ° 0 min 0,000 mm 0,0 UV-I 19 W/m² -3,4 °C 10,7 °C 27,4 km/h (4 Bft)
23.02.2017 07:34 10,7 °C 10,7 °C 37 % 1009,0 hPa 0,0 mm 14,4 km/h (3 Bft) SW 233 ° 0 min 0,000 mm 0,0 UV-I 19 W/m² -3,4 °C 10,7 °C 27,4 km/h (4 Bft)
23.02.2017 07:35 10,7 °C 10,7 °C 37 % 1009,0 hPa 0,0 mm 13,7 km/h (3 Bft) W 275 ° 0 min 0,000 mm 0,0 UV-I 19 W/m² -3,4 °C 10,7 °C 27,4 km/h (4 Bft)
23.02.2017 07:36 10,7 °C 10,7 °C 36 % 1009,1 hPa 0,0 mm 19,9 km/h (4 Bft) W-SW 255 ° 0 min 0,000 mm 0,0 UV-I 21 W/m² -3,7 °C 10,7 °C 24,1 km/h (4 Bft)
23.02.2017 07:37 10,8 °C 10,8 °C 36 % 1009,0 hPa 0,0 mm 15,8 km/h (3 Bft) W 261 ° 0 min 0,000 mm 0,0 UV-I 21 W/m² -3,7 °C 10,8 °C 22,5 km/h (4 Bft)
23.02.2017 07:38 10,8 °C 10,8 °C 36 % 1009,0 hPa 0,0 mm 14,3 km/h (3 Bft) W 263 ° 0 min 0,000 mm 0,0 UV-I 23 W/m² -3,7 °C 10,8 °C 20,9 km/h (4 Bft)
23.02.2017 07:39 10,8 °C 10,8 °C 36 % 1009,0 hPa 0,0 mm 14,1 km/h (3 Bft) W 261 ° 0 min 0,000 mm 0,0 UV-I 23 W/m² -3,7 °C 10,8 °C 19,3 km/h (3 Bft)
23.02.2017 07:40 10,8 °C 10,8 °C 36 % 1009,1 hPa 0,0 mm 10,3 km/h (2 Bft) SW 215 ° 0 min 0,000 mm 0,0 UV-I 23 W/m² -3,7 °C 10,8 °C 16,1 km/h (3 Bft)
23.02.2017 07:41 10,9 °C 10,9 °C 36 % 1008,9 hPa 0,0 mm 5,7 km/h (1 Bft) W 265 ° 0 min 0,000 mm 0,0 UV-I 23 W/m² -3,6 °C 10,9 °C 11,3 km/h (2 Bft)
23.02.2017 07:42 10,9 °C 10,9 °C 36 % 1009,1 hPa 0,0 mm 10,3 km/h (2 Bft) W-SW 243 ° 0 min 0,000 mm 0,0 UV-I 25 W/m² -3,6 °C 10,9 °C 14,5 km/h (3 Bft)
23.02.2017 07:43 10,9 °C 10,9 °C 35 % 1009,0 hPa 0,0 mm 10,7 km/h (2 Bft) S-SW 194 ° 0 min 0,000 mm 0,0 UV-I 25 W/m² -3,9 °C 10,9 °C 17,7 km/h (3 Bft)
23.02.2017 07:44 10,9 °C 10,9 °C 35 % 1009,0 hPa 0,0 mm 11,4 km/h (2 Bft) W 262 ° 0 min 0,000 mm 0,0 UV-I 25 W/m² -3,9 °C 10,9 °C 19,3 km/h (3 Bft)
23.02.2017 07:45 10,9 °C 10,9 °C 36 % 1009,1 hPa 0,0 mm 12,3 km/h (3 Bft) W 270 ° 0 min 0,000 mm 0,0 UV-I 25 W/m² -3,6 °C 10,9 °C 19,3 km/h (3 Bft)
23.02.2017 07:46 10,9 °C 10,9 °C 35 % 1009,0 hPa 0,0 mm 17,4 km/h (3 Bft) W 273 ° 0 min 0,000 mm 0,0 UV-I 26 W/m² -3,9 °C 10,9 °C 27,4 km/h (4 Bft)
23.02.2017 07:47 10,9 °C 10,9 °C 36 % 1009,0 hPa 0,0 mm 12,9 km/h (3 Bft) SW 216 ° 0 min 0,000 mm 0,0 UV-I 26 W/m² -3,6 °C 10,9 °C 24,1 km/h (4 Bft)
23.02.2017 07:48 10,9 °C 10,9 °C 35 % 1009,0 hPa 0,0 mm 5,2 km/h (1 Bft) W-SW 238 ° 0 min 0,000 mm 0,0 UV-I 26 W/m² -3,9 °C 10,9 °C 11,3 km/h (2 Bft)
23.02.2017 07:49 10,9 °C 10,9 °C 35 % 1009,0 hPa 0,0 mm 7,1 km/h (2 Bft) NW 320 ° 0 min 0,000 mm 0,0 UV-I 26 W/m² -3,9 °C 10,9 °C 11,3 km/h (2 Bft)
23.02.2017 07:50 11,0 °C 11,0 °C 36 % 1009,0 hPa 0,0 mm 10,6 km/h (2 Bft) SW 229 ° 0 min 0,000 mm 0,0 UV-I 26 W/m² -3,5 °C 11,0 °C 17,7 km/h (3 Bft)
23.02.2017 07:51 10,9 °C 11,0 °C 36 % 1009,0 hPa 0,0 mm 7,6 km/h (2 Bft) W-SW 246 ° 0 min 0,000 mm 0,0 UV-I 28 W/m² -3,6 °C 10,9 °C 12,9 km/h (3 Bft)
23.02.2017 07:52 10,9 °C 10,9 °C 36 % 1008,9 hPa 0,0 mm 9,7 km/h (2 Bft) W-SW 239 ° 0 min 0,000 mm 0,0 UV-I 28 W/m² -3,6 °C 10,9 °C 16,1 km/h (3 Bft)
23.02.2017 07:53 10,9 °C 10,9 °C 36 % 1009,0 hPa 0,0 mm 8,1 km/h (2 Bft) W-NW 299 ° 0 min 0,000 mm 0,0 UV-I 28 W/m² -3,6 °C 10,9 °C 11,3 km/h (2 Bft)
23.02.2017 07:54 10,9 °C 10,9 °C 35 % 1008,9 hPa 0,0 mm 12,7 km/h (3 Bft) W-SW 257 ° 0 min 0,000 mm 0,0 UV-I 28 W/m² -3,9 °C 10,9 °C 20,9 km/h (4 Bft)
23.02.2017 07:55 10,9 °C 10,9 °C 36 % 1009,0 hPa 0,0 mm 13,1 km/h (3 Bft) W-SW 247 ° 0 min 0,000 mm 0,0 UV-I 28 W/m² -3,6 °C 10,9 °C 19,3 km/h (3 Bft)
23.02.2017 07:56 10,9 °C 10,9 °C 36 % 1009,0 hPa 0,0 mm 10,0 km/h (2 Bft) SW 221 ° 0 min 0,000 mm 0,0 UV-I 28 W/m² -3,6 °C 10,9 °C 16,1 km/h (3 Bft)
23.02.2017 07:57 11,0 °C 11,0 °C 34 % 1009,0 hPa 0,0 mm 15,1 km/h (3 Bft) W-SW 238 ° 0 min 0,000 mm 0,0 UV-I 28 W/m² -4,2 °C 11,0 °C 25,7 km/h (4 Bft)
23.02.2017 07:58 11,1 °C 11,1 °C 35 % 1009,0 hPa 0,0 mm 10,3 km/h (2 Bft) W 263 ° 0 min 0,000 mm 0,0 UV-I 28 W/m² -3,8 °C 11,1 °C 17,7 km/h (3 Bft)
23.02.2017 07:59 11,1 °C 11,1 °C 35 % 1009,1 hPa 0,0 mm 9,5 km/h (2 Bft) W-SW 248 ° 0 min 0,000 mm 0,0 UV-I 30 W/m² -3,8 °C 11,1 °C 19,3 km/h (3 Bft)
23.02.2017 08:00 11,1 °C 11,1 °C 35 % 1009,0 hPa 0,0 mm 10,0 km/h (2 Bft) SW 217 ° 0 min 0,000 mm 0,0 UV-I 30 W/m² -3,8 °C 11,1 °C 14,5 km/h (3 Bft)
23.02.2017 08:01 11,1 °C 11,1 °C 36 % 1009,0 hPa 0,0 mm 11,6 km/h (2 Bft) W 265 ° 0 min 0,102 mm 0,0 UV-I 30 W/m² -3,4 °C 11,1 °C 20,9 km/h (4 Bft)
23.02.2017 08:02 11,1 °C 11,1 °C 35 % 1009,0 hPa 0,0 mm 10,9 km/h (2 Bft) W-SW 253 ° 0 min 0,000 mm 0,0 UV-I 30 W/m² -3,8 °C 11,1 °C 17,7 km/h (3 Bft)
23.02.2017 08:03 11,1 °C 11,1 °C 35 % 1008,9 hPa 0,0 mm 18,5 km/h (3 Bft) W-SW 258 ° 0 min 0,000 mm 0,0 UV-I 32 W/m² -3,8 °C 11,1 °C 29,0 km/h (5 Bft)
23.02.2017 08:04 11,1 °C 11,1 °C 35 % 1008,9 hPa 0,0 mm 15,5 km/h (3 Bft) W-SW 249 ° 0 min 0,000 mm 0,0 UV-I 32 W/m² -3,8 °C 11,1 °C 19,3 km/h (3 Bft)
23.02.2017 08:05 11,1 °C 11,1 °C 35 % 1009,0 hPa 0,0 mm 7,5 km/h (2 Bft) W-SW 252 ° 0 min 0,000 mm 0,0 UV-I 32 W/m² -3,8 °C 11,1 °C 11,3 km/h (2 Bft)
23.02.2017 08:06 11,1 °C 11,1 °C 34 % 1008,9 hPa 0,0 mm 10,1 km/h (2 Bft) W-SW 252 ° 0 min 0,000 mm 0,0 UV-I 32 W/m² -4,2 °C 11,1 °C 14,5 km/h (3 Bft)
23.02.2017 08:07 11,1 °C 11,1 °C 35 % 1009,0 hPa 0,0 mm 13,3 km/h (3 Bft) S 187 ° 0 min 0,000 mm 0,0 UV-I 32 W/m² -3,8 °C 11,1 °C 17,7 km/h (3 Bft)
23.02.2017 08:08 11,2 °C 11,2 °C 34 % 1008,9 hPa 0,0 mm 10,3 km/h (2 Bft) S-SW 206 ° 0 min 0,000 mm 0,0 UV-I 32 W/m² -4,1 °C 11,2 °C 14,5 km/h (3 Bft)
23.02.2017 08:09 11,3 °C 11,3 °C 33 % 1008,9 hPa 0,0 mm 12,7 km/h (3 Bft) S-SW 208 ° 0 min 0,000 mm 0,0 UV-I 32 W/m² -4,4 °C 11,3 °C 19,3 km/h (3 Bft)
23.02.2017 08:10 11,3 °C 11,3 °C 33 % 1008,9 hPa 0,0 mm 9,9 km/h (2 Bft) SW 230 ° 0 min 0,000 mm 0,0 UV-I 32 W/m² -4,4 °C 11,3 °C 17,7 km/h (3 Bft)
23.02.2017 08:11 11,4 °C 11,4 °C 33 % 1008,9 hPa 0,0 mm 12,5 km/h (3 Bft) S 190 ° 0 min 0,000 mm 0,0 UV-I 32 W/m² -4,3 °C 11,4 °C 25,7 km/h (4 Bft)
23.02.2017 08:12 11,4 °C 11,4 °C 34 % 1008,8 hPa 0,0 mm 8,5 km/h (2 Bft) SW 223 ° 0 min 0,000 mm 0,0 UV-I 33 W/m² -3,9 °C 11,4 °C 16,1 km/h (3 Bft)
23.02.2017 08:13 11,4 °C 11,4 °C 34 % 1008,9 hPa 0,0 mm 7,8 km/h (2 Bft) W-SW 249 ° 0 min 0,000 mm 0,0 UV-I 33 W/m² -3,9 °C 11,4 °C 12,9 km/h (3 Bft)
23.02.2017 08:14 11,4 °C 11,5 °C 33 % 1008,8 hPa 0,0 mm 9,2 km/h (2 Bft) W-SW 246 ° 0 min 0,000 mm 0,0 UV-I 33 W/m² -4,3 °C 11,4 °C 14,5 km/h (3 Bft)
23.02.2017 08:15 11,5 °C 11,5 °C 33 % 1008,8 hPa 0,0 mm 8,5 km/h (2 Bft) SW 227 ° 0 min 0,000 mm 0,0 UV-I 33 W/m² -4,2 °C 11,5 °C 11,3 km/h (2 Bft)
23.02.2017 08:16 11,5 °C 11,6 °C 33 % 1008,8 hPa 0,0 mm 12,3 km/h (3 Bft) W-SW 245 ° 0 min 0,000 mm 0,0 UV-I 33 W/m² -4,2 °C 11,5 °C 16,1 km/h (3 Bft)
23.02.2017 08:17 11,5 °C 11,5 °C 34 % 1008,8 hPa 0,0 mm 10,0 km/h (2 Bft) W-SW 252 ° 0 min 0,000 mm 0,0 UV-I 33 W/m² -3,8 °C 11,5 °C 17,7 km/h (3 Bft)
23.02.2017 08:18 11,5 °C 11,5 °C 33 % 1008,8 hPa 0,0 mm 11,2 km/h (2 Bft) W-SW 253 ° 0 min 0,000 mm 0,0 UV-I 33 W/m² -4,2 °C 11,5 °C 16,1 km/h (3 Bft)
23.02.2017 08:19 11,5 °C 11,5 °C 34 % 1008,8 hPa 0,0 mm 10,9 km/h (2 Bft) W-SW 250 ° 0 min 0,000 mm 0,0 UV-I 33 W/m² -3,8 °C 11,5 °C 16,1 km/h (3 Bft)
23.02.2017 08:20 11,4 °C 11,5 °C 34 % 1008,8 hPa 0,0 mm 12,8 km/h (3 Bft) S-SW 205 ° 0 min 0,000 mm 0,0 UV-I 35 W/m² -3,9 °C 11,4 °C 20,9 km/h (4 Bft)
23.02.2017 08:21 11,4 °C 11,4 °C 34 % 1008,8 hPa 0,0 mm 7,8 km/h (2 Bft) S 188 ° 0 min 0,000 mm 0,0 UV-I 35 W/m² -3,9 °C 11,4 °C 12,9 km/h (3 Bft)
23.02.2017 08:22 11,4 °C 11,4 °C 33 % 1008,8 hPa 0,0 mm 10,5 km/h (2 Bft) W-NW 298 ° 0 min 0,000 mm 0,0 UV-I 35 W/m² -4,3 °C 11,4 °C 14,5 km/h (3 Bft)
23.02.2017 08:23 11,5 °C 11,5 °C 32 % 1008,8 hPa 0,0 mm 10,1 km/h (2 Bft) W 260 ° 0 min 0,000 mm 0,0 UV-I 35 W/m² -4,6 °C 11,5 °C 12,9 km/h (3 Bft)
23.02.2017 08:24 11,6 °C 11,6 °C 33 % 1008,7 hPa 0,0 mm 11,9 km/h (2 Bft) N 355 ° 0 min 0,000 mm 0,0 UV-I 37 W/m² -4,1 °C 11,6 °C 17,7 km/h (3 Bft)
23.02.2017 08:25 11,6 °C 11,6 °C 33 % 1008,8 hPa 0,0 mm 12,7 km/h (3 Bft) SW 219 ° 0 min 0,000 mm 0,0 UV-I 37 W/m² -4,1 °C 11,6 °C 22,5 km/h (4 Bft)
23.02.2017 08:26 11,6 °C 11,6 °C 32 % 1008,8 hPa 0,0 mm 10,2 km/h (2 Bft) W-SW 255 ° 0 min 0,000 mm 0,0 UV-I 37 W/m² -4,5 °C 11,6 °C 17,7 km/h (3 Bft)
23.02.2017 08:27 11,6 °C 11,6 °C 34 % 1008,7 hPa 0,0 mm 12,4 km/h (3 Bft) W-SW 248 ° 0 min 0,000 mm 0,0 UV-I 37 W/m² -3,7 °C 11,6 °C 29,0 km/h (5 Bft)
23.02.2017 08:28 11,6 °C 11,6 °C 32 % 1008,7 hPa 0,0 mm 9,1 km/h (2 Bft) W 260 ° 0 min 0,000 mm 0,0 UV-I 37 W/m² -4,5 °C 11,6 °C 20,9 km/h (4 Bft)
23.02.2017 08:29 11,6 °C 11,6 °C 32 % 1008,7 hPa 0,0 mm 12,7 km/h (3 Bft) W-SW 257 ° 0 min 0,000 mm 0,0 UV-I 37 W/m² -4,5 °C 11,6 °C 16,1 km/h (3 Bft)
23.02.2017 08:30 11,6 °C 11,7 °C 33 % 1008,7 hPa 0,0 mm 16,0 km/h (3 Bft) W-SW 248 ° 0 min 0,000 mm 0,0 UV-I 37 W/m² -4,1 °C 11,6 °C 24,1 km/h (4 Bft)
23.02.2017 08:31 11,7 °C 11,7 °C 33 % 1008,7 hPa 0,0 mm 12,3 km/h (3 Bft) W 279 ° 0 min 0,000 mm 0,0 UV-I 37 W/m² -4,0 °C 11,7 °C 20,9 km/h (4 Bft)
23.02.2017 08:32 11,7 °C 11,7 °C 31 % 1008,7 hPa 0,0 mm 8,0 km/h (2 Bft) W 265 ° 0 min 0,000 mm 0,0 UV-I 37 W/m² -4,8 °C 11,7 °C 12,9 km/h (3 Bft)
23.02.2017 08:33 11,8 °C 11,8 °C 33 % 1008,7 hPa 0,0 mm 8,1 km/h (2 Bft) W 272 ° 0 min 0,000 mm 0,0 UV-I 37 W/m² -3,9 °C 11,8 °C 12,9 km/h (3 Bft)
23.02.2017 08:34 11,8 °C 11,8 °C 33 % 1008,7 hPa 0,0 mm 14,4 km/h (3 Bft) W-SW 256 ° 0 min 0,000 mm 0,0 UV-I 37 W/m² -3,9 °C 11,8 °C 30,6 km/h (5 Bft)
23.02.2017 08:35 11,8 °C 11,8 °C 31 % 1008,7 hPa 0,0 mm 15,0 km/h (3 Bft) SW 226 ° 0 min 0,000 mm 0,0 UV-I 35 W/m² -4,8 °C 11,8 °C 32,2 km/h (5 Bft)
23.02.2017 08:36 11,8 °C 11,8 °C 33 % 1008,7 hPa 0,0 mm 12,1 km/h (2 Bft) W-SW 254 ° 0 min 0,000 mm 0,0 UV-I 35 W/m² -3,9 °C 11,8 °C 17,7 km/h (3 Bft)
23.02.2017 08:37 11,9 °C 11,9 °C 31 % 1008,6 hPa 0,0 mm 8,7 km/h (2 Bft) W-SW 251 ° 0 min 0,000 mm 0,0 UV-I 35 W/m² -4,7 °C 11,9 °C 16,1 km/h (3 Bft)
23.02.2017 08:38 11,9 °C 11,9 °C 32 % 1008,6 hPa 0,0 mm 9,3 km/h (2 Bft) W-SW 252 ° 0 min 0,000 mm 0,0 UV-I 35 W/m² -4,3 °C 11,9 °C 17,7 km/h (3 Bft)
23.02.2017 08:39 11,9 °C 11,9 °C 32 % 1008,6 hPa 0,0 mm 15,4 km/h (3 Bft) W-SW 246 ° 0 min 0,000 mm 0,0 UV-I 35 W/m² -4,3 °C 11,9 °C 22,5 km/h (4 Bft)
23.02.2017 08:40 11,9 °C 11,9 °C 31 % 1008,5 hPa 0,0 mm 11,3 km/h (2 Bft) S-SW 193 ° 0 min 0,000 mm 0,0 UV-I 35 W/m² -4,7 °C 11,9 °C 16,1 km/h (3 Bft)
23.02.2017 08:41 12,0 °C 12,0 °C 31 % 1008,5 hPa 0,0 mm 14,1 km/h (3 Bft) W-SW 253 ° 0 min 0,000 mm 0,0 UV-I 35 W/m² -4,6 °C 12,0 °C 20,9 km/h (4 Bft)
23.02.2017 08:42 12,1 °C 12,1 °C 32 % 1008,5 hPa 0,0 mm 12,5 km/h (3 Bft) S-SW 200 ° 0 min 0,000 mm 0,0 UV-I 35 W/m² -4,1 °C 12,1 °C 24,1 km/h (4 Bft)
23.02.2017 08:43 12,1 °C 12,1 °C 31 % 1008,5 hPa 0,0 mm 8,5 km/h (2 Bft) W 263 ° 0 min 0,000 mm 0,0 UV-I 33 W/m² -4,5 °C 12,1 °C 11,3 km/h (2 Bft)
23.02.2017 08:44 12,1 °C 12,1 °C 31 % 1008,5 hPa 0,0 mm 14,3 km/h (3 Bft) W-SW 253 ° 0 min 0,000 mm 0,0 UV-I 33 W/m² -4,5 °C 12,1 °C 17,7 km/h (3 Bft)
23.02.2017 08:45 12,1 °C 12,1 °C 33 % 1008,5 hPa 0,0 mm 10,6 km/h (2 Bft) SW 229 ° 0 min 0,000 mm 0,0 UV-I 33 W/m² -3,7 °C 12,1 °C 19,3 km/h (3 Bft)
23.02.2017 08:46 12,0 °C 12,1 °C 32 % 1008,5 hPa 0,0 mm 5,6 km/h (1 Bft) W-SW 245 ° 0 min 0,000 mm 0,0 UV-I 33 W/m² -4,2 °C 12,0 °C 11,3 km/h (2 Bft)
23.02.2017 08:47 12,1 °C 12,1 °C 31 % 1008,4 hPa 0,0 mm 7,8 km/h (2 Bft) SW 230 ° 0 min 0,000 mm 0,0 UV-I 33 W/m² -4,5 °C 12,1 °C 16,1 km/h (3 Bft)
23.02.2017 08:48 12,1 °C 12,1 °C 31 % 1008,5 hPa 0,0 mm 10,7 km/h (2 Bft) W-SW 242 ° 0 min 0,000 mm 0,0 UV-I 33 W/m² -4,5 °C 12,1 °C 19,3 km/h (3 Bft)
23.02.2017 08:49 12,1 °C 12,1 °C 32 % 1008,5 hPa 0,0 mm 7,8 km/h (2 Bft) SW 225 ° 0 min 0,000 mm 0,0 UV-I 33 W/m² -4,1 °C 12,1 °C 19,3 km/h (3 Bft)
23.02.2017 08:50 12,1 °C 12,1 °C 31 % 1008,4 hPa 0,0 mm 12,2 km/h (2 Bft) W 259 ° 0 min 0,000 mm 0,0 UV-I 33 W/m² -4,5 °C 12,1 °C 17,7 km/h (3 Bft)
23.02.2017 08:51 12,1 °C 12,1 °C 33 % 1008,4 hPa 0,0 mm 10,9 km/h (2 Bft) W-SW 245 ° 0 min 0,000 mm 0,0 UV-I 33 W/m² -3,7 °C 12,1 °C 14,5 km/h (3 Bft)
23.02.2017 08:52 12,1 °C 12,1 °C 32 % 1008,4 hPa 0,0 mm 9,9 km/h (2 Bft) W-SW 257 ° 0 min 0,000 mm 0,0 UV-I 33 W/m² -4,1 °C 12,1 °C 20,9 km/h (4 Bft)
23.02.2017 08:53 12,0 °C 12,1 °C 33 % 1008,4 hPa 0,0 mm 8,9 km/h (2 Bft) S-SW 208 ° 0 min 0,000 mm 0,0 UV-I 33 W/m² -3,8 °C 12,0 °C 14,5 km/h (3 Bft)
23.02.2017 08:54 12,0 °C 12,0 °C 32 % 1008,4 hPa 0,0 mm 12,3 km/h (3 Bft) W 279 ° 0 min 0,000 mm 0,0 UV-I 33 W/m² -4,2 °C 12,0 °C 22,5 km/h (4 Bft)
23.02.2017 08:55 12,0 °C 12,1 °C 32 % 1008,4 hPa 0,0 mm 12,7 km/h (3 Bft) S-SW 200 ° 0 min 0,000 mm 0,0 UV-I 33 W/m² -4,2 °C 12,0 °C 16,1 km/h (3 Bft)
23.02.2017 08:56 12,1 °C 12,1 °C 31 % 1008,4 hPa 0,0 mm 9,2 km/h (2 Bft) W-SW 246 ° 0 min 0,000 mm 0,0 UV-I 33 W/m² -4,5 °C 12,1 °C 12,9 km/h (3 Bft)
23.02.2017 08:57 12,1 °C 12,1 °C 31 % 1008,4 hPa 0,0 mm 10,7 km/h (2 Bft) W-NW 290 ° 0 min 0,000 mm 0,0 UV-I 33 W/m² -4,5 °C 12,1 °C 22,5 km/h (4 Bft)
23.02.2017 08:58 12,1 °C 12,1 °C 31 % 1008,3 hPa 0,0 mm 9,7 km/h (2 Bft) SW 220 ° 0 min 0,000 mm 0,0 UV-I 33 W/m² -4,5 °C 12,1 °C 12,9 km/h (3 Bft)
23.02.2017 08:59 12,2 °C 12,2 °C 31 % 1008,3 hPa 0,0 mm 11,2 km/h (2 Bft) SW 232 ° 0 min 0,000 mm 0,0 UV-I 35 W/m² -4,4 °C 12,2 °C 17,7 km/h (3 Bft)
23.02.2017 09:00 12,2 °C 12,3 °C 30 % 1008,2 hPa 0,0 mm 12,7 km/h (3 Bft) W 262 ° 0 min 0,000 mm 0,0 UV-I 35 W/m² -4,8 °C 12,2 °C 16,1 km/h (3 Bft)
23.02.2017 09:01 12,3 °C 12,3 °C 32 % 1008,3 hPa 0,0 mm 11,5 km/h (2 Bft) W 259 ° 0 min 0,102 mm 0,0 UV-I 35 W/m² -3,9 °C 12,3 °C 17,7 km/h (3 Bft)
23.02.2017 09:02 12,3 °C 12,3 °C 31 % 1008,3 hPa 0,0 mm 11,0 km/h (2 Bft) W 271 ° 0 min 0,000 mm 0,0 UV-I 35 W/m² -4,3 °C 12,3 °C 16,1 km/h (3 Bft)
23.02.2017 09:03 12,3 °C 12,3 °C 31 % 1008,2 hPa 0,0 mm 11,2 km/h (2 Bft) S-SW 198 ° 0 min 0,000 mm 0,0 UV-I 35 W/m² -4,3 °C 12,3 °C 16,1 km/h (3 Bft)
23.02.2017 09:04 12,3 °C 12,3 °C 31 % 1008,2 hPa 0,0 mm 10,1 km/h (2 Bft) W-SW 245 ° 0 min 0,000 mm 0,0 UV-I 35 W/m² -4,3 °C 12,3 °C 14,5 km/h (3 Bft)
23.02.2017 09:05 12,4 °C 12,4 °C 30 % 1008,2 hPa 0,0 mm 10,7 km/h (2 Bft) W-SW 253 ° 0 min 0,000 mm 0,0 UV-I 35 W/m² -4,7 °C 12,4 °C 14,5 km/h (3 Bft)
23.02.2017 09:06 12,4 °C 12,4 °C 31 % 1008,3 hPa 0,0 mm 12,4 km/h (3 Bft) W-SW 241 ° 0 min 0,000 mm 0,0 UV-I 35 W/m² -4,2 °C 12,4 °C 16,1 km/h (3 Bft)
23.02.2017 09:07 12,4 °C 12,4 °C 31 % 1008,2 hPa 0,0 mm 8,9 km/h (2 Bft) W 261 ° 0 min 0,000 mm 0,0 UV-I 35 W/m² -4,2 °C 12,4 °C 12,9 km/h (3 Bft)
23.02.2017 09:08 12,4 °C 12,4 °C 32 % 1008,2 hPa 0,0 mm 9,6 km/h (2 Bft) W 273 ° 0 min 0,000 mm 0,0 UV-I 37 W/m² -3,8 °C 12,4 °C 12,9 km/h (3 Bft)
23.02.2017 09:09 12,3 °C 12,4 °C 33 % 1008,2 hPa 0,0 mm 10,5 km/h (2 Bft) W-SW 255 ° 0 min 0,000 mm 0,0 UV-I 37 W/m² -3,5 °C 12,3 °C 16,1 km/h (3 Bft)
23.02.2017 09:10 12,3 °C 12,3 °C 33 % 1008,2 hPa 0,0 mm 5,8 km/h (2 Bft) W 263 ° 0 min 0,000 mm 0,0 UV-I 37 W/m² -3,5 °C 12,3 °C 11,3 km/h (2 Bft)
23.02.2017 09:11 12,2 °C 12,3 °C 34 % 1008,1 hPa 0,0 mm 4,5 km/h (1 Bft) W 263 ° 0 min 0,000 mm 0,0 UV-I 37 W/m² -3,2 °C 12,2 °C 6,4 km/h (2 Bft)
23.02.2017 09:12 12,1 °C 12,2 °C 33 % 1008,1 hPa 0,0 mm 11,1 km/h (2 Bft) SW 232 ° 0 min 0,000 mm 0,0 UV-I 37 W/m² -3,7 °C 12,1 °C 16,1 km/h (3 Bft)
23.02.2017 09:13 12,2 °C 12,2 °C 30 % 1008,2 hPa 0,0 mm 8,5 km/h (2 Bft) W-SW 238 ° 0 min 0,000 mm 0,0 UV-I 37 W/m² -4,8 °C 12,2 °C 12,9 km/h (3 Bft)
23.02.2017 09:14 12,2 °C 12,2 °C 33 % 1008,1 hPa 0,0 mm 4,7 km/h (1 Bft) W-SW 256 ° 0 min 0,000 mm 0,0 UV-I 37 W/m² -3,6 °C 12,2 °C 8,0 km/h (2 Bft)
23.02.2017 09:15 12,3 °C 12,3 °C 31 % 1008,1 hPa 0,0 mm 13,0 km/h (3 Bft) W 260 ° 0 min 0,000 mm 0,0 UV-I 37 W/m² -4,3 °C 12,3 °C 19,3 km/h (3 Bft)
23.02.2017 09:16 12,4 °C 12,4 °C 31 % 1008,1 hPa 0,0 mm 10,2 km/h (2 Bft) W-SW 257 ° 0 min 0,000 mm 0,0 UV-I 37 W/m² -4,2 °C 12,4 °C 16,1 km/h (3 Bft)
23.02.2017 09:17 12,5 °C 12,5 °C 31 % 1008,1 hPa 0,0 mm 10,6 km/h (2 Bft) W-SW 251 ° 0 min 0,000 mm 0,0 UV-I 37 W/m² -4,2 °C 12,5 °C 14,5 km/h (3 Bft)
23.02.2017 09:18 12,6 °C 12,6 °C 31 % 1008,1 hPa 0,0 mm 9,9 km/h (2 Bft) W-SW 248 ° 0 min 0,000 mm 0,0 UV-I 37 W/m² -4,1 °C 12,6 °C 16,1 km/h (3 Bft)
23.02.2017 09:19 12,6 °C 12,6 °C 31 % 1008,0 hPa 0,0 mm 8,2 km/h (2 Bft) SW 215 ° 0 min 0,000 mm 0,0 UV-I 37 W/m² -4,1 °C 12,6 °C 17,7 km/h (3 Bft)
23.02.2017 09:20 12,6 °C 12,6 °C 30 % 1008,1 hPa 0,0 mm 11,5 km/h (2 Bft) W-SW 246 ° 0 min 0,000 mm 0,0 UV-I 37 W/m² -4,5 °C 12,6 °C 17,7 km/h (3 Bft)
23.02.2017 09:21 12,7 °C 12,7 °C 31 % 1008,1 hPa 0,0 mm 15,4 km/h (3 Bft) W 277 ° 0 min 0,000 mm 0,0 UV-I 37 W/m² -4,0 °C 12,7 °C 19,3 km/h (3 Bft)
23.02.2017 09:22 12,7 °C 12,7 °C 30 % 1008,1 hPa 0,0 mm 13,8 km/h (3 Bft) W-SW 258 ° 0 min 0,000 mm 0,0 UV-I 37 W/m² -4,4 °C 12,7 °C 19,3 km/h (3 Bft)
23.02.2017 09:23 12,7 °C 12,7 °C 31 % 1008,0 hPa 0,0 mm 13,7 km/h (3 Bft) SW 231 ° 0 min 0,000 mm 0,0 UV-I 37 W/m² -4,0 °C 12,7 °C 19,3 km/h (3 Bft)
23.02.2017 09:24 12,7 °C 12,7 °C 30 % 1008,1 hPa 0,0 mm 8,8 km/h (2 Bft) W-SW 253 ° 0 min 0,000 mm 0,0 UV-I 35 W/m² -4,4 °C 12,7 °C 12,9 km/h (3 Bft)
23.02.2017 09:25 12,7 °C 12,7 °C 32 % 1008,0 hPa 0,0 mm 10,4 km/h (2 Bft) W-SW 254 ° 0 min 0,000 mm 0,0 UV-I 35 W/m² -3,6 °C 12,7 °C 16,1 km/h (3 Bft)
23.02.2017 09:26 12,8 °C 12,8 °C 32 % 1007,9 hPa 0,0 mm 8,0 km/h (2 Bft) W-SW 246 ° 0 min 0,000 mm 0,0 UV-I 35 W/m² -3,5 °C 12,8 °C 17,7 km/h (3 Bft)
23.02.2017 09:27 12,7 °C 12,8 °C 32 % 1008,0 hPa 0,0 mm 13,9 km/h (3 Bft) W-SW 245 ° 0 min 0,000 mm 0,0 UV-I 37 W/m² -3,6 °C 12,7 °C 19,3 km/h (3 Bft)
23.02.2017 09:28 12,7 °C 12,7 °C 32 % 1008,0 hPa 0,0 mm 14,9 km/h (3 Bft) W-SW 252 ° 0 min 0,000 mm 0,0 UV-I 37 W/m² -3,6 °C 12,7 °C 22,5 km/h (4 Bft)
23.02.2017 09:29 12,7 °C 12,7 °C 31 % 1008,0 hPa 0,0 mm 13,9 km/h (3 Bft) W-SW 247 ° 0 min 0,000 mm 0,0 UV-I 40 W/m² -4,0 °C 12,7 °C 20,9 km/h (4 Bft)
23.02.2017 09:30 12,7 °C 12,8 °C 31 % 1007,9 hPa 0,0 mm 14,0 km/h (3 Bft) W-SW 252 ° 0 min 0,000 mm 0,0 UV-I 39 W/m² -4,0 °C 12,7 °C 20,9 km/h (4 Bft)
23.02.2017 09:31 12,7 °C 12,7 °C 31 % 1007,9 hPa 0,0 mm 13,9 km/h (3 Bft) W-SW 252 ° 0 min 0,000 mm 0,0 UV-I 39 W/m² -4,0 °C 12,7 °C 20,9 km/h (4 Bft)
23.02.2017 09:32 12,8 °C 12,8 °C 31 % 1007,9 hPa 0,0 mm 15,9 km/h (3 Bft) W 264 ° 0 min 0,000 mm 0,0 UV-I 39 W/m² -3,9 °C 12,8 °C 22,5 km/h (4 Bft)
23.02.2017 09:33 12,8 °C 12,8 °C 31 % 1008,0 hPa 0,0 mm 12,1 km/h (2 Bft) W 275 ° 0 min 0,000 mm 0,0 UV-I 39 W/m² -3,9 °C 12,8 °C 17,7 km/h (3 Bft)
23.02.2017 09:34 12,8 °C 12,8 °C 30 % 1007,9 hPa 0,0 mm 9,9 km/h (2 Bft) S-SW 213 ° 0 min 0,000 mm 0,0 UV-I 39 W/m² -4,3 °C 12,8 °C 16,1 km/h (3 Bft)
23.02.2017 09:35 12,9 °C 12,9 °C 29 % 1007,9 hPa 0,0 mm 14,7 km/h (3 Bft) SW 236 ° 0 min 0,000 mm 0,0 UV-I 39 W/m² -4,7 °C 12,9 °C 25,7 km/h (4 Bft)
23.02.2017 09:36 13,0 °C 13,1 °C 30 % 1007,9 hPa 0,0 mm 11,4 km/h (2 Bft) W-SW 237 ° 0 min 0,000 mm 0,0 UV-I 39 W/m² -4,2 °C 13,0 °C 19,3 km/h (3 Bft)
23.02.2017 09:37 13,1 °C 13,1 °C 32 % 1007,9 hPa 0,0 mm 15,6 km/h (3 Bft) W 271 ° 0 min 0,000 mm 0,0 UV-I 39 W/m² -3,2 °C 13,1 °C 24,1 km/h (4 Bft)
23.02.2017 09:38 13,1 °C 13,1 °C 31 % 1007,8 hPa 0,0 mm 15,4 km/h (3 Bft) W 275 ° 0 min 0,000 mm 0,0 UV-I 37 W/m² -3,6 °C 13,1 °C 30,6 km/h (5 Bft)
23.02.2017 09:39 13,1 °C 13,1 °C 29 % 1007,8 hPa 0,0 mm 18,6 km/h (3 Bft) W 265 ° 0 min 0,000 mm 0,0 UV-I 37 W/m² -4,5 °C 13,1 °C 25,7 km/h (4 Bft)
23.02.2017 09:40 13,1 °C 13,1 °C 32 % 1007,8 hPa 0,0 mm 8,6 km/h (2 Bft) W-SW 246 ° 0 min 0,000 mm 0,0 UV-I 42 W/m² -3,2 °C 13,1 °C 17,7 km/h (3 Bft)
23.02.2017 09:41 13,1 °C 13,1 °C 31 % 1007,7 hPa 0,0 mm 7,1 km/h (2 Bft) SW 223 ° 0 min 0,000 mm 0,0 UV-I 40 W/m² -3,6 °C 13,1 °C 12,9 km/h (3 Bft)
23.02.2017 09:42 13,1 °C 13,2 °C 31 % 1007,8 hPa 0,0 mm 7,8 km/h (2 Bft) W-SW 244 ° 0 min 0,000 mm 0,0 UV-I 39 W/m² -3,6 °C 13,1 °C 12,9 km/h (3 Bft)
23.02.2017 09:43 13,2 °C 13,2 °C 31 % 1007,7 hPa 0,0 mm 9,3 km/h (2 Bft) SW 220 ° 0 min 0,000 mm 0,0 UV-I 35 W/m² -3,5 °C 13,2 °C 14,5 km/h (3 Bft)
23.02.2017 09:44 13,2 °C 13,2 °C 30 % 1007,8 hPa 0,0 mm 12,4 km/h (3 Bft) W-NW 302 ° 0 min 0,000 mm 0,0 UV-I 33 W/m² -4,0 °C 13,2 °C 16,1 km/h (3 Bft)
23.02.2017 09:45 13,3 °C 13,3 °C 31 % 1007,7 hPa 0,0 mm 8,4 km/h (2 Bft) W 271 ° 0 min 0,000 mm 0,0 UV-I 35 W/m² -3,5 °C 13,3 °C 14,5 km/h (3 Bft)
23.02.2017 09:46 13,3 °C 13,3 °C 31 % 1007,7 hPa 0,0 mm 9,5 km/h (2 Bft) SW 234 ° 0 min 0,000 mm 0,0 UV-I 44 W/m² -3,5 °C 13,3 °C 16,1 km/h (3 Bft)
23.02.2017 09:47 13,3 °C 13,3 °C 30 % 1007,6 hPa 0,0 mm 14,3 km/h (3 Bft) W 261 ° 0 min 0,000 mm 0,0 UV-I 44 W/m² -3,9 °C 13,3 °C 20,9 km/h (4 Bft)
23.02.2017 09:48 13,4 °C 13,4 °C 29 % 1007,7 hPa 0,0 mm 13,5 km/h (3 Bft) SW 218 ° 0 min 0,000 mm 0,0 UV-I 39 W/m² -4,3 °C 13,4 °C 17,7 km/h (3 Bft)
23.02.2017 09:49 13,4 °C 13,4 °C 30 % 1007,7 hPa 0,0 mm 15,4 km/h (3 Bft) W 261 ° 0 min 0,000 mm 0,0 UV-I 37 W/m² -3,8 °C 13,4 °C 24,1 km/h (4 Bft)
23.02.2017 09:50 13,4 °C 13,4 °C 30 % 1007,7 hPa 0,0 mm 11,3 km/h (2 Bft) W 269 ° 0 min 0,000 mm 0,0 UV-I 37 W/m² -3,8 °C 13,4 °C 17,7 km/h (3 Bft)
23.02.2017 09:51 13,4 °C 13,4 °C 30 % 1007,7 hPa 0,0 mm 16,0 km/h (3 Bft) W-SW 251 ° 0 min 0,000 mm 0,0 UV-I 35 W/m² -3,8 °C 13,4 °C 24,1 km/h (4 Bft)
23.02.2017 09:52 13,4 °C 13,4 °C 29 % 1007,6 hPa 0,0 mm 6,4 km/h (2 Bft) W-SW 252 ° 0 min 0,000 mm 0,0 UV-I 37 W/m² -4,3 °C 13,4 °C 12,9 km/h (3 Bft)
23.02.2017 09:53 13,5 °C 13,5 °C 30 % 1007,7 hPa 0,0 mm 14,3 km/h (3 Bft) W 271 ° 0 min 0,000 mm 0,0 UV-I 39 W/m² -3,7 °C 13,5 °C 33,8 km/h (5 Bft)
23.02.2017 09:54 13,6 °C 13,6 °C 30 % 1007,5 hPa 0,0 mm 17,5 km/h (3 Bft) W 267 ° 0 min 0,000 mm 0,0 UV-I 40 W/m² -3,6 °C 13,6 °C 29,0 km/h (5 Bft)
23.02.2017 09:55 13,6 °C 13,6 °C 29 % 1007,6 hPa 0,0 mm 15,1 km/h (3 Bft) S-SW 206 ° 0 min 0,000 mm 0,0 UV-I 47 W/m² -4,1 °C 13,6 °C 25,7 km/h (4 Bft)
23.02.2017 09:56 13,7 °C 13,7 °C 29 % 1007,6 hPa 0,0 mm 17,2 km/h (3 Bft) W 280 ° 0 min 0,000 mm 1,1 UV-I 70 W/m² -4,0 °C 13,7 °C 24,1 km/h (4 Bft)
23.02.2017 09:57 13,8 °C 13,8 °C 30 % 1007,6 hPa 0,0 mm 13,3 km/h (3 Bft) W 279 ° 0 min 0,000 mm 1,2 UV-I 65 W/m² -3,5 °C 13,8 °C 19,3 km/h (3 Bft)
23.02.2017 09:58 13,8 °C 13,8 °C 29 % 1007,6 hPa 0,0 mm 13,9 km/h (3 Bft) W-SW 238 ° 0 min 0,000 mm 0,0 UV-I 44 W/m² -3,9 °C 13,8 °C 19,3 km/h (3 Bft)
23.02.2017 09:59 13,8 °C 13,8 °C 28 % 1007,6 hPa 0,0 mm 12,6 km/h (3 Bft) W 259 ° 0 min 0,000 mm 0,0 UV-I 44 W/m² -4,4 °C 13,8 °C 19,3 km/h (3 Bft)
23.02.2017 10:00 13,9 °C 13,9 °C 28 % 1007,5 hPa 0,0 mm 13,1 km/h (3 Bft) W 259 ° 0 min 0,000 mm 0,0 UV-I 47 W/m² -4,3 °C 13,9 °C 16,1 km/h (3 Bft)
23.02.2017 10:01 14,0 °C 14,0 °C 27 % 1007,5 hPa 0,0 mm 17,7 km/h (3 Bft) W 261 ° 0 min 0,127 mm 0,0 UV-I 49 W/m² -4,7 °C 14,0 °C 22,5 km/h (4 Bft)
23.02.2017 10:02 14,0 °C 14,0 °C 29 % 1007,5 hPa 0,0 mm 12,3 km/h (3 Bft) W-SW 254 ° 0 min 0,000 mm 1,2 UV-I 62 W/m² -3,7 °C 14,0 °C 17,7 km/h (3 Bft)
23.02.2017 10:03 14,0 °C 14,0 °C 29 % 1007,5 hPa 0,0 mm 14,9 km/h (3 Bft) W 278 ° 0 min 0,000 mm 1,2 UV-I 67 W/m² -3,7 °C 14,0 °C 22,5 km/h (4 Bft)
23.02.2017 10:04 14,0 °C 14,0 °C 27 % 1007,4 hPa 0,0 mm 15,0 km/h (3 Bft) SW 235 ° 0 min 0,000 mm 1,2 UV-I 56 W/m² -4,7 °C 14,0 °C 24,1 km/h (4 Bft)
23.02.2017 10:05 14,1 °C 14,1 °C 29 % 1007,5 hPa 0,0 mm 8,0 km/h (2 Bft) SW 228 ° 0 min 0,000 mm 0,0 UV-I 47 W/m² -3,7 °C 14,1 °C 16,1 km/h (3 Bft)
23.02.2017 10:06 14,1 °C 14,1 °C 28 % 1007,5 hPa 0,0 mm 6,4 km/h (2 Bft) W-SW 240 ° 0 min 0,000 mm 0,0 UV-I 54 W/m² -4,1 °C 14,1 °C 11,3 km/h (2 Bft)
23.02.2017 10:07 14,1 °C 14,1 °C 27 % 1007,6 hPa 0,0 mm 6,4 km/h (2 Bft) W 260 ° 0 min 0,000 mm 1,3 UV-I 118 W/m² -4,6 °C 14,1 °C 19,3 km/h (3 Bft)
23.02.2017 10:08 14,1 °C 14,1 °C 26 % 1007,4 hPa 0,0 mm 17,6 km/h (3 Bft) W 264 ° 0 min 0,000 mm 1,3 UV-I 107 W/m² -5,1 °C 14,1 °C 24,1 km/h (4 Bft)
23.02.2017 10:09 14,2 °C 14,2 °C 26 % 1007,4 hPa 0,0 mm 17,6 km/h (3 Bft) W 264 ° 0 min 0,000 mm 1,3 UV-I 84 W/m² -5,0 °C 14,2 °C 22,5 km/h (4 Bft)
23.02.2017 10:10 14,2 °C 14,2 °C 28 % 1007,5 hPa 0,0 mm 20,6 km/h (4 Bft) W-NW 290 ° 0 min 0,000 mm 1,3 UV-I 97 W/m² -4,0 °C 14,2 °C 30,6 km/h (5 Bft)
23.02.2017 10:11 14,2 °C 14,2 °C 27 % 1007,2 hPa 0,0 mm 11,8 km/h (2 Bft) W-SW 253 ° 0 min 0,000 mm 1,3 UV-I 88 W/m² -4,5 °C 14,2 °C 16,1 km/h (3 Bft)
23.02.2017 10:12 14,1 °C 14,2 °C 28 % 1007,3 hPa 0,0 mm 12,2 km/h (2 Bft) W 278 ° 0 min 0,000 mm 1,3 UV-I 83 W/m² -4,1 °C 14,1 °C 20,9 km/h (4 Bft)
23.02.2017 10:13 14,1 °C 14,1 °C 29 % 1007,3 hPa 0,0 mm 12,1 km/h (2 Bft) S 191 ° 0 min 0,000 mm 1,3 UV-I 81 W/m² -3,7 °C 14,1 °C 19,3 km/h (3 Bft)
23.02.2017 10:14 14,1 °C 14,1 °C 28 % 1007,5 hPa 0,0 mm 12,5 km/h (3 Bft) W-SW 242 ° 0 min 0,000 mm 1,3 UV-I 70 W/m² -4,1 °C 14,1 °C 30,6 km/h (5 Bft)
23.02.2017 10:15 14,2 °C 14,2 °C 27 % 1007,4 hPa 0,0 mm 16,8 km/h (3 Bft) W-SW 251 ° 0 min 0,000 mm 1,3 UV-I 67 W/m² -4,5 °C 14,2 °C 20,9 km/h (4 Bft)
23.02.2017 10:16 14,2 °C 14,2 °C 27 % 1007,4 hPa 0,0 mm 13,5 km/h (3 Bft) W-SW 247 ° 0 min 0,000 mm 1,2 UV-I 67 W/m² -4,5 °C 14,2 °C 20,9 km/h (4 Bft)
23.02.2017 10:17 14,2 °C 14,2 °C 27 % 1007,3 hPa 0,0 mm 11,7 km/h (2 Bft) W 277 ° 0 min 0,000 mm 1,3 UV-I 63 W/m² -4,5 °C 14,2 °C 17,7 km/h (3 Bft)
23.02.2017 10:18 14,2 °C 14,2 °C 28 % 1007,3 hPa 0,0 mm 13,9 km/h (3 Bft) SW 221 ° 0 min 0,000 mm 1,3 UV-I 67 W/m² -4,0 °C 14,2 °C 20,9 km/h (4 Bft)
23.02.2017 10:19 14,2 °C 14,2 °C 28 % 1007,4 hPa 0,0 mm 9,7 km/h (2 Bft) W 259 ° 0 min 0,000 mm 1,3 UV-I 83 W/m² -4,0 °C 14,2 °C 16,1 km/h (3 Bft)
23.02.2017 10:20 14,2 °C 14,2 °C 29 % 1007,3 hPa 0,0 mm 10,4 km/h (2 Bft) W-SW 242 ° 0 min 0,000 mm 1,3 UV-I 88 W/m² -3,6 °C 14,2 °C 14,5 km/h (3 Bft)
23.02.2017 10:21 14,1 °C 14,2 °C 28 % 1007,3 hPa 0,0 mm 4,3 km/h (1 Bft) S 178 ° 0 min 0,000 mm 1,3 UV-I 93 W/m² -4,1 °C 14,1 °C 11,3 km/h (2 Bft)
23.02.2017 10:22 14,1 °C 14,2 °C 29 % 1007,3 hPa 0,0 mm 8,5 km/h (2 Bft) W-NW 287 ° 0 min 0,000 mm 1,3 UV-I 102 W/m² -3,7 °C 14,1 °C 14,5 km/h (3 Bft)
23.02.2017 10:23 14,1 °C 14,2 °C 28 % 1007,2 hPa 0,0 mm 7,2 km/h (2 Bft) SW 232 ° 0 min 0,000 mm 1,3 UV-I 93 W/m² -4,1 °C 14,1 °C 11,3 km/h (2 Bft)
23.02.2017 10:24 14,1 °C 14,1 °C 28 % 1007,3 hPa 0,0 mm 8,8 km/h (2 Bft) W 281 ° 0 min 0,000 mm 1,4 UV-I 91 W/m² -4,1 °C 14,1 °C 12,9 km/h (3 Bft)
23.02.2017 10:25 14,1 °C 14,1 °C 28 % 1007,3 hPa 0,0 mm 15,8 km/h (3 Bft) W-SW 239 ° 0 min 0,000 mm 1,4 UV-I 97 W/m² -4,1 °C 14,1 °C 27,4 km/h (4 Bft)
23.02.2017 10:26 14,2 °C 14,2 °C 27 % 1007,3 hPa 0,0 mm 6,7 km/h (2 Bft) SW 235 ° 0 min 0,000 mm 1,4 UV-I 104 W/m² -4,5 °C 14,2 °C 12,9 km/h (3 Bft)
23.02.2017 10:27 14,2 °C 14,2 °C 27 % 1007,2 hPa 0,0 mm 8,8 km/h (2 Bft) W-SW 242 ° 0 min 0,000 mm 1,4 UV-I 113 W/m² -4,5 °C 14,2 °C 14,5 km/h (3 Bft)
23.02.2017 10:28 14,2 °C 14,2 °C 28 % 1007,3 hPa 0,0 mm 15,0 km/h (3 Bft) W-SW 245 ° 0 min 0,000 mm 1,5 UV-I 130 W/m² -4,0 °C 14,2 °C 22,5 km/h (4 Bft)
23.02.2017 10:29 14,3 °C 14,3 °C 26 % 1007,2 hPa 0,0 mm 8,0 km/h (2 Bft) S-SW 201 ° 0 min 0,000 mm 1,7 UV-I 179 W/m² -4,9 °C 14,3 °C 16,1 km/h (3 Bft)
23.02.2017 10:30 14,4 °C 14,4 °C 26 % 1007,2 hPa 0,0 mm 7,2 km/h (2 Bft) W 275 ° 1 min 0,000 mm 1,7 UV-I 258 W/m² -4,8 °C 14,4 °C 11,3 km/h (2 Bft)
23.02.2017 10:31 14,4 °C 14,4 °C 26 % 1007,2 hPa 0,0 mm 9,8 km/h (2 Bft) W-SW 258 ° 0 min 0,000 mm 1,6 UV-I 183 W/m² -4,8 °C 14,4 °C 12,9 km/h (3 Bft)
23.02.2017 10:32 14,4 °C 14,4 °C 27 % 1007,2 hPa 0,0 mm 11,9 km/h (2 Bft) SW 222 ° 0 min 0,000 mm 1,6 UV-I 155 W/m² -4,3 °C 14,4 °C 20,9 km/h (4 Bft)
23.02.2017 10:33 14,4 °C 14,4 °C 28 % 1007,2 hPa 0,0 mm 11,1 km/h (2 Bft) W-SW 241 ° 1 min 0,000 mm 1,6 UV-I 232 W/m² -3,9 °C 14,4 °C 16,1 km/h (3 Bft)
23.02.2017 10:34 14,5 °C 14,5 °C 28 % 1007,2 hPa 0,0 mm 18,0 km/h (3 Bft) W 275 ° 1 min 0,000 mm 1,7 UV-I 301 W/m² -3,8 °C 14,5 °C 35,4 km/h (5 Bft)
23.02.2017 10:35 14,6 °C 14,6 °C 27 % 1007,1 hPa 0,0 mm 22,5 km/h (4 Bft) W 275 ° 1 min 0,000 mm 1,9 UV-I 338 W/m² -4,2 °C 14,6 °C 38,6 km/h (5 Bft)
23.02.2017 10:36 14,7 °C 14,7 °C 27 % 1007,2 hPa 0,0 mm 13,6 km/h (3 Bft) W 259 ° 1 min 0,000 mm 1,9 UV-I 334 W/m² -4,1 °C 14,7 °C 20,9 km/h (4 Bft)
23.02.2017 10:37 14,8 °C 14,8 °C 28 % 1007,1 hPa 0,0 mm 17,8 km/h (3 Bft) W 259 ° 1 min 0,000 mm 1,9 UV-I 332 W/m² -3,5 °C 14,8 °C 32,2 km/h (5 Bft)
23.02.2017 10:38 14,8 °C 14,8 °C 27 % 1007,0 hPa 0,0 mm 18,3 km/h (3 Bft) W 277 ° 1 min 0,000 mm 1,8 UV-I 315 W/m² -4,0 °C 14,8 °C 25,7 km/h (4 Bft)
23.02.2017 10:39 14,9 °C 14,9 °C 26 % 1007,1 hPa 0,0 mm 9,5 km/h (2 Bft) W 265 ° 1 min 0,000 mm 1,9 UV-I 288 W/m² -4,4 °C 14,9 °C 16,1 km/h (3 Bft)
23.02.2017 10:40 14,9 °C 14,9 °C 28 % 1007,1 hPa 0,0 mm 9,7 km/h (2 Bft) W 269 ° 1 min 0,000 mm 1,7 UV-I 246 W/m² -3,4 °C 14,9 °C 14,5 km/h (3 Bft)
23.02.2017 10:41 14,9 °C 14,9 °C 28 % 1007,1 hPa 0,0 mm 11,3 km/h (2 Bft) W 281 ° 1 min 0,000 mm 1,8 UV-I 287 W/m² -3,4 °C 14,9 °C 17,7 km/h (3 Bft)
23.02.2017 10:42 15,0 °C 15,0 °C 28 % 1007,1 hPa 0,0 mm 14,0 km/h (3 Bft) W-SW 257 ° 1 min 0,000 mm 1,8 UV-I 262 W/m² -3,3 °C 15,0 °C 25,7 km/h (4 Bft)
23.02.2017 10:43 15,1 °C 15,1 °C 28 % 1007,1 hPa 0,0 mm 8,4 km/h (2 Bft) SW 235 ° 1 min 0,000 mm 1,8 UV-I 220 W/m² -3,3 °C 15,1 °C 17,7 km/h (3 Bft)
23.02.2017 10:44 15,1 °C 15,1 °C 26 % 1007,1 hPa 0,0 mm 7,0 km/h (2 Bft) W-SW 238 ° 1 min 0,000 mm 1,7 UV-I 209 W/m² -4,2 °C 15,1 °C 14,5 km/h (3 Bft)
23.02.2017 10:45 15,2 °C 15,2 °C 25 % 1007,1 hPa 0,0 mm 8,4 km/h (2 Bft) W-SW 240 ° 0 min 0,000 mm 1,7 UV-I 163 W/m² -4,7 °C 15,2 °C 19,3 km/h (3 Bft)
23.02.2017 10:46 15,3 °C 15,3 °C 27 % 1007,1 hPa 0,0 mm 10,6 km/h (2 Bft) SW 221 ° 0 min 0,000 mm 1,6 UV-I 149 W/m² -3,6 °C 15,3 °C 17,7 km/h (3 Bft)
23.02.2017 10:47 15,3 °C 15,3 °C 25 % 1007,1 hPa 0,0 mm 9,5 km/h (2 Bft) SW 219 ° 0 min 0,000 mm 1,6 UV-I 153 W/m² -4,6 °C 15,3 °C 16,1 km/h (3 Bft)
23.02.2017 10:48 15,3 °C 15,3 °C 26 % 1007,1 hPa 0,0 mm 11,5 km/h (2 Bft) W-NW 296 ° 0 min 0,000 mm 1,6 UV-I 123 W/m² -4,1 °C 15,3 °C 17,7 km/h (3 Bft)
23.02.2017 10:49 15,3 °C 15,4 °C 28 % 1007,0 hPa 0,0 mm 13,2 km/h (3 Bft) W 264 ° 0 min 0,000 mm 1,5 UV-I 130 W/m² -3,1 °C 15,3 °C 17,7 km/h (3 Bft)
23.02.2017 10:50 15,4 °C 15,4 °C 28 % 1007,1 hPa 0,0 mm 17,8 km/h (3 Bft) W-SW 257 ° 0 min 0,000 mm 1,5 UV-I 148 W/m² -3,0 °C 15,4 °C 25,7 km/h (4 Bft)
23.02.2017 10:51 15,4 °C 15,4 °C 26 % 1007,1 hPa 0,0 mm 21,0 km/h (4 Bft) W-SW 246 ° 0 min 0,000 mm 1,6 UV-I 169 W/m² -4,0 °C 15,4 °C 30,6 km/h (5 Bft)
23.02.2017 10:52 15,4 °C 15,4 °C 27 % 1007,0 hPa 0,0 mm 9,5 km/h (2 Bft) W 261 ° 0 min 0,000 mm 1,6 UV-I 139 W/m² -3,5 °C 15,4 °C 14,5 km/h (3 Bft)
23.02.2017 10:53 15,4 °C 15,4 °C 25 % 1007,0 hPa 0,0 mm 13,9 km/h (3 Bft) W-SW 254 ° 0 min 0,000 mm 1,6 UV-I 160 W/m² -4,5 °C 15,4 °C 20,9 km/h (4 Bft)
23.02.2017 10:54 15,4 °C 15,4 °C 26 % 1006,9 hPa 0,0 mm 11,1 km/h (2 Bft) S-SW 201 ° 0 min 0,000 mm 1,5 UV-I 141 W/m² -4,0 °C 15,4 °C 16,1 km/h (3 Bft)
23.02.2017 10:55 15,4 °C 15,4 °C 26 % 1006,9 hPa 0,0 mm 12,3 km/h (3 Bft) SW 214 ° 0 min 0,000 mm 1,5 UV-I 128 W/m² -4,0 °C 15,4 °C 19,3 km/h (3 Bft)
23.02.2017 10:56 15,3 °C 15,4 °C 25 % 1007,0 hPa 0,0 mm 5,7 km/h (1 Bft) W-SW 239 ° 0 min 0,000 mm 1,5 UV-I 121 W/m² -4,6 °C 15,3 °C 8,0 km/h (2 Bft)
23.02.2017 10:57 15,4 °C 15,4 °C 24 % 1007,0 hPa 0,0 mm 7,8 km/h (2 Bft) W 281 ° 0 min 0,000 mm 1,5 UV-I 121 W/m² -5,0 °C 15,4 °C 11,3 km/h (2 Bft)
23.02.2017 10:58 15,4 °C 15,4 °C 24 % 1006,9 hPa 0,0 mm 9,9 km/h (2 Bft) W-NW 289 ° 0 min 0,000 mm 1,5 UV-I 132 W/m² -5,0 °C 15,4 °C 12,9 km/h (3 Bft)
23.02.2017 10:59 15,5 °C 15,5 °C 26 % 1006,9 hPa 0,0 mm 13,9 km/h (3 Bft) W-SW 249 ° 0 min 0,000 mm 1,5 UV-I 141 W/m² -3,9 °C 15,5 °C 22,5 km/h (4 Bft)
23.02.2017 11:00 15,6 °C 15,6 °C 24 % 1006,9 hPa 0,0 mm 20,4 km/h (4 Bft) W-SW 258 ° 0 min 0,000 mm 1,5 UV-I 144 W/m² -4,9 °C 15,6 °C 29,0 km/h (5 Bft)
23.02.2017 11:01 15,6 °C 15,6 °C 25 % 1007,0 hPa 0,0 mm 21,8 km/h (4 Bft) S-SW 209 ° 0 min 0,177 mm 1,5 UV-I 149 W/m² -4,3 °C 15,6 °C 33,8 km/h (5 Bft)
23.02.2017 11:02 15,5 °C 15,6 °C 25 % 1006,9 hPa 0,0 mm 12,7 km/h (3 Bft) W 265 ° 0 min 0,000 mm 1,4 UV-I 125 W/m² -4,4 °C 15,5 °C 22,5 km/h (4 Bft)
23.02.2017 11:03 15,4 °C 15,5 °C 24 % 1006,9 hPa 0,0 mm 8,9 km/h (2 Bft) W-SW 247 ° 0 min 0,000 mm 1,5 UV-I 128 W/m² -5,0 °C 15,4 °C 17,7 km/h (3 Bft)
23.02.2017 11:04 15,3 °C 15,4 °C 24 % 1006,8 hPa 0,0 mm 11,0 km/h (2 Bft) S 178 ° 0 min 0,000 mm 1,6 UV-I 144 W/m² -5,1 °C 15,3 °C 16,1 km/h (3 Bft)
23.02.2017 11:05 15,3 °C 15,3 °C 24 % 1006,8 hPa 0,0 mm 7,1 km/h (2 Bft) W-SW 250 ° 0 min 0,000 mm 1,6 UV-I 181 W/m² -5,1 °C 15,3 °C 12,9 km/h (3 Bft)
23.02.2017 11:06 15,3 °C 15,3 °C 24 % 1006,9 hPa 0,0 mm 12,9 km/h (3 Bft) W 263 ° 1 min 0,000 mm 1,7 UV-I 221 W/m² -5,1 °C 15,3 °C 20,9 km/h (4 Bft)
23.02.2017 11:07 15,3 °C 15,3 °C 26 % 1006,9 hPa 0,0 mm 11,1 km/h (2 Bft) W-SW 253 ° 1 min 0,000 mm 1,6 UV-I 214 W/m² -4,1 °C 15,3 °C 14,5 km/h (3 Bft)
23.02.2017 11:08 15,3 °C 15,3 °C 26 % 1006,9 hPa 0,0 mm 11,8 km/h (2 Bft) S 182 ° 1 min 0,000 mm 1,9 UV-I 214 W/m² -4,1 °C 15,3 °C 16,1 km/h (3 Bft)
23.02.2017 11:09 15,3 °C 15,3 °C 24 % 1006,8 hPa 0,0 mm 13,8 km/h (3 Bft) W-NW 286 ° 1 min 0,000 mm 2,1 UV-I 285 W/m² -5,1 °C 15,3 °C 22,5 km/h (4 Bft)
23.02.2017 11:10 15,3 °C 15,3 °C 25 % 1006,8 hPa 0,0 mm 18,0 km/h (3 Bft) W-SW 251 ° 1 min 0,000 mm 1,8 UV-I 204 W/m² -4,6 °C 15,3 °C 24,1 km/h (4 Bft)
23.02.2017 11:11 15,3 °C 15,3 °C 26 % 1006,8 hPa 0,0 mm 11,5 km/h (2 Bft) SW 224 ° 1 min 0,000 mm 2,0 UV-I 207 W/m² -4,1 °C 15,3 °C 24,1 km/h (4 Bft)
23.02.2017 11:12 15,4 °C 15,4 °C 24 % 1006,8 hPa 0,0 mm 15,3 km/h (3 Bft) W-SW 250 ° 1 min 0,000 mm 2,3 UV-I 207 W/m² -5,0 °C 15,4 °C 24,1 km/h (4 Bft)
23.02.2017 11:13 15,5 °C 15,5 °C 25 % 1006,8 hPa 0,0 mm 9,7 km/h (2 Bft) W-SW 258 ° 1 min 0,000 mm 1,7 UV-I 207 W/m² -4,4 °C 15,5 °C 14,5 km/h (3 Bft)
23.02.2017 11:14 15,6 °C 15,6 °C 25 % 1006,8 hPa 0,0 mm 16,9 km/h (3 Bft) W 264 ° 0 min 0,000 mm 1,6 UV-I 153 W/m² -4,3 °C 15,6 °C 25,7 km/h (4 Bft)
23.02.2017 11:15 15,6 °C 15,6 °C 25 % 1006,8 hPa 0,0 mm 13,2 km/h (3 Bft) W-SW 254 ° 0 min 0,000 mm 1,6 UV-I 146 W/m² -4,3 °C 15,6 °C 19,3 km/h (3 Bft)
23.02.2017 11:16 15,5 °C 15,6 °C 24 % 1006,6 hPa 0,0 mm 8,1 km/h (2 Bft) W-SW 247 ° 0 min 0,000 mm 1,5 UV-I 144 W/m² -5,0 °C 15,5 °C 11,3 km/h (2 Bft)
23.02.2017 11:17 15,4 °C 15,5 °C 25 % 1006,7 hPa 0,0 mm 7,8 km/h (2 Bft) S-SW 213 ° 0 min 0,000 mm 1,6 UV-I 146 W/m² -4,5 °C 15,4 °C 11,3 km/h (2 Bft)
23.02.2017 11:18 15,4 °C 15,4 °C 25 % 1006,6 hPa 0,0 mm 8,4 km/h (2 Bft) W 269 ° 0 min 0,000 mm 1,6 UV-I 151 W/m² -4,5 °C 15,4 °C 16,1 km/h (3 Bft)
23.02.2017 11:19 15,3 °C 15,4 °C 25 % 1006,6 hPa 0,0 mm 11,2 km/h (2 Bft) SW 217 ° 1 min 0,000 mm 1,9 UV-I 200 W/m² -4,6 °C 15,3 °C 20,9 km/h (4 Bft)
23.02.2017 11:20 15,3 °C 15,3 °C 26 % 1006,6 hPa 0,0 mm 7,8 km/h (2 Bft) W 263 ° 1 min 0,000 mm 1,9 UV-I 294 W/m² -4,1 °C 15,3 °C 16,1 km/h (3 Bft)
23.02.2017 11:21 15,4 °C 15,4 °C 26 % 1006,6 hPa 0,0 mm 8,8 km/h (2 Bft) SW 228 ° 1 min 0,000 mm 2,5 UV-I 294 W/m² -4,0 °C 15,4 °C 12,9 km/h (3 Bft)
23.02.2017 11:22 15,5 °C 15,5 °C 26 % 1006,7 hPa 0,0 mm 5,3 km/h (1 Bft) SW 233 ° 1 min 0,000 mm 2,2 UV-I 434 W/m² -3,9 °C 15,5 °C 11,3 km/h (2 Bft)
23.02.2017 11:23 15,6 °C 15,6 °C 24 % 1006,6 hPa 0,0 mm 9,5 km/h (2 Bft) W-SW 253 ° 1 min 0,000 mm 2,2 UV-I 392 W/m² -4,9 °C 15,6 °C 19,3 km/h (3 Bft)
23.02.2017 11:24 15,7 °C 15,7 °C 26 % 1006,5 hPa 0,0 mm 11,2 km/h (2 Bft) S-SW 210 ° 1 min 0,000 mm 1,8 UV-I 392 W/m² -3,7 °C 15,7 °C 19,3 km/h (3 Bft)
23.02.2017 11:25 15,7 °C 15,7 °C 26 % 1006,6 hPa 0,0 mm 9,2 km/h (2 Bft) W-SW 252 ° 0 min 0,000 mm 1,7 UV-I 178 W/m² -3,7 °C 15,7 °C 14,5 km/h (3 Bft)
23.02.2017 11:26 15,7 °C 15,7 °C 25 % 1006,5 hPa 0,0 mm 6,5 km/h (2 Bft) W-SW 250 ° 0 min 0,000 mm 1,7 UV-I 149 W/m² -4,3 °C 15,7 °C 11,3 km/h (2 Bft)
23.02.2017 11:27 15,7 °C 15,7 °C 25 % 1006,5 hPa 0,0 mm 8,0 km/h (2 Bft) W 267 ° 0 min 0,000 mm 1,7 UV-I 156 W/m² -4,3 °C 15,7 °C 14,5 km/h (3 Bft)
23.02.2017 11:28 15,6 °C 15,7 °C 26 % 1006,5 hPa 0,0 mm 6,4 km/h (2 Bft) W-NW 292 ° 0 min 0,000 mm 1,9 UV-I 186 W/m² -3,8 °C 15,6 °C 14,5 km/h (3 Bft)
23.02.2017 11:29 15,6 °C 15,6 °C 26 % 1006,5 hPa 0,0 mm 5,4 km/h (1 Bft) W 259 ° 0 min 0,000 mm 1,8 UV-I 176 W/m² -3,8 °C 15,6 °C 11,3 km/h (2 Bft)
23.02.2017 11:30 15,4 °C 15,6 °C 25 % 1006,5 hPa 0,0 mm 12,9 km/h (3 Bft) W-SW 242 ° 1 min 0,000 mm 2,2 UV-I 272 W/m² -4,5 °C 15,4 °C 20,9 km/h (4 Bft)
23.02.2017 11:31 15,5 °C 15,5 °C 24 % 1006,5 hPa 0,0 mm 11,3 km/h (2 Bft) S-SW 211 ° 1 min 0,000 mm 2,6 UV-I 272 W/m² -5,0 °C 15,5 °C 16,1 km/h (3 Bft)
23.02.2017 11:32 15,6 °C 15,6 °C 23 % 1006,5 hPa 0,0 mm 11,9 km/h (2 Bft) W 267 ° 1 min 0,000 mm 2,5 UV-I 494 W/m² -5,4 °C 15,6 °C 20,9 km/h (4 Bft)
23.02.2017 11:33 15,7 °C 15,7 °C 23 % 1006,5 hPa 0,0 mm 14,3 km/h (3 Bft) W-NW 287 ° 1 min 0,000 mm 2,3 UV-I 494 W/m² -5,4 °C 15,7 °C 19,3 km/h (3 Bft)
23.02.2017 11:34 15,8 °C 15,8 °C 26 % 1006,5 hPa 0,0 mm 16,8 km/h (3 Bft) W-SW 257 ° 1 min 0,000 mm 2,6 UV-I 494 W/m² -3,7 °C 15,8 °C 29,0 km/h (5 Bft)
23.02.2017 11:35 15,9 °C 15,9 °C 25 % 1006,4 hPa 0,0 mm 20,3 km/h (4 Bft) W 262 ° 1 min 0,000 mm 2,3 UV-I 455 W/m² -4,1 °C 15,9 °C 27,4 km/h (4 Bft)
23.02.2017 11:36 15,9 °C 15,9 °C 25 % 1006,4 hPa 0,0 mm 19,8 km/h (3 Bft) SW 234 ° 1 min 0,000 mm 1,7 UV-I 455 W/m² -4,1 °C 15,9 °C 27,4 km/h (4 Bft)
23.02.2017 11:37 15,8 °C 15,9 °C 25 % 1006,4 hPa 0,0 mm 18,0 km/h (3 Bft) W 259 ° 0 min 0,000 mm 1,7 UV-I 167 W/m² -4,2 °C 15,8 °C 27,4 km/h (4 Bft)
23.02.2017 11:38 15,8 °C 15,8 °C 25 % 1006,3 hPa 0,0 mm 16,9 km/h (3 Bft) W 280 ° 0 min 0,000 mm 1,8 UV-I 135 W/m² -4,2 °C 15,8 °C 29,0 km/h (5 Bft)
23.02.2017 11:39 15,7 °C 15,8 °C 24 % 1006,3 hPa 0,0 mm 12,8 km/h (3 Bft) W 269 ° 0 min 0,000 mm 1,6 UV-I 113 W/m² -4,8 °C 15,7 °C 20,9 km/h (4 Bft)
23.02.2017 11:40 15,6 °C 15,7 °C 25 % 1006,3 hPa 0,0 mm 10,9 km/h (2 Bft) SW 228 ° 0 min 0,000 mm 1,6 UV-I 113 W/m² -4,3 °C 15,6 °C 16,1 km/h (3 Bft)
23.02.2017 11:41 15,4 °C 15,6 °C 24 % 1006,3 hPa 0,0 mm 6,4 km/h (2 Bft) S-SW 207 ° 0 min 0,000 mm 1,6 UV-I 125 W/m² -5,0 °C 15,4 °C 12,9 km/h (3 Bft)
23.02.2017 11:42 15,4 °C 15,4 °C 26 % 1006,3 hPa 0,0 mm 7,0 km/h (2 Bft) W-SW 240 ° 0 min 0,000 mm 2,0 UV-I 125 W/m² -4,0 °C 15,4 °C 12,9 km/h (3 Bft)
23.02.2017 11:43 15,4 °C 15,4 °C 27 % 1006,2 hPa 0,0 mm 8,0 km/h (2 Bft) W-SW 254 ° 0 min 0,000 mm 1,8 UV-I 153 W/m² -3,5 °C 15,4 °C 12,9 km/h (3 Bft)
23.02.2017 11:44 15,4 °C 15,4 °C 26 % 1006,3 hPa 0,0 mm 8,3 km/h (2 Bft) W-SW 252 ° 0 min 0,000 mm 1,8 UV-I 153 W/m² -4,0 °C 15,4 °C 11,3 km/h (2 Bft)
23.02.2017 11:45 15,3 °C 15,4 °C 27 % 1006,2 hPa 0,0 mm 7,0 km/h (2 Bft) SW 235 ° 0 min 0,000 mm 1,7 UV-I 132 W/m² -3,6 °C 15,3 °C 12,9 km/h (3 Bft)
23.02.2017 11:46 15,3 °C 15,3 °C 25 % 1006,3 hPa 0,0 mm 13,0 km/h (3 Bft) NW 304 ° 0 min 0,000 mm 2,3 UV-I 132 W/m² -4,6 °C 15,3 °C 24,1 km/h (4 Bft)
23.02.2017 11:47 15,4 °C 15,4 °C 24 % 1006,2 hPa 0,0 mm 18,5 km/h (3 Bft) W-SW 255 ° 1 min 0,000 mm 1,9 UV-I 283 W/m² -5,0 °C 15,4 °C 32,2 km/h (5 Bft)
23.02.2017 11:48 15,6 °C 15,6 °C 25 % 1006,2 hPa 0,0 mm 23,1 km/h (4 Bft) W-SW 252 ° 1 min 0,000 mm 1,5 UV-I 283 W/m² -4,3 °C 15,6 °C 29,0 km/h (5 Bft)
23.02.2017 11:49 15,6 °C 15,6 °C 25 % 1006,1 hPa 0,0 mm 24,5 km/h (4 Bft) W-SW 240 ° 0 min 0,000 mm 1,6 UV-I 90 W/m² -4,3 °C 15,6 °C 33,8 km/h (5 Bft)
23.02.2017 11:50 15,6 °C 15,6 °C 25 % 1006,2 hPa 0,0 mm 18,6 km/h (3 Bft) W-SW 253 ° 1 min 0,000 mm 2,8 UV-I 594 W/m² -4,3 °C 15,6 °C 30,6 km/h (5 Bft)
23.02.2017 11:51 15,8 °C 15,8 °C 24 % 1006,2 hPa 0,0 mm 18,0 km/h (3 Bft) W-SW 247 ° 1 min 0,000 mm 2,8 UV-I 552 W/m² -4,7 °C 15,8 °C 24,1 km/h (4 Bft)
23.02.2017 11:52 16,0 °C 16,0 °C 23 % 1006,1 hPa 0,0 mm 14,8 km/h (3 Bft) W-SW 242 ° 1 min 0,000 mm 2,9 UV-I 587 W/m² -5,1 °C 16,0 °C 19,3 km/h (3 Bft)
23.02.2017 11:53 16,2 °C 16,2 °C 25 % 1006,2 hPa 0,0 mm 10,8 km/h (2 Bft) W 273 ° 1 min 0,000 mm 2,9 UV-I 580 W/m² -3,8 °C 16,2 °C 16,1 km/h (3 Bft)
23.02.2017 11:54 16,3 °C 16,3 °C 25 % 1006,2 hPa 0,0 mm 16,2 km/h (3 Bft) W-NW 284 ° 1 min 0,000 mm 2,9 UV-I 571 W/m² -3,7 °C 16,3 °C 22,5 km/h (4 Bft)
23.02.2017 11:55 16,4 °C 16,4 °C 25 % 1006,1 hPa 0,0 mm 15,8 km/h (3 Bft) W-SW 255 ° 1 min 0,000 mm 2,9 UV-I 555 W/m² -3,7 °C 16,4 °C 20,9 km/h (4 Bft)
23.02.2017 11:56 16,5 °C 16,5 °C 26 % 1006,2 hPa 0,0 mm 8,9 km/h (2 Bft) W-NW 291 ° 1 min 0,000 mm 2,9 UV-I 557 W/m² -3,1 °C 16,5 °C 16,1 km/h (3 Bft)
23.02.2017 11:57 16,6 °C 16,6 °C 24 % 1006,1 hPa 0,0 mm 9,2 km/h (2 Bft) W-NW 298 ° 1 min 0,000 mm 2,9 UV-I 559 W/m² -4,0 °C 16,6 °C 17,7 km/h (3 Bft)
23.02.2017 11:58 16,7 °C 16,7 °C 25 % 1006,0 hPa 0,0 mm 3,5 km/h (1 Bft) W-SW 253 ° 1 min 0,000 mm 2,9 UV-I 559 W/m² -3,4 °C 16,7 °C 11,3 km/h (2 Bft)
23.02.2017 11:59 16,7 °C 16,7 °C 25 % 1006,1 hPa 0,0 mm 15,4 km/h (3 Bft) W 269 ° 1 min 0,000 mm 2,9 UV-I 555 W/m² -3,4 °C 16,7 °C 20,9 km/h (4 Bft)
23.02.2017 12:00 16,7 °C 16,7 °C 22 % 1006,0 hPa 0,0 mm 15,5 km/h (3 Bft) W-NW 292 ° 1 min 0,000 mm 2,9 UV-I 555 W/m² -5,1 °C 16,7 °C 25,7 km/h (4 Bft)
23.02.2017 12:01 16,8 °C 16,8 °C 24 % 1005,9 hPa 0,0 mm 15,5 km/h (3 Bft) W-SW 252 ° 1 min 0,280 mm 2,9 UV-I 555 W/m² -3,9 °C 16,8 °C 20,9 km/h (4 Bft)
23.02.2017 12:02 16,8 °C 16,8 °C 24 % 1005,9 hPa 0,0 mm 14,9 km/h (3 Bft) W 279 ° 1 min 0,000 mm 2,9 UV-I 557 W/m² -3,9 °C 16,8 °C 24,1 km/h (4 Bft)
23.02.2017 12:03 16,8 °C 16,8 °C 26 % 1005,9 hPa 0,0 mm 9,4 km/h (2 Bft) W 274 ° 1 min 0,000 mm 3,0 UV-I 561 W/m² -2,8 °C 16,8 °C 16,1 km/h (3 Bft)
23.02.2017 12:04 16,9 °C 16,9 °C 24 % 1005,9 hPa 0,0 mm 14,0 km/h (3 Bft) W 273 ° 1 min 0,000 mm 3,0 UV-I 545 W/m² -3,8 °C 16,9 °C 20,9 km/h (4 Bft)
23.02.2017 12:05 16,9 °C 16,9 °C 26 % 1005,9 hPa 0,0 mm 14,7 km/h (3 Bft) W 277 ° 1 min 0,000 mm 3,0 UV-I 564 W/m² -2,7 °C 16,9 °C 32,2 km/h (5 Bft)
23.02.2017 12:06 16,9 °C 16,9 °C 22 % 1005,9 hPa 0,0 mm 22,4 km/h (4 Bft) W-SW 242 ° 1 min 0,000 mm 3,0 UV-I 575 W/m² -4,9 °C 16,9 °C 29,0 km/h (5 Bft)
23.02.2017 12:07 16,8 °C 16,9 °C 25 % 1005,8 hPa 0,0 mm 13,4 km/h (3 Bft) W-SW 251 ° 1 min 0,000 mm 3,0 UV-I 578 W/m² -3,3 °C 16,8 °C 24,1 km/h (4 Bft)
23.02.2017 12:08 16,9 °C 16,9 °C 23 % 1005,8 hPa 0,0 mm 9,3 km/h (2 Bft) S-SW 207 ° 1 min 0,000 mm 3,1 UV-I 584 W/m² -4,3 °C 16,9 °C 16,1 km/h (3 Bft)
23.02.2017 12:09 16,9 °C 16,9 °C 24 % 1005,8 hPa 0,0 mm 9,5 km/h (2 Bft) SW 229 ° 1 min 0,000 mm 3,0 UV-I 566 W/m² -3,8 °C 16,9 °C 17,7 km/h (3 Bft)
23.02.2017 12:10 17,0 °C 17,0 °C 22 % 1005,9 hPa 0,0 mm 19,0 km/h (3 Bft) W-SW 245 ° 1 min 0,000 mm 3,0 UV-I 566 W/m² -4,9 °C 17,0 °C 25,7 km/h (4 Bft)
23.02.2017 12:11 17,0 °C 17,0 °C 22 % 1005,8 hPa 0,0 mm 15,8 km/h (3 Bft) W-SW 251 ° 1 min 0,000 mm 3,0 UV-I 570 W/m² -4,9 °C 17,0 °C 19,3 km/h (3 Bft)
23.02.2017 12:12 17,0 °C 17,0 °C 22 % 1005,7 hPa 0,0 mm 13,3 km/h (3 Bft) W-SW 251 ° 1 min 0,000 mm 3,1 UV-I 568 W/m² -4,9 °C 17,0 °C 19,3 km/h (3 Bft)
23.02.2017 12:13 17,1 °C 17,1 °C 24 % 1005,7 hPa 0,0 mm 17,4 km/h (3 Bft) W-SW 257 ° 1 min 0,000 mm 3,1 UV-I 575 W/m² -3,6 °C 17,1 °C 25,7 km/h (4 Bft)
23.02.2017 12:14 17,1 °C 17,1 °C 22 % 1005,7 hPa 0,0 mm 8,8 km/h (2 Bft) W-SW 244 ° 1 min 0,000 mm 3,0 UV-I 561 W/m² -4,8 °C 17,1 °C 20,9 km/h (4 Bft)
23.02.2017 12:15 17,1 °C 17,1 °C 23 % 1005,7 hPa 0,0 mm 11,9 km/h (2 Bft) W 263 ° 1 min 0,000 mm 2,7 UV-I 561 W/m² -4,2 °C 17,1 °C 16,1 km/h (3 Bft)
23.02.2017 12:16 17,1 °C 17,1 °C 25 % 1005,7 hPa 0,0 mm 9,6 km/h (2 Bft) W 266 ° 1 min 0,000 mm 2,3 UV-I 561 W/m² -3,1 °C 17,1 °C 12,9 km/h (3 Bft)
23.02.2017 12:17 17,1 °C 17,1 °C 24 % 1005,7 hPa 0,0 mm 15,3 km/h (3 Bft) SW 229 ° 1 min 0,000 mm 3,1 UV-I 561 W/m² -3,6 °C 17,1 °C 33,8 km/h (5 Bft)
23.02.2017 12:18 17,1 °C 17,1 °C 22 % 1005,8 hPa 0,0 mm 12,9 km/h (3 Bft) W 272 ° 1 min 0,000 mm 3,1 UV-I 580 W/m² -4,8 °C 17,1 °C 25,7 km/h (4 Bft)
23.02.2017 12:19 17,0 °C 17,1 °C 23 % 1005,7 hPa 0,0 mm 20,0 km/h (4 Bft) W 275 ° 1 min 0,000 mm 3,1 UV-I 557 W/m² -4,3 °C 17,0 °C 29,0 km/h (5 Bft)
23.02.2017 12:20 17,1 °C 17,1 °C 22 % 1005,6 hPa 0,0 mm 18,3 km/h (3 Bft) W 260 ° 1 min 0,000 mm 2,9 UV-I 538 W/m² -4,8 °C 17,1 °C 22,5 km/h (4 Bft)
23.02.2017 12:21 17,1 °C 17,1 °C 23 % 1005,6 hPa 0,0 mm 18,0 km/h (3 Bft) W 265 ° 1 min 0,000 mm 3,0 UV-I 522 W/m² -4,2 °C 17,1 °C 25,7 km/h (4 Bft)
23.02.2017 12:22 17,1 °C 17,1 °C 24 % 1005,4 hPa 0,0 mm 21,5 km/h (4 Bft) SW 228 ° 1 min 0,000 mm 3,1 UV-I 559 W/m² -3,6 °C 17,1 °C 29,0 km/h (5 Bft)
23.02.2017 12:23 17,1 °C 17,1 °C 22 % 1005,5 hPa 0,0 mm 24,2 km/h (4 Bft) W 265 ° 1 min 0,000 mm 3,2 UV-I 575 W/m² -4,8 °C 17,1 °C 30,6 km/h (5 Bft)
23.02.2017 12:24 17,2 °C 17,2 °C 23 % 1005,4 hPa 0,0 mm 15,0 km/h (3 Bft) W 268 ° 1 min 0,000 mm 2,8 UV-I 575 W/m² -4,1 °C 17,2 °C 17,7 km/h (3 Bft)
23.02.2017 12:25 17,2 °C 17,2 °C 21 % 1005,5 hPa 0,0 mm 13,1 km/h (3 Bft) SW 222 ° 1 min 0,000 mm 2,7 UV-I 452 W/m² -5,3 °C 17,2 °C 19,3 km/h (3 Bft)
23.02.2017 12:26 17,2 °C 17,2 °C 24 % 1005,5 hPa 0,0 mm 11,1 km/h (2 Bft) W-SW 242 ° 1 min 0,000 mm 2,7 UV-I 410 W/m² -3,5 °C 17,2 °C 17,7 km/h (3 Bft)
23.02.2017 12:27 17,2 °C 17,2 °C 23 % 1005,4 hPa 0,0 mm 14,3 km/h (3 Bft) W 261 ° 1 min 0,000 mm 2,8 UV-I 431 W/m² -4,1 °C 17,2 °C 20,9 km/h (4 Bft)
23.02.2017 12:28 17,2 °C 17,2 °C 23 % 1005,5 hPa 0,0 mm 19,1 km/h (3 Bft) W 264 ° 1 min 0,000 mm 3,1 UV-I 438 W/m² -4,1 °C 17,2 °C 35,4 km/h (5 Bft)
23.02.2017 12:29 17,2 °C 17,2 °C 23 % 1005,5 hPa 0,0 mm 21,9 km/h (4 Bft) W 261 ° 1 min 0,000 mm 3,2 UV-I 438 W/m² -4,1 °C 17,2 °C 32,2 km/h (5 Bft)
23.02.2017 12:30 17,2 °C 17,2 °C 21 % 1005,5 hPa 0,0 mm 14,3 km/h (3 Bft) W 264 ° 1 min 0,000 mm 3,2 UV-I 671 W/m² -5,3 °C 17,2 °C 25,7 km/h (4 Bft)
23.02.2017 12:31 17,2 °C 17,2 °C 24 % 1005,4 hPa 0,0 mm 18,3 km/h (3 Bft) W-SW 247 ° 1 min 0,000 mm 3,4 UV-I 668 W/m² -3,5 °C 17,2 °C 25,7 km/h (4 Bft)
23.02.2017 12:32 17,3 °C 17,3 °C 22 % 1005,4 hPa 0,0 mm 21,3 km/h (4 Bft) W-SW 254 ° 1 min 0,000 mm 3,3 UV-I 661 W/m² -4,6 °C 17,3 °C 29,0 km/h (5 Bft)
23.02.2017 12:33 17,3 °C 17,3 °C 22 % 1005,3 hPa 0,0 mm 17,6 km/h (3 Bft) SW 235 ° 1 min 0,000 mm 3,4 UV-I 679 W/m² -4,6 °C 17,3 °C 20,9 km/h (4 Bft)
23.02.2017 12:34 17,4 °C 17,4 °C 22 % 1005,1 hPa 0,0 mm 16,0 km/h (3 Bft) SW 225 ° 1 min 0,000 mm 3,2 UV-I 668 W/m² -4,5 °C 17,4 °C 22,5 km/h (4 Bft)
23.02.2017 12:35 17,4 °C 17,5 °C 22 % 1005,2 hPa 0,0 mm 11,1 km/h (2 Bft) W 264 ° 1 min 0,000 mm 2,2 UV-I 668 W/m² -4,5 °C 17,4 °C 20,9 km/h (4 Bft)
23.02.2017 12:36 17,4 °C 17,5 °C 22 % 1005,1 hPa 0,0 mm 21,5 km/h (4 Bft) W-SW 248 ° 1 min 0,000 mm 2,1 UV-I 260 W/m² -4,5 °C 17,4 °C 29,0 km/h (5 Bft)
23.02.2017 12:37 17,3 °C 17,4 °C 22 % 1005,1 hPa 0,0 mm 18,4 km/h (3 Bft) W-SW 246 ° 1 min 0,000 mm 3,1 UV-I 260 W/m² -4,6 °C 17,3 °C 40,2 km/h (6 Bft)
23.02.2017 12:38 17,3 °C 17,3 °C 22 % 1005,2 hPa 0,0 mm 18,2 km/h (3 Bft) W-SW 246 ° 1 min 0,000 mm 3,1 UV-I 571 W/m² -4,6 °C 17,3 °C 29,0 km/h (5 Bft)
23.02.2017 12:39 17,2 °C 17,3 °C 22 % 1005,2 hPa 0,0 mm 19,4 km/h (3 Bft) W-NW 290 ° 1 min 0,000 mm 2,6 UV-I 571 W/m² -4,7 °C 17,2 °C 30,6 km/h (5 Bft)
23.02.2017 12:40 17,2 °C 17,2 °C 23 % 1005,2 hPa 0,0 mm 17,7 km/h (3 Bft) W 270 ° 1 min 0,000 mm 3,0 UV-I 545 W/m² -4,1 °C 17,2 °C 30,6 km/h (5 Bft)
23.02.2017 12:41 17,2 °C 17,2 °C 22 % 1005,1 hPa 0,0 mm 16,2 km/h (3 Bft) W 279 ° 1 min 0,000 mm 3,1 UV-I 559 W/m² -4,7 °C 17,2 °C 20,9 km/h (4 Bft)
23.02.2017 12:42 17,2 °C 17,2 °C 22 % 1005,0 hPa 0,0 mm 15,9 km/h (3 Bft) W 273 ° 1 min 0,000 mm 2,9 UV-I 552 W/m² -4,7 °C 17,2 °C 22,5 km/h (4 Bft)
23.02.2017 12:43 17,2 °C 17,2 °C 23 % 1005,1 hPa 0,0 mm 14,6 km/h (3 Bft) SW 219 ° 0 min 0,000 mm 1,9 UV-I 171 W/m² -4,1 °C 17,2 °C 20,9 km/h (4 Bft)
23.02.2017 12:44 17,1 °C 17,2 °C 23 % 1005,1 hPa 0,0 mm 10,0 km/h (2 Bft) S-SW 205 ° 0 min 0,000 mm 1,9 UV-I 167 W/m² -4,2 °C 17,1 °C 16,1 km/h (3 Bft)
23.02.2017 12:45 17,0 °C 17,1 °C 22 % 1005,1 hPa 0,0 mm 11,0 km/h (2 Bft) S-SW 201 ° 1 min 0,000 mm 2,2 UV-I 209 W/m² -4,9 °C 17,0 °C 19,3 km/h (3 Bft)
23.02.2017 12:46 17,0 °C 17,0 °C 21 % 1005,0 hPa 0,0 mm 10,4 km/h (2 Bft) S 190 ° 1 min 0,000 mm 3,1 UV-I 209 W/m² -5,5 °C 17,0 °C 14,5 km/h (3 Bft)
23.02.2017 12:47 17,0 °C 17,0 °C 22 % 1004,9 hPa 0,0 mm 8,7 km/h (2 Bft) W 280 ° 1 min 0,000 mm 3,1 UV-I 578 W/m² -4,9 °C 17,0 °C 14,5 km/h (3 Bft)
23.02.2017 12:48 17,1 °C 17,1 °C 22 % 1004,9 hPa 0,0 mm 17,5 km/h (3 Bft) S-SW 212 ° 1 min 0,000 mm 3,0 UV-I 552 W/m² -4,8 °C 17,1 °C 30,6 km/h (5 Bft)
23.02.2017 12:49 17,1 °C 17,1 °C 22 % 1005,0 hPa 0,0 mm 17,6 km/h (3 Bft) SW 232 ° 1 min 0,000 mm 3,0 UV-I 559 W/m² -4,8 °C 17,1 °C 30,6 km/h (5 Bft)
23.02.2017 12:50 17,2 °C 17,2 °C 22 % 1004,9 hPa 0,0 mm 21,2 km/h (4 Bft) W-SW 250 ° 1 min 0,000 mm 3,0 UV-I 533 W/m² -4,7 °C 17,2 °C 35,4 km/h (5 Bft)
23.02.2017 12:51 17,3 °C 17,3 °C 23 % 1004,9 hPa 0,0 mm 16,2 km/h (3 Bft) S-SW 209 ° 1 min 0,000 mm 3,2 UV-I 589 W/m² -4,0 °C 17,3 °C 25,7 km/h (4 Bft)
23.02.2017 12:52 17,3 °C 17,3 °C 21 % 1004,9 hPa 0,0 mm 17,1 km/h (3 Bft) SW 235 ° 1 min 0,000 mm 3,1 UV-I 598 W/m² -5,2 °C 17,3 °C 37,0 km/h (5 Bft)
23.02.2017 12:53 17,4 °C 17,4 °C 20 % 1004,9 hPa 0,0 mm 20,3 km/h (4 Bft) W 260 ° 1 min 0,000 mm 2,7 UV-I 598 W/m² -5,8 °C 17,4 °C 29,0 km/h (5 Bft)
23.02.2017 12:54 17,4 °C 17,4 °C 22 % 1004,8 hPa 0,0 mm 18,1 km/h (3 Bft) W 268 ° 1 min 0,000 mm 2,5 UV-I 257 W/m² -4,5 °C 17,4 °C 27,4 km/h (4 Bft)
23.02.2017 12:55 17,3 °C 17,4 °C 20 % 1004,7 hPa 0,0 mm 15,4 km/h (3 Bft) W 279 ° 1 min 0,000 mm 2,3 UV-I 234 W/m² -5,9 °C 17,3 °C 27,4 km/h (4 Bft)
23.02.2017 12:56 17,3 °C 17,3 °C 22 % 1004,7 hPa 0,0 mm 14,7 km/h (3 Bft) W 261 ° 1 min 0,000 mm 2,7 UV-I 234 W/m² -4,6 °C 17,3 °C 20,9 km/h (4 Bft)
23.02.2017 12:57 17,2 °C 17,3 °C 21 % 1004,7 hPa 0,0 mm 15,5 km/h (3 Bft) W-SW 246 ° 1 min 0,000 mm 3,0 UV-I 234 W/m² -5,3 °C 17,2 °C 22,5 km/h (4 Bft)
23.02.2017 12:58 17,3 °C 17,3 °C 22 % 1004,7 hPa 0,0 mm 15,6 km/h (3 Bft) W-SW 257 ° 1 min 0,000 mm 3,1 UV-I 582 W/m² -4,6 °C 17,3 °C 24,1 km/h (4 Bft)
23.02.2017 12:59 17,4 °C 17,4 °C 22 % 1004,8 hPa 0,0 mm 8,6 km/h (2 Bft) W-NW 284 ° 1 min 0,000 mm 3,1 UV-I 578 W/m² -4,5 °C 17,4 °C 16,1 km/h (3 Bft)
23.02.2017 13:00 17,5 °C 17,5 °C 23 % 1004,7 hPa 0,0 mm 17,4 km/h (3 Bft) SW 221 ° 1 min 0,000 mm 3,1 UV-I 568 W/m² -3,8 °C 17,5 °C 29,0 km/h (5 Bft)
23.02.2017 13:01 17,6 °C 17,6 °C 20 % 1004,6 hPa 0,0 mm 20,5 km/h (4 Bft) W 269 ° 1 min 0,432 mm 2,9 UV-I 519 W/m² -5,6 °C 17,6 °C 29,0 km/h (5 Bft)
23.02.2017 13:02 17,6 °C 17,7 °C 21 % 1004,7 hPa 0,0 mm 23,7 km/h (4 Bft) W-NW 286 ° 1 min 0,000 mm 3,0 UV-I 519 W/m² -5,0 °C 17,6 °C 32,2 km/h (5 Bft)
23.02.2017 13:03 17,6 °C 17,7 °C 22 % 1004,6 hPa 0,0 mm 21,1 km/h (4 Bft) W-NW 303 ° 1 min 0,000 mm 3,0 UV-I 543 W/m² -4,4 °C 17,6 °C 30,6 km/h (5 Bft)
23.02.2017 13:04 17,6 °C 17,7 °C 20 % 1004,5 hPa 0,0 mm 26,9 km/h (4 Bft) W 261 ° 1 min 0,000 mm 2,7 UV-I 468 W/m² -5,6 °C 17,6 °C 41,8 km/h (6 Bft)
23.02.2017 13:05 17,5 °C 17,6 °C 22 % 1004,5 hPa 0,0 mm 16,9 km/h (3 Bft) NW 304 ° 1 min 0,000 mm 2,7 UV-I 410 W/m² -4,4 °C 17,5 °C 24,1 km/h (4 Bft)
23.02.2017 13:06 17,6 °C 17,6 °C 22 % 1004,4 hPa 0,0 mm 13,4 km/h (3 Bft) W 275 ° 1 min 0,000 mm 3,1 UV-I 591 W/m² -4,4 °C 17,6 °C 24,1 km/h (4 Bft)
23.02.2017 13:07 17,6 °C 17,6 °C 21 % 1004,5 hPa 0,0 mm 20,8 km/h (4 Bft) SW 227 ° 1 min 0,000 mm 3,0 UV-I 545 W/m² -5,0 °C 17,6 °C 32,2 km/h (5 Bft)
23.02.2017 13:08 17,6 °C 17,6 °C 20 % 1004,4 hPa 0,0 mm 22,5 km/h (4 Bft) W-SW 240 ° 1 min 0,000 mm 3,1 UV-I 513 W/m² -5,6 °C 17,6 °C 30,6 km/h (5 Bft)
23.02.2017 13:09 17,6 °C 17,6 °C 20 % 1004,4 hPa 0,0 mm 31,6 km/h (5 Bft) W-NW 290 ° 1 min 0,000 mm 3,1 UV-I 526 W/m² -5,6 °C 17,6 °C 51,5 km/h (7 Bft)
23.02.2017 13:10 17,5 °C 17,6 °C 21 % 1004,6 hPa 0,0 mm 26,5 km/h (4 Bft) SW 221 ° 1 min 0,000 mm 3,0 UV-I 591 W/m² -5,0 °C 17,5 °C 43,5 km/h (6 Bft)
23.02.2017 13:11 17,5 °C 17,6 °C 20 % 1004,1 hPa 0,0 mm 19,0 km/h (3 Bft) W-NW 297 ° 1 min 0,000 mm 3,1 UV-I 596 W/m² -5,7 °C 17,5 °C 32,2 km/h (5 Bft)
23.02.2017 13:12 17,5 °C 17,5 °C 21 % 1004,3 hPa 0,0 mm 24,3 km/h (4 Bft) W-SW 240 ° 1 min 0,000 mm 3,1 UV-I 592 W/m² -5,0 °C 17,5 °C 37,0 km/h (5 Bft)
23.02.2017 13:13 17,5 °C 17,5 °C 20 % 1004,2 hPa 0,0 mm 18,2 km/h (3 Bft) SW 217 ° 1 min 0,000 mm 3,0 UV-I 582 W/m² -5,7 °C 17,5 °C 35,4 km/h (5 Bft)
23.02.2017 13:14 17,6 °C 17,6 °C 20 % 1004,2 hPa 0,0 mm 20,9 km/h (4 Bft) W 263 ° 1 min 0,000 mm 3,0 UV-I 577 W/m² -5,6 °C 17,6 °C 30,6 km/h (5 Bft)
23.02.2017 13:15 17,6 °C 17,6 °C 21 % 1004,1 hPa 0,0 mm 13,5 km/h (3 Bft) W-NW 290 ° 1 min 0,000 mm 3,0 UV-I 594 W/m² -5,0 °C 17,6 °C 25,7 km/h (4 Bft)
23.02.2017 13:16 17,6 °C 17,6 °C 22 % 1004,1 hPa 0,0 mm 17,8 km/h (3 Bft) W-SW 250 ° 1 min 0,000 mm 3,1 UV-I 536 W/m² -4,4 °C 17,6 °C 24,1 km/h (4 Bft)
23.02.2017 13:17 17,6 °C 17,6 °C 21 % 1004,1 hPa 0,0 mm 18,6 km/h (3 Bft) W-SW 246 ° 1 min 0,000 mm 3,1 UV-I 592 W/m² -5,0 °C 17,6 °C 25,7 km/h (4 Bft)
23.02.2017 13:18 17,7 °C 17,7 °C 20 % 1004,2 hPa 0,0 mm 14,4 km/h (3 Bft) W-SW 257 ° 1 min 0,000 mm 3,1 UV-I 613 W/m² -5,5 °C 17,7 °C 22,5 km/h (4 Bft)
23.02.2017 13:19 17,8 °C 17,8 °C 19 % 1004,1 hPa 0,0 mm 18,2 km/h (3 Bft) W-SW 250 ° 1 min 0,000 mm 2,9 UV-I 543 W/m² -6,1 °C 17,8 °C 30,6 km/h (5 Bft)
23.02.2017 13:20 17,8 °C 17,8 °C 18 % 1003,9 hPa 0,0 mm 23,7 km/h (4 Bft) W 278 ° 1 min 0,000 mm 2,9 UV-I 533 W/m² -6,8 °C 17,8 °C 40,2 km/h (6 Bft)
23.02.2017 13:21 17,8 °C 17,8 °C 21 % 1003,9 hPa 0,0 mm 19,2 km/h (3 Bft) W 267 ° 1 min 0,000 mm 2,9 UV-I 540 W/m² -4,8 °C 17,8 °C 25,7 km/h (4 Bft)
23.02.2017 13:22 17,7 °C 17,8 °C 20 % 1003,9 hPa 0,0 mm 14,0 km/h (3 Bft) W 274 ° 1 min 0,000 mm 2,5 UV-I 540 W/m² -5,5 °C 17,7 °C 19,3 km/h (3 Bft)
23.02.2017 13:23 17,7 °C 17,7 °C 22 % 1003,8 hPa 0,0 mm 10,6 km/h (2 Bft) W-SW 246 ° 1 min 0,000 mm 2,2 UV-I 540 W/m² -4,3 °C 17,7 °C 19,3 km/h (3 Bft)
23.02.2017 13:24 17,6 °C 17,7 °C 20 % 1003,8 hPa 0,0 mm 17,3 km/h (3 Bft) SW 223 ° 1 min 0,000 mm 2,8 UV-I 508 W/m² -5,6 °C 17,6 °C 29,0 km/h (5 Bft)
23.02.2017 13:25 17,7 °C 17,7 °C 20 % 1003,9 hPa 0,0 mm 16,0 km/h (3 Bft) W 259 ° 1 min 0,000 mm 2,9 UV-I 536 W/m² -5,5 °C 17,7 °C 30,6 km/h (5 Bft)
23.02.2017 13:26 17,7 °C 17,7 °C 20 % 1003,9 hPa 0,0 mm 19,4 km/h (3 Bft) W 269 ° 1 min 0,000 mm 2,9 UV-I 557 W/m² -5,5 °C 17,7 °C 24,1 km/h (4 Bft)
23.02.2017 13:27 17,7 °C 17,7 °C 20 % 1003,8 hPa 0,0 mm 19,7 km/h (3 Bft) SW 221 ° 1 min 0,000 mm 3,0 UV-I 529 W/m² -5,5 °C 17,7 °C 27,4 km/h (4 Bft)
23.02.2017 13:28 17,8 °C 17,8 °C 19 % 1003,8 hPa 0,0 mm 22,7 km/h (4 Bft) W 261 ° 1 min 0,000 mm 3,0 UV-I 585 W/m² -6,1 °C 17,8 °C 30,6 km/h (5 Bft)
23.02.2017 13:29 17,8 °C 17,8 °C 22 % 1003,9 hPa 0,0 mm 16,2 km/h (3 Bft) W-SW 239 ° 1 min 0,000 mm 3,0 UV-I 610 W/m² -4,2 °C 17,8 °C 24,1 km/h (4 Bft)
23.02.2017 13:30 17,9 °C 17,9 °C 20 % 1003,8 hPa 0,0 mm 17,9 km/h (3 Bft) W 267 ° 1 min 0,000 mm 3,1 UV-I 617 W/m² -5,4 °C 17,9 °C 25,7 km/h (4 Bft)
23.02.2017 13:31 17,9 °C 17,9 °C 20 % 1003,8 hPa 0,0 mm 16,2 km/h (3 Bft) W 279 ° 1 min 0,000 mm 2,9 UV-I 555 W/m² -5,4 °C 17,9 °C 22,5 km/h (4 Bft)
23.02.2017 13:32 18,0 °C 18,0 °C 20 % 1003,6 hPa 0,0 mm 11,7 km/h (2 Bft) SW 236 ° 1 min 0,000 mm 3,1 UV-I 613 W/m² -5,3 °C 18,0 °C 25,7 km/h (4 Bft)
23.02.2017 13:33 18,0 °C 18,0 °C 22 % 1003,6 hPa 0,0 mm 19,0 km/h (3 Bft) W-SW 257 ° 1 min 0,000 mm 2,7 UV-I 613 W/m² -4,0 °C 18,0 °C 24,1 km/h (4 Bft)
23.02.2017 13:34 18,0 °C 18,0 °C 22 % 1003,6 hPa 0,0 mm 14,9 km/h (3 Bft) W-SW 242 ° 1 min 0,000 mm 2,5 UV-I 436 W/m² -4,0 °C 18,0 °C 22,5 km/h (4 Bft)
23.02.2017 13:35 18,1 °C 18,1 °C 21 % 1003,6 hPa 0,0 mm 8,9 km/h (2 Bft) W 261 ° 1 min 0,000 mm 2,7 UV-I 552 W/m² -4,6 °C 18,1 °C 14,5 km/h (3 Bft)
23.02.2017 13:36 18,1 °C 18,1 °C 22 % 1003,6 hPa 0,0 mm 14,8 km/h (3 Bft) W 268 ° 1 min 0,000 mm 2,7 UV-I 513 W/m² -3,9 °C 18,1 °C 25,7 km/h (4 Bft)
23.02.2017 13:37 18,1 °C 18,1 °C 23 % 1003,6 hPa 0,0 mm 18,2 km/h (3 Bft) W-SW 252 ° 1 min 0,000 mm 2,4 UV-I 422 W/m² -3,3 °C 18,1 °C 29,0 km/h (5 Bft)
23.02.2017 13:38 18,1 °C 18,1 °C 22 % 1003,6 hPa 0,0 mm 15,0 km/h (3 Bft) W 271 ° 1 min 0,000 mm 2,2 UV-I 339 W/m² -3,9 °C 18,1 °C 24,1 km/h (4 Bft)
23.02.2017 13:39 18,1 °C 18,1 °C 20 % 1003,5 hPa 0,0 mm 17,8 km/h (3 Bft) W-SW 242 ° 1 min 0,000 mm 2,1 UV-I 323 W/m² -5,2 °C 18,1 °C 25,7 km/h (4 Bft)
23.02.2017 13:40 17,9 °C 18,1 °C 20 % 1003,5 hPa 0,0 mm 16,0 km/h (3 Bft) W 271 ° 1 min 0,000 mm 2,1 UV-I 308 W/m² -5,4 °C 17,9 °C 20,9 km/h (4 Bft)
23.02.2017 13:41 17,8 °C 17,9 °C 21 % 1003,4 hPa 0,0 mm 15,4 km/h (3 Bft) W 263 ° 1 min 0,000 mm 2,1 UV-I 299 W/m² -4,8 °C 17,8 °C 19,3 km/h (3 Bft)
23.02.2017 13:42 17,7 °C 17,8 °C 21 % 1003,4 hPa 0,0 mm 10,3 km/h (2 Bft) W-SW 239 ° 1 min 0,000 mm 2,0 UV-I 290 W/m² -4,9 °C 17,7 °C 17,7 km/h (3 Bft)
23.02.2017 13:43 17,6 °C 17,7 °C 22 % 1003,4 hPa 0,0 mm 14,4 km/h (3 Bft) W-SW 248 ° 1 min 0,000 mm 2,0 UV-I 301 W/m² -4,4 °C 17,6 °C 19,3 km/h (3 Bft)
23.02.2017 13:44 17,6 °C 17,6 °C 21 % 1003,4 hPa 0,0 mm 9,7 km/h (2 Bft) W-NW 283 ° 1 min 0,000 mm 2,0 UV-I 297 W/m² -5,0 °C 17,6 °C 16,1 km/h (3 Bft)
23.02.2017 13:45 17,6 °C 17,6 °C 20 % 1003,4 hPa 0,0 mm 7,2 km/h (2 Bft) W-SW 256 ° 1 min 0,000 mm 2,0 UV-I 297 W/m² -5,6 °C 17,6 °C 11,3 km/h (2 Bft)
23.02.2017 13:46 17,5 °C 17,6 °C 22 % 1003,4 hPa 0,0 mm 14,9 km/h (3 Bft) W 263 ° 1 min 0,000 mm 2,0 UV-I 278 W/m² -4,4 °C 17,5 °C 20,9 km/h (4 Bft)
23.02.2017 13:47 17,5 °C 17,6 °C 21 % 1003,3 hPa 0,0 mm 13,1 km/h (3 Bft) SW 223 ° 1 min 0,000 mm 1,9 UV-I 262 W/m² -5,0 °C 17,5 °C 25,7 km/h (4 Bft)
23.02.2017 13:48 17,4 °C 17,5 °C 22 % 1003,3 hPa 0,0 mm 11,5 km/h (2 Bft) W 261 ° 1 min 0,000 mm 1,8 UV-I 253 W/m² -4,5 °C 17,4 °C 19,3 km/h (3 Bft)
23.02.2017 13:49 17,3 °C 17,4 °C 22 % 1003,1 hPa 0,0 mm 14,8 km/h (3 Bft) W-SW 249 ° 1 min 0,000 mm 1,8 UV-I 255 W/m² -4,6 °C 17,3 °C 20,9 km/h (4 Bft)
23.02.2017 13:50 17,3 °C 17,3 °C 21 % 1003,2 hPa 0,0 mm 14,1 km/h (3 Bft) W-SW 242 ° 1 min 0,000 mm 1,9 UV-I 262 W/m² -5,2 °C 17,3 °C 20,9 km/h (4 Bft)
23.02.2017 13:51 17,2 °C 17,3 °C 21 % 1003,1 hPa 0,0 mm 10,5 km/h (2 Bft) W 275 ° 1 min 0,000 mm 1,9 UV-I 283 W/m² -5,3 °C 17,2 °C 17,7 km/h (3 Bft)
23.02.2017 13:52 17,2 °C 17,2 °C 22 % 1003,1 hPa 0,0 mm 12,4 km/h (3 Bft) W-SW 244 ° 1 min 0,000 mm 2,0 UV-I 267 W/m² -4,7 °C 17,2 °C 16,1 km/h (3 Bft)
23.02.2017 13:53 17,2 °C 17,2 °C 22 % 1003,1 hPa 0,0 mm 5,4 km/h (1 Bft) W-SW 258 ° 1 min 0,000 mm 1,8 UV-I 250 W/m² -4,7 °C 17,2 °C 11,3 km/h (2 Bft)
23.02.2017 13:54 17,2 °C 17,2 °C 21 % 1003,0 hPa 0,0 mm 8,2 km/h (2 Bft) W-NW 290 ° 1 min 0,000 mm 1,8 UV-I 250 W/m² -5,3 °C 17,2 °C 12,9 km/h (3 Bft)
23.02.2017 13:55 17,2 °C 17,2 °C 22 % 1003,0 hPa 0,0 mm 13,2 km/h (3 Bft) W 265 ° 1 min 0,000 mm 1,8 UV-I 283 W/m² -4,7 °C 17,2 °C 17,7 km/h (3 Bft)
23.02.2017 13:56 17,1 °C 17,2 °C 22 % 1003,0 hPa 0,0 mm 7,6 km/h (2 Bft) W-SW 248 ° 1 min 0,000 mm 1,8 UV-I 260 W/m² -4,8 °C 17,1 °C 14,5 km/h (3 Bft)
23.02.2017 13:57 17,1 °C 17,1 °C 21 % 1002,9 hPa 0,0 mm 9,3 km/h (2 Bft) W-SW 240 ° 1 min 0,000 mm 1,7 UV-I 237 W/m² -5,4 °C 17,1 °C 14,5 km/h (3 Bft)
23.02.2017 13:58 17,1 °C 17,1 °C 23 % 1002,9 hPa 0,0 mm 11,1 km/h (2 Bft) W-SW 244 ° 1 min 0,000 mm 1,7 UV-I 236 W/m² -4,2 °C 17,1 °C 17,7 km/h (3 Bft)
23.02.2017 13:59 17,1 °C 17,1 °C 23 % 1002,9 hPa 0,0 mm 12,8 km/h (3 Bft) SW 226 ° 1 min 0,000 mm 1,7 UV-I 234 W/m² -4,2 °C 17,1 °C 20,9 km/h (4 Bft)
23.02.2017 14:00 17,0 °C 17,1 °C 21 % 1002,9 hPa 0,0 mm 11,8 km/h (2 Bft) SW 214 ° 1 min 0,000 mm 1,6 UV-I 221 W/m² -5,5 °C 17,0 °C 16,1 km/h (3 Bft)
23.02.2017 14:01 17,0 °C 17,0 °C 20 % 1002,9 hPa 0,0 mm 12,7 km/h (3 Bft) W-SW 258 ° 1 min 0,406 mm 1,6 UV-I 216 W/m² -6,1 °C 17,0 °C 17,7 km/h (3 Bft)
23.02.2017 14:02 17,0 °C 17,0 °C 25 % 1002,8 hPa 0,0 mm 12,0 km/h (2 Bft) W-NW 285 ° 1 min 0,000 mm 1,6 UV-I 207 W/m² -3,2 °C 17,0 °C 17,7 km/h (3 Bft)
23.02.2017 14:03 16,9 °C 17,0 °C 21 % 1002,7 hPa 0,0 mm 13,5 km/h (3 Bft) W-NW 299 ° 1 min 0,000 mm 1,6 UV-I 204 W/m² -5,5 °C 16,9 °C 17,7 km/h (3 Bft)
23.02.2017 14:04 16,8 °C 16,9 °C 22 % 1002,8 hPa 0,0 mm 13,3 km/h (3 Bft) W 279 ° 1 min 0,000 mm 1,6 UV-I 214 W/m² -5,0 °C 16,8 °C 17,7 km/h (3 Bft)
23.02.2017 14:05 16,8 °C 16,9 °C 21 % 1002,6 hPa 0,0 mm 16,0 km/h (3 Bft) S-SW 194 ° 1 min 0,000 mm 1,6 UV-I 211 W/m² -5,6 °C 16,8 °C 25,7 km/h (4 Bft)
23.02.2017 14:06 16,8 °C 16,8 °C 23 % 1002,8 hPa 0,0 mm 8,6 km/h (2 Bft) SW 226 ° 1 min 0,000 mm 1,6 UV-I 209 W/m² -4,4 °C 16,8 °C 16,1 km/h (3 Bft)
23.02.2017 14:07 16,8 °C 16,8 °C 23 % 1002,7 hPa 0,0 mm 17,1 km/h (3 Bft) SW 223 ° 1 min 0,000 mm 1,6 UV-I 220 W/m² -4,4 °C 16,8 °C 24,1 km/h (4 Bft)
23.02.2017 14:08 16,8 °C 16,8 °C 23 % 1002,7 hPa 0,0 mm 12,5 km/h (3 Bft) W-NW 284 ° 1 min 0,000 mm 1,7 UV-I 236 W/m² -4,4 °C 16,8 °C 19,3 km/h (3 Bft)
23.02.2017 14:09 16,8 °C 16,8 °C 24 % 1002,7 hPa 0,0 mm 12,1 km/h (2 Bft) W-SW 248 ° 1 min 0,000 mm 1,9 UV-I 236 W/m² -3,9 °C 16,8 °C 17,7 km/h (3 Bft)
23.02.2017 14:10 16,8 °C 16,8 °C 26 % 1002,7 hPa 0,0 mm 12,6 km/h (3 Bft) W-SW 250 ° 1 min 0,000 mm 1,8 UV-I 253 W/m² -2,8 °C 16,8 °C 27,4 km/h (4 Bft)
23.02.2017 14:11 16,8 °C 16,8 °C 24 % 1002,7 hPa 0,0 mm 12,6 km/h (3 Bft) S-SW 194 ° 1 min 0,000 mm 1,6 UV-I 236 W/m² -3,9 °C 16,8 °C 20,9 km/h (4 Bft)
23.02.2017 14:12 16,8 °C 16,8 °C 22 % 1002,6 hPa 0,0 mm 15,4 km/h (3 Bft) W-SW 257 ° 1 min 0,000 mm 1,6 UV-I 221 W/m² -5,0 °C 16,8 °C 24,1 km/h (4 Bft)
23.02.2017 14:13 16,8 °C 16,8 °C 25 % 1002,5 hPa 0,0 mm 11,8 km/h (2 Bft) W 281 ° 1 min 0,000 mm 1,6 UV-I 227 W/m² -3,3 °C 16,8 °C 14,5 km/h (3 Bft)
23.02.2017 14:14 16,7 °C 16,8 °C 24 % 1002,5 hPa 0,0 mm 9,1 km/h (2 Bft) W 273 ° 1 min 0,000 mm 1,6 UV-I 229 W/m² -4,0 °C 16,7 °C 12,9 km/h (3 Bft)
23.02.2017 14:15 16,7 °C 16,7 °C 21 % 1002,5 hPa 0,0 mm 9,0 km/h (2 Bft) W-NW 300 ° 1 min 0,000 mm 1,7 UV-I 253 W/m² -5,7 °C 16,7 °C 14,5 km/h (3 Bft)
23.02.2017 14:16 16,7 °C 16,7 °C 25 % 1002,4 hPa 0,0 mm 7,6 km/h (2 Bft) W 281 ° 1 min 0,000 mm 1,8 UV-I 281 W/m² -3,4 °C 16,7 °C 12,9 km/h (3 Bft)
23.02.2017 14:17 16,7 °C 16,7 °C 25 % 1002,3 hPa 0,0 mm 12,3 km/h (3 Bft) W-SW 252 ° 1 min 0,000 mm 1,7 UV-I 272 W/m² -3,4 °C 16,7 °C 19,3 km/h (3 Bft)
23.02.2017 14:18 16,8 °C 16,8 °C 24 % 1002,3 hPa 0,0 mm 12,5 km/h (3 Bft) W 259 ° 1 min 0,000 mm 1,7 UV-I 267 W/m² -3,9 °C 16,8 °C 17,7 km/h (3 Bft)
23.02.2017 14:19 16,8 °C 16,8 °C 22 % 1002,3 hPa 0,0 mm 17,1 km/h (3 Bft) W-SW 256 ° 1 min 0,000 mm 1,7 UV-I 260 W/m² -5,0 °C 16,8 °C 20,9 km/h (4 Bft)
23.02.2017 14:20 16,8 °C 16,8 °C 23 % 1002,3 hPa 0,0 mm 16,0 km/h (3 Bft) W 266 ° 1 min 0,000 mm 1,7 UV-I 258 W/m² -4,4 °C 16,8 °C 22,5 km/h (4 Bft)
23.02.2017 14:21 16,8 °C 16,8 °C 24 % 1002,3 hPa 0,0 mm 15,1 km/h (3 Bft) W-SW 248 ° 1 min 0,000 mm 1,7 UV-I 262 W/m² -3,9 °C 16,8 °C 22,5 km/h (4 Bft)
23.02.2017 14:22 16,8 °C 16,8 °C 23 % 1002,3 hPa 0,0 mm 9,7 km/h (2 Bft) W-NW 286 ° 1 min 0,000 mm 1,7 UV-I 271 W/m² -4,4 °C 16,8 °C 12,9 km/h (3 Bft)
23.02.2017 14:23 16,8 °C 16,8 °C 25 % 1002,2 hPa 0,0 mm 15,2 km/h (3 Bft) W-SW 252 ° 1 min 0,000 mm 1,8 UV-I 276 W/m² -3,3 °C 16,8 °C 24,1 km/h (4 Bft)
23.02.2017 14:24 16,8 °C 16,8 °C 24 % 1002,2 hPa 0,0 mm 12,4 km/h (3 Bft) W-SW 246 ° 1 min 0,000 mm 1,8 UV-I 271 W/m² -3,9 °C 16,8 °C 20,9 km/h (4 Bft)
23.02.2017 14:25 16,8 °C 16,8 °C 25 % 1002,2 hPa 0,0 mm 10,0 km/h (2 Bft) W 259 ° 1 min 0,000 mm 1,7 UV-I 257 W/m² -3,3 °C 16,8 °C 12,9 km/h (3 Bft)
23.02.2017 14:26 16,8 °C 16,8 °C 22 % 1002,2 hPa 0,0 mm 11,1 km/h (2 Bft) W-NW 282 ° 1 min 0,000 mm 1,7 UV-I 251 W/m² -5,0 °C 16,8 °C 17,7 km/h (3 Bft)
23.02.2017 14:27 16,8 °C 16,8 °C 23 % 1002,2 hPa 0,0 mm 9,9 km/h (2 Bft) W 270 ° 1 min 0,000 mm 1,7 UV-I 250 W/m² -4,4 °C 16,8 °C 14,5 km/h (3 Bft)
23.02.2017 14:28 16,8 °C 16,8 °C 24 % 1002,1 hPa 0,0 mm 11,1 km/h (2 Bft) W 271 ° 1 min 0,000 mm 1,6 UV-I 241 W/m² -3,9 °C 16,8 °C 16,1 km/h (3 Bft)
23.02.2017 14:29 16,8 °C 16,8 °C 24 % 1002,1 hPa 0,0 mm 7,6 km/h (2 Bft) W-SW 252 ° 1 min 0,000 mm 1,6 UV-I 241 W/m² -3,9 °C 16,8 °C 12,9 km/h (3 Bft)
23.02.2017 14:30 16,8 °C 16,8 °C 23 % 1002,1 hPa 0,0 mm 8,3 km/h (2 Bft) SW 222 ° 1 min 0,000 mm 1,6 UV-I 244 W/m² -4,4 °C 16,8 °C 14,5 km/h (3 Bft)
23.02.2017 14:31 16,8 °C 16,8 °C 22 % 1002,1 hPa 0,0 mm 13,3 km/h (3 Bft) W-SW 258 ° 1 min 0,000 mm 1,7 UV-I 258 W/m² -5,0 °C 16,8 °C 17,7 km/h (3 Bft)
23.02.2017 14:32 16,8 °C 16,8 °C 23 % 1002,1 hPa 0,0 mm 11,1 km/h (2 Bft) W-SW 254 ° 1 min 0,000 mm 1,7 UV-I 264 W/m² -4,4 °C 16,8 °C 17,7 km/h (3 Bft)
23.02.2017 14:33 16,8 °C 16,8 °C 22 % 1002,0 hPa 0,0 mm 11,1 km/h (2 Bft) W-NW 291 ° 1 min 0,000 mm 1,7 UV-I 258 W/m² -5,0 °C 16,8 °C 14,5 km/h (3 Bft)
23.02.2017 14:34 16,8 °C 16,8 °C 24 % 1002,0 hPa 0,0 mm 11,0 km/h (2 Bft) W-SW 255 ° 1 min 0,000 mm 1,6 UV-I 257 W/m² -3,9 °C 16,8 °C 14,5 km/h (3 Bft)
23.02.2017 14:35 16,8 °C 16,8 °C 25 % 1002,1 hPa 0,0 mm 7,7 km/h (2 Bft) W 276 ° 1 min 0,000 mm 1,7 UV-I 265 W/m² -3,3 °C 16,8 °C 12,9 km/h (3 Bft)
23.02.2017 14:36 16,8 °C 16,8 °C 25 % 1002,0 hPa 0,0 mm 8,1 km/h (2 Bft) W 266 ° 1 min 0,000 mm 1,7 UV-I 283 W/m² -3,3 °C 16,8 °C 16,1 km/h (3 Bft)
23.02.2017 14:37 16,8 °C 16,8 °C 25 % 1002,0 hPa 0,0 mm 10,6 km/h (2 Bft) SW 227 ° 1 min 0,000 mm 1,7 UV-I 297 W/m² -3,3 °C 16,8 °C 16,1 km/h (3 Bft)
23.02.2017 14:38 16,8 °C 16,8 °C 25 % 1002,0 hPa 0,0 mm 6,6 km/h (2 Bft) W 274 ° 1 min 0,000 mm 1,6 UV-I 262 W/m² -3,3 °C 16,8 °C 12,9 km/h (3 Bft)
23.02.2017 14:39 16,8 °C 16,9 °C 25 % 1002,0 hPa 0,0 mm 5,1 km/h (1 Bft) W 261 ° 1 min 0,000 mm 1,6 UV-I 248 W/m² -3,3 °C 16,8 °C 9,7 km/h (2 Bft)
23.02.2017 14:40 16,8 °C 16,8 °C 27 % 1002,0 hPa 0,0 mm 7,6 km/h (2 Bft) W-SW 254 ° 1 min 0,000 mm 1,5 UV-I 239 W/m² -2,3 °C 16,8 °C 11,3 km/h (2 Bft)
23.02.2017 14:41 16,8 °C 16,8 °C 24 % 1002,0 hPa 0,0 mm 10,9 km/h (2 Bft) SW 227 ° 1 min 0,000 mm 1,5 UV-I 234 W/m² -3,9 °C 16,8 °C 17,7 km/h (3 Bft)
23.02.2017 14:42 16,8 °C 16,8 °C 24 % 1001,9 hPa 0,0 mm 11,1 km/h (2 Bft) W-NW 288 ° 1 min 0,000 mm 1,5 UV-I 232 W/m² -3,9 °C 16,8 °C 17,7 km/h (3 Bft)
23.02.2017 14:43 16,8 °C 16,8 °C 24 % 1001,8 hPa 0,0 mm 10,2 km/h (2 Bft) W 261 ° 1 min 0,000 mm 1,5 UV-I 230 W/m² -3,9 °C 16,8 °C 14,5 km/h (3 Bft)
23.02.2017 14:44 16,8 °C 16,8 °C 24 % 1001,8 hPa 0,0 mm 6,4 km/h (2 Bft) W 262 ° 1 min 0,000 mm 1,4 UV-I 230 W/m² -3,9 °C 16,8 °C 11,3 km/h (2 Bft)
23.02.2017 14:45 16,7 °C 16,8 °C 26 % 1001,8 hPa 0,0 mm 12,8 km/h (3 Bft) W-SW 248 ° 1 min 0,000 mm 1,4 UV-I 230 W/m² -2,9 °C 16,7 °C 16,1 km/h (3 Bft)
23.02.2017 14:46 16,7 °C 16,7 °C 26 % 1001,8 hPa 0,0 mm 12,6 km/h (3 Bft) W-NW 285 ° 1 min 0,000 mm 1,4 UV-I 236 W/m² -2,9 °C 16,7 °C 19,3 km/h (3 Bft)
23.02.2017 14:47 16,7 °C 16,7 °C 25 % 1001,9 hPa 0,0 mm 12,2 km/h (2 Bft) W-SW 248 ° 1 min 0,000 mm 1,4 UV-I 243 W/m² -3,4 °C 16,7 °C 20,9 km/h (4 Bft)
23.02.2017 14:48 16,7 °C 16,7 °C 26 % 1001,8 hPa 0,0 mm 12,8 km/h (3 Bft) W 259 ° 1 min 0,000 mm 1,4 UV-I 246 W/m² -2,9 °C 16,7 °C 20,9 km/h (4 Bft)
23.02.2017 14:49 16,7 °C 16,7 °C 24 % 1001,8 hPa 0,0 mm 13,7 km/h (3 Bft) W-SW 247 ° 1 min 0,000 mm 1,4 UV-I 246 W/m² -4,0 °C 16,7 °C 22,5 km/h (4 Bft)
23.02.2017 14:50 16,6 °C 16,7 °C 25 % 1001,8 hPa 0,0 mm 13,0 km/h (3 Bft) W 265 ° 1 min 0,000 mm 1,4 UV-I 250 W/m² -3,5 °C 16,6 °C 19,3 km/h (3 Bft)
23.02.2017 14:51 16,6 °C 16,6 °C 25 % 1001,8 hPa 0,0 mm 6,0 km/h (2 Bft) W-NW 294 ° 1 min 0,000 mm 1,5 UV-I 272 W/m² -3,5 °C 16,6 °C 11,3 km/h (2 Bft)
23.02.2017 14:52 16,6 °C 16,6 °C 23 % 1001,8 hPa 0,0 mm 11,1 km/h (2 Bft) W-SW 247 ° 1 min 0,000 mm 1,5 UV-I 276 W/m² -4,6 °C 16,6 °C 17,7 km/h (3 Bft)
23.02.2017 14:53 16,6 °C 16,6 °C 25 % 1001,8 hPa 0,0 mm 11,7 km/h (2 Bft) W-NW 296 ° 1 min 0,000 mm 1,4 UV-I 258 W/m² -3,5 °C 16,6 °C 17,7 km/h (3 Bft)
23.02.2017 14:54 16,4 °C 16,6 °C 25 % 1001,8 hPa 0,0 mm 11,2 km/h (2 Bft) W-SW 246 ° 1 min 0,000 mm 1,4 UV-I 246 W/m² -3,7 °C 16,4 °C 19,3 km/h (3 Bft)
23.02.2017 14:55 16,4 °C 16,4 °C 23 % 1001,8 hPa 0,0 mm 20,7 km/h (4 Bft) W-SW 244 ° 1 min 0,000 mm 1,4 UV-I 246 W/m² -4,8 °C 16,4 °C 30,6 km/h (5 Bft)
23.02.2017 14:56 16,4 °C 16,4 °C 25 % 1001,7 hPa 0,0 mm 13,3 km/h (3 Bft) W-SW 257 ° 1 min 0,000 mm 1,4 UV-I 241 W/m² -3,7 °C 16,4 °C 19,3 km/h (3 Bft)
23.02.2017 14:57 16,4 °C 16,4 °C 26 % 1001,7 hPa 0,0 mm 16,0 km/h (3 Bft) W-SW 250 ° 1 min 0,000 mm 1,3 UV-I 232 W/m² -3,1 °C 16,4 °C 22,5 km/h (4 Bft)
23.02.2017 14:58 16,3 °C 16,4 °C 24 % 1001,7 hPa 0,0 mm 18,8 km/h (3 Bft) SW 236 ° 1 min 0,000 mm 1,3 UV-I 230 W/m² -4,3 °C 16,3 °C 25,7 km/h (4 Bft)
23.02.2017 14:59 16,3 °C 16,3 °C 25 % 1001,6 hPa 0,0 mm 17,6 km/h (3 Bft) W-SW 240 ° 1 min 0,000 mm 1,3 UV-I 230 W/m² -3,7 °C 16,3 °C 25,7 km/h (4 Bft)
23.02.2017 15:00 16,2 °C 16,3 °C 25 % 1001,6 hPa 0,0 mm 15,0 km/h (3 Bft) W 267 ° 1 min 0,000 mm 1,3 UV-I 239 W/m² -3,8 °C 16,2 °C 19,3 km/h (3 Bft)
23.02.2017 15:01 16,2 °C 16,2 °C 26 % 1001,5 hPa 0,0 mm 15,8 km/h (3 Bft) W-SW 251 ° 1 min 0,254 mm 1,3 UV-I 239 W/m² -3,3 °C 16,2 °C 24,1 km/h (4 Bft)
23.02.2017 15:02 16,2 °C 16,2 °C 27 % 1001,5 hPa 0,0 mm 16,6 km/h (3 Bft) W-SW 248 ° 1 min 0,000 mm 1,3 UV-I 257 W/m² -2,8 °C 16,2 °C 20,9 km/h (4 Bft)
23.02.2017 15:03 16,2 °C 16,2 °C 25 % 1001,5 hPa 0,0 mm 10,9 km/h (2 Bft) W 261 ° 1 min 0,000 mm 1,3 UV-I 244 W/m² -3,8 °C 16,2 °C 12,9 km/h (3 Bft)
23.02.2017 15:04 16,2 °C 16,2 °C 27 % 1001,4 hPa 0,0 mm 9,8 km/h (2 Bft) W-SW 242 ° 1 min 0,000 mm 1,4 UV-I 281 W/m² -2,8 °C 16,2 °C 16,1 km/h (3 Bft)
23.02.2017 15:05 16,2 °C 16,2 °C 28 % 1001,4 hPa 0,0 mm 13,5 km/h (3 Bft) W-SW 248 ° 1 min 0,000 mm 1,4 UV-I 373 W/m² -2,3 °C 16,2 °C 19,3 km/h (3 Bft)
23.02.2017 15:06 16,2 °C 16,2 °C 26 % 1001,3 hPa 0,0 mm 15,0 km/h (3 Bft) W 276 ° 1 min 0,000 mm 1,4 UV-I 343 W/m² -3,3 °C 16,2 °C 19,3 km/h (3 Bft)
23.02.2017 15:07 16,2 °C 16,2 °C 27 % 1001,3 hPa 0,0 mm 13,2 km/h (3 Bft) W 263 ° 1 min 0,000 mm 1,3 UV-I 343 W/m² -2,8 °C 16,2 °C 19,3 km/h (3 Bft)
23.02.2017 15:08 16,2 °C 16,2 °C 26 % 1001,4 hPa 0,0 mm 15,1 km/h (3 Bft) W 273 ° 1 min 0,000 mm 1,3 UV-I 225 W/m² -3,3 °C 16,2 °C 22,5 km/h (4 Bft)
23.02.2017 15:09 16,2 °C 16,2 °C 26 % 1001,3 hPa 0,0 mm 14,7 km/h (3 Bft) W-SW 250 ° 1 min 0,000 mm 1,3 UV-I 223 W/m² -3,3 °C 16,2 °C 17,7 km/h (3 Bft)
23.02.2017 15:10 16,1 °C 16,2 °C 27 % 1001,3 hPa 0,0 mm 18,8 km/h (3 Bft) W-SW 257 ° 1 min 0,000 mm 1,2 UV-I 223 W/m² -2,9 °C 16,1 °C 25,7 km/h (4 Bft)
23.02.2017 15:11 16,1 °C 16,1 °C 25 % 1001,2 hPa 0,0 mm 12,5 km/h (3 Bft) W 271 ° 1 min 0,000 mm 1,2 UV-I 221 W/m² -3,9 °C 16,1 °C 16,1 km/h (3 Bft)
23.02.2017 15:12 16,1 °C 16,1 °C 26 % 1001,2 hPa 0,0 mm 14,1 km/h (3 Bft) W 261 ° 1 min 0,000 mm 1,2 UV-I 218 W/m² -3,4 °C 16,1 °C 22,5 km/h (4 Bft)
23.02.2017 15:13 16,1 °C 16,1 °C 26 % 1001,2 hPa 0,0 mm 15,3 km/h (3 Bft) W 263 ° 1 min 0,000 mm 1,2 UV-I 213 W/m² -3,4 °C 16,1 °C 20,9 km/h (4 Bft)
23.02.2017 15:14 15,9 °C 16,1 °C 28 % 1001,3 hPa 0,0 mm 10,6 km/h (2 Bft) W-NW 293 ° 0 min 0,000 mm 1,2 UV-I 199 W/m² -2,6 °C 15,9 °C 12,9 km/h (3 Bft)
23.02.2017 15:15 15,9 °C 16,0 °C 28 % 1001,3 hPa 0,0 mm 16,1 km/h (3 Bft) W-SW 254 ° 0 min 0,000 mm 1,1 UV-I 190 W/m² -2,6 °C 15,9 °C 22,5 km/h (4 Bft)
23.02.2017 15:16 15,9 °C 15,9 °C 26 % 1001,2 hPa 0,0 mm 13,4 km/h (3 Bft) W-SW 256 ° 0 min 0,000 mm 1,1 UV-I 181 W/m² -3,6 °C 15,9 °C 17,7 km/h (3 Bft)
23.02.2017 15:17 15,9 °C 15,9 °C 28 % 1001,3 hPa 0,0 mm 16,8 km/h (3 Bft) W 280 ° 0 min 0,000 mm 1,1 UV-I 181 W/m² -2,6 °C 15,9 °C 25,7 km/h (4 Bft)
23.02.2017 15:18 15,8 °C 15,9 °C 28 % 1001,2 hPa 0,0 mm 15,9 km/h (3 Bft) W-SW 240 ° 0 min 0,000 mm 1,0 UV-I 169 W/m² -2,7 °C 15,8 °C 20,9 km/h (4 Bft)
23.02.2017 15:19 15,8 °C 15,9 °C 27 % 1001,1 hPa 0,0 mm 13,0 km/h (3 Bft) NW 309 ° 0 min 0,000 mm 1,0 UV-I 163 W/m² -3,1 °C 15,8 °C 16,1 km/h (3 Bft)
23.02.2017 15:20 15,8 °C 15,8 °C 28 % 1001,1 hPa 0,0 mm 9,9 km/h (2 Bft) NW 315 ° 0 min 0,000 mm 1,0 UV-I 165 W/m² -2,7 °C 15,8 °C 16,1 km/h (3 Bft)
23.02.2017 15:21 15,7 °C 15,8 °C 28 % 1001,1 hPa 0,0 mm 11,5 km/h (2 Bft) W 265 ° 0 min 0,000 mm 1,0 UV-I 172 W/m² -2,7 °C 15,7 °C 16,1 km/h (3 Bft)
23.02.2017 15:22 15,7 °C 15,7 °C 28 % 1001,1 hPa 0,0 mm 12,6 km/h (3 Bft) W 268 ° 0 min 0,000 mm 1,0 UV-I 160 W/m² -2,7 °C 15,7 °C 19,3 km/h (3 Bft)
23.02.2017 15:23 15,7 °C 15,7 °C 28 % 1001,0 hPa 0,0 mm 14,0 km/h (3 Bft) W-NW 292 ° 0 min 0,000 mm 0,9 UV-I 156 W/m² -2,7 °C 15,7 °C 19,3 km/h (3 Bft)
23.02.2017 15:24 15,6 °C 15,7 °C 30 % 1001,0 hPa 0,0 mm 12,4 km/h (3 Bft) W-SW 257 ° 0 min 0,000 mm 0,9 UV-I 156 W/m² -1,9 °C 15,6 °C 16,1 km/h (3 Bft)
23.02.2017 15:25 15,6 °C 15,6 °C 28 % 1000,9 hPa 0,0 mm 8,7 km/h (2 Bft) W 260 ° 0 min 0,000 mm 0,9 UV-I 162 W/m² -2,8 °C 15,6 °C 12,9 km/h (3 Bft)
23.02.2017 15:26 15,6 °C 15,6 °C 30 % 1000,8 hPa 0,0 mm 13,1 km/h (3 Bft) W-SW 256 ° 0 min 0,000 mm 0,9 UV-I 160 W/m² -1,9 °C 15,6 °C 17,7 km/h (3 Bft)
23.02.2017 15:27 15,6 °C 15,6 °C 28 % 1000,9 hPa 0,0 mm 11,9 km/h (2 Bft) W-SW 248 ° 0 min 0,000 mm 0,9 UV-I 174 W/m² -2,8 °C 15,6 °C 16,1 km/h (3 Bft)
23.02.2017 15:28 15,6 °C 15,6 °C 27 % 1000,8 hPa 0,0 mm 13,7 km/h (3 Bft) W 263 ° 0 min 0,000 mm 0,9 UV-I 167 W/m² -3,3 °C 15,6 °C 19,3 km/h (3 Bft)
23.02.2017 15:29 15,6 °C 15,6 °C 30 % 1000,8 hPa 0,0 mm 13,1 km/h (3 Bft) W-SW 255 ° 0 min 0,000 mm 0,9 UV-I 186 W/m² -1,9 °C 15,6 °C 19,3 km/h (3 Bft)
23.02.2017 15:30 15,6 °C 15,6 °C 30 % 1000,9 hPa 0,0 mm 11,0 km/h (2 Bft) W-SW 246 ° 1 min 0,000 mm 1,0 UV-I 207 W/m² -1,9 °C 15,6 °C 16,1 km/h (3 Bft)
23.02.2017 15:31 15,5 °C 15,6 °C 27 % 1000,8 hPa 0,0 mm 9,4 km/h (2 Bft) W-SW 252 ° 0 min 0,000 mm 1,0 UV-I 192 W/m² -3,4 °C 15,5 °C 17,7 km/h (3 Bft)
23.02.2017 15:32 15,5 °C 15,5 °C 29 % 1000,8 hPa 0,0 mm 10,9 km/h (2 Bft) W 271 ° 1 min 0,000 mm 1,0 UV-I 216 W/m² -2,4 °C 15,5 °C 12,9 km/h (3 Bft)
23.02.2017 15:33 15,5 °C 15,5 °C 29 % 1000,8 hPa 0,0 mm 10,2 km/h (2 Bft) W-SW 254 ° 0 min 0,000 mm 1,0 UV-I 172 W/m² -2,4 °C 15,5 °C 17,7 km/h (3 Bft)
23.02.2017 15:34 15,4 °C 15,5 °C 29 % 1000,8 hPa 0,0 mm 10,4 km/h (2 Bft) W-NW 294 ° 1 min 0,000 mm 1,1 UV-I 209 W/m² -2,5 °C 15,4 °C 16,1 km/h (3 Bft)
23.02.2017 15:35 15,4 °C 15,5 °C 29 % 1000,8 hPa 0,0 mm 11,8 km/h (2 Bft) W 263 ° 1 min 0,000 mm 1,1 UV-I 230 W/m² -2,5 °C 15,4 °C 22,5 km/h (4 Bft)
23.02.2017 15:36 15,4 °C 15,4 °C 30 % 1000,8 hPa 0,0 mm 10,6 km/h (2 Bft) W 261 ° 1 min 0,000 mm 1,1 UV-I 244 W/m² -2,1 °C 15,4 °C 12,9 km/h (3 Bft)
23.02.2017 15:37 15,4 °C 15,4 °C 29 % 1000,9 hPa 0,0 mm 9,9 km/h (2 Bft) W-NW 299 ° 1 min 0,000 mm 1,2 UV-I 288 W/m² -2,5 °C 15,4 °C 12,9 km/h (3 Bft)
23.02.2017 15:38 15,4 °C 15,4 °C 30 % 1000,8 hPa 0,0 mm 7,9 km/h (2 Bft) W 264 ° 1 min 0,000 mm 1,2 UV-I 355 W/m² -2,1 °C 15,4 °C 11,3 km/h (2 Bft)
23.02.2017 15:39 15,5 °C 15,5 °C 30 % 1000,8 hPa 0,0 mm 7,0 km/h (2 Bft) W-SW 251 ° 1 min 0,000 mm 1,2 UV-I 329 W/m² -2,0 °C 15,5 °C 11,3 km/h (2 Bft)
23.02.2017 15:40 15,6 °C 15,6 °C 31 % 1000,8 hPa 0,0 mm 6,7 km/h (2 Bft) W-NW 286 ° 1 min 0,000 mm 1,2 UV-I 327 W/m² -1,5 °C 15,6 °C 11,3 km/h (2 Bft)
23.02.2017 15:41 15,6 °C 15,6 °C 30 % 1000,7 hPa 0,0 mm 11,6 km/h (2 Bft) W-SW 253 ° 1 min 0,000 mm 1,2 UV-I 290 W/m² -1,9 °C 15,6 °C 16,1 km/h (3 Bft)
23.02.2017 15:42 15,6 °C 15,6 °C 30 % 1000,7 hPa 0,0 mm 13,7 km/h (3 Bft) W-NW 285 ° 1 min 0,000 mm 1,1 UV-I 271 W/m² -1,9 °C 15,6 °C 17,7 km/h (3 Bft)
23.02.2017 15:43 15,6 °C 15,6 °C 29 % 1000,7 hPa 0,0 mm 14,1 km/h (3 Bft) W-NW 290 ° 1 min 0,000 mm 1,2 UV-I 304 W/m² -2,4 °C 15,6 °C 20,9 km/h (4 Bft)
23.02.2017 15:44 15,5 °C 15,6 °C 30 % 1000,7 hPa 0,0 mm 16,2 km/h (3 Bft) W-SW 257 ° 1 min 0,000 mm 1,2 UV-I 339 W/m² -2,0 °C 15,5 °C 22,5 km/h (4 Bft)
23.02.2017 15:45 15,5 °C 15,6 °C 30 % 1000,6 hPa 0,0 mm 13,5 km/h (3 Bft) W-NW 284 ° 1 min 0,000 mm 1,1 UV-I 287 W/m² -2,0 °C 15,5 °C 17,7 km/h (3 Bft)
23.02.2017 15:46 15,4 °C 15,5 °C 29 % 1000,6 hPa 0,0 mm 8,0 km/h (2 Bft) W-SW 251 ° 1 min 0,000 mm 1,1 UV-I 241 W/m² -2,5 °C 15,4 °C 11,3 km/h (2 Bft)
23.02.2017 15:47 15,4 °C 15,5 °C 31 % 1000,7 hPa 0,0 mm 10,7 km/h (2 Bft) W-SW 248 ° 1 min 0,000 mm 1,0 UV-I 213 W/m² -1,6 °C 15,4 °C 14,5 km/h (3 Bft)
23.02.2017 15:48 15,4 °C 15,4 °C 30 % 1000,6 hPa 0,0 mm 12,1 km/h (2 Bft) W-SW 240 ° 0 min 0,000 mm 1,0 UV-I 185 W/m² -2,1 °C 15,4 °C 16,1 km/h (3 Bft)
23.02.2017 15:49 15,4 °C 15,4 °C 30 % 1000,6 hPa 0,0 mm 8,0 km/h (2 Bft) W 261 ° 0 min 0,000 mm 1,0 UV-I 158 W/m² -2,1 °C 15,4 °C 14,5 km/h (3 Bft)
23.02.2017 15:50 15,4 °C 15,4 °C 31 % 1000,6 hPa 0,0 mm 8,3 km/h (2 Bft) W-NW 295 ° 0 min 0,000 mm 1,0 UV-I 155 W/m² -1,6 °C 15,4 °C 12,9 km/h (3 Bft)
23.02.2017 15:51 15,4 °C 15,4 °C 31 % 1000,6 hPa 0,0 mm 8,4 km/h (2 Bft) W-NW 293 ° 0 min 0,000 mm 0,9 UV-I 148 W/m² -1,6 °C 15,4 °C 12,9 km/h (3 Bft)
23.02.2017 15:52 15,4 °C 15,4 °C 30 % 1000,5 hPa 0,0 mm 6,2 km/h (2 Bft) NW 310 ° 0 min 0,000 mm 0,9 UV-I 156 W/m² -2,1 °C 15,4 °C 11,3 km/h (2 Bft)
23.02.2017 15:53 15,4 °C 15,4 °C 32 % 1000,4 hPa 0,0 mm 9,0 km/h (2 Bft) W-SW 257 ° 0 min 0,000 mm 0,9 UV-I 165 W/m² -1,2 °C 15,4 °C 11,3 km/h (2 Bft)
23.02.2017 15:54 15,4 °C 15,4 °C 32 % 1000,4 hPa 0,0 mm 5,3 km/h (1 Bft) W-NW 294 ° 0 min 0,000 mm 0,9 UV-I 169 W/m² -1,2 °C 15,4 °C 6,4 km/h (2 Bft)
23.02.2017 15:55 15,4 °C 15,4 °C 32 % 1000,4 hPa 0,0 mm 6,6 km/h (2 Bft) W 281 ° 0 min 0,000 mm 0,9 UV-I 162 W/m² -1,2 °C 15,4 °C 11,3 km/h (2 Bft)
23.02.2017 15:56 15,5 °C 15,5 °C 31 % 1000,4 hPa 0,0 mm 9,9 km/h (2 Bft) W-SW 243 ° 0 min 0,000 mm 0,9 UV-I 158 W/m² -1,5 °C 15,5 °C 20,9 km/h (4 Bft)
23.02.2017 15:57 15,5 °C 15,6 °C 31 % 1000,5 hPa 0,0 mm 13,5 km/h (3 Bft) W-SW 254 ° 0 min 0,000 mm 0,9 UV-I 155 W/m² -1,5 °C 15,5 °C 22,5 km/h (4 Bft)
23.02.2017 15:58 15,5 °C 15,5 °C 31 % 1000,5 hPa 0,0 mm 12,1 km/h (2 Bft) W-NW 282 ° 0 min 0,000 mm 0,9 UV-I 134 W/m² -1,5 °C 15,5 °C 19,3 km/h (3 Bft)
23.02.2017 15:59 15,4 °C 15,5 °C 32 % 1000,5 hPa 0,0 mm 14,3 km/h (3 Bft) NW 306 ° 0 min 0,000 mm 0,9 UV-I 137 W/m² -1,2 °C 15,4 °C 19,3 km/h (3 Bft)
23.02.2017 16:00 15,4 °C 15,4 °C 33 % 1000,5 hPa 0,0 mm 8,5 km/h (2 Bft) W-NW 284 ° 0 min 0,000 mm 0,8 UV-I 141 W/m² -0,8 °C 15,4 °C 12,9 km/h (3 Bft)
23.02.2017 16:01 15,4 °C 15,4 °C 32 % 1000,4 hPa 0,0 mm 10,6 km/h (2 Bft) W 279 ° 0 min 0,229 mm 0,8 UV-I 123 W/m² -1,2 °C 15,4 °C 12,9 km/h (3 Bft)
23.02.2017 16:02 15,4 °C 15,4 °C 33 % 1000,4 hPa 0,0 mm 10,5 km/h (2 Bft) W-NW 299 ° 0 min 0,000 mm 0,8 UV-I 121 W/m² -0,8 °C 15,4 °C 20,9 km/h (4 Bft)
23.02.2017 16:03 15,4 °C 15,4 °C 34 % 1000,4 hPa 0,0 mm 9,1 km/h (2 Bft) W-SW 247 ° 0 min 0,000 mm 0,8 UV-I 123 W/m² -0,4 °C 15,4 °C 14,5 km/h (3 Bft)
23.02.2017 16:04 15,4 °C 15,4 °C 33 % 1000,4 hPa 0,0 mm 14,4 km/h (3 Bft) W-SW 248 ° 0 min 0,000 mm 0,8 UV-I 125 W/m² -0,8 °C 15,4 °C 22,5 km/h (4 Bft)
23.02.2017 16:05 15,3 °C 15,4 °C 33 % 1000,4 hPa 0,0 mm 10,3 km/h (2 Bft) W 267 ° 0 min 0,000 mm 0,8 UV-I 127 W/m² -0,9 °C 15,3 °C 20,9 km/h (4 Bft)
23.02.2017 16:06 15,3 °C 15,3 °C 33 % 1000,4 hPa 0,0 mm 13,8 km/h (3 Bft) W-SW 237 ° 0 min 0,000 mm 0,8 UV-I 125 W/m² -0,9 °C 15,3 °C 17,7 km/h (3 Bft)
23.02.2017 16:07 15,2 °C 15,3 °C 32 % 1000,4 hPa 0,0 mm 15,0 km/h (3 Bft) W-SW 253 ° 0 min 0,000 mm 0,8 UV-I 123 W/m² -1,4 °C 15,2 °C 19,3 km/h (3 Bft)
23.02.2017 16:08 15,2 °C 15,2 °C 32 % 1000,4 hPa 0,0 mm 11,6 km/h (2 Bft) W 280 ° 0 min 0,000 mm 0,7 UV-I 121 W/m² -1,4 °C 15,2 °C 16,1 km/h (3 Bft)
23.02.2017 16:09 15,2 °C 15,2 °C 34 % 1000,4 hPa 0,0 mm 10,3 km/h (2 Bft) W-SW 250 ° 0 min 0,000 mm 0,7 UV-I 121 W/m² -0,5 °C 15,2 °C 17,7 km/h (3 Bft)
23.02.2017 16:10 15,1 °C 15,2 °C 34 % 1000,4 hPa 0,0 mm 8,4 km/h (2 Bft) W-NW 294 ° 0 min 0,000 mm 0,7 UV-I 118 W/m² -0,6 °C 15,1 °C 14,5 km/h (3 Bft)
23.02.2017 16:11 15,1 °C 15,1 °C 34 % 1000,4 hPa 0,0 mm 5,9 km/h (2 Bft) W-NW 301 ° 0 min 0,000 mm 0,7 UV-I 116 W/m² -0,6 °C 15,1 °C 6,4 km/h (2 Bft)
23.02.2017 16:12 15,1 °C 15,1 °C 34 % 1000,3 hPa 0,0 mm 8,3 km/h (2 Bft) W-SW 242 ° 0 min 0,000 mm 0,7 UV-I 113 W/m² -0,6 °C 15,1 °C 12,9 km/h (3 Bft)
23.02.2017 16:13 15,0 °C 15,1 °C 33 % 1000,4 hPa 0,0 mm 11,1 km/h (2 Bft) W 273 ° 0 min 0,000 mm 0,7 UV-I 105 W/m² -1,1 °C 15,0 °C 20,9 km/h (4 Bft)
23.02.2017 16:14 15,0 °C 15,0 °C 33 % 1000,3 hPa 0,0 mm 15,2 km/h (3 Bft) W 261 ° 0 min 0,000 mm 0,6 UV-I 104 W/m² -1,1 °C 15,0 °C 20,9 km/h (4 Bft)
23.02.2017 16:15 14,9 °C 15,0 °C 34 % 1000,4 hPa 0,0 mm 11,1 km/h (2 Bft) W-SW 257 ° 0 min 0,000 mm 0,6 UV-I 100 W/m² -0,8 °C 14,9 °C 14,5 km/h (3 Bft)
23.02.2017 16:16 14,9 °C 14,9 °C 33 % 1000,3 hPa 0,0 mm 15,4 km/h (3 Bft) W-SW 256 ° 0 min 0,000 mm 0,6 UV-I 98 W/m² -1,2 °C 14,9 °C 22,5 km/h (4 Bft)
23.02.2017 16:17 14,8 °C 14,9 °C 33 % 1000,4 hPa 0,0 mm 14,5 km/h (3 Bft) SW 232 ° 0 min 0,000 mm 0,6 UV-I 98 W/m² -1,3 °C 14,8 °C 19,3 km/h (3 Bft)
23.02.2017 16:18 14,8 °C 14,8 °C 35 % 1000,3 hPa 0,0 mm 14,6 km/h (3 Bft) W 276 ° 0 min 0,000 mm 0,6 UV-I 97 W/m² -0,5 °C 14,8 °C 19,3 km/h (3 Bft)
23.02.2017 16:19 14,7 °C 14,8 °C 34 % 1000,3 hPa 0,0 mm 18,1 km/h (3 Bft) W 259 ° 0 min 0,000 mm 0,6 UV-I 95 W/m² -1,0 °C 14,7 °C 22,5 km/h (4 Bft)
23.02.2017 16:20 14,7 °C 14,7 °C 33 % 1000,3 hPa 0,0 mm 13,0 km/h (3 Bft) W-SW 242 ° 0 min 0,000 mm 0,6 UV-I 95 W/m² -1,4 °C 14,7 °C 17,7 km/h (3 Bft)
23.02.2017 16:21 14,7 °C 14,7 °C 35 % 1000,1 hPa 0,0 mm 11,6 km/h (2 Bft) W-NW 283 ° 0 min 0,000 mm 0,6 UV-I 91 W/m² -0,6 °C 14,7 °C 17,7 km/h (3 Bft)
23.02.2017 16:22 14,6 °C 14,7 °C 34 % 1000,0 hPa 0,0 mm 11,1 km/h (2 Bft) S-SW 203 ° 0 min 0,000 mm 0,6 UV-I 88 W/m² -1,1 °C 14,6 °C 19,3 km/h (3 Bft)
23.02.2017 16:23 14,6 °C 14,7 °C 33 % 1000,2 hPa 0,0 mm 7,7 km/h (2 Bft) SW 224 ° 0 min 0,000 mm 0,6 UV-I 84 W/m² -1,5 °C 14,6 °C 12,9 km/h (3 Bft)
23.02.2017 16:24 14,6 °C 14,6 °C 33 % 1000,2 hPa 0,0 mm 16,0 km/h (3 Bft) W-SW 257 ° 0 min 0,000 mm 0,5 UV-I 81 W/m² -1,5 °C 14,6 °C 29,0 km/h (5 Bft)
23.02.2017 16:25 14,6 °C 14,6 °C 33 % 1000,2 hPa 0,0 mm 14,8 km/h (3 Bft) W-SW 249 ° 0 min 0,000 mm 0,5 UV-I 81 W/m² -1,5 °C 14,6 °C 25,7 km/h (4 Bft)
23.02.2017 16:26 14,6 °C 14,6 °C 33 % 1000,2 hPa 0,0 mm 14,3 km/h (3 Bft) W-SW 242 ° 0 min 0,000 mm 0,5 UV-I 81 W/m² -1,5 °C 14,6 °C 17,7 km/h (3 Bft)
23.02.2017 16:27 14,4 °C 14,6 °C 34 % 1000,3 hPa 0,0 mm 16,6 km/h (3 Bft) W 269 ° 0 min 0,000 mm 0,5 UV-I 81 W/m² -1,3 °C 14,4 °C 20,9 km/h (4 Bft)
23.02.2017 16:28 14,4 °C 14,5 °C 34 % 1000,0 hPa 0,0 mm 11,5 km/h (2 Bft) W-NW 282 ° 0 min 0,000 mm 0,5 UV-I 81 W/m² -1,3 °C 14,4 °C 16,1 km/h (3 Bft)
23.02.2017 16:29 14,4 °C 14,4 °C 34 % 1000,0 hPa 0,0 mm 8,2 km/h (2 Bft) W-SW 244 ° 0 min 0,000 mm 0,5 UV-I 81 W/m² -1,3 °C 14,4 °C 14,5 km/h (3 Bft)
23.02.2017 16:30 14,4 °C 14,4 °C 33 % 1000,0 hPa 0,0 mm 16,0 km/h (3 Bft) S-SW 197 ° 0 min 0,000 mm 0,5 UV-I 83 W/m² -1,7 °C 14,4 °C 22,5 km/h (4 Bft)
23.02.2017 16:31 14,4 °C 14,4 °C 33 % 1000,1 hPa 0,0 mm 6,6 km/h (2 Bft) S-SW 193 ° 0 min 0,000 mm 0,5 UV-I 83 W/m² -1,7 °C 14,4 °C 9,7 km/h (2 Bft)
23.02.2017 16:32 14,4 °C 14,4 °C 33 % 1000,0 hPa 0,0 mm 8,7 km/h (2 Bft) W-SW 256 ° 0 min 0,000 mm 0,5 UV-I 81 W/m² -1,7 °C 14,4 °C 12,9 km/h (3 Bft)
23.02.2017 16:33 14,4 °C 14,4 °C 34 % 1000,0 hPa 0,0 mm 13,4 km/h (3 Bft) W 261 ° 0 min 0,000 mm 0,5 UV-I 81 W/m² -1,3 °C 14,4 °C 19,3 km/h (3 Bft)
23.02.2017 16:34 14,3 °C 14,4 °C 33 % 1000,0 hPa 0,0 mm 17,2 km/h (3 Bft) W-SW 257 ° 0 min 0,000 mm 0,5 UV-I 81 W/m² -1,7 °C 14,3 °C 22,5 km/h (4 Bft)
23.02.2017 16:35 14,3 °C 14,3 °C 33 % 1000,0 hPa 0,0 mm 8,7 km/h (2 Bft) W-SW 252 ° 0 min 0,000 mm 0,5 UV-I 77 W/m² -1,7 °C 14,3 °C 16,1 km/h (3 Bft)
23.02.2017 16:36 14,3 °C 14,3 °C 32 % 1000,0 hPa 0,0 mm 16,7 km/h (3 Bft) SW 223 ° 0 min 0,000 mm 0,5 UV-I 76 W/m² -2,2 °C 14,3 °C 27,4 km/h (4 Bft)
23.02.2017 16:37 14,3 °C 14,3 °C 32 % 1000,0 hPa 0,0 mm 11,9 km/h (2 Bft) W-SW 250 ° 0 min 0,000 mm 0,5 UV-I 74 W/m² -2,2 °C 14,3 °C 16,1 km/h (3 Bft)
23.02.2017 16:38 14,3 °C 14,3 °C 33 % 1000,0 hPa 0,0 mm 13,7 km/h (3 Bft) W 278 ° 0 min 0,000 mm 0,5 UV-I 74 W/m² -1,7 °C 14,3 °C 17,7 km/h (3 Bft)
23.02.2017 16:39 14,3 °C 14,3 °C 33 % 1000,0 hPa 0,0 mm 14,0 km/h (3 Bft) W-SW 242 ° 0 min 0,000 mm 0,5 UV-I 72 W/m² -1,7 °C 14,3 °C 19,3 km/h (3 Bft)
23.02.2017 16:40 14,2 °C 14,3 °C 34 % 999,9 hPa 0,0 mm 11,8 km/h (2 Bft) W-SW 254 ° 0 min 0,000 mm 0,5 UV-I 69 W/m² -1,4 °C 14,2 °C 16,1 km/h (3 Bft)
23.02.2017 16:41 14,2 °C 14,2 °C 34 % 999,8 hPa 0,0 mm 19,9 km/h (4 Bft) W 279 ° 0 min 0,000 mm 0,5 UV-I 70 W/m² -1,4 °C 14,2 °C 29,0 km/h (5 Bft)
23.02.2017 16:42 14,2 °C 14,2 °C 34 % 999,8 hPa 0,0 mm 14,1 km/h (3 Bft) W-SW 257 ° 0 min 0,000 mm 0,5 UV-I 63 W/m² -1,4 °C 14,2 °C 19,3 km/h (3 Bft)
23.02.2017 16:43 14,1 °C 14,2 °C 34 % 999,9 hPa 0,0 mm 13,1 km/h (3 Bft) W 260 ° 0 min 0,000 mm 0,0 UV-I 62 W/m² -1,5 °C 14,1 °C 20,9 km/h (4 Bft)
23.02.2017 16:44 14,1 °C 14,1 °C 34 % 999,8 hPa 0,0 mm 14,6 km/h (3 Bft) W-SW 237 ° 0 min 0,000 mm 0,0 UV-I 63 W/m² -1,5 °C 14,1 °C 19,3 km/h (3 Bft)
23.02.2017 16:45 14,1 °C 14,1 °C 34 % 999,8 hPa 0,0 mm 8,9 km/h (2 Bft) S-SW 193 ° 0 min 0,000 mm 0,0 UV-I 63 W/m² -1,5 °C 14,1 °C 12,9 km/h (3 Bft)
23.02.2017 16:46 14,1 °C 14,1 °C 34 % 999,9 hPa 0,0 mm 10,5 km/h (2 Bft) SW 236 ° 0 min 0,000 mm 0,0 UV-I 62 W/m² -1,5 °C 14,1 °C 16,1 km/h (3 Bft)
23.02.2017 16:47 14,0 °C 14,1 °C 34 % 999,9 hPa 0,0 mm 5,9 km/h (2 Bft) SW 225 ° 0 min 0,000 mm 0,0 UV-I 60 W/m² -1,6 °C 14,0 °C 11,3 km/h (2 Bft)
23.02.2017 16:48 14,0 °C 14,1 °C 33 % 999,9 hPa 0,0 mm 9,8 km/h (2 Bft) S-SW 207 ° 0 min 0,000 mm 0,0 UV-I 54 W/m² -2,0 °C 14,0 °C 16,1 km/h (3 Bft)
23.02.2017 16:49 14,1 °C 14,1 °C 33 % 999,9 hPa 0,0 mm 12,0 km/h (2 Bft) W-SW 248 ° 0 min 0,000 mm 0,0 UV-I 58 W/m² -1,9 °C 14,1 °C 14,5 km/h (3 Bft)
23.02.2017 16:50 14,1 °C 14,1 °C 33 % 999,9 hPa 0,0 mm 13,4 km/h (3 Bft) W-SW 252 ° 0 min 0,000 mm 0,0 UV-I 62 W/m² -1,9 °C 14,1 °C 22,5 km/h (4 Bft)
23.02.2017 16:51 13,9 °C 14,1 °C 35 % 999,9 hPa 0,0 mm 11,9 km/h (2 Bft) SW 232 ° 0 min 0,000 mm 0,0 UV-I 58 W/m² -1,3 °C 13,9 °C 17,7 km/h (3 Bft)
23.02.2017 16:52 13,8 °C 13,9 °C 35 % 999,8 hPa 0,0 mm 11,0 km/h (2 Bft) W 263 ° 0 min 0,000 mm 0,0 UV-I 53 W/m² -1,4 °C 13,8 °C 16,1 km/h (3 Bft)
23.02.2017 16:53 13,8 °C 13,8 °C 35 % 999,8 hPa 0,0 mm 8,8 km/h (2 Bft) W 261 ° 0 min 0,000 mm 0,0 UV-I 51 W/m² -1,4 °C 13,8 °C 12,9 km/h (3 Bft)
23.02.2017 16:54 13,7 °C 13,8 °C 36 % 999,7 hPa 0,0 mm 8,5 km/h (2 Bft) W-SW 238 ° 0 min 0,000 mm 0,0 UV-I 47 W/m² -1,1 °C 13,7 °C 12,9 km/h (3 Bft)
23.02.2017 16:55 13,6 °C 13,7 °C 34 % 999,8 hPa 0,0 mm 5,8 km/h (2 Bft) W-SW 256 ° 0 min 0,000 mm 0,0 UV-I 46 W/m² -2,0 °C 13,6 °C 11,3 km/h (2 Bft)
23.02.2017 16:56 13,5 °C 13,6 °C 36 % 999,8 hPa 0,0 mm 8,2 km/h (2 Bft) S-SW 203 ° 0 min 0,000 mm 0,0 UV-I 49 W/m² -1,3 °C 13,5 °C 12,9 km/h (3 Bft)
23.02.2017 16:57 13,6 °C 13,6 °C 35 % 999,7 hPa 0,0 mm 5,4 km/h (1 Bft) S-SW 207 ° 0 min 0,000 mm 0,0 UV-I 53 W/m² -1,6 °C 13,6 °C 9,7 km/h (2 Bft)
23.02.2017 16:58 13,6 °C 13,6 °C 36 % 999,7 hPa 0,0 mm 6,2 km/h (2 Bft) W 269 ° 0 min 0,000 mm 0,0 UV-I 53 W/m² -1,2 °C 13,6 °C 12,9 km/h (3 Bft)
23.02.2017 16:59 13,5 °C 13,6 °C 36 % 999,7 hPa 0,0 mm 7,9 km/h (2 Bft) W-NW 286 ° 0 min 0,000 mm 0,0 UV-I 51 W/m² -1,3 °C 13,5 °C 11,3 km/h (2 Bft)
23.02.2017 17:00 13,4 °C 13,5 °C 35 % 999,8 hPa 0,0 mm 10,9 km/h (2 Bft) W-SW 256 ° 0 min 0,152 mm 0,0 UV-I 47 W/m² -1,7 °C 13,4 °C 16,1 km/h (3 Bft)
23.02.2017 17:01 13,4 °C 13,4 °C 36 % 999,8 hPa 0,0 mm 8,5 km/h (2 Bft) W-SW 256 ° 0 min 0,000 mm 0,0 UV-I 42 W/m² -1,4 °C 13,4 °C 14,5 km/h (3 Bft)
23.02.2017 17:02 13,3 °C 13,4 °C 36 % 999,8 hPa 0,0 mm 3,7 km/h (1 Bft) W 261 ° 0 min 0,000 mm 0,0 UV-I 40 W/m² -1,4 °C 13,3 °C 9,7 km/h (2 Bft)
23.02.2017 17:03 13,3 °C 13,3 °C 36 % 999,5 hPa 0,0 mm 3,1 km/h (1 Bft) SW 234 ° 0 min 0,000 mm 0,0 UV-I 40 W/m² -1,4 °C 13,3 °C 6,4 km/h (2 Bft)
23.02.2017 17:04 13,2 °C 13,3 °C 36 % 999,6 hPa 0,0 mm 6,3 km/h (2 Bft) W-SW 254 ° 0 min 0,000 mm 0,0 UV-I 40 W/m² -1,5 °C 13,2 °C 8,0 km/h (2 Bft)
23.02.2017 17:05 13,2 °C 13,2 °C 35 % 999,6 hPa 0,0 mm 6,2 km/h (2 Bft) W-SW 256 ° 0 min 0,000 mm 0,0 UV-I 35 W/m² -1,9 °C 13,2 °C 11,3 km/h (2 Bft)
23.02.2017 17:06 13,3 °C 13,3 °C 34 % 999,5 hPa 0,0 mm 14,9 km/h (3 Bft) W-SW 252 ° 0 min 0,000 mm 0,0 UV-I 32 W/m² -2,2 °C 13,3 °C 29,0 km/h (5 Bft)
23.02.2017 17:07 13,3 °C 13,3 °C 35 % 999,6 hPa 0,0 mm 18,6 km/h (3 Bft) W 266 ° 0 min 0,000 mm 0,0 UV-I 32 W/m² -1,8 °C 13,3 °C 22,5 km/h (4 Bft)
23.02.2017 17:08 13,3 °C 13,3 °C 35 % 999,6 hPa 0,0 mm 13,7 km/h (3 Bft) W-SW 257 ° 0 min 0,000 mm 0,0 UV-I 32 W/m² -1,8 °C 13,3 °C 19,3 km/h (3 Bft)
23.02.2017 17:09 13,3 °C 13,3 °C 35 % 999,5 hPa 0,0 mm 16,9 km/h (3 Bft) W-SW 239 ° 0 min 0,000 mm 0,0 UV-I 32 W/m² -1,8 °C 13,3 °C 20,9 km/h (4 Bft)
23.02.2017 17:10 13,3 °C 13,3 °C 35 % 999,4 hPa 0,0 mm 11,9 km/h (2 Bft) W-SW 250 ° 0 min 0,000 mm 0,0 UV-I 32 W/m² -1,8 °C 13,3 °C 16,1 km/h (3 Bft)
23.02.2017 17:11 13,3 °C 13,3 °C 35 % 999,5 hPa 0,0 mm 11,1 km/h (2 Bft) W-SW 250 ° 0 min 0,000 mm 0,0 UV-I 32 W/m² -1,8 °C 13,3 °C 16,1 km/h (3 Bft)
23.02.2017 17:12 13,2 °C 13,3 °C 36 % 999,6 hPa 0,0 mm 8,2 km/h (2 Bft) SW 215 ° 0 min 0,000 mm 0,0 UV-I 32 W/m² -1,5 °C 13,2 °C 12,9 km/h (3 Bft)
23.02.2017 17:13 13,2 °C 13,2 °C 35 % 999,6 hPa 0,0 mm 13,2 km/h (3 Bft) W-SW 252 ° 0 min 0,000 mm 0,0 UV-I 32 W/m² -1,9 °C 13,2 °C 19,3 km/h (3 Bft)
23.02.2017 17:14 13,2 °C 13,2 °C 35 % 999,6 hPa 0,0 mm 13,5 km/h (3 Bft) W-SW 249 ° 0 min 0,000 mm 0,0 UV-I 32 W/m² -1,9 °C 13,2 °C 22,5 km/h (4 Bft)
23.02.2017 17:15 13,1 °C 13,2 °C 36 % 999,5 hPa 0,0 mm 13,4 km/h (3 Bft) SW 233 ° 0 min 0,000 mm 0,0 UV-I 32 W/m² -1,6 °C 13,1 °C 19,3 km/h (3 Bft)
23.02.2017 17:16 13,1 °C 13,1 °C 36 % 999,5 hPa 0,0 mm 10,9 km/h (2 Bft) W-NW 289 ° 0 min 0,000 mm 0,0 UV-I 32 W/m² -1,6 °C 13,1 °C 14,5 km/h (3 Bft)
23.02.2017 17:17 12,9 °C 13,1 °C 36 % 999,4 hPa 0,0 mm 12,8 km/h (3 Bft) S 171 ° 0 min 0,000 mm 0,0 UV-I 32 W/m² -1,8 °C 12,9 °C 24,1 km/h (4 Bft)
23.02.2017 17:18 12,9 °C 12,9 °C 35 % 999,5 hPa 0,0 mm 12,1 km/h (2 Bft) W-SW 252 ° 0 min 0,000 mm 0,0 UV-I 32 W/m² -2,2 °C 12,9 °C 19,3 km/h (3 Bft)
23.02.2017 17:19 13,0 °C 13,0 °C 36 % 999,6 hPa 0,0 mm 15,7 km/h (3 Bft) SW 229 ° 0 min 0,000 mm 0,0 UV-I 32 W/m² -1,7 °C 13,0 °C 19,3 km/h (3 Bft)
23.02.2017 17:20 12,9 °C 13,0 °C 36 % 999,5 hPa 0,0 mm 10,7 km/h (2 Bft) W-SW 250 ° 0 min 0,000 mm 0,0 UV-I 30 W/m² -1,8 °C 12,9 °C 14,5 km/h (3 Bft)
23.02.2017 17:21 12,9 °C 12,9 °C 36 % 999,3 hPa 0,0 mm 8,9 km/h (2 Bft) W-SW 246 ° 0 min 0,000 mm 0,0 UV-I 30 W/m² -1,8 °C 12,9 °C 12,9 km/h (3 Bft)
23.02.2017 17:22 12,8 °C 12,9 °C 36 % 999,2 hPa 0,0 mm 10,9 km/h (2 Bft) W 265 ° 0 min 0,000 mm 0,0 UV-I 30 W/m² -1,9 °C 12,8 °C 22,5 km/h (4 Bft)
23.02.2017 17:23 12,8 °C 12,9 °C 36 % 999,3 hPa 0,0 mm 12,9 km/h (3 Bft) W 262 ° 0 min 0,000 mm 0,0 UV-I 28 W/m² -1,9 °C 12,8 °C 22,5 km/h (4 Bft)
23.02.2017 17:24 12,8 °C 12,9 °C 36 % 999,4 hPa 0,0 mm 8,4 km/h (2 Bft) W-SW 240 ° 0 min 0,000 mm 0,0 UV-I 26 W/m² -1,9 °C 12,8 °C 12,9 km/h (3 Bft)
23.02.2017 17:25 12,8 °C 12,8 °C 35 % 999,3 hPa 0,0 mm 13,8 km/h (3 Bft) W-SW 247 ° 0 min 0,000 mm 0,0 UV-I 26 W/m² -2,3 °C 12,8 °C 19,3 km/h (3 Bft)
23.02.2017 17:26 12,8 °C 12,8 °C 36 % 999,3 hPa 0,0 mm 11,5 km/h (2 Bft) W 273 ° 0 min 0,000 mm 0,0 UV-I 25 W/m² -1,9 °C 12,8 °C 20,9 km/h (4 Bft)
23.02.2017 17:27 12,8 °C 12,8 °C 36 % 999,3 hPa 0,0 mm 11,0 km/h (2 Bft) W 269 ° 0 min 0,000 mm 0,0 UV-I 23 W/m² -1,9 °C 12,8 °C 16,1 km/h (3 Bft)
23.02.2017 17:28 12,7 °C 12,8 °C 37 % 999,4 hPa 0,0 mm 13,6 km/h (3 Bft) W-NW 286 ° 0 min 0,000 mm 0,0 UV-I 23 W/m² -1,6 °C 12,7 °C 17,7 km/h (3 Bft)
23.02.2017 17:29 12,6 °C 12,7 °C 37 % 999,4 hPa 0,0 mm 15,6 km/h (3 Bft) W-SW 250 ° 0 min 0,000 mm 0,0 UV-I 19 W/m² -1,7 °C 12,6 °C 25,7 km/h (4 Bft)
23.02.2017 17:30 12,6 °C 12,6 °C 36 % 999,4 hPa 0,0 mm 13,3 km/h (3 Bft) W-SW 248 ° 0 min 0,000 mm 0,0 UV-I 19 W/m² -2,1 °C 12,6 °C 22,5 km/h (4 Bft)
23.02.2017 17:31 12,6 °C 12,6 °C 36 % 999,3 hPa 0,0 mm 7,7 km/h (2 Bft) W-SW 245 ° 0 min 0,000 mm 0,0 UV-I 18 W/m² -2,1 °C 12,6 °C 14,5 km/h (3 Bft)
23.02.2017 17:32 12,6 °C 12,6 °C 36 % 999,3 hPa 0,0 mm 16,1 km/h (3 Bft) W 267 ° 0 min 0,000 mm 0,0 UV-I 18 W/m² -2,1 °C 12,6 °C 20,9 km/h (4 Bft)
23.02.2017 17:33 12,6 °C 12,6 °C 36 % 999,4 hPa 0,0 mm 15,7 km/h (3 Bft) W-SW 241 ° 0 min 0,000 mm 0,0 UV-I 16 W/m² -2,1 °C 12,6 °C 22,5 km/h (4 Bft)
23.02.2017 17:34 12,5 °C 12,6 °C 37 % 999,4 hPa 0,0 mm 12,1 km/h (2 Bft) W-SW 257 ° 0 min 0,000 mm 0,0 UV-I 16 W/m² -1,8 °C 12,5 °C 17,7 km/h (3 Bft)
23.02.2017 17:35 12,4 °C 12,5 °C 37 % 999,3 hPa 0,0 mm 14,7 km/h (3 Bft) W 272 ° 0 min 0,000 mm 0,0 UV-I 14 W/m² -1,9 °C 12,4 °C 17,7 km/h (3 Bft)
23.02.2017 17:36 12,4 °C 12,4 °C 38 % 999,4 hPa 0,0 mm 12,7 km/h (3 Bft) W-SW 250 ° 0 min 0,000 mm 0,0 UV-I 14 W/m² -1,5 °C 12,4 °C 17,7 km/h (3 Bft)
23.02.2017 17:37 12,3 °C 12,4 °C 37 % 999,3 hPa 0,0 mm 7,6 km/h (2 Bft) W-SW 246 ° 0 min 0,000 mm 0,0 UV-I 12 W/m² -2,0 °C 12,3 °C 11,3 km/h (2 Bft)
23.02.2017 17:38 12,2 °C 12,3 °C 37 % 999,3 hPa 0,0 mm 6,9 km/h (2 Bft) S-SW 212 ° 0 min 0,000 mm 0,0 UV-I 12 W/m² -2,0 °C 12,2 °C 12,9 km/h (3 Bft)
23.02.2017 17:39 12,2 °C 12,3 °C 37 % 999,2 hPa 0,0 mm 15,6 km/h (3 Bft) W-SW 258 ° 0 min 0,000 mm 0,0 UV-I 12 W/m² -2,0 °C 12,2 °C 19,3 km/h (3 Bft)
23.02.2017 17:40 12,2 °C 12,3 °C 37 % 999,2 hPa 0,0 mm 12,5 km/h (3 Bft) W-SW 248 ° 0 min 0,000 mm 0,0 UV-I 11 W/m² -2,0 °C 12,2 °C 19,3 km/h (3 Bft)
23.02.2017 17:41 12,2 °C 12,3 °C 38 % 999,2 hPa 0,0 mm 14,1 km/h (3 Bft) W-SW 242 ° 0 min 0,000 mm 0,0 UV-I 11 W/m² -1,7 °C 12,2 °C 17,7 km/h (3 Bft)
23.02.2017 17:42 12,2 °C 12,2 °C 38 % 999,2 hPa 0,0 mm 10,3 km/h (2 Bft) W 264 ° 0 min 0,000 mm 0,0 UV-I 9 W/m² -1,7 °C 12,2 °C 14,5 km/h (3 Bft)
23.02.2017 17:43 12,0 °C 12,2 °C 38 % 999,2 hPa 0,0 mm 11,7 km/h (2 Bft) W-SW 252 ° 0 min 0,000 mm 0,0 UV-I 9 W/m² -1,9 °C 12,0 °C 16,1 km/h (3 Bft)
23.02.2017 17:44 11,9 °C 12,1 °C 38 % 999,2 hPa 0,0 mm 11,9 km/h (2 Bft) W 269 ° 0 min 0,000 mm 0,0 UV-I 9 W/m² -2,0 °C 11,9 °C 17,7 km/h (3 Bft)
23.02.2017 17:45 11,8 °C 11,9 °C 38 % 999,1 hPa 0,0 mm 12,6 km/h (3 Bft) W-SW 250 ° 0 min 0,000 mm 0,0 UV-I 9 W/m² -2,0 °C 11,8 °C 16,1 km/h (3 Bft)
23.02.2017 17:46 11,8 °C 11,9 °C 38 % 999,2 hPa 0,0 mm 13,5 km/h (3 Bft) W 261 ° 0 min 0,000 mm 0,0 UV-I 7 W/m² -2,0 °C 11,8 °C 20,9 km/h (4 Bft)
23.02.2017 17:47 11,8 °C 11,8 °C 38 % 999,2 hPa 0,0 mm 10,6 km/h (2 Bft) W-SW 256 ° 0 min 0,000 mm 0,0 UV-I 7 W/m² -2,0 °C 11,8 °C 16,1 km/h (3 Bft)
23.02.2017 17:48 11,8 °C 11,8 °C 38 % 999,2 hPa 0,0 mm 12,1 km/h (2 Bft) W-SW 248 ° 0 min 0,000 mm 0,0 UV-I 5 W/m² -2,0 °C 11,8 °C 17,7 km/h (3 Bft)
23.02.2017 17:49 11,8 °C 11,8 °C 38 % 999,2 hPa 0,0 mm 9,8 km/h (2 Bft) W-SW 239 ° 0 min 0,000 mm 0,0 UV-I 5 W/m² -2,0 °C 11,8 °C 16,1 km/h (3 Bft)
23.02.2017 17:50 11,8 °C 11,8 °C 38 % 999,1 hPa 0,0 mm 11,7 km/h (2 Bft) SW 233 ° 0 min 0,000 mm 0,0 UV-I 5 W/m² -2,0 °C 11,8 °C 16,1 km/h (3 Bft)
23.02.2017 17:51 11,8 °C 11,8 °C 38 % 999,1 hPa 0,0 mm 11,7 km/h (2 Bft) W-SW 246 ° 0 min 0,000 mm 0,0 UV-I 5 W/m² -2,0 °C 11,8 °C 14,5 km/h (3 Bft)
23.02.2017 17:52 11,7 °C 11,8 °C 38 % 999,0 hPa 0,0 mm 11,9 km/h (2 Bft) W-SW 244 ° 0 min 0,000 mm 0,0 UV-I 5 W/m² -2,1 °C 11,7 °C 14,5 km/h (3 Bft)
23.02.2017 17:53 11,7 °C 11,7 °C 38 % 999,0 hPa 0,0 mm 10,3 km/h (2 Bft) W-SW 257 ° 0 min 0,000 mm 0,0 UV-I 0 W/m² -2,1 °C 11,7 °C 14,5 km/h (3 Bft)
23.02.2017 17:54 11,7 °C 11,7 °C 38 % 999,0 hPa 0,0 mm 12,0 km/h (2 Bft) W-SW 250 ° 0 min 0,000 mm 0,0 UV-I 0 W/m² -2,1 °C 11,7 °C 16,1 km/h (3 Bft)
23.02.2017 17:55 11,7 °C 11,7 °C 38 % 999,1 hPa 0,0 mm 11,1 km/h (2 Bft) W 263 ° 0 min 0,000 mm 0,0 UV-I 0 W/m² -2,1 °C 11,7 °C 17,7 km/h (3 Bft)
23.02.2017 17:56 11,7 °C 11,7 °C 38 % 999,1 hPa 0,0 mm 14,5 km/h (3 Bft) W 264 ° 0 min 0,000 mm 0,0 UV-I 0 W/m² -2,1 °C 11,7 °C 16,1 km/h (3 Bft)
23.02.2017 17:57 11,7 °C 11,7 °C 38 % 999,1 hPa 0,0 mm 10,1 km/h (2 Bft) W-SW 250 ° 0 min 0,000 mm 0,0 UV-I 0 W/m² -2,1 °C 11,7 °C 14,5 km/h (3 Bft)
23.02.2017 17:58 11,6 °C 11,7 °C 38 % 999,1 hPa 0,0 mm 13,2 km/h (3 Bft) SW 229 ° 0 min 0,000 mm 0,0 UV-I 0 W/m² -2,2 °C 11,6 °C 19,3 km/h (3 Bft)
23.02.2017 17:59 11,6 °C 11,6 °C 38 % 999,1 hPa 0,0 mm 12,7 km/h (3 Bft) W-SW 254 ° 0 min 0,000 mm 0,0 UV-I 0 W/m² -2,2 °C 11,6 °C 22,5 km/h (4 Bft)
23.02.2017 18:00 11,6 °C 11,6 °C 38 % 999,1 hPa 0,0 mm 15,5 km/h (3 Bft) W-SW 258 ° 0 min 0,000 mm 0,0 UV-I 0 W/m² -2,2 °C 11,6 °C 19,3 km/h (3 Bft)
23.02.2017 18:01 11,6 °C 11,6 °C 38 % 999,1 hPa 0,0 mm 11,0 km/h (2 Bft) SW 235 ° 0 min 0,102 mm 0,0 UV-I 0 W/m² -2,2 °C 11,6 °C 17,7 km/h (3 Bft)
23.02.2017 18:02 11,6 °C 11,6 °C 38 % 999,1 hPa 0,0 mm 11,0 km/h (2 Bft) S-SW 209 ° 0 min 0,000 mm 0,0 UV-I 0 W/m² -2,2 °C 11,6 °C 16,1 km/h (3 Bft)
23.02.2017 18:03 11,6 °C 11,6 °C 38 % 999,1 hPa 0,0 mm 12,4 km/h (3 Bft) W 271 ° 0 min 0,000 mm 0,0 UV-I 0 W/m² -2,2 °C 11,6 °C 19,3 km/h (3 Bft)
23.02.2017 18:04 11,6 °C 11,6 °C 38 % 999,2 hPa 0,0 mm 13,5 km/h (3 Bft) W 263 ° 0 min 0,000 mm 0,0 UV-I 0 W/m² -2,2 °C 11,6 °C 17,7 km/h (3 Bft)
23.02.2017 18:05 11,6 °C 11,6 °C 38 % 999,2 hPa 0,0 mm 15,7 km/h (3 Bft) W 259 ° 0 min 0,000 mm 0,0 UV-I 0 W/m² -2,2 °C 11,6 °C 20,9 km/h (4 Bft)
23.02.2017 18:06 11,6 °C 11,6 °C 38 % 999,2 hPa 0,0 mm 14,3 km/h (3 Bft) W 260 ° 0 min 0,000 mm 0,0 UV-I 0 W/m² -2,2 °C 11,6 °C 20,9 km/h (4 Bft)
23.02.2017 18:07 11,6 °C 11,6 °C 37 % 999,2 hPa 0,0 mm 11,8 km/h (2 Bft) W-SW 251 ° 0 min 0,000 mm 0,0 UV-I 0 W/m² -2,6 °C 11,6 °C 17,7 km/h (3 Bft)
23.02.2017 18:08 11,6 °C 11,6 °C 38 % 999,2 hPa 0,0 mm 11,3 km/h (2 Bft) W-SW 247 ° 0 min 0,000 mm 0,0 UV-I 0 W/m² -2,2 °C 11,6 °C 14,5 km/h (3 Bft)
23.02.2017 18:09 11,5 °C 11,6 °C 38 % 999,2 hPa 0,0 mm 11,1 km/h (2 Bft) W 277 ° 0 min 0,000 mm 0,0 UV-I 0 W/m² -2,3 °C 11,5 °C 14,5 km/h (3 Bft)
23.02.2017 18:10 11,4 °C 11,5 °C 38 % 999,2 hPa 0,0 mm 8,8 km/h (2 Bft) W 269 ° 0 min 0,000 mm 0,0 UV-I 0 W/m² -2,4 °C 11,4 °C 12,9 km/h (3 Bft)
23.02.2017 18:11 11,4 °C 11,4 °C 38 % 999,2 hPa 0,0 mm 13,9 km/h (3 Bft) W 267 ° 0 min 0,000 mm 0,0 UV-I 0 W/m² -2,4 °C 11,4 °C 16,1 km/h (3 Bft)
23.02.2017 18:12 11,3 °C 11,4 °C 38 % 999,3 hPa 0,0 mm 9,7 km/h (2 Bft) W-SW 254 ° 0 min 0,000 mm 0,0 UV-I 0 W/m² -2,5 °C 11,3 °C 14,5 km/h (3 Bft)
23.02.2017 18:13 11,3 °C 11,3 °C 38 % 999,2 hPa 0,0 mm 10,9 km/h (2 Bft) W-SW 245 ° 0 min 0,000 mm 0,0 UV-I 0 W/m² -2,5 °C 11,3 °C 14,5 km/h (3 Bft)
23.02.2017 18:14 11,2 °C 11,3 °C 39 % 999,2 hPa 0,0 mm 13,6 km/h (3 Bft) W 259 ° 0 min 0,000 mm 0,0 UV-I 0 W/m² -2,2 °C 11,2 °C 19,3 km/h (3 Bft)
23.02.2017 18:15 11,2 °C 11,2 °C 39 % 999,2 hPa 0,0 mm 10,5 km/h (2 Bft) W 263 ° 0 min 0,000 mm 0,0 UV-I 0 W/m² -2,2 °C 11,2 °C 16,1 km/h (3 Bft)
23.02.2017 18:16 11,2 °C 11,2 °C 39 % 999,2 hPa 0,0 mm 11,4 km/h (2 Bft) W 261 ° 0 min 0,000 mm 0,0 UV-I 0 W/m² -2,2 °C 11,2 °C 14,5 km/h (3 Bft)
23.02.2017 18:17 11,2 °C 11,2 °C 39 % 999,2 hPa 0,0 mm 11,3 km/h (2 Bft) W-SW 252 ° 0 min 0,000 mm 0,0 UV-I 0 W/m² -2,2 °C 11,2 °C 17,7 km/h (3 Bft)
23.02.2017 18:18 11,1 °C 11,2 °C 39 % 999,2 hPa 0,0 mm 14,3 km/h (3 Bft) W 267 ° 0 min 0,000 mm 0,0 UV-I 0 W/m² -2,3 °C 11,1 °C 19,3 km/h (3 Bft)
23.02.2017 18:19 11,0 °C 11,1 °C 39 % 999,2 hPa 0,0 mm 12,6 km/h (3 Bft) W 265 ° 0 min 0,000 mm 0,0 UV-I 0 W/m² -2,4 °C 11,0 °C 16,1 km/h (3 Bft)
23.02.2017 18:20 10,9 °C 11,0 °C 39 % 999,2 hPa 0,0 mm 13,6 km/h (3 Bft) W-SW 245 ° 0 min 0,000 mm 0,0 UV-I 0 W/m² -2,5 °C 10,9 °C 17,7 km/h (3 Bft)
23.02.2017 18:21 10,9 °C 11,0 °C 39 % 999,2 hPa 0,0 mm 11,7 km/h (2 Bft) W-SW 242 ° 0 min 0,000 mm 0,0 UV-I 0 W/m² -2,5 °C 10,9 °C 19,3 km/h (3 Bft)
23.02.2017 18:22 10,9 °C 10,9 °C 39 % 999,2 hPa 0,0 mm 9,7 km/h (2 Bft) W-SW 249 ° 0 min 0,000 mm 0,0 UV-I 0 W/m² -2,5 °C 10,9 °C 12,9 km/h (3 Bft)
23.02.2017 18:23 10,9 °C 10,9 °C 39 % 999,2 hPa 0,0 mm 12,9 km/h (3 Bft) W-NW 284 ° 0 min 0,000 mm 0,0 UV-I 0 W/m² -2,5 °C 10,9 °C 16,1 km/h (3 Bft)
23.02.2017 18:24 10,9 °C 10,9 °C 39 % 999,2 hPa 0,0 mm 14,2 km/h (3 Bft) W-SW 244 ° 0 min 0,000 mm 0,0 UV-I 0 W/m² -2,5 °C 10,9 °C 20,9 km/h (4 Bft)
23.02.2017 18:25 10,9 °C 10,9 °C 39 % 999,2 hPa 0,0 mm 11,6 km/h (2 Bft) SW 228 ° 0 min 0,000 mm 0,0 UV-I 0 W/m² -2,5 °C 10,9 °C 19,3 km/h (3 Bft)
23.02.2017 18:26 10,9 °C 10,9 °C 39 % 999,1 hPa 0,0 mm 10,5 km/h (2 Bft) W-NW 284 ° 0 min 0,000 mm 0,0 UV-I 0 W/m² -2,5 °C 10,9 °C 14,5 km/h (3 Bft)
23.02.2017 18:27 10,9 °C 10,9 °C 40 % 999,2 hPa 0,0 mm 10,5 km/h (2 Bft) W-SW 257 ° 0 min 0,000 mm 0,0 UV-I 0 W/m² -2,2 °C 10,9 °C 14,5 km/h (3 Bft)
23.02.2017 18:28 10,8 °C 10,9 °C 40 % 999,2 hPa 0,0 mm 10,6 km/h (2 Bft) W 259 ° 0 min 0,000 mm 0,0 UV-I 0 W/m² -2,2 °C 10,8 °C 14,5 km/h (3 Bft)
23.02.2017 18:29 10,8 °C 10,8 °C 40 % 999,1 hPa 0,0 mm 10,2 km/h (2 Bft) W 260 ° 0 min 0,000 mm 0,0 UV-I 0 W/m² -2,2 °C 10,8 °C 14,5 km/h (3 Bft)
23.02.2017 18:30 10,7 °C 10,8 °C 40 % 999,2 hPa 0,0 mm 11,0 km/h (2 Bft) W 276 ° 0 min 0,000 mm 0,0 UV-I 0 W/m² -2,3 °C 10,7 °C 17,7 km/h (3 Bft)
23.02.2017 18:31 10,7 °C 10,7 °C 40 % 999,3 hPa 0,0 mm 12,0 km/h (2 Bft) W 268 ° 0 min 0,000 mm 0,0 UV-I 0 W/m² -2,3 °C 10,7 °C 20,9 km/h (4 Bft)
23.02.2017 18:32 10,7 °C 10,7 °C 40 % 999,2 hPa 0,0 mm 13,3 km/h (3 Bft) W-SW 248 ° 0 min 0,000 mm 0,0 UV-I 0 W/m² -2,3 °C 10,7 °C 17,7 km/h (3 Bft)
23.02.2017 18:33 10,7 °C 10,7 °C 40 % 999,2 hPa 0,0 mm 17,7 km/h (3 Bft) W 266 ° 0 min 0,000 mm 0,0 UV-I 0 W/m² -2,3 °C 10,7 °C 22,5 km/h (4 Bft)
23.02.2017 18:34 10,7 °C 10,7 °C 39 % 999,3 hPa 0,0 mm 16,5 km/h (3 Bft) W-NW 284 ° 0 min 0,000 mm 0,0 UV-I 0 W/m² -2,7 °C 10,7 °C 22,5 km/h (4 Bft)
23.02.2017 18:35 10,8 °C 10,8 °C 39 % 999,2 hPa 0,0 mm 12,1 km/h (2 Bft) W-SW 246 ° 0 min 0,000 mm 0,0 UV-I 0 W/m² -2,6 °C 10,8 °C 17,7 km/h (3 Bft)
23.02.2017 18:36 10,9 °C 10,9 °C 39 % 999,2 hPa 0,0 mm 16,5 km/h (3 Bft) W-NW 296 ° 0 min 0,000 mm 0,0 UV-I 0 W/m² -2,5 °C 10,9 °C 20,9 km/h (4 Bft)
23.02.2017 18:37 11,0 °C 11,0 °C 39 % 999,2 hPa 0,0 mm 15,4 km/h (3 Bft) W 281 ° 0 min 0,000 mm 0,0 UV-I 0 W/m² -2,4 °C 11,0 °C 20,9 km/h (4 Bft)
23.02.2017 18:38 11,1 °C 11,1 °C 39 % 999,2 hPa 0,0 mm 17,0 km/h (3 Bft) W-SW 249 ° 0 min 0,000 mm 0,0 UV-I 0 W/m² -2,3 °C 11,1 °C 20,9 km/h (4 Bft)
23.02.2017 18:39 11,2 °C 11,2 °C 39 % 999,2 hPa 0,0 mm 12,3 km/h (3 Bft) W-SW 256 ° 0 min 0,000 mm 0,0 UV-I 0 W/m² -2,2 °C 11,2 °C 20,9 km/h (4 Bft)
23.02.2017 18:40 11,1 °C 11,2 °C 40 % 999,2 hPa 0,0 mm 16,1 km/h (3 Bft) W-SW 254 ° 0 min 0,000 mm 0,0 UV-I 0 W/m² -2,0 °C 11,1 °C 20,9 km/h (4 Bft)
23.02.2017 18:41 11,2 °C 11,2 °C 38 % 999,1 hPa 0,0 mm 13,9 km/h (3 Bft) W-SW 257 ° 0 min 0,000 mm 0,0 UV-I 0 W/m² -2,6 °C 11,2 °C 17,7 km/h (3 Bft)
23.02.2017 18:42 11,2 °C 11,2 °C 39 % 999,2 hPa 0,0 mm 15,8 km/h (3 Bft) W 273 ° 0 min 0,000 mm 0,0 UV-I 0 W/m² -2,2 °C 11,2 °C 19,3 km/h (3 Bft)
23.02.2017 18:43 11,1 °C 11,2 °C 39 % 999,2 hPa 0,0 mm 12,5 km/h (3 Bft) W-SW 257 ° 0 min 0,000 mm 0,0 UV-I 0 W/m² -2,3 °C 11,1 °C 17,7 km/h (3 Bft)
23.02.2017 18:44 11,1 °C 11,1 °C 39 % 999,2 hPa 0,0 mm 18,8 km/h (3 Bft) W 259 ° 0 min 0,000 mm 0,0 UV-I 0 W/m² -2,3 °C 11,1 °C 29,0 km/h (5 Bft)
23.02.2017 18:45 11,2 °C 11,2 °C 39 % 999,2 hPa 0,0 mm 23,9 km/h (4 Bft) W-SW 254 ° 0 min 0,000 mm 0,0 UV-I 0 W/m² -2,2 °C 11,2 °C 35,4 km/h (5 Bft)
23.02.2017 18:46 11,2 °C 11,2 °C 38 % 999,2 hPa 0,0 mm 16,4 km/h (3 Bft) W-NW 286 ° 0 min 0,000 mm 0,0 UV-I 0 W/m² -2,6 °C 11,2 °C 24,1 km/h (4 Bft)
23.02.2017 18:47 11,3 °C 11,3 °C 38 % 999,2 hPa 0,0 mm 13,8 km/h (3 Bft) W-SW 245 ° 0 min 0,000 mm 0,0 UV-I 0 W/m² -2,5 °C 11,3 °C 29,0 km/h (5 Bft)
23.02.2017 18:48 11,4 °C 11,4 °C 38 % 999,2 hPa 0,0 mm 19,8 km/h (3 Bft) W-SW 252 ° 0 min 0,000 mm 0,0 UV-I 0 W/m² -2,4 °C 11,4 °C 29,0 km/h (5 Bft)
23.02.2017 18:49 11,4 °C 11,4 °C 38 % 999,2 hPa 0,0 mm 15,8 km/h (3 Bft) W-SW 250 ° 0 min 0,000 mm 0,0 UV-I 0 W/m² -2,4 °C 11,4 °C 19,3 km/h (3 Bft)
23.02.2017 18:50 11,4 °C 11,4 °C 38 % 999,1 hPa 0,0 mm 14,1 km/h (3 Bft) W 263 ° 0 min 0,000 mm 0,0 UV-I 0 W/m² -2,4 °C 11,4 °C 20,9 km/h (4 Bft)
23.02.2017 18:51 11,4 °C 11,4 °C 38 % 999,2 hPa 0,0 mm 17,9 km/h (3 Bft) W 261 ° 0 min 0,000 mm 0,0 UV-I 0 W/m² -2,4 °C 11,4 °C 27,4 km/h (4 Bft)
23.02.2017 18:52 11,4 °C 11,5 °C 38 % 999,2 hPa 0,0 mm 14,9 km/h (3 Bft) W 280 ° 0 min 0,000 mm 0,0 UV-I 0 W/m² -2,4 °C 11,4 °C 24,1 km/h (4 Bft)
23.02.2017 18:53 11,5 °C 11,5 °C 37 % 999,2 hPa 0,0 mm 13,7 km/h (3 Bft) W-SW 249 ° 0 min 0,000 mm 0,0 UV-I 0 W/m² -2,7 °C 11,5 °C 17,7 km/h (3 Bft)
23.02.2017 18:54 11,5 °C 11,5 °C 38 % 999,2 hPa 0,0 mm 15,8 km/h (3 Bft) W 260 ° 0 min 0,000 mm 0,0 UV-I 0 W/m² -2,3 °C 11,5 °C 25,7 km/h (4 Bft)
23.02.2017 18:55 11,5 °C 11,5 °C 38 % 999,3 hPa 0,0 mm 19,2 km/h (3 Bft) W-SW 250 ° 0 min 0,000 mm 0,0 UV-I 0 W/m² -2,3 °C 11,5 °C 27,4 km/h (4 Bft)
23.02.2017 18:56 11,5 °C 11,5 °C 38 % 999,3 hPa 0,0 mm 13,0 km/h (3 Bft) W-NW 296 ° 0 min 0,000 mm 0,0 UV-I 0 W/m² -2,3 °C 11,5 °C 16,1 km/h (3 Bft)
23.02.2017 18:57 11,5 °C 11,5 °C 38 % 999,2 hPa 0,0 mm 14,7 km/h (3 Bft) W-SW 254 ° 0 min 0,000 mm 0,0 UV-I 0 W/m² -2,3 °C 11,5 °C 22,5 km/h (4 Bft)
23.02.2017 18:58 11,6 °C 11,6 °C 37 % 999,2 hPa 0,0 mm 16,4 km/h (3 Bft) W-SW 248 ° 0 min 0,000 mm 0,0 UV-I 0 W/m² -2,6 °C 11,6 °C 22,5 km/h (4 Bft)
23.02.2017 18:59 11,6 °C 11,6 °C 38 % 999,3 hPa 0,0 mm 13,3 km/h (3 Bft) W-SW 244 ° 0 min 0,000 mm 0,0 UV-I 0 W/m² -2,2 °C 11,6 °C 19,3 km/h (3 Bft)
23.02.2017 19:00 11,6 °C 11,6 °C 38 % 999,3 hPa 0,0 mm 14,1 km/h (3 Bft) W 267 ° 0 min 0,000 mm 0,0 UV-I 0 W/m² -2,2 °C 11,6 °C 20,9 km/h (4 Bft)
23.02.2017 19:01 11,5 °C 11,6 °C 37 % 999,3 hPa 0,0 mm 16,4 km/h (3 Bft) W-SW 253 ° 0 min 0,101 mm 0,0 UV-I 0 W/m² -2,7 °C 11,5 °C 22,5 km/h (4 Bft)
23.02.2017 19:02 11,5 °C 11,6 °C 38 % 999,2 hPa 0,0 mm 17,4 km/h (3 Bft) SW 223 ° 0 min 0,000 mm 0,0 UV-I 0 W/m² -2,3 °C 11,5 °C 27,4 km/h (4 Bft)
23.02.2017 19:03 11,6 °C 11,6 °C 38 % 999,2 hPa 0,0 mm 16,8 km/h (3 Bft) W-SW 252 ° 0 min 0,000 mm 0,0 UV-I 0 W/m² -2,2 °C 11,6 °C 25,7 km/h (4 Bft)
23.02.2017 19:04 11,6 °C 11,6 °C 37 % 999,2 hPa 0,0 mm 14,5 km/h (3 Bft) W-SW 253 ° 0 min 0,000 mm 0,0 UV-I 0 W/m² -2,6 °C 11,6 °C 20,9 km/h (4 Bft)
23.02.2017 19:05 11,6 °C 11,6 °C 37 % 999,3 hPa 0,0 mm 13,3 km/h (3 Bft) W-SW 247 ° 0 min 0,000 mm 0,0 UV-I 0 W/m² -2,6 °C 11,6 °C 17,7 km/h (3 Bft)
23.02.2017 19:06 11,6 °C 11,6 °C 38 % 999,2 hPa 0,0 mm 14,0 km/h (3 Bft) W-SW 250 ° 0 min 0,000 mm 0,0 UV-I 0 W/m² -2,2 °C 11,6 °C 17,7 km/h (3 Bft)
23.02.2017 19:07 11,5 °C 11,6 °C 38 % 999,2 hPa 0,0 mm 14,9 km/h (3 Bft) SW 234 ° 0 min 0,000 mm 0,0 UV-I 0 W/m² -2,3 °C 11,5 °C 19,3 km/h (3 Bft)
23.02.2017 19:08 11,4 °C 11,6 °C 38 % 999,2 hPa 0,0 mm 12,1 km/h (2 Bft) W-SW 248 ° 0 min 0,000 mm 0,0 UV-I 0 W/m² -2,4 °C 11,4 °C 14,5 km/h (3 Bft)
23.02.2017 19:09 11,3 °C 11,4 °C 38 % 999,2 hPa 0,0 mm 12,9 km/h (3 Bft) W 269 ° 0 min 0,000 mm 0,0 UV-I 0 W/m² -2,5 °C 11,3 °C 19,3 km/h (3 Bft)
23.02.2017 19:10 11,3 °C 11,3 °C 38 % 999,2 hPa 0,0 mm 11,2 km/h (2 Bft) W 261 ° 0 min 0,000 mm 0,0 UV-I 0 W/m² -2,5 °C 11,3 °C 16,1 km/h (3 Bft)
23.02.2017 19:11 11,3 °C 11,3 °C 38 % 999,2 hPa 0,0 mm 12,9 km/h (3 Bft) W-SW 249 ° 0 min 0,000 mm 0,0 UV-I 0 W/m² -2,5 °C 11,3 °C 20,9 km/h (4 Bft)
23.02.2017 19:12 11,3 °C 11,3 °C 38 % 999,2 hPa 0,0 mm 12,6 km/h (3 Bft) W-SW 250 ° 0 min 0,000 mm 0,0 UV-I 0 W/m² -2,5 °C 11,3 °C 16,1 km/h (3 Bft)
23.02.2017 19:13 11,2 °C 11,3 °C 38 % 999,3 hPa 0,0 mm 13,1 km/h (3 Bft) W 263 ° 0 min 0,000 mm 0,0 UV-I 0 W/m² -2,6 °C 11,2 °C 19,3 km/h (3 Bft)
23.02.2017 19:14 11,2 °C 11,2 °C 38 % 999,3 hPa 0,0 mm 14,8 km/h (3 Bft) W-SW 247 ° 0 min 0,000 mm 0,0 UV-I 0 W/m² -2,6 °C 11,2 °C 19,3 km/h (3 Bft)
23.02.2017 19:15 11,2 °C 11,2 °C 39 % 999,3 hPa 0,0 mm 12,3 km/h (3 Bft) W 261 ° 0 min 0,000 mm 0,0 UV-I 0 W/m² -2,2 °C 11,2 °C 17,7 km/h (3 Bft)
23.02.2017 19:16 11,1 °C 11,2 °C 39 % 999,3 hPa 0,0 mm 12,1 km/h (2 Bft) W 269 ° 0 min 0,000 mm 0,0 UV-I 0 W/m² -2,3 °C 11,1 °C 17,7 km/h (3 Bft)
23.02.2017 19:17 11,1 °C 11,1 °C 39 % 999,3 hPa 0,0 mm 12,8 km/h (3 Bft) W-SW 240 ° 0 min 0,000 mm 0,0 UV-I 0 W/m² -2,3 °C 11,1 °C 14,5 km/h (3 Bft)
23.02.2017 19:18 11,0 °C 11,1 °C 39 % 999,3 hPa 0,0 mm 14,7 km/h (3 Bft) W 277 ° 0 min 0,000 mm 0,0 UV-I 0 W/m² -2,4 °C 11,0 °C 19,3 km/h (3 Bft)
23.02.2017 19:19 11,0 °C 11,1 °C 39 % 999,2 hPa 0,0 mm 14,6 km/h (3 Bft) W 261 ° 0 min 0,000 mm 0,0 UV-I 0 W/m² -2,4 °C 11,0 °C 17,7 km/h (3 Bft)
23.02.2017 19:20 11,0 °C 11,0 °C 39 % 999,2 hPa 0,0 mm 10,0 km/h (2 Bft) W-NW 284 ° 0 min 0,000 mm 0,0 UV-I 0 W/m² -2,4 °C 11,0 °C 16,1 km/h (3 Bft)
23.02.2017 19:21 11,0 °C 11,1 °C 39 % 999,3 hPa 0,0 mm 12,2 km/h (2 Bft) W-SW 247 ° 0 min 0,000 mm 0,0 UV-I 0 W/m² -2,4 °C 11,0 °C 17,7 km/h (3 Bft)
23.02.2017 19:22 11,0 °C 11,0 °C 39 % 999,3 hPa 0,0 mm 13,3 km/h (3 Bft) W-NW 286 ° 0 min 0,000 mm 0,0 UV-I 0 W/m² -2,4 °C 11,0 °C 17,7 km/h (3 Bft)
23.02.2017 19:23 11,0 °C 11,1 °C 39 % 999,3 hPa 0,0 mm 11,6 km/h (2 Bft) W-SW 252 ° 0 min 0,000 mm 0,0 UV-I 0 W/m² -2,4 °C 11,0 °C 17,7 km/h (3 Bft)
23.02.2017 19:24 11,0 °C 11,0 °C 39 % 999,3 hPa 0,0 mm 12,2 km/h (2 Bft) W 265 ° 0 min 0,000 mm 0,0 UV-I 0 W/m² -2,4 °C 11,0 °C 17,7 km/h (3 Bft)
23.02.2017 19:25 10,9 °C 11,0 °C 39 % 999,3 hPa 0,0 mm 13,2 km/h (3 Bft) W-NW 288 ° 0 min 0,000 mm 0,0 UV-I 0 W/m² -2,5 °C 10,9 °C 20,9 km/h (4 Bft)
23.02.2017 19:26 10,9 °C 10,9 °C 39 % 999,2 hPa 0,0 mm 9,4 km/h (2 Bft) W 267 ° 0 min 0,000 mm 0,0 UV-I 0 W/m² -2,5 °C 10,9 °C 14,5 km/h (3 Bft)
23.02.2017 19:27 10,9 °C 10,9 °C 40 % 999,2 hPa 0,0 mm 11,7 km/h (2 Bft) W 259 ° 0 min 0,000 mm 0,0 UV-I 0 W/m² -2,2 °C 10,9 °C 17,7 km/h (3 Bft)
23.02.2017 19:28 10,9 °C 10,9 °C 40 % 999,3 hPa 0,0 mm 14,3 km/h (3 Bft) W 264 ° 0 min 0,000 mm 0,0 UV-I 0 W/m² -2,2 °C 10,9 °C 17,7 km/h (3 Bft)
23.02.2017 19:29 10,9 °C 10,9 °C 40 % 999,2 hPa 0,0 mm 10,5 km/h (2 Bft) W-SW 255 ° 0 min 0,000 mm 0,0 UV-I 0 W/m² -2,2 °C 10,9 °C 14,5 km/h (3 Bft)
23.02.2017 19:30 10,8 °C 10,9 °C 39 % 999,3 hPa 0,0 mm 12,9 km/h (3 Bft) SW 236 ° 0 min 0,000 mm 0,0 UV-I 0 W/m² -2,6 °C 10,8 °C 19,3 km/h (3 Bft)
23.02.2017 19:31 10,8 °C 10,8 °C 40 % 999,3 hPa 0,0 mm 13,3 km/h (3 Bft) W-SW 242 ° 0 min 0,000 mm 0,0 UV-I 0 W/m² -2,2 °C 10,8 °C 17,7 km/h (3 Bft)
23.02.2017 19:32 10,8 °C 10,8 °C 39 % 999,3 hPa 0,0 mm 7,2 km/h (2 Bft) W 260 ° 0 min 0,000 mm 0,0 UV-I 0 W/m² -2,6 °C 10,8 °C 17,7 km/h (3 Bft)
23.02.2017 19:33 10,9 °C 10,9 °C 39 % 999,3 hPa 0,0 mm 15,2 km/h (3 Bft) W-SW 247 ° 0 min 0,000 mm 0,0 UV-I 0 W/m² -2,5 °C 10,9 °C 17,7 km/h (3 Bft)
23.02.2017 19:34 10,9 °C 10,9 °C 39 % 999,3 hPa 0,0 mm 13,5 km/h (3 Bft) W-SW 243 ° 0 min 0,000 mm 0,0 UV-I 0 W/m² -2,5 °C 10,9 °C 22,5 km/h (4 Bft)
23.02.2017 19:35 10,9 °C 11,0 °C 40 % 999,3 hPa 0,0 mm 12,3 km/h (3 Bft) W-SW 253 ° 0 min 0,000 mm 0,0 UV-I 0 W/m² -2,2 °C 10,9 °C 16,1 km/h (3 Bft)
23.02.2017 19:36 11,0 °C 11,0 °C 39 % 999,3 hPa 0,0 mm 12,3 km/h (3 Bft) W-SW 240 ° 0 min 0,000 mm 0,0 UV-I 0 W/m² -2,4 °C 11,0 °C 24,1 km/h (4 Bft)
23.02.2017 19:37 11,0 °C 11,0 °C 39 % 999,4 hPa 0,0 mm 17,4 km/h (3 Bft) W 259 ° 0 min 0,000 mm 0,0 UV-I 0 W/m² -2,4 °C 11,0 °C 27,4 km/h (4 Bft)
23.02.2017 19:38 11,0 °C 11,1 °C 39 % 999,3 hPa 0,0 mm 8,2 km/h (2 Bft) W-SW 252 ° 0 min 0,000 mm 0,0 UV-I 0 W/m² -2,4 °C 11,0 °C 12,9 km/h (3 Bft)
23.02.2017 19:39 11,0 °C 11,1 °C 39 % 999,3 hPa 0,0 mm 7,3 km/h (2 Bft) W 260 ° 0 min 0,000 mm 0,0 UV-I 0 W/m² -2,4 °C 11,0 °C 11,3 km/h (2 Bft)
23.02.2017 19:40 11,0 °C 11,0 °C 40 % 999,4 hPa 0,0 mm 11,3 km/h (2 Bft) W-SW 257 ° 0 min 0,000 mm 0,0 UV-I 0 W/m² -2,1 °C 11,0 °C 16,1 km/h (3 Bft)
23.02.2017 19:41 10,9 °C 11,0 °C 39 % 999,3 hPa 0,0 mm 11,3 km/h (2 Bft) W-SW 248 ° 0 min 0,000 mm 0,0 UV-I 0 W/m² -2,5 °C 10,9 °C 14,5 km/h (3 Bft)
23.02.2017 19:42 10,9 °C 10,9 °C 39 % 999,3 hPa 0,0 mm 13,8 km/h (3 Bft) W-NW 289 ° 0 min 0,000 mm 0,0 UV-I 0 W/m² -2,5 °C 10,9 °C 19,3 km/h (3 Bft)
23.02.2017 19:43 10,9 °C 10,9 °C 39 % 999,3 hPa 0,0 mm 11,3 km/h (2 Bft) W 259 ° 0 min 0,000 mm 0,0 UV-I 0 W/m² -2,5 °C 10,9 °C 14,5 km/h (3 Bft)
23.02.2017 19:44 10,9 °C 10,9 °C 39 % 999,3 hPa 0,0 mm 15,8 km/h (3 Bft) W-NW 289 ° 0 min 0,000 mm 0,0 UV-I 0 W/m² -2,5 °C 10,9 °C 22,5 km/h (4 Bft)
23.02.2017 19:45 11,0 °C 11,0 °C 38 % 999,3 hPa 0,0 mm 10,8 km/h (2 Bft) W-SW 254 ° 0 min 0,000 mm 0,0 UV-I 0 W/m² -2,8 °C 11,0 °C 17,7 km/h (3 Bft)
23.02.2017 19:46 11,0 °C 11,1 °C 39 % 999,2 hPa 0,0 mm 10,9 km/h (2 Bft) W-SW 254 ° 0 min 0,000 mm 0,0 UV-I 0 W/m² -2,4 °C 11,0 °C 16,1 km/h (3 Bft)
23.02.2017 19:47 11,0 °C 11,1 °C 39 % 999,3 hPa 0,0 mm 13,1 km/h (3 Bft) W-SW 244 ° 0 min 0,000 mm 0,0 UV-I 0 W/m² -2,4 °C 11,0 °C 17,7 km/h (3 Bft)
23.02.2017 19:48 10,9 °C 11,0 °C 39 % 999,3 hPa 0,0 mm 13,3 km/h (3 Bft) W-SW 253 ° 0 min 0,000 mm 0,0 UV-I 0 W/m² -2,5 °C 10,9 °C 19,3 km/h (3 Bft)
23.02.2017 19:49 10,9 °C 10,9 °C 39 % 999,2 hPa 0,0 mm 11,1 km/h (2 Bft) SW 234 ° 0 min 0,000 mm 0,0 UV-I 0 W/m² -2,5 °C 10,9 °C 16,1 km/h (3 Bft)
23.02.2017 19:50 10,9 °C 10,9 °C 38 % 999,3 hPa 0,0 mm 12,4 km/h (3 Bft) W-SW 257 ° 0 min 0,000 mm 0,0 UV-I 0 W/m² -2,8 °C 10,9 °C 19,3 km/h (3 Bft)
23.02.2017 19:51 10,9 °C 10,9 °C 39 % 999,3 hPa 0,0 mm 14,4 km/h (3 Bft) W-SW 246 ° 0 min 0,000 mm 0,0 UV-I 0 W/m² -2,5 °C 10,9 °C 17,7 km/h (3 Bft)
23.02.2017 19:52 11,0 °C 11,0 °C 38 % 999,3 hPa 0,0 mm 18,2 km/h (3 Bft) W 260 ° 0 min 0,000 mm 0,0 UV-I 0 W/m² -2,8 °C 11,0 °C 22,5 km/h (4 Bft)
23.02.2017 19:53 11,1 °C 11,1 °C 38 % 999,3 hPa 0,0 mm 11,5 km/h (2 Bft) W-SW 247 ° 0 min 0,000 mm 0,0 UV-I 0 W/m² -2,7 °C 11,1 °C 20,9 km/h (4 Bft)
23.02.2017 19:54 11,1 °C 11,1 °C 38 % 999,2 hPa 0,0 mm 11,4 km/h (2 Bft) W 264 ° 0 min 0,000 mm 0,0 UV-I 0 W/m² -2,7 °C 11,1 °C 17,7 km/h (3 Bft)
23.02.2017 19:55 11,1 °C 11,1 °C 38 % 999,3 hPa 0,0 mm 13,3 km/h (3 Bft) W 263 ° 0 min 0,000 mm 0,0 UV-I 0 W/m² -2,7 °C 11,1 °C 20,9 km/h (4 Bft)
23.02.2017 19:56 11,1 °C 11,2 °C 37 % 999,2 hPa 0,0 mm 13,8 km/h (3 Bft) W-SW 245 ° 0 min 0,000 mm 0,0 UV-I 0 W/m² -3,0 °C 11,1 °C 19,3 km/h (3 Bft)
23.02.2017 19:57 11,2 °C 11,2 °C 38 % 999,2 hPa 0,0 mm 18,0 km/h (3 Bft) W 279 ° 0 min 0,000 mm 0,0 UV-I 0 W/m² -2,6 °C 11,2 °C 25,7 km/h (4 Bft)
23.02.2017 19:58 11,2 °C 11,2 °C 37 % 999,3 hPa 0,0 mm 19,6 km/h (3 Bft) W-NW 300 ° 0 min 0,000 mm 0,0 UV-I 0 W/m² -2,9 °C 11,2 °C 32,2 km/h (5 Bft)
23.02.2017 19:59 11,3 °C 11,3 °C 37 % 999,3 hPa 0,0 mm 16,6 km/h (3 Bft) W 269 ° 0 min 0,000 mm 0,0 UV-I 0 W/m² -2,8 °C 11,3 °C 22,5 km/h (4 Bft)
23.02.2017 20:00 11,4 °C 11,4 °C 37 % 999,3 hPa 0,0 mm 15,8 km/h (3 Bft) W-NW 286 ° 0 min 0,000 mm 0,0 UV-I 0 W/m² -2,8 °C 11,4 °C 20,9 km/h (4 Bft)
23.02.2017 20:01 11,4 °C 11,4 °C 36 % 999,2 hPa 0,0 mm 17,5 km/h (3 Bft) W 272 ° 0 min 0,102 mm 0,0 UV-I 0 W/m² -3,1 °C 11,4 °C 22,5 km/h (4 Bft)
23.02.2017 20:02 11,5 °C 11,5 °C 36 % 999,2 hPa 0,0 mm 17,6 km/h (3 Bft) W-SW 257 ° 0 min 0,000 mm 0,0 UV-I 0 W/m² -3,0 °C 11,5 °C 24,1 km/h (4 Bft)
23.02.2017 20:03 11,6 °C 11,6 °C 36 % 999,1 hPa 0,0 mm 19,6 km/h (3 Bft) W 267 ° 0 min 0,000 mm 0,0 UV-I 0 W/m² -2,9 °C 11,6 °C 27,4 km/h (4 Bft)
23.02.2017 20:04 11,6 °C 11,6 °C 35 % 999,1 hPa 0,0 mm 18,8 km/h (3 Bft) W 271 ° 0 min 0,000 mm 0,0 UV-I 0 W/m² -3,3 °C 11,6 °C 25,7 km/h (4 Bft)
23.02.2017 20:05 11,7 °C 11,7 °C 36 % 999,2 hPa 0,0 mm 17,9 km/h (3 Bft) W-SW 240 ° 0 min 0,000 mm 0,0 UV-I 0 W/m² -2,9 °C 11,7 °C 27,4 km/h (4 Bft)
23.02.2017 20:06 11,7 °C 11,7 °C 35 % 999,3 hPa 0,0 mm 20,6 km/h (4 Bft) W 261 ° 0 min 0,000 mm 0,0 UV-I 0 W/m² -3,2 °C 11,7 °C 27,4 km/h (4 Bft)
23.02.2017 20:07 11,8 °C 11,8 °C 35 % 999,2 hPa 0,0 mm 17,6 km/h (3 Bft) W-SW 250 ° 0 min 0,000 mm 0,0 UV-I 0 W/m² -3,1 °C 11,8 °C 24,1 km/h (4 Bft)
23.02.2017 20:08 11,8 °C 11,8 °C 36 % 999,3 hPa 0,0 mm 25,4 km/h (4 Bft) W 277 ° 0 min 0,000 mm 0,0 UV-I 0 W/m² -2,8 °C 11,8 °C 40,2 km/h (6 Bft)
23.02.2017 20:09 11,8 °C 11,8 °C 35 % 999,3 hPa 0,0 mm 15,6 km/h (3 Bft) W 263 ° 0 min 0,000 mm 0,0 UV-I 0 W/m² -3,1 °C 11,8 °C 20,9 km/h (4 Bft)
23.02.2017 20:10 11,8 °C 11,8 °C 35 % 999,4 hPa 0,0 mm 19,9 km/h (4 Bft) W-SW 237 ° 0 min 0,000 mm 0,0 UV-I 0 W/m² -3,1 °C 11,8 °C 29,0 km/h (5 Bft)
23.02.2017 20:11 11,9 °C 11,9 °C 35 % 999,5 hPa 0,0 mm 18,3 km/h (3 Bft) W-SW 254 ° 0 min 0,000 mm 0,0 UV-I 0 W/m² -3,1 °C 11,9 °C 32,2 km/h (5 Bft)
23.02.2017 20:12 11,8 °C 11,9 °C 35 % 999,3 hPa 0,0 mm 14,2 km/h (3 Bft) W 280 ° 0 min 0,000 mm 0,0 UV-I 0 W/m² -3,1 °C 11,8 °C 19,3 km/h (3 Bft)
23.02.2017 20:13 11,8 °C 11,8 °C 35 % 999,4 hPa 0,0 mm 20,8 km/h (4 Bft) W-SW 257 ° 0 min 0,000 mm 0,0 UV-I 0 W/m² -3,1 °C 11,8 °C 32,2 km/h (5 Bft)
23.02.2017 20:14 11,8 °C 11,8 °C 35 % 999,4 hPa 0,0 mm 19,6 km/h (3 Bft) W-SW 255 ° 0 min 0,000 mm 0,0 UV-I 0 W/m² -3,1 °C 11,8 °C 25,7 km/h (4 Bft)
23.02.2017 20:15 11,8 °C 11,8 °C 35 % 999,4 hPa 0,0 mm 17,7 km/h (3 Bft) W 278 ° 0 min 0,000 mm 0,0 UV-I 0 W/m² -3,1 °C 11,8 °C 25,7 km/h (4 Bft)
23.02.2017 20:16 11,9 °C 11,9 °C 35 % 999,4 hPa 0,0 mm 22,5 km/h (4 Bft) W-SW 256 ° 0 min 0,000 mm 0,0 UV-I 0 W/m² -3,1 °C 11,9 °C 29,0 km/h (5 Bft)
23.02.2017 20:17 11,9 °C 11,9 °C 35 % 999,4 hPa 0,0 mm 11,7 km/h (2 Bft) W 259 ° 0 min 0,000 mm 0,0 UV-I 0 W/m² -3,1 °C 11,9 °C 22,5 km/h (4 Bft)
23.02.2017 20:18 11,8 °C 11,9 °C 36 % 999,4 hPa 0,0 mm 15,3 km/h (3 Bft) W-SW 251 ° 0 min 0,000 mm 0,0 UV-I 0 W/m² -2,8 °C 11,8 °C 22,5 km/h (4 Bft)
23.02.2017 20:19 11,8 °C 11,9 °C 35 % 999,3 hPa 0,0 mm 15,8 km/h (3 Bft) W-SW 256 ° 0 min 0,000 mm 0,0 UV-I 0 W/m² -3,1 °C 11,8 °C 20,9 km/h (4 Bft)
23.02.2017 20:20 11,8 °C 11,8 °C 36 % 999,4 hPa 0,0 mm 18,4 km/h (3 Bft) W 261 ° 0 min 0,000 mm 0,0 UV-I 0 W/m² -2,8 °C 11,8 °C 24,1 km/h (4 Bft)
23.02.2017 20:21 11,8 °C 11,8 °C 36 % 999,4 hPa 0,0 mm 20,9 km/h (4 Bft) W-SW 258 ° 0 min 0,000 mm 0,0 UV-I 0 W/m² -2,8 °C 11,8 °C 30,6 km/h (5 Bft)
23.02.2017 20:22 11,8 °C 11,8 °C 35 % 999,4 hPa 0,0 mm 18,7 km/h (3 Bft) W-SW 241 ° 0 min 0,000 mm 0,0 UV-I 0 W/m² -3,1 °C 11,8 °C 24,1 km/h (4 Bft)
23.02.2017 20:23 11,8 °C 11,8 °C 34 % 999,3 hPa 0,0 mm 16,7 km/h (3 Bft) SW 232 ° 0 min 0,000 mm 0,0 UV-I 0 W/m² -3,5 °C 11,8 °C 25,7 km/h (4 Bft)
23.02.2017 20:24 11,9 °C 11,9 °C 35 % 999,4 hPa 0,0 mm 15,8 km/h (3 Bft) W-SW 258 ° 0 min 0,000 mm 0,0 UV-I 0 W/m² -3,1 °C 11,9 °C 20,9 km/h (4 Bft)
23.02.2017 20:25 11,9 °C 11,9 °C 35 % 999,3 hPa 0,0 mm 24,2 km/h (4 Bft) W-SW 258 ° 0 min 0,000 mm 0,0 UV-I 0 W/m² -3,1 °C 11,9 °C 33,8 km/h (5 Bft)
23.02.2017 20:26 11,9 °C 11,9 °C 35 % 999,4 hPa 0,0 mm 19,2 km/h (3 Bft) W 265 ° 0 min 0,000 mm 0,0 UV-I 0 W/m² -3,1 °C 11,9 °C 29,0 km/h (5 Bft)
23.02.2017 20:27 11,9 °C 12,0 °C 35 % 999,4 hPa 0,0 mm 25,7 km/h (4 Bft) W-SW 257 ° 0 min 0,000 mm 0,0 UV-I 0 W/m² -3,1 °C 11,9 °C 33,8 km/h (5 Bft)
23.02.2017 20:28 12,1 °C 12,1 °C 34 % 999,5 hPa 0,0 mm 21,7 km/h (4 Bft) W-SW 255 ° 0 min 0,000 mm 0,0 UV-I 0 W/m² -3,3 °C 12,1 °C 40,2 km/h (6 Bft)
23.02.2017 20:29 12,1 °C 12,1 °C 34 % 999,4 hPa 0,0 mm 26,9 km/h (4 Bft) W 265 ° 0 min 0,000 mm 0,0 UV-I 0 W/m² -3,3 °C 12,1 °C 43,5 km/h (6 Bft)
23.02.2017 20:30 12,2 °C 12,2 °C 34 % 999,3 hPa 0,0 mm 21,3 km/h (4 Bft) W 262 ° 0 min 0,000 mm 0,0 UV-I 0 W/m² -3,2 °C 12,2 °C 30,6 km/h (5 Bft)
23.02.2017 20:31 12,2 °C 12,2 °C 34 % 999,2 hPa 0,0 mm 18,9 km/h (3 Bft) W 262 ° 0 min 0,000 mm 0,0 UV-I 0 W/m² -3,2 °C 12,2 °C 27,4 km/h (4 Bft)
23.02.2017 20:32 12,1 °C 12,2 °C 34 % 999,4 hPa 0,0 mm 21,1 km/h (4 Bft) W 280 ° 0 min 0,000 mm 0,0 UV-I 0 W/m² -3,3 °C 12,1 °C 40,2 km/h (6 Bft)
23.02.2017 20:33 12,2 °C 12,2 °C 34 % 999,3 hPa 0,0 mm 37,7 km/h (5 Bft) SW 221 ° 0 min 0,000 mm 0,0 UV-I 0 W/m² -3,2 °C 12,2 °C 49,9 km/h (6 Bft)
23.02.2017 20:34 12,2 °C 12,2 °C 34 % 999,3 hPa 0,0 mm 29,8 km/h (5 Bft) W-SW 249 ° 0 min 0,000 mm 0,0 UV-I 0 W/m² -3,2 °C 12,2 °C 43,5 km/h (6 Bft)
23.02.2017 20:35 12,2 °C 12,2 °C 34 % 999,4 hPa 0,0 mm 24,6 km/h (4 Bft) W 281 ° 0 min 0,000 mm 0,0 UV-I 0 W/m² -3,2 °C 12,2 °C 40,2 km/h (6 Bft)
23.02.2017 20:36 12,3 °C 12,3 °C 34 % 999,3 hPa 0,0 mm 21,1 km/h (4 Bft) W 269 ° 0 min 0,000 mm 0,0 UV-I 0 W/m² -3,1 °C 12,3 °C 30,6 km/h (5 Bft)
23.02.2017 20:37 12,3 °C 12,3 °C 34 % 999,2 hPa 0,0 mm 20,3 km/h (4 Bft) W 275 ° 0 min 0,000 mm 0,0 UV-I 0 W/m² -3,1 °C 12,3 °C 29,0 km/h (5 Bft)
23.02.2017 20:38 12,3 °C 12,3 °C 34 % 999,4 hPa 0,0 mm 18,2 km/h (3 Bft) W-NW 294 ° 0 min 0,000 mm 0,0 UV-I 0 W/m² -3,1 °C 12,3 °C 25,7 km/h (4 Bft)
23.02.2017 20:39 12,3 °C 12,3 °C 34 % 999,2 hPa 0,0 mm 27,3 km/h (4 Bft) W 274 ° 0 min 0,000 mm 0,0 UV-I 0 W/m² -3,1 °C 12,3 °C 45,1 km/h (6 Bft)
23.02.2017 20:40 12,3 °C 12,3 °C 34 % 999,3 hPa 0,0 mm 23,9 km/h (4 Bft) SW 234 ° 0 min 0,000 mm 0,0 UV-I 0 W/m² -3,1 °C 12,3 °C 37,0 km/h (5 Bft)
23.02.2017 20:41 12,3 °C 12,3 °C 33 % 999,2 hPa 0,0 mm 29,7 km/h (5 Bft) W 261 ° 0 min 0,000 mm 0,0 UV-I 0 W/m² -3,5 °C 12,3 °C 41,8 km/h (6 Bft)
23.02.2017 20:42 12,3 °C 12,3 °C 34 % 999,5 hPa 0,0 mm 28,2 km/h (4 Bft) W-NW 283 ° 0 min 0,000 mm 0,0 UV-I 0 W/m² -3,1 °C 12,3 °C 51,5 km/h (7 Bft)
23.02.2017 20:43 12,3 °C 12,3 °C 34 % 999,3 hPa 0,0 mm 25,7 km/h (4 Bft) W-SW 250 ° 0 min 0,000 mm 0,0 UV-I 0 W/m² -3,1 °C 12,3 °C 35,4 km/h (5 Bft)
23.02.2017 20:44 12,4 °C 12,4 °C 33 % 999,3 hPa 0,0 mm 20,5 km/h (4 Bft) W 280 ° 0 min 0,000 mm 0,0 UV-I 0 W/m² -3,4 °C 12,4 °C 29,0 km/h (5 Bft)
23.02.2017 20:45 12,3 °C 12,4 °C 34 % 999,3 hPa 0,0 mm 19,5 km/h (3 Bft) SW 236 ° 0 min 0,000 mm 0,0 UV-I 0 W/m² -3,1 °C 12,3 °C 30,6 km/h (5 Bft)
23.02.2017 20:46 12,3 °C 12,4 °C 33 % 999,3 hPa 0,0 mm 23,2 km/h (4 Bft) W 260 ° 0 min 0,000 mm 0,0 UV-I 0 W/m² -3,5 °C 12,3 °C 32,2 km/h (5 Bft)
23.02.2017 20:47 12,3 °C 12,3 °C 34 % 999,3 hPa 0,0 mm 24,0 km/h (4 Bft) W 274 ° 0 min 0,000 mm 0,0 UV-I 0 W/m² -3,1 °C 12,3 °C 32,2 km/h (5 Bft)
23.02.2017 20:48 12,3 °C 12,4 °C 33 % 999,3 hPa 0,0 mm 25,0 km/h (4 Bft) W-SW 248 ° 0 min 0,000 mm 0,0 UV-I 0 W/m² -3,5 °C 12,3 °C 37,0 km/h (5 Bft)
23.02.2017 20:49 12,3 °C 12,3 °C 34 % 999,3 hPa 0,0 mm 26,2 km/h (4 Bft) W-SW 242 ° 0 min 0,000 mm 0,0 UV-I 0 W/m² -3,1 °C 12,3 °C 38,6 km/h (5 Bft)
23.02.2017 20:50 12,3 °C 12,3 °C 34 % 999,2 hPa 0,0 mm 19,5 km/h (3 Bft) W-SW 255 ° 0 min 0,000 mm 0,0 UV-I 0 W/m² -3,1 °C 12,3 °C 24,1 km/h (4 Bft)
23.02.2017 20:51 12,3 °C 12,3 °C 34 % 999,3 hPa 0,0 mm 15,8 km/h (3 Bft) W 272 ° 0 min 0,000 mm 0,0 UV-I 0 W/m² -3,1 °C 12,3 °C 25,7 km/h (4 Bft)
23.02.2017 20:52 12,2 °C 12,3 °C 34 % 999,3 hPa 0,0 mm 21,9 km/h (4 Bft) W-NW 286 ° 0 min 0,000 mm 0,0 UV-I 0 W/m² -3,2 °C 12,2 °C 30,6 km/h (5 Bft)
23.02.2017 20:53 12,2 °C 12,2 °C 34 % 999,3 hPa 0,0 mm 26,2 km/h (4 Bft) W-SW 248 ° 0 min 0,000 mm 0,0 UV-I 0 W/m² -3,2 °C 12,2 °C 40,2 km/h (6 Bft)
23.02.2017 20:54 12,2 °C 12,2 °C 34 % 999,3 hPa 0,0 mm 25,8 km/h (4 Bft) W-SW 238 ° 0 min 0,000 mm 0,0 UV-I 0 W/m² -3,2 °C 12,2 °C 37,0 km/h (5 Bft)
23.02.2017 20:55 12,2 °C 12,2 °C 34 % 999,3 hPa 0,0 mm 33,8 km/h (5 Bft) S 175 ° 0 min 0,000 mm 0,0 UV-I 0 W/m² -3,2 °C 12,2 °C 46,7 km/h (6 Bft)
23.02.2017 20:56 12,3 °C 12,3 °C 34 % 999,3 hPa 0,0 mm 26,0 km/h (4 Bft) W 269 ° 0 min 0,000 mm 0,0 UV-I 0 W/m² -3,1 °C 12,3 °C 38,6 km/h (5 Bft)
23.02.2017 20:57 12,3 °C 12,3 °C 34 % 999,2 hPa 0,0 mm 30,6 km/h (5 Bft) W-SW 254 ° 0 min 0,000 mm 0,0 UV-I 0 W/m² -3,1 °C 12,3 °C 46,7 km/h (6 Bft)
23.02.2017 20:58 12,3 °C 12,3 °C 34 % 999,2 hPa 0,0 mm 24,1 km/h (4 Bft) W-NW 302 ° 0 min 0,000 mm 0,0 UV-I 0 W/m² -3,1 °C 12,3 °C 40,2 km/h (6 Bft)
23.02.2017 20:59 12,3 °C 12,4 °C 34 % 999,3 hPa 0,0 mm 19,2 km/h (3 Bft) W-SW 254 ° 0 min 0,000 mm 0,0 UV-I 0 W/m² -3,1 °C 12,3 °C 29,0 km/h (5 Bft)
23.02.2017 21:00 12,3 °C 12,3 °C 34 % 999,3 hPa 0,0 mm 18,4 km/h (3 Bft) W-SW 248 ° 0 min 0,000 mm 0,0 UV-I 0 W/m² -3,1 °C 12,3 °C 27,4 km/h (4 Bft)
23.02.2017 21:01 12,3 °C 12,3 °C 34 % 999,3 hPa 0,0 mm 15,0 km/h (3 Bft) SW 234 ° 0 min 0,152 mm 0,0 UV-I 0 W/m² -3,1 °C 12,3 °C 19,3 km/h (3 Bft)
23.02.2017 21:02 12,2 °C 12,3 °C 34 % 999,3 hPa 0,0 mm 11,6 km/h (2 Bft) W 259 ° 0 min 0,000 mm 0,0 UV-I 0 W/m² -3,2 °C 12,2 °C 17,7 km/h (3 Bft)
23.02.2017 21:03 12,2 °C 12,3 °C 34 % 999,4 hPa 0,0 mm 23,6 km/h (4 Bft) W-SW 242 ° 0 min 0,000 mm 0,0 UV-I 0 W/m² -3,2 °C 12,2 °C 35,4 km/h (5 Bft)
23.02.2017 21:04 12,2 °C 12,2 °C 34 % 999,3 hPa 0,0 mm 18,4 km/h (3 Bft) W-SW 251 ° 0 min 0,000 mm 0,0 UV-I 0 W/m² -3,2 °C 12,2 °C 27,4 km/h (4 Bft)
23.02.2017 21:05 12,2 °C 12,2 °C 34 % 999,3 hPa 0,0 mm 21,9 km/h (4 Bft) W-SW 249 ° 0 min 0,000 mm 0,0 UV-I 0 W/m² -3,2 °C 12,2 °C 37,0 km/h (5 Bft)
23.02.2017 21:06 12,2 °C 12,2 °C 34 % 999,2 hPa 0,0 mm 26,8 km/h (4 Bft) W 266 ° 0 min 0,000 mm 0,0 UV-I 0 W/m² -3,2 °C 12,2 °C 40,2 km/h (6 Bft)
23.02.2017 21:07 12,2 °C 12,2 °C 35 % 999,3 hPa 0,0 mm 20,5 km/h (4 Bft) W-SW 254 ° 0 min 0,000 mm 0,0 UV-I 0 W/m² -2,8 °C 12,2 °C 25,7 km/h (4 Bft)
23.02.2017 21:08 12,2 °C 12,2 °C 34 % 999,3 hPa 0,0 mm 16,3 km/h (3 Bft) W 259 ° 0 min 0,000 mm 0,0 UV-I 0 W/m² -3,2 °C 12,2 °C 20,9 km/h (4 Bft)
23.02.2017 21:09 12,2 °C 12,2 °C 34 % 999,4 hPa 0,0 mm 20,0 km/h (4 Bft) W-SW 250 ° 0 min 0,000 mm 0,0 UV-I 0 W/m² -3,2 °C 12,2 °C 25,7 km/h (4 Bft)
23.02.2017 21:10 12,1 °C 12,2 °C 35 % 999,3 hPa 0,0 mm 23,9 km/h (4 Bft) W 273 ° 0 min 0,000 mm 0,0 UV-I 0 W/m² -2,9 °C 12,1 °C 38,6 km/h (5 Bft)
23.02.2017 21:11 12,1 °C 12,1 °C 35 % 999,2 hPa 0,0 mm 21,4 km/h (4 Bft) W-SW 244 ° 0 min 0,000 mm 0,0 UV-I 0 W/m² -2,9 °C 12,1 °C 30,6 km/h (5 Bft)
23.02.2017 21:12 12,1 °C 12,1 °C 34 % 999,3 hPa 0,0 mm 22,7 km/h (4 Bft) W-SW 248 ° 0 min 0,000 mm 0,0 UV-I 0 W/m² -3,3 °C 12,1 °C 30,6 km/h (5 Bft)
23.02.2017 21:13 12,1 °C 12,1 °C 34 % 999,2 hPa 0,0 mm 20,4 km/h (4 Bft) W-SW 249 ° 0 min 0,000 mm 0,0 UV-I 0 W/m² -3,3 °C 12,1 °C 25,7 km/h (4 Bft)
23.02.2017 21:14 12,0 °C 12,1 °C 35 % 999,3 hPa 0,0 mm 15,4 km/h (3 Bft) W-SW 252 ° 0 min 0,000 mm 0,0 UV-I 0 W/m² -3,0 °C 12,0 °C 19,3 km/h (3 Bft)
23.02.2017 21:15 12,0 °C 12,0 °C 35 % 999,3 hPa 0,0 mm 15,2 km/h (3 Bft) SW 233 ° 0 min 0,000 mm 0,0 UV-I 0 W/m² -3,0 °C 12,0 °C 20,9 km/h (4 Bft)
23.02.2017 21:16 11,9 °C 12,0 °C 35 % 999,3 hPa 0,0 mm 15,9 km/h (3 Bft) S-SW 211 ° 0 min 0,000 mm 0,0 UV-I 0 W/m² -3,1 °C 11,9 °C 20,9 km/h (4 Bft)
23.02.2017 21:17 11,9 °C 11,9 °C 35 % 999,3 hPa 0,0 mm 16,4 km/h (3 Bft) W-SW 251 ° 0 min 0,000 mm 0,0 UV-I 0 W/m² -3,1 °C 11,9 °C 24,1 km/h (4 Bft)
23.02.2017 21:18 11,9 °C 11,9 °C 36 % 999,2 hPa 0,0 mm 17,2 km/h (3 Bft) W 280 ° 0 min 0,000 mm 0,0 UV-I 0 W/m² -2,7 °C 11,9 °C 27,4 km/h (4 Bft)
23.02.2017 21:19 11,8 °C 11,9 °C 36 % 999,2 hPa 0,0 mm 11,5 km/h (2 Bft) W-SW 250 ° 0 min 0,000 mm 0,0 UV-I 0 W/m² -2,8 °C 11,8 °C 16,1 km/h (3 Bft)
23.02.2017 21:20 11,8 °C 11,8 °C 35 % 999,2 hPa 0,0 mm 13,8 km/h (3 Bft) W-SW 240 ° 0 min 0,000 mm 0,0 UV-I 0 W/m² -3,1 °C 11,8 °C 19,3 km/h (3 Bft)
23.02.2017 21:21 11,7 °C 11,8 °C 36 % 999,2 hPa 0,0 mm 21,5 km/h (4 Bft) SW 234 ° 0 min 0,000 mm 0,0 UV-I 0 W/m² -2,9 °C 11,7 °C 29,0 km/h (5 Bft)
23.02.2017 21:22 11,7 °C 11,7 °C 36 % 999,2 hPa 0,0 mm 11,1 km/h (2 Bft) W-SW 247 ° 0 min 0,000 mm 0,0 UV-I 0 W/m² -2,9 °C 11,7 °C 17,7 km/h (3 Bft)
23.02.2017 21:23 11,7 °C 11,7 °C 36 % 999,2 hPa 0,0 mm 19,0 km/h (3 Bft) W-SW 257 ° 0 min 0,000 mm 0,0 UV-I 0 W/m² -2,9 °C 11,7 °C 24,1 km/h (4 Bft)
23.02.2017 21:24 11,7 °C 11,7 °C 36 % 999,2 hPa 0,0 mm 17,4 km/h (3 Bft) W 261 ° 0 min 0,000 mm 0,0 UV-I 0 W/m² -2,9 °C 11,7 °C 27,4 km/h (4 Bft)
23.02.2017 21:25 11,6 °C 11,7 °C 36 % 999,2 hPa 0,0 mm 15,6 km/h (3 Bft) W-SW 242 ° 0 min 0,000 mm 0,0 UV-I 0 W/m² -2,9 °C 11,6 °C 20,9 km/h (4 Bft)
23.02.2017 21:26 11,6 °C 11,6 °C 36 % 999,3 hPa 0,0 mm 14,2 km/h (3 Bft) S-SW 209 ° 0 min 0,000 mm 0,0 UV-I 0 W/m² -2,9 °C 11,6 °C 20,9 km/h (4 Bft)
23.02.2017 21:27 11,6 °C 11,6 °C 36 % 999,3 hPa 0,0 mm 15,3 km/h (3 Bft) W-SW 257 ° 0 min 0,000 mm 0,0 UV-I 0 W/m² -2,9 °C 11,6 °C 29,0 km/h (5 Bft)
23.02.2017 21:28 11,6 °C 11,6 °C 36 % 999,3 hPa 0,0 mm 14,8 km/h (3 Bft) W-SW 250 ° 0 min 0,000 mm 0,0 UV-I 0 W/m² -2,9 °C 11,6 °C 17,7 km/h (3 Bft)
23.02.2017 21:29 11,6 °C 11,6 °C 37 % 999,3 hPa 0,0 mm 15,5 km/h (3 Bft) W-SW 248 ° 0 min 0,000 mm 0,0 UV-I 0 W/m² -2,6 °C 11,6 °C 22,5 km/h (4 Bft)
23.02.2017 21:30 11,5 °C 11,6 °C 36 % 999,3 hPa 0,0 mm 11,6 km/h (2 Bft) W-SW 252 ° 0 min 0,000 mm 0,0 UV-I 0 W/m² -3,0 °C 11,5 °C 17,7 km/h (3 Bft)
23.02.2017 21:31 11,5 °C 11,5 °C 36 % 999,4 hPa 0,0 mm 17,8 km/h (3 Bft) W-SW 246 ° 0 min 0,000 mm 0,0 UV-I 0 W/m² -3,0 °C 11,5 °C 25,7 km/h (4 Bft)
23.02.2017 21:32 11,4 °C 11,5 °C 37 % 999,3 hPa 0,0 mm 18,4 km/h (3 Bft) W-SW 250 ° 0 min 0,000 mm 0,0 UV-I 0 W/m² -2,8 °C 11,4 °C 25,7 km/h (4 Bft)
23.02.2017 21:33 11,4 °C 11,5 °C 36 % 999,4 hPa 0,0 mm 15,1 km/h (3 Bft) W 261 ° 0 min 0,000 mm 0,0 UV-I 0 W/m² -3,1 °C 11,4 °C 17,7 km/h (3 Bft)
23.02.2017 21:34 11,4 °C 11,4 °C 38 % 999,4 hPa 0,0 mm 12,3 km/h (3 Bft) SW 225 ° 0 min 0,000 mm 0,0 UV-I 0 W/m² -2,4 °C 11,4 °C 19,3 km/h (3 Bft)
23.02.2017 21:35 11,4 °C 11,4 °C 36 % 999,4 hPa 0,0 mm 9,1 km/h (2 Bft) W-SW 252 ° 0 min 0,000 mm 0,0 UV-I 0 W/m² -3,1 °C 11,4 °C 12,9 km/h (3 Bft)
23.02.2017 21:36 11,4 °C 11,4 °C 36 % 999,4 hPa 0,0 mm 11,0 km/h (2 Bft) W-SW 238 ° 0 min 0,000 mm 0,0 UV-I 0 W/m² -3,1 °C 11,4 °C 16,1 km/h (3 Bft)
23.02.2017 21:37 11,4 °C 11,4 °C 37 % 999,3 hPa 0,0 mm 11,0 km/h (2 Bft) SW 226 ° 0 min 0,000 mm 0,0 UV-I 0 W/m² -2,8 °C 11,4 °C 16,1 km/h (3 Bft)
23.02.2017 21:38 11,4 °C 11,4 °C 37 % 999,2 hPa 0,0 mm 9,5 km/h (2 Bft) W-SW 244 ° 0 min 0,000 mm 0,0 UV-I 0 W/m² -2,8 °C 11,4 °C 14,5 km/h (3 Bft)
23.02.2017 21:39 11,4 °C 11,4 °C 37 % 999,3 hPa 0,0 mm 10,3 km/h (2 Bft) W-SW 244 ° 0 min 0,000 mm 0,0 UV-I 0 W/m² -2,8 °C 11,4 °C 16,1 km/h (3 Bft)
23.02.2017 21:40 11,4 °C 11,4 °C 37 % 999,3 hPa 0,0 mm 10,1 km/h (2 Bft) W-SW 257 ° 0 min 0,000 mm 0,0 UV-I 0 W/m² -2,8 °C 11,4 °C 16,1 km/h (3 Bft)
23.02.2017 21:41 11,3 °C 11,4 °C 37 % 999,3 hPa 0,0 mm 11,5 km/h (2 Bft) S-SW 207 ° 0 min 0,000 mm 0,0 UV-I 0 W/m² -2,8 °C 11,3 °C 17,7 km/h (3 Bft)
23.02.2017 21:42 11,3 °C 11,3 °C 37 % 999,4 hPa 0,0 mm 13,8 km/h (3 Bft) W-SW 247 ° 0 min 0,000 mm 0,0 UV-I 0 W/m² -2,8 °C 11,3 °C 20,9 km/h (4 Bft)
23.02.2017 21:43 11,3 °C 11,3 °C 38 % 999,3 hPa 0,0 mm 14,6 km/h (3 Bft) W 269 ° 0 min 0,000 mm 0,0 UV-I 0 W/m² -2,5 °C 11,3 °C 20,9 km/h (4 Bft)
23.02.2017 21:44 11,3 °C 11,3 °C 38 % 999,3 hPa 0,0 mm 9,9 km/h (2 Bft) W 264 ° 0 min 0,000 mm 0,0 UV-I 0 W/m² -2,5 °C 11,3 °C 16,1 km/h (3 Bft)
23.02.2017 21:45 11,2 °C 11,3 °C 38 % 999,4 hPa 0,0 mm 16,9 km/h (3 Bft) W 271 ° 0 min 0,000 mm 0,0 UV-I 0 W/m² -2,6 °C 11,2 °C 22,5 km/h (4 Bft)
23.02.2017 21:46 11,2 °C 11,2 °C 37 % 999,4 hPa 0,0 mm 16,1 km/h (3 Bft) W-SW 257 ° 0 min 0,000 mm 0,0 UV-I 0 W/m² -2,9 °C 11,2 °C 20,9 km/h (4 Bft)
23.02.2017 21:47 11,2 °C 11,2 °C 38 % 999,4 hPa 0,0 mm 14,9 km/h (3 Bft) W 259 ° 0 min 0,000 mm 0,0 UV-I 0 W/m² -2,6 °C 11,2 °C 19,3 km/h (3 Bft)
23.02.2017 21:48 11,2 °C 11,2 °C 39 % 999,3 hPa 0,0 mm 9,2 km/h (2 Bft) S-SW 211 ° 0 min 0,000 mm 0,0 UV-I 0 W/m² -2,2 °C 11,2 °C 16,1 km/h (3 Bft)
23.02.2017 21:49 11,2 °C 11,2 °C 38 % 999,4 hPa 0,0 mm 8,9 km/h (2 Bft) W-NW 294 ° 0 min 0,000 mm 0,0 UV-I 0 W/m² -2,6 °C 11,2 °C 12,9 km/h (3 Bft)
23.02.2017 21:50 11,2 °C 11,2 °C 37 % 999,4 hPa 0,0 mm 17,6 km/h (3 Bft) W-SW 257 ° 0 min 0,000 mm 0,0 UV-I 0 W/m² -2,9 °C 11,2 °C 25,7 km/h (4 Bft)
23.02.2017 21:51 11,3 °C 11,3 °C 37 % 999,3 hPa 0,0 mm 16,3 km/h (3 Bft) W 264 ° 0 min 0,000 mm 0,0 UV-I 0 W/m² -2,8 °C 11,3 °C 20,9 km/h (4 Bft)
23.02.2017 21:52 11,3 °C 11,3 °C 38 % 999,3 hPa 0,0 mm 15,7 km/h (3 Bft) W-SW 239 ° 0 min 0,000 mm 0,0 UV-I 0 W/m² -2,5 °C 11,3 °C 20,9 km/h (4 Bft)
23.02.2017 21:53 11,3 °C 11,3 °C 37 % 999,3 hPa 0,0 mm 18,8 km/h (3 Bft) W-SW 251 ° 0 min 0,000 mm 0,0 UV-I 0 W/m² -2,8 °C 11,3 °C 25,7 km/h (4 Bft)
23.02.2017 21:54 11,4 °C 11,4 °C 37 % 999,3 hPa 0,0 mm 13,9 km/h (3 Bft) W-SW 239 ° 0 min 0,000 mm 0,0 UV-I 0 W/m² -2,8 °C 11,4 °C 20,9 km/h (4 Bft)
23.02.2017 21:55 11,4 °C 11,4 °C 37 % 999,2 hPa 0,0 mm 16,9 km/h (3 Bft) W-NW 290 ° 0 min 0,000 mm 0,0 UV-I 0 W/m² -2,8 °C 11,4 °C 29,0 km/h (5 Bft)
23.02.2017 21:56 11,5 °C 11,5 °C 37 % 999,2 hPa 0,0 mm 18,1 km/h (3 Bft) W-SW 252 ° 0 min 0,000 mm 0,0 UV-I 0 W/m² -2,7 °C 11,5 °C 24,1 km/h (4 Bft)
23.02.2017 21:57 11,5 °C 11,5 °C 38 % 999,3 hPa 0,0 mm 17,9 km/h (3 Bft) W-SW 242 ° 0 min 0,000 mm 0,0 UV-I 0 W/m² -2,3 °C 11,5 °C 24,1 km/h (4 Bft)
23.02.2017 21:58 11,5 °C 11,5 °C 38 % 999,3 hPa 0,0 mm 18,3 km/h (3 Bft) W-SW 248 ° 0 min 0,000 mm 0,0 UV-I 0 W/m² -2,3 °C 11,5 °C 25,7 km/h (4 Bft)
23.02.2017 21:59 11,5 °C 11,5 °C 38 % 999,4 hPa 0,0 mm 19,1 km/h (3 Bft) W 277 ° 0 min 0,000 mm 0,0 UV-I 0 W/m² -2,3 °C 11,5 °C 24,1 km/h (4 Bft)
23.02.2017 22:00 11,5 °C 11,5 °C 38 % 999,5 hPa 0,0 mm 21,2 km/h (4 Bft) W-NW 286 ° 0 min 0,000 mm 0,0 UV-I 0 W/m² -2,3 °C 11,5 °C 33,8 km/h (5 Bft)
23.02.2017 22:01 11,6 °C 11,6 °C 37 % 999,4 hPa 0,0 mm 23,5 km/h (4 Bft) W 278 ° 0 min 0,127 mm 0,0 UV-I 0 W/m² -2,6 °C 11,6 °C 32,2 km/h (5 Bft)
23.02.2017 22:02 11,7 °C 11,7 °C 37 % 999,5 hPa 0,0 mm 17,8 km/h (3 Bft) SW 235 ° 0 min 0,000 mm 0,0 UV-I 0 W/m² -2,5 °C 11,7 °C 27,4 km/h (4 Bft)
23.02.2017 22:03 11,7 °C 11,7 °C 37 % 999,3 hPa 0,0 mm 19,7 km/h (3 Bft) W-SW 258 ° 0 min 0,000 mm 0,0 UV-I 0 W/m² -2,5 °C 11,7 °C 29,0 km/h (5 Bft)
23.02.2017 22:04 11,8 °C 11,8 °C 37 % 999,2 hPa 0,0 mm 21,5 km/h (4 Bft) W 273 ° 0 min 0,000 mm 0,0 UV-I 0 W/m² -2,4 °C 11,8 °C 32,2 km/h (5 Bft)
23.02.2017 22:05 11,8 °C 11,8 °C 37 % 999,2 hPa 0,0 mm 18,4 km/h (3 Bft) SW 235 ° 0 min 0,000 mm 0,0 UV-I 0 W/m² -2,4 °C 11,8 °C 25,7 km/h (4 Bft)
23.02.2017 22:06 11,8 °C 11,9 °C 37 % 999,2 hPa 0,0 mm 20,7 km/h (4 Bft) W 268 ° 0 min 0,000 mm 0,0 UV-I 0 W/m² -2,4 °C 11,8 °C 27,4 km/h (4 Bft)
23.02.2017 22:07 11,9 °C 11,9 °C 37 % 999,3 hPa 0,0 mm 22,5 km/h (4 Bft) W 275 ° 0 min 0,000 mm 0,0 UV-I 0 W/m² -2,3 °C 11,9 °C 32,2 km/h (5 Bft)
23.02.2017 22:08 11,9 °C 11,9 °C 37 % 999,3 hPa 0,0 mm 20,9 km/h (4 Bft) W-SW 244 ° 0 min 0,000 mm 0,0 UV-I 0 W/m² -2,3 °C 11,9 °C 25,7 km/h (4 Bft)
23.02.2017 22:09 11,9 °C 11,9 °C 36 % 999,4 hPa 0,0 mm 24,9 km/h (4 Bft) W-NW 299 ° 0 min 0,000 mm 0,0 UV-I 0 W/m² -2,7 °C 11,9 °C 29,0 km/h (5 Bft)
23.02.2017 22:10 12,0 °C 12,0 °C 36 % 999,4 hPa 0,0 mm 23,3 km/h (4 Bft) W-NW 289 ° 0 min 0,000 mm 0,0 UV-I 0 W/m² -2,6 °C 12,0 °C 35,4 km/h (5 Bft)
23.02.2017 22:11 12,1 °C 12,1 °C 36 % 999,5 hPa 0,0 mm 19,8 km/h (3 Bft) W-SW 257 ° 0 min 0,000 mm 0,0 UV-I 0 W/m² -2,5 °C 12,1 °C 32,2 km/h (5 Bft)
23.02.2017 22:12 12,1 °C 12,1 °C 36 % 999,5 hPa 0,0 mm 23,8 km/h (4 Bft) W-SW 244 ° 0 min 0,000 mm 0,0 UV-I 0 W/m² -2,5 °C 12,1 °C 29,0 km/h (5 Bft)
23.02.2017 22:13 12,1 °C 12,1 °C 37 % 999,4 hPa 0,0 mm 22,8 km/h (4 Bft) W-SW 250 ° 0 min 0,000 mm 0,0 UV-I 0 W/m² -2,1 °C 12,1 °C 37,0 km/h (5 Bft)
23.02.2017 22:14 12,1 °C 12,1 °C 37 % 999,3 hPa 0,0 mm 19,1 km/h (3 Bft) W-SW 245 ° 0 min 0,000 mm 0,0 UV-I 0 W/m² -2,1 °C 12,1 °C 27,4 km/h (4 Bft)
23.02.2017 22:15 12,1 °C 12,1 °C 37 % 999,4 hPa 0,0 mm 17,3 km/h (3 Bft) W-NW 295 ° 0 min 0,000 mm 0,0 UV-I 0 W/m² -2,1 °C 12,1 °C 25,7 km/h (4 Bft)
23.02.2017 22:16 12,1 °C 12,1 °C 37 % 999,3 hPa 0,0 mm 15,6 km/h (3 Bft) W 273 ° 0 min 0,000 mm 0,0 UV-I 0 W/m² -2,1 °C 12,1 °C 22,5 km/h (4 Bft)
23.02.2017 22:17 12,1 °C 12,1 °C 37 % 999,4 hPa 0,0 mm 14,6 km/h (3 Bft) W 267 ° 0 min 0,000 mm 0,0 UV-I 0 W/m² -2,1 °C 12,1 °C 25,7 km/h (4 Bft)
23.02.2017 22:18 12,1 °C 12,1 °C 37 % 999,4 hPa 0,0 mm 16,8 km/h (3 Bft) W 272 ° 0 min 0,000 mm 0,0 UV-I 0 W/m² -2,1 °C 12,1 °C 24,1 km/h (4 Bft)
23.02.2017 22:19 12,1 °C 12,1 °C 37 % 999,4 hPa 0,0 mm 16,3 km/h (3 Bft) W 281 ° 0 min 0,000 mm 0,0 UV-I 0 W/m² -2,1 °C 12,1 °C 25,7 km/h (4 Bft)
23.02.2017 22:20 11,9 °C 12,1 °C 37 % 999,3 hPa 0,0 mm 15,8 km/h (3 Bft) W-SW 254 ° 0 min 0,000 mm 0,0 UV-I 0 W/m² -2,3 °C 11,9 °C 20,9 km/h (4 Bft)
23.02.2017 22:21 11,9 °C 12,0 °C 37 % 999,2 hPa 0,0 mm 15,4 km/h (3 Bft) W 260 ° 0 min 0,000 mm 0,0 UV-I 0 W/m² -2,3 °C 11,9 °C 20,9 km/h (4 Bft)
23.02.2017 22:22 11,9 °C 11,9 °C 38 % 999,4 hPa 0,0 mm 20,5 km/h (4 Bft) W 261 ° 0 min 0,000 mm 0,0 UV-I 0 W/m² -2,0 °C 11,9 °C 24,1 km/h (4 Bft)
23.02.2017 22:23 11,9 °C 11,9 °C 38 % 999,3 hPa 0,0 mm 19,8 km/h (3 Bft) W 263 ° 0 min 0,000 mm 0,0 UV-I 0 W/m² -2,0 °C 11,9 °C 24,1 km/h (4 Bft)
23.02.2017 22:24 11,9 °C 11,9 °C 38 % 999,3 hPa 0,0 mm 13,0 km/h (3 Bft) W 268 ° 0 min 0,000 mm 0,0 UV-I 0 W/m² -2,0 °C 11,9 °C 19,3 km/h (3 Bft)
23.02.2017 22:25 11,8 °C 11,9 °C 39 % 999,4 hPa 0,0 mm 16,8 km/h (3 Bft) W 262 ° 0 min 0,000 mm 0,0 UV-I 0 W/m² -1,7 °C 11,8 °C 22,5 km/h (4 Bft)
23.02.2017 22:26 11,8 °C 11,8 °C 38 % 999,4 hPa 0,0 mm 21,9 km/h (4 Bft) W 262 ° 0 min 0,000 mm 0,0 UV-I 0 W/m² -2,0 °C 11,8 °C 30,6 km/h (5 Bft)
23.02.2017 22:27 11,7 °C 11,8 °C 39 % 999,4 hPa 0,0 mm 18,2 km/h (3 Bft) W 268 ° 0 min 0,000 mm 0,0 UV-I 0 W/m² -1,8 °C 11,7 °C 27,4 km/h (4 Bft)
23.02.2017 22:28 11,7 °C 11,7 °C 39 % 999,4 hPa 0,0 mm 16,6 km/h (3 Bft) W 261 ° 0 min 0,000 mm 0,0 UV-I 0 W/m² -1,8 °C 11,7 °C 32,2 km/h (5 Bft)
23.02.2017 22:29 11,7 °C 11,7 °C 38 % 999,3 hPa 0,0 mm 20,8 km/h (4 Bft) W-SW 244 ° 0 min 0,000 mm 0,0 UV-I 0 W/m² -2,1 °C 11,7 °C 35,4 km/h (5 Bft)
23.02.2017 22:30 11,7 °C 11,7 °C 39 % 999,4 hPa 0,0 mm 21,5 km/h (4 Bft) W-SW 251 ° 0 min 0,000 mm 0,0 UV-I 0 W/m² -1,8 °C 11,7 °C 37,0 km/h (5 Bft)
23.02.2017 22:31 11,7 °C 11,7 °C 39 % 999,4 hPa 0,0 mm 12,9 km/h (3 Bft) W-SW 240 ° 0 min 0,000 mm 0,0 UV-I 0 W/m² -1,8 °C 11,7 °C 17,7 km/h (3 Bft)
23.02.2017 22:32 11,6 °C 11,7 °C 39 % 999,3 hPa 0,0 mm 15,0 km/h (3 Bft) W-SW 248 ° 0 min 0,000 mm 0,0 UV-I 0 W/m² -1,9 °C 11,6 °C 29,0 km/h (5 Bft)
23.02.2017 22:33 11,6 °C 11,6 °C 39 % 999,4 hPa 0,0 mm 19,6 km/h (3 Bft) W-SW 239 ° 0 min 0,000 mm 0,0 UV-I 0 W/m² -1,9 °C 11,6 °C 29,0 km/h (5 Bft)
23.02.2017 22:34 11,6 °C 11,6 °C 39 % 999,4 hPa 0,0 mm 23,1 km/h (4 Bft) W 274 ° 0 min 0,000 mm 0,0 UV-I 0 W/m² -1,9 °C 11,6 °C 30,6 km/h (5 Bft)
23.02.2017 22:35 11,5 °C 11,6 °C 39 % 999,3 hPa 0,0 mm 16,4 km/h (3 Bft) SW 236 ° 0 min 0,000 mm 0,0 UV-I 0 W/m² -2,0 °C 11,5 °C 30,6 km/h (5 Bft)
23.02.2017 22:36 11,4 °C 11,5 °C 40 % 999,3 hPa 0,0 mm 14,7 km/h (3 Bft) W-SW 249 ° 0 min 0,000 mm 0,0 UV-I 0 W/m² -1,7 °C 11,4 °C 20,9 km/h (4 Bft)
23.02.2017 22:37 11,4 °C 11,4 °C 39 % 999,3 hPa 0,0 mm 21,0 km/h (4 Bft) W 269 ° 0 min 0,000 mm 0,0 UV-I 0 W/m² -2,0 °C 11,4 °C 37,0 km/h (5 Bft)
23.02.2017 22:38 11,3 °C 11,4 °C 40 % 999,4 hPa 0,0 mm 17,4 km/h (3 Bft) W-NW 286 ° 0 min 0,000 mm 0,0 UV-I 0 W/m² -1,8 °C 11,3 °C 20,9 km/h (4 Bft)
23.02.2017 22:39 11,3 °C 11,4 °C 40 % 999,4 hPa 0,0 mm 13,9 km/h (3 Bft) W 273 ° 0 min 0,000 mm 0,0 UV-I 0 W/m² -1,8 °C 11,3 °C 24,1 km/h (4 Bft)
23.02.2017 22:40 11,3 °C 11,3 °C 41 % 999,4 hPa 0,0 mm 12,7 km/h (3 Bft) W-SW 257 ° 0 min 0,000 mm 0,0 UV-I 0 W/m² -1,5 °C 11,3 °C 20,9 km/h (4 Bft)
23.02.2017 22:41 11,2 °C 11,3 °C 41 % 999,5 hPa 0,0 mm 17,9 km/h (3 Bft) W-NW 297 ° 0 min 0,000 mm 0,0 UV-I 0 W/m² -1,6 °C 11,2 °C 25,7 km/h (4 Bft)
23.02.2017 22:42 11,2 °C 11,2 °C 41 % 999,5 hPa 0,0 mm 14,8 km/h (3 Bft) W 278 ° 0 min 0,000 mm 0,0 UV-I 0 W/m² -1,6 °C 11,2 °C 20,9 km/h (4 Bft)
23.02.2017 22:43 11,2 °C 11,2 °C 42 % 999,4 hPa 0,0 mm 21,5 km/h (4 Bft) W-NW 298 ° 0 min 0,000 mm 0,0 UV-I 0 W/m² -1,2 °C 11,2 °C 29,0 km/h (5 Bft)
23.02.2017 22:44 11,1 °C 11,2 °C 42 % 999,5 hPa 0,0 mm 19,9 km/h (4 Bft) SW 226 ° 0 min 0,000 mm 0,0 UV-I 0 W/m² -1,3 °C 11,1 °C 27,4 km/h (4 Bft)
23.02.2017 22:45 11,1 °C 11,2 °C 43 % 999,5 hPa 0,0 mm 22,3 km/h (4 Bft) W-NW 294 ° 0 min 0,000 mm 0,0 UV-I 0 W/m² -1,0 °C 11,1 °C 35,4 km/h (5 Bft)
23.02.2017 22:46 11,1 °C 11,1 °C 43 % 999,5 hPa 0,0 mm 19,4 km/h (3 Bft) W 273 ° 0 min 0,000 mm 0,0 UV-I 0 W/m² -1,0 °C 11,1 °C 29,0 km/h (5 Bft)
23.02.2017 22:47 11,0 °C 11,1 °C 43 % 999,5 hPa 0,0 mm 17,7 km/h (3 Bft) W 279 ° 0 min 0,000 mm 0,0 UV-I 0 W/m² -1,1 °C 11,0 °C 22,5 km/h (4 Bft)
23.02.2017 22:48 10,9 °C 11,0 °C 44 % 999,5 hPa 0,0 mm 14,9 km/h (3 Bft) W-NW 298 ° 0 min 0,000 mm 0,0 UV-I 0 W/m² -0,9 °C 10,9 °C 24,1 km/h (4 Bft)
23.02.2017 22:49 10,9 °C 10,9 °C 45 % 999,5 hPa 0,0 mm 21,2 km/h (4 Bft) W 271 ° 0 min 0,000 mm 0,0 UV-I 0 W/m² -0,6 °C 10,9 °C 29,0 km/h (5 Bft)
23.02.2017 22:50 10,8 °C 10,9 °C 45 % 999,6 hPa 0,0 mm 25,7 km/h (4 Bft) W 271 ° 0 min 0,000 mm 0,0 UV-I 0 W/m² -0,6 °C 10,8 °C 38,6 km/h (5 Bft)
23.02.2017 22:51 10,8 °C 10,8 °C 45 % 999,6 hPa 0,0 mm 22,3 km/h (4 Bft) W-NW 296 ° 0 min 0,000 mm 0,0 UV-I 0 W/m² -0,6 °C 10,8 °C 37,0 km/h (5 Bft)
23.02.2017 22:52 10,7 °C 10,8 °C 46 % 999,5 hPa 0,0 mm 25,1 km/h (4 Bft) W-NW 302 ° 0 min 0,000 mm 0,0 UV-I 0 W/m² -0,4 °C 10,7 °C 35,4 km/h (5 Bft)
23.02.2017 22:53 10,7 °C 10,7 °C 46 % 999,5 hPa 0,0 mm 20,6 km/h (4 Bft) SW 215 ° 0 min 0,000 mm 0,0 UV-I 0 W/m² -0,4 °C 10,7 °C 30,6 km/h (5 Bft)
23.02.2017 22:54 10,7 °C 10,7 °C 46 % 999,4 hPa 0,0 mm 22,1 km/h (4 Bft) W-NW 285 ° 0 min 0,000 mm 0,0 UV-I 0 W/m² -0,4 °C 10,7 °C 38,6 km/h (5 Bft)
23.02.2017 22:55 10,6 °C 10,7 °C 47 % 999,4 hPa 0,0 mm 21,7 km/h (4 Bft) SW 233 ° 0 min 0,000 mm 0,0 UV-I 0 W/m² -0,2 °C 10,6 °C 32,2 km/h (5 Bft)
23.02.2017 22:56 10,6 °C 10,6 °C 47 % 999,4 hPa 0,0 mm 23,0 km/h (4 Bft) W 273 ° 0 min 0,000 mm 0,0 UV-I 0 W/m² -0,2 °C 10,6 °C 37,0 km/h (5 Bft)
23.02.2017 22:57 10,4 °C 10,6 °C 47 % 999,5 hPa 0,0 mm 21,5 km/h (4 Bft) W 281 ° 0 min 0,000 mm 0,0 UV-I 0 W/m² -0,4 °C 10,4 °C 29,0 km/h (5 Bft)
23.02.2017 22:58 10,4 °C 10,4 °C 47 % 999,4 hPa 0,0 mm 21,0 km/h (4 Bft) W 279 ° 0 min 0,000 mm 0,0 UV-I 0 W/m² -0,4 °C 10,4 °C 27,4 km/h (4 Bft)
23.02.2017 22:59 10,3 °C 10,4 °C 48 % 999,4 hPa 0,0 mm 24,7 km/h (4 Bft) W-NW 291 ° 0 min 0,000 mm 0,0 UV-I 0 W/m² -0,2 °C 10,3 °C 32,2 km/h (5 Bft)
23.02.2017 23:00 10,3 °C 10,3 °C 48 % 999,4 hPa 0,0 mm 17,8 km/h (3 Bft) SW 225 ° 0 min 0,000 mm 0,0 UV-I 0 W/m² -0,2 °C 10,3 °C 25,7 km/h (4 Bft)
23.02.2017 23:01 10,3 °C 10,3 °C 48 % 999,5 hPa 0,0 mm 18,7 km/h (3 Bft) W-SW 249 ° 0 min 0,127 mm 0,0 UV-I 0 W/m² -0,2 °C 10,3 °C 27,4 km/h (4 Bft)
23.02.2017 23:02 10,3 °C 10,3 °C 49 % 999,5 hPa 0,0 mm 24,7 km/h (4 Bft) W-NW 287 ° 0 min 0,000 mm 0,0 UV-I 0 W/m² 0,1 °C 10,3 °C 33,8 km/h (5 Bft)
23.02.2017 23:03 10,3 °C 10,3 °C 49 % 999,6 hPa 0,0 mm 18,6 km/h (3 Bft) NW 304 ° 0 min 0,000 mm 0,0 UV-I 0 W/m² 0,1 °C 10,3 °C 29,0 km/h (5 Bft)
23.02.2017 23:04 10,2 °C 10,3 °C 50 % 999,6 hPa 0,0 mm 17,3 km/h (3 Bft) W-NW 296 ° 0 min 0,000 mm 0,0 UV-I 0 W/m² 0,3 °C 10,2 °C 32,2 km/h (5 Bft)
23.02.2017 23:05 10,2 °C 10,2 °C 50 % 999,7 hPa 0,0 mm 23,2 km/h (4 Bft) W 261 ° 0 min 0,000 mm 0,0 UV-I 0 W/m² 0,3 °C 10,2 °C 41,8 km/h (6 Bft)
23.02.2017 23:06 10,2 °C 10,2 °C 50 % 999,7 hPa 0,0 mm 26,2 km/h (4 Bft) W-SW 239 ° 0 min 0,000 mm 0,0 UV-I 0 W/m² 0,3 °C 10,2 °C 51,5 km/h (7 Bft)
23.02.2017 23:07 10,1 °C 10,2 °C 51 % 999,8 hPa 0,0 mm 29,5 km/h (5 Bft) W-NW 291 ° 0 min 0,000 mm 0,0 UV-I 0 W/m² 0,4 °C 10,1 °C 40,2 km/h (6 Bft)
23.02.2017 23:08 10,1 °C 10,2 °C 51 % 999,7 hPa 0,0 mm 20,1 km/h (4 Bft) W 269 ° 0 min 0,000 mm 0,0 UV-I 0 W/m² 0,4 °C 10,1 °C 24,1 km/h (4 Bft)
23.02.2017 23:09 10,1 °C 10,1 °C 51 % 999,7 hPa 0,0 mm 19,4 km/h (3 Bft) W 259 ° 0 min 0,000 mm 0,0 UV-I 0 W/m² 0,4 °C 10,1 °C 25,7 km/h (4 Bft)
23.02.2017 23:10 10,1 °C 10,1 °C 51 % 999,6 hPa 0,0 mm 21,0 km/h (4 Bft) W 269 ° 0 min 0,000 mm 0,0 UV-I 0 W/m² 0,4 °C 10,1 °C 30,6 km/h (5 Bft)
23.02.2017 23:11 10,1 °C 10,1 °C 52 % 999,7 hPa 0,0 mm 18,0 km/h (3 Bft) W-NW 296 ° 0 min 0,000 mm 0,0 UV-I 0 W/m² 0,7 °C 10,1 °C 24,1 km/h (4 Bft)
23.02.2017 23:12 10,1 °C 10,1 °C 52 % 999,5 hPa 0,0 mm 24,8 km/h (4 Bft) W-SW 247 ° 0 min 0,000 mm 0,0 UV-I 0 W/m² 0,7 °C 10,1 °C 38,6 km/h (5 Bft)
23.02.2017 23:13 10,1 °C 10,1 °C 53 % 999,5 hPa 0,0 mm 19,4 km/h (3 Bft) W-SW 239 ° 0 min 0,000 mm 0,0 UV-I 0 W/m² 1,0 °C 10,1 °C 27,4 km/h (4 Bft)
23.02.2017 23:14 10,0 °C 10,1 °C 53 % 999,6 hPa 0,0 mm 19,0 km/h (3 Bft) W-SW 237 ° 0 min 0,000 mm 0,0 UV-I 0 W/m² 0,9 °C 7,5 °C 29,0 km/h (5 Bft)
23.02.2017 23:15 10,0 °C 10,0 °C 53 % 999,7 hPa 0,0 mm 26,6 km/h (4 Bft) W-SW 248 ° 0 min 0,000 mm 0,0 UV-I 0 W/m² 0,9 °C 6,8 °C 35,4 km/h (5 Bft)
23.02.2017 23:16 10,0 °C 10,0 °C 53 % 999,6 hPa 0,0 mm 24,3 km/h (4 Bft) W-SW 246 ° 0 min 0,000 mm 0,0 UV-I 0 W/m² 0,9 °C 7,0 °C 30,6 km/h (5 Bft)
23.02.2017 23:17 9,9 °C 10,0 °C 54 % 999,6 hPa 0,0 mm 17,6 km/h (3 Bft) W-SW 252 ° 0 min 0,000 mm 0,0 UV-I 0 W/m² 1,0 °C 7,5 °C 29,0 km/h (5 Bft)
23.02.2017 23:18 9,9 °C 9,9 °C 54 % 999,6 hPa 0,0 mm 13,1 km/h (3 Bft) W-SW 244 ° 0 min 0,000 mm 0,0 UV-I 0 W/m² 1,0 °C 8,0 °C 20,9 km/h (4 Bft)
23.02.2017 23:19 9,8 °C 9,9 °C 54 % 999,5 hPa 0,0 mm 18,1 km/h (3 Bft) W-NW 301 ° 0 min 0,000 mm 0,0 UV-I 0 W/m² 0,9 °C 7,3 °C 27,4 km/h (4 Bft)
23.02.2017 23:20 9,8 °C 9,8 °C 54 % 999,6 hPa 0,0 mm 25,1 km/h (4 Bft) W-SW 257 ° 0 min 0,000 mm 0,0 UV-I 0 W/m² 0,9 °C 6,7 °C 35,4 km/h (5 Bft)
23.02.2017 23:21 9,8 °C 9,8 °C 54 % 999,7 hPa 0,0 mm 25,7 km/h (4 Bft) W 278 ° 0 min 0,000 mm 0,0 UV-I 0 W/m² 0,9 °C 6,6 °C 38,6 km/h (5 Bft)
23.02.2017 23:22 9,8 °C 9,8 °C 55 % 999,6 hPa 0,0 mm 17,5 km/h (3 Bft) W-SW 245 ° 0 min 0,000 mm 0,0 UV-I 0 W/m² 1,2 °C 7,4 °C 25,7 km/h (4 Bft)
23.02.2017 23:23 9,7 °C 9,8 °C 55 % 999,6 hPa 0,0 mm 14,8 km/h (3 Bft) W-SW 242 ° 0 min 0,000 mm 0,0 UV-I 0 W/m² 1,1 °C 7,6 °C 20,9 km/h (4 Bft)
23.02.2017 23:24 9,7 °C 9,8 °C 55 % 999,5 hPa 0,0 mm 20,5 km/h (4 Bft) W-SW 247 ° 0 min 0,000 mm 0,0 UV-I 0 W/m² 1,1 °C 6,9 °C 30,6 km/h (5 Bft)
23.02.2017 23:25 9,7 °C 9,7 °C 55 % 999,6 hPa 0,0 mm 19,1 km/h (3 Bft) W-SW 244 ° 0 min 0,000 mm 0,0 UV-I 0 W/m² 1,1 °C 7,1 °C 29,0 km/h (5 Bft)
23.02.2017 23:26 9,7 °C 9,7 °C 55 % 999,6 hPa 0,0 mm 23,1 km/h (4 Bft) SW 232 ° 0 min 0,000 mm 0,0 UV-I 0 W/m² 1,1 °C 6,7 °C 37,0 km/h (5 Bft)
23.02.2017 23:27 9,7 °C 9,7 °C 56 % 999,7 hPa 0,0 mm 30,5 km/h (5 Bft) W-SW 238 ° 0 min 0,000 mm 0,0 UV-I 0 W/m² 1,4 °C 6,1 °C 41,8 km/h (6 Bft)
23.02.2017 23:28 9,7 °C 9,7 °C 56 % 999,7 hPa 0,0 mm 20,5 km/h (4 Bft) W 267 ° 0 min 0,000 mm 0,0 UV-I 0 W/m² 1,4 °C 6,9 °C 37,0 km/h (5 Bft)
23.02.2017 23:29 9,7 °C 9,7 °C 56 % 999,6 hPa 0,0 mm 15,0 km/h (3 Bft) W 259 ° 0 min 0,000 mm 0,0 UV-I 0 W/m² 1,4 °C 7,5 °C 20,9 km/h (4 Bft)
23.02.2017 23:30 9,7 °C 9,7 °C 56 % 999,7 hPa 0,0 mm 20,8 km/h (4 Bft) W-SW 242 ° 0 min 0,000 mm 0,0 UV-I 0 W/m² 1,4 °C 6,9 °C 33,8 km/h (5 Bft)
23.02.2017 23:31 9,7 °C 9,7 °C 56 % 999,7 hPa 0,0 mm 20,3 km/h (4 Bft) W-SW 250 ° 0 min 0,000 mm 0,0 UV-I 0 W/m² 1,4 °C 7,0 °C 29,0 km/h (5 Bft)
23.02.2017 23:32 9,7 °C 9,7 °C 57 % 999,6 hPa 0,0 mm 26,0 km/h (4 Bft) W-SW 252 ° 0 min 0,000 mm 0,0 UV-I 0 W/m² 1,6 °C 6,5 °C 41,8 km/h (6 Bft)
23.02.2017 23:33 9,7 °C 9,7 °C 57 % 999,6 hPa 0,0 mm 15,3 km/h (3 Bft) S-SW 205 ° 0 min 0,000 mm 0,0 UV-I 0 W/m² 1,6 °C 7,5 °C 22,5 km/h (4 Bft)
23.02.2017 23:34 9,7 °C 9,7 °C 57 % 999,6 hPa 0,0 mm 14,3 km/h (3 Bft) W-SW 239 ° 0 min 0,000 mm 0,0 UV-I 0 W/m² 1,6 °C 7,6 °C 24,1 km/h (4 Bft)
23.02.2017 23:35 9,6 °C 9,7 °C 57 % 999,7 hPa 0,0 mm 17,3 km/h (3 Bft) SW 216 ° 0 min 0,000 mm 0,0 UV-I 0 W/m² 1,5 °C 7,2 °C 30,6 km/h (5 Bft)
23.02.2017 23:36 9,6 °C 9,7 °C 57 % 999,5 hPa 0,0 mm 19,3 km/h (3 Bft) W 269 ° 0 min 0,000 mm 0,0 UV-I 0 W/m² 1,5 °C 6,9 °C 27,4 km/h (4 Bft)
23.02.2017 23:37 9,7 °C 9,7 °C 57 % 999,5 hPa 0,0 mm 15,5 km/h (3 Bft) W-NW 283 ° 0 min 0,000 mm 0,0 UV-I 0 W/m² 1,6 °C 7,5 °C 22,5 km/h (4 Bft)
23.02.2017 23:38 9,6 °C 9,7 °C 58 % 999,4 hPa 0,0 mm 17,3 km/h (3 Bft) W-SW 250 ° 0 min 0,000 mm 0,0 UV-I 0 W/m² 1,8 °C 7,2 °C 33,8 km/h (5 Bft)
23.02.2017 23:39 9,6 °C 9,6 °C 57 % 999,5 hPa 0,0 mm 25,1 km/h (4 Bft) W 273 ° 0 min 0,000 mm 0,0 UV-I 0 W/m² 1,5 °C 6,4 °C 33,8 km/h (5 Bft)
23.02.2017 23:40 9,6 °C 9,6 °C 57 % 999,5 hPa 0,0 mm 14,8 km/h (3 Bft) W 259 ° 0 min 0,000 mm 0,0 UV-I 0 W/m² 1,5 °C 7,4 °C 25,7 km/h (4 Bft)
23.02.2017 23:41 9,6 °C 9,6 °C 58 % 999,6 hPa 0,0 mm 17,4 km/h (3 Bft) W 265 ° 0 min 0,000 mm 0,0 UV-I 0 W/m² 1,8 °C 7,1 °C 25,7 km/h (4 Bft)
23.02.2017 23:42 9,6 °C 9,6 °C 58 % 999,6 hPa 0,0 mm 17,3 km/h (3 Bft) W 266 ° 0 min 0,000 mm 0,0 UV-I 0 W/m² 1,8 °C 7,2 °C 24,1 km/h (4 Bft)
23.02.2017 23:43 9,6 °C 9,6 °C 58 % 999,5 hPa 0,0 mm 16,1 km/h (3 Bft) S-SW 203 ° 0 min 0,000 mm 0,0 UV-I 0 W/m² 1,8 °C 7,3 °C 22,5 km/h (4 Bft)
23.02.2017 23:44 9,5 °C 9,6 °C 58 % 999,5 hPa 0,0 mm 11,5 km/h (2 Bft) W 269 ° 0 min 0,000 mm 0,0 UV-I 0 W/m² 1,7 °C 7,8 °C 25,7 km/h (4 Bft)
23.02.2017 23:45 9,4 °C 9,5 °C 59 % 999,5 hPa 0,0 mm 19,2 km/h (3 Bft) W-SW 250 ° 0 min 0,000 mm 0,0 UV-I 0 W/m² 1,8 °C 6,7 °C 25,7 km/h (4 Bft)
23.02.2017 23:46 9,4 °C 9,4 °C 59 % 999,6 hPa 0,0 mm 19,4 km/h (3 Bft) W-SW 240 ° 0 min 0,000 mm 0,0 UV-I 0 W/m² 1,8 °C 6,7 °C 29,0 km/h (5 Bft)
23.02.2017 23:47 9,4 °C 9,4 °C 59 % 999,6 hPa 0,0 mm 13,2 km/h (3 Bft) W-SW 248 ° 0 min 0,000 mm 0,0 UV-I 0 W/m² 1,8 °C 7,4 °C 22,5 km/h (4 Bft)
23.02.2017 23:48 9,4 °C 9,4 °C 59 % 999,7 hPa 0,0 mm 22,3 km/h (4 Bft) W 277 ° 0 min 0,000 mm 0,0 UV-I 0 W/m² 1,8 °C 6,4 °C 29,0 km/h (5 Bft)
23.02.2017 23:49 9,4 °C 9,4 °C 59 % 999,6 hPa 0,0 mm 13,6 km/h (3 Bft) W-NW 290 ° 0 min 0,000 mm 0,0 UV-I 0 W/m² 1,8 °C 7,4 °C 20,9 km/h (4 Bft)
23.02.2017 23:50 9,4 °C 9,4 °C 60 % 999,7 hPa 0,0 mm 20,1 km/h (4 Bft) W-SW 250 ° 0 min 0,000 mm 0,0 UV-I 0 W/m² 2,0 °C 6,6 °C 27,4 km/h (4 Bft)
23.02.2017 23:51 9,4 °C 9,4 °C 60 % 999,6 hPa 0,0 mm 12,8 km/h (3 Bft) W-SW 245 ° 0 min 0,000 mm 0,0 UV-I 0 W/m² 2,0 °C 7,5 °C 19,3 km/h (3 Bft)
23.02.2017 23:52 9,4 °C 9,4 °C 60 % 999,7 hPa 0,0 mm 16,4 km/h (3 Bft) W-NW 294 ° 0 min 0,000 mm 0,0 UV-I 0 W/m² 2,0 °C 7,0 °C 25,7 km/h (4 Bft)
23.02.2017 23:53 9,4 °C 9,4 °C 60 % 999,6 hPa 0,0 mm 26,0 km/h (4 Bft) W 263 ° 0 min 0,000 mm 0,0 UV-I 0 W/m² 2,0 °C 6,1 °C 38,6 km/h (5 Bft)
23.02.2017 23:54 9,3 °C 9,4 °C 60 % 999,7 hPa 0,0 mm 19,2 km/h (3 Bft) W-SW 256 ° 0 min 0,000 mm 0,0 UV-I 0 W/m² 1,9 °C 6,6 °C 25,7 km/h (4 Bft)
23.02.2017 23:55 9,3 °C 9,4 °C 60 % 999,7 hPa 0,0 mm 20,8 km/h (4 Bft) W-NW 288 ° 0 min 0,000 mm 0,0 UV-I 0 W/m² 1,9 °C 6,4 °C 27,4 km/h (4 Bft)
23.02.2017 23:56 9,3 °C 9,3 °C 61 % 999,6 hPa 0,0 mm 16,6 km/h (3 Bft) W 279 ° 0 min 0,000 mm 0,0 UV-I 0 W/m² 2,2 °C 6,9 °C 32,2 km/h (5 Bft)
23.02.2017 23:57 9,3 °C 9,3 °C 61 % 999,6 hPa 0,0 mm 19,1 km/h (3 Bft) W-SW 258 ° 0 min 0,000 mm 0,0 UV-I 0 W/m² 2,2 °C 6,6 °C 29,0 km/h (5 Bft)
23.02.2017 23:58 9,2 °C 9,3 °C 61 % 999,5 hPa 0,0 mm 17,4 km/h (3 Bft) W 277 ° 0 min 0,000 mm 0,0 UV-I 0 W/m² 2,1 °C 6,6 °C 22,5 km/h (4 Bft)
23.02.2017 23:59 9,2 °C 9,2 °C 61 % 999,7 hPa 0,0 mm 24,8 km/h (4 Bft) W-NW 290 ° 0 min 0,000 mm 0,0 UV-I 0 W/m² 2,1 °C 5,9 °C 37,0 km/h (5 Bft)
_ Min-Zeit 06:01 05:34 13:20 17:54 - 17:03 - - - - - - 13:20 04:46 03:46
Minimum _ 6,3 °C 6,3 °C 18 % 999,0 hPa - 3,1 km/h (1 Bft) - - - - - - -6,8 °C 3,3 °C 4,8 km/h (1 Bft)
_ Max-Zeit 13:39 13:40 04:34 01:03 23:59 20:33 - - 15:47 13:01 12:33 12:33 02:18 13:39 23:06
Maximum _ 18,1 °C 18,1 °C 72 % 1011,8 hPa 0,0 mm 37,7 km/h
SW (5 Bft)
- - 1 min 0,432 mm 3,4 UV-I 679 W/m² 2,7 °C 18,1 °C 51,5 km/h
W (7 Bft)
Durchschnitt _ 11,7 °C 11,7 °C 43 % 1005,1 hPa #0,0 mm 13,1 km/h (3 Bft) W-SW - #4:14 h #3,251 mm 1,8 UV-I 85 W/m² -1,7 °C 11,0 °C 19,9 km/h (4 Bft)